<?xml version="1.0" encoding="UTF-8" standalone="no" ?>
<gpx xmlns="http://www.topografix.com/GPX/1/1" xmlns:xsi="http://www.w3.org/2001/XMLSchema-instance" xsi:schemaLocation="http://www.topografix.com/GPX/1/1 http://www.topografix.com/GPX/1/1/gpx.xsd" version="1.1" creator="VisuGPX - https://www.visugpx.com">
  <metadata>
    <name>Lacs et pic d'Estibe Aute</name>
    <desc><![CDATA[C'est peu dire que ces lacs et ce pic se méritent !" qui remonte la vallée du Lutour, fin de la plaisanterie !
En quittant le GR à la côte 1600, changement radical de rythme et de topographie. Le sentier s'élève raide et en lacets serrés sur un terrain caillouteux à souhait. Il serpente entre les rochers qu?il faut souvent enjamber en s'aidant. Quelques chaos rocheux à traverser.

Une fois franchit ce "mur" et arrivé aux lacs, c'est loin d'être fini. Pour apprécier au mieux ces étendues d'eau, il faut s'élever un peu plus. Pour cela, il faut viser plein ouest à travers le chaos granitique pour passer entre les 2 lacs et s'aventurer sur la rive ouest du lac supérieur sur une hypothétique trace qui se perd dans la pente herbeuse en fort dévers.

Une fois passé au dessus du lac et avoir retrouvé un terrain plus stable, on retrouve une trace marquée, par-ci par-là, de quelques cairns, dans la succession de pierriers, de raillères aux cailloux bien roulants et de chaos?
Il faut viser légèrement à gauche du col qui fait face et d?où mène naturellement la combe à remonter.
De là, très belle vue sur la vallée de Gaube et le Vignemale.

Pour aller au pic, mieux vaut ranger les bâtons pour s?aider des mains et suivre la crête en léger contre-bas côté ouest.]]></desc>
  </metadata>
  <trk>
    <name><![CDATA[Move]]></name>
    <trkseg>
      <trkpt lat="42.82814" lon="-0.09866">
        <ele>1487</ele>
        <time>2019-08-04T06:37:41.499Z</time>
      </trkpt>
      <trkpt lat="42.82803" lon="-0.0986">
        <ele>1488</ele>
        <time>2019-08-04T06:37:49.499Z</time>
      </trkpt>
      <trkpt lat="42.83565" lon="-0.09659">
        <ele>1515</ele>
        <time>2019-08-04T06:50:54.483Z</time>
      </trkpt>
      <trkpt lat="42.83574" lon="-0.09661">
        <ele>1515</ele>
        <time>2019-08-04T06:50:58.488Z</time>
      </trkpt>
      <trkpt lat="42.83583" lon="-0.09669">
        <ele>1514</ele>
        <time>2019-08-04T06:51:07.483Z</time>
      </trkpt>
      <trkpt lat="42.83592" lon="-0.09673">
        <ele>1514</ele>
        <time>2019-08-04T06:51:26.487Z</time>
      </trkpt>
      <trkpt lat="42.83601" lon="-0.0968">
        <ele>1514</ele>
        <time>2019-08-04T06:52:04.483Z</time>
      </trkpt>
      <trkpt lat="42.83608" lon="-0.09672">
        <ele>1515</ele>
        <time>2019-08-04T06:53:54.724Z</time>
      </trkpt>
      <trkpt lat="42.83617" lon="-0.09669">
        <ele>1515</ele>
        <time>2019-08-04T06:54:02.724Z</time>
      </trkpt>
      <trkpt lat="42.83605" lon="-0.09669">
        <ele>1515</ele>
        <time>2019-08-04T06:54:06.724Z</time>
      </trkpt>
      <trkpt lat="42.83596" lon="-0.0967">
        <ele>1514</ele>
        <time>2019-08-04T06:54:15.724Z</time>
      </trkpt>
      <trkpt lat="42.83587" lon="-0.09671">
        <ele>1514</ele>
        <time>2019-08-04T06:54:22.724Z</time>
      </trkpt>
      <trkpt lat="42.83577" lon="-0.09668">
        <ele>1516</ele>
        <time>2019-08-04T06:54:35.724Z</time>
      </trkpt>
      <trkpt lat="42.83568" lon="-0.09664">
        <ele>1517</ele>
        <time>2019-08-04T06:54:47.724Z</time>
      </trkpt>
      <trkpt lat="42.83559" lon="-0.09658">
        <ele>1517</ele>
        <time>2019-08-04T06:54:55.724Z</time>
      </trkpt>
      <trkpt lat="42.83551" lon="-0.09651">
        <ele>1518</ele>
        <time>2019-08-04T06:55:08.724Z</time>
      </trkpt>
      <trkpt lat="42.83542" lon="-0.09644">
        <ele>1518</ele>
        <time>2019-08-04T06:55:15.724Z</time>
      </trkpt>
      <trkpt lat="42.83532" lon="-0.09646">
        <ele>1518</ele>
        <time>2019-08-04T06:55:25.724Z</time>
      </trkpt>
      <trkpt lat="42.83522" lon="-0.09642">
        <ele>1518</ele>
        <time>2019-08-04T06:55:34.724Z</time>
      </trkpt>
      <trkpt lat="42.83513" lon="-0.09645">
        <ele>1518</ele>
        <time>2019-08-04T06:55:42.724Z</time>
      </trkpt>
      <trkpt lat="42.83503" lon="-0.0965">
        <ele>1518</ele>
        <time>2019-08-04T06:55:49.724Z</time>
      </trkpt>
      <trkpt lat="42.83495" lon="-0.09641">
        <ele>1518</ele>
        <time>2019-08-04T06:55:58.724Z</time>
      </trkpt>
      <trkpt lat="42.83488" lon="-0.09633">
        <ele>1519</ele>
        <time>2019-08-04T06:56:08.711Z</time>
      </trkpt>
      <trkpt lat="42.83478" lon="-0.09634">
        <ele>1519</ele>
        <time>2019-08-04T06:56:17.724Z</time>
      </trkpt>
      <trkpt lat="42.83468" lon="-0.0963">
        <ele>1520</ele>
        <time>2019-08-04T06:56:26.724Z</time>
      </trkpt>
      <trkpt lat="42.83458" lon="-0.09629">
        <ele>1520</ele>
        <time>2019-08-04T06:56:35.724Z</time>
      </trkpt>
      <trkpt lat="42.83448" lon="-0.09634">
        <ele>1521</ele>
        <time>2019-08-04T06:56:45.724Z</time>
      </trkpt>
      <trkpt lat="42.83439" lon="-0.0964">
        <ele>1521</ele>
        <time>2019-08-04T06:56:54.724Z</time>
      </trkpt>
      <trkpt lat="42.83429" lon="-0.0964">
        <ele>1521</ele>
        <time>2019-08-04T06:57:01.684Z</time>
      </trkpt>
      <trkpt lat="42.8342" lon="-0.09637">
        <ele>1522</ele>
        <time>2019-08-04T06:57:09.724Z</time>
      </trkpt>
      <trkpt lat="42.8341" lon="-0.09643">
        <ele>1522</ele>
        <time>2019-08-04T06:57:19.739Z</time>
      </trkpt>
      <trkpt lat="42.83401" lon="-0.09643">
        <ele>1523</ele>
        <time>2019-08-04T06:57:30.724Z</time>
      </trkpt>
      <trkpt lat="42.83388" lon="-0.09644">
        <ele>1523</ele>
        <time>2019-08-04T06:57:40.724Z</time>
      </trkpt>
      <trkpt lat="42.83379" lon="-0.09648">
        <ele>1524</ele>
        <time>2019-08-04T06:57:48.710Z</time>
      </trkpt>
      <trkpt lat="42.83369" lon="-0.09646">
        <ele>1524</ele>
        <time>2019-08-04T06:57:56.724Z</time>
      </trkpt>
      <trkpt lat="42.8336" lon="-0.09642">
        <ele>1524.7581744979</ele>
        <time>2019-08-04T06:58:04.724Z</time>
      </trkpt>
      <trkpt lat="42.8335" lon="-0.0964">
        <ele>1526</ele>
        <time>2019-08-04T06:58:15.821Z</time>
      </trkpt>
      <trkpt lat="42.83344" lon="-0.0963">
        <ele>1530</ele>
        <time>2019-08-04T06:58:59.724Z</time>
      </trkpt>
      <trkpt lat="42.83331" lon="-0.09626">
        <ele>1531.7942754047</ele>
        <time>2019-08-04T06:59:06.724Z</time>
      </trkpt>
      <trkpt lat="42.83322" lon="-0.09623">
        <ele>1533</ele>
        <time>2019-08-04T06:59:14.724Z</time>
      </trkpt>
      <trkpt lat="42.83313" lon="-0.09622">
        <ele>1536</ele>
        <time>2019-08-04T06:59:27.724Z</time>
      </trkpt>
      <trkpt lat="42.83304" lon="-0.09619">
        <ele>1537</ele>
        <time>2019-08-04T06:59:41.724Z</time>
      </trkpt>
      <trkpt lat="42.83293" lon="-0.09624">
        <ele>1539.8339968</ele>
        <time>2019-08-04T06:59:54.724Z</time>
      </trkpt>
      <trkpt lat="42.83278" lon="-0.09629">
        <ele>1541</ele>
        <time>2019-08-04T07:00:10.724Z</time>
      </trkpt>
      <trkpt lat="42.83269" lon="-0.0963">
        <ele>1544</ele>
        <time>2019-08-04T07:00:20.725Z</time>
      </trkpt>
      <trkpt lat="42.83259" lon="-0.09629">
        <ele>1544</ele>
        <time>2019-08-04T07:00:28.724Z</time>
      </trkpt>
      <trkpt lat="42.83249" lon="-0.09628">
        <ele>1546</ele>
        <time>2019-08-04T07:00:43.724Z</time>
      </trkpt>
      <trkpt lat="42.83241" lon="-0.09634">
        <ele>1549</ele>
        <time>2019-08-04T07:00:59.724Z</time>
      </trkpt>
      <trkpt lat="42.83233" lon="-0.0964">
        <ele>1549</ele>
        <time>2019-08-04T07:01:07.724Z</time>
      </trkpt>
      <trkpt lat="42.83224" lon="-0.09646">
        <ele>1550</ele>
        <time>2019-08-04T07:01:20.724Z</time>
      </trkpt>
      <trkpt lat="42.83215" lon="-0.0965">
        <ele>1550.8215013213</ele>
        <time>2019-08-04T07:01:28.724Z</time>
      </trkpt>
      <trkpt lat="42.83206" lon="-0.09653">
        <ele>1551</ele>
        <time>2019-08-04T07:01:38.724Z</time>
      </trkpt>
      <trkpt lat="42.83196" lon="-0.09655">
        <ele>1551</ele>
        <time>2019-08-04T07:01:44.724Z</time>
      </trkpt>
      <trkpt lat="42.83187" lon="-0.09658">
        <ele>1551</ele>
        <time>2019-08-04T07:01:50.724Z</time>
      </trkpt>
      <trkpt lat="42.83178" lon="-0.09665">
        <ele>1552</ele>
        <time>2019-08-04T07:02:04.724Z</time>
      </trkpt>
      <trkpt lat="42.83168" lon="-0.09668">
        <ele>1552</ele>
        <time>2019-08-04T07:02:12.724Z</time>
      </trkpt>
      <trkpt lat="42.83158" lon="-0.09667">
        <ele>1553</ele>
        <time>2019-08-04T07:02:20.724Z</time>
      </trkpt>
      <trkpt lat="42.83149" lon="-0.09673">
        <ele>1553</ele>
        <time>2019-08-04T07:02:29.724Z</time>
      </trkpt>
      <trkpt lat="42.8314" lon="-0.09674">
        <ele>1553</ele>
        <time>2019-08-04T07:02:38.724Z</time>
      </trkpt>
      <trkpt lat="42.83133" lon="-0.09683">
        <ele>1555</ele>
        <time>2019-08-04T07:02:55.724Z</time>
      </trkpt>
      <trkpt lat="42.83124" lon="-0.09686">
        <ele>1553</ele>
        <time>2019-08-04T07:03:05.724Z</time>
      </trkpt>
      <trkpt lat="42.83115" lon="-0.09689">
        <ele>1555</ele>
        <time>2019-08-04T07:03:19.724Z</time>
      </trkpt>
      <trkpt lat="42.8311" lon="-0.09699">
        <ele>1554.2486536976</ele>
        <time>2019-08-04T07:03:30.724Z</time>
      </trkpt>
      <trkpt lat="42.83107" lon="-0.09712">
        <ele>1553</ele>
        <time>2019-08-04T07:03:38.724Z</time>
      </trkpt>
      <trkpt lat="42.83097" lon="-0.09712">
        <ele>1553</ele>
        <time>2019-08-04T07:03:50.724Z</time>
      </trkpt>
      <trkpt lat="42.83087" lon="-0.0971">
        <ele>1552.2628640392</ele>
        <time>2019-08-04T07:04:00.724Z</time>
      </trkpt>
      <trkpt lat="42.83078" lon="-0.09712">
        <ele>1553</ele>
        <time>2019-08-04T07:04:11.724Z</time>
      </trkpt>
      <trkpt lat="42.83072" lon="-0.09701">
        <ele>1553</ele>
        <time>2019-08-04T07:04:20.724Z</time>
      </trkpt>
      <trkpt lat="42.83062" lon="-0.09708">
        <ele>1553</ele>
        <time>2019-08-04T07:04:30.724Z</time>
      </trkpt>
      <trkpt lat="42.83052" lon="-0.09711">
        <ele>1553</ele>
        <time>2019-08-04T07:04:39.724Z</time>
      </trkpt>
      <trkpt lat="42.83043" lon="-0.09706">
        <ele>1554</ele>
        <time>2019-08-04T07:04:51.724Z</time>
      </trkpt>
      <trkpt lat="42.83034" lon="-0.09712">
        <ele>1556</ele>
        <time>2019-08-04T07:05:01.724Z</time>
      </trkpt>
      <trkpt lat="42.83025" lon="-0.09715">
        <ele>1556</ele>
        <time>2019-08-04T07:05:12.724Z</time>
      </trkpt>
      <trkpt lat="42.83016" lon="-0.0971">
        <ele>1556</ele>
        <time>2019-08-04T07:05:23.724Z</time>
      </trkpt>
      <trkpt lat="42.83007" lon="-0.09706">
        <ele>1556</ele>
        <time>2019-08-04T07:05:31.724Z</time>
      </trkpt>
      <trkpt lat="42.82997" lon="-0.09708">
        <ele>1557</ele>
        <time>2019-08-04T07:05:39.724Z</time>
      </trkpt>
      <trkpt lat="42.82988" lon="-0.09711">
        <ele>1558</ele>
        <time>2019-08-04T07:05:46.724Z</time>
      </trkpt>
      <trkpt lat="42.82978" lon="-0.09708">
        <ele>1558</ele>
        <time>2019-08-04T07:05:55.724Z</time>
      </trkpt>
      <trkpt lat="42.82968" lon="-0.09709">
        <ele>1558</ele>
        <time>2019-08-04T07:06:07.724Z</time>
      </trkpt>
      <trkpt lat="42.82958" lon="-0.09702">
        <ele>1558</ele>
        <time>2019-08-04T07:06:17.724Z</time>
      </trkpt>
      <trkpt lat="42.82948" lon="-0.09703">
        <ele>1558</ele>
        <time>2019-08-04T07:06:26.724Z</time>
      </trkpt>
      <trkpt lat="42.82938" lon="-0.09702">
        <ele>1560</ele>
        <time>2019-08-04T07:06:35.724Z</time>
      </trkpt>
      <trkpt lat="42.82928" lon="-0.09699">
        <ele>1561</ele>
        <time>2019-08-04T07:06:49.724Z</time>
      </trkpt>
      <trkpt lat="42.8292" lon="-0.09694">
        <ele>1562</ele>
        <time>2019-08-04T07:06:59.724Z</time>
      </trkpt>
      <trkpt lat="42.82911" lon="-0.09682">
        <ele>1564</ele>
        <time>2019-08-04T07:07:14.724Z</time>
      </trkpt>
      <trkpt lat="42.82902" lon="-0.09672">
        <ele>1565</ele>
        <time>2019-08-04T07:07:19.724Z</time>
      </trkpt>
      <trkpt lat="42.82893" lon="-0.09673">
        <ele>1565</ele>
        <time>2019-08-04T07:07:27.724Z</time>
      </trkpt>
      <trkpt lat="42.82884" lon="-0.09673">
        <ele>1565</ele>
        <time>2019-08-04T07:07:36.724Z</time>
      </trkpt>
      <trkpt lat="42.82876" lon="-0.09667">
        <ele>1565</ele>
        <time>2019-08-04T07:07:50.724Z</time>
      </trkpt>
      <trkpt lat="42.82867" lon="-0.09666">
        <ele>1567</ele>
        <time>2019-08-04T07:08:00.724Z</time>
      </trkpt>
      <trkpt lat="42.82859" lon="-0.0966">
        <ele>1567</ele>
        <time>2019-08-04T07:08:09.724Z</time>
      </trkpt>
      <trkpt lat="42.82848" lon="-0.09662">
        <ele>1568</ele>
        <time>2019-08-04T07:08:19.724Z</time>
      </trkpt>
      <trkpt lat="42.82841" lon="-0.09652">
        <ele>1569</ele>
        <time>2019-08-04T07:08:27.825Z</time>
      </trkpt>
      <trkpt lat="42.82834" lon="-0.09641">
        <ele>1569</ele>
        <time>2019-08-04T07:08:39.724Z</time>
      </trkpt>
      <trkpt lat="42.82824" lon="-0.09641">
        <ele>1570</ele>
        <time>2019-08-04T07:08:51.724Z</time>
      </trkpt>
      <trkpt lat="42.82813" lon="-0.09639">
        <ele>1571</ele>
        <time>2019-08-04T07:09:09.724Z</time>
      </trkpt>
      <trkpt lat="42.82802" lon="-0.09636">
        <ele>1572</ele>
        <time>2019-08-04T07:09:18.724Z</time>
      </trkpt>
      <trkpt lat="42.82798" lon="-0.09647">
        <ele>1573</ele>
        <time>2019-08-04T07:09:28.724Z</time>
      </trkpt>
      <trkpt lat="42.82788" lon="-0.09645">
        <ele>1573</ele>
        <time>2019-08-04T07:09:39.724Z</time>
      </trkpt>
      <trkpt lat="42.82782" lon="-0.09654">
        <ele>1574</ele>
        <time>2019-08-04T07:09:51.724Z</time>
      </trkpt>
      <trkpt lat="42.82773" lon="-0.09662">
        <ele>1574</ele>
        <time>2019-08-04T07:09:59.724Z</time>
      </trkpt>
      <trkpt lat="42.82766" lon="-0.09674">
        <ele>1576</ele>
        <time>2019-08-04T07:10:12.724Z</time>
      </trkpt>
      <trkpt lat="42.82756" lon="-0.0968">
        <ele>1576</ele>
        <time>2019-08-04T07:10:26.724Z</time>
      </trkpt>
      <trkpt lat="42.82747" lon="-0.09686">
        <ele>1577</ele>
        <time>2019-08-04T07:10:36.724Z</time>
      </trkpt>
      <trkpt lat="42.8274" lon="-0.09694">
        <ele>1577</ele>
        <time>2019-08-04T07:10:43.714Z</time>
      </trkpt>
      <trkpt lat="42.82731" lon="-0.09697">
        <ele>1577</ele>
        <time>2019-08-04T07:10:50.724Z</time>
      </trkpt>
      <trkpt lat="42.82722" lon="-0.09698">
        <ele>1578</ele>
        <time>2019-08-04T07:11:00.724Z</time>
      </trkpt>
      <trkpt lat="42.82713" lon="-0.09696">
        <ele>1578.8339968</ele>
        <time>2019-08-04T07:11:12.724Z</time>
      </trkpt>
      <trkpt lat="42.82702" lon="-0.09694">
        <ele>1579.8340096</ele>
        <time>2019-08-04T07:11:23.724Z</time>
      </trkpt>
      <trkpt lat="42.82693" lon="-0.09695">
        <ele>1580</ele>
        <time>2019-08-04T07:11:31.724Z</time>
      </trkpt>
      <trkpt lat="42.82684" lon="-0.09701">
        <ele>1580</ele>
        <time>2019-08-04T07:11:39.724Z</time>
      </trkpt>
      <trkpt lat="42.82675" lon="-0.09705">
        <ele>1580.8339968</ele>
        <time>2019-08-04T07:11:48.724Z</time>
      </trkpt>
      <trkpt lat="42.82665" lon="-0.09704">
        <ele>1580</ele>
        <time>2019-08-04T07:12:01.724Z</time>
      </trkpt>
      <trkpt lat="42.82657" lon="-0.09695">
        <ele>1581</ele>
        <time>2019-08-04T07:12:11.724Z</time>
      </trkpt>
      <trkpt lat="42.82648" lon="-0.09693">
        <ele>1582</ele>
        <time>2019-08-04T07:12:20.724Z</time>
      </trkpt>
      <trkpt lat="42.82639" lon="-0.09696">
        <ele>1582</ele>
        <time>2019-08-04T07:12:26.724Z</time>
      </trkpt>
      <trkpt lat="42.8263" lon="-0.09693">
        <ele>1581</ele>
        <time>2019-08-04T07:12:37.724Z</time>
      </trkpt>
      <trkpt lat="42.82621" lon="-0.09697">
        <ele>1580</ele>
        <time>2019-08-04T07:12:46.724Z</time>
      </trkpt>
      <trkpt lat="42.82611" lon="-0.09698">
        <ele>1579</ele>
        <time>2019-08-04T07:12:59.724Z</time>
      </trkpt>
      <trkpt lat="42.82603" lon="-0.09704">
        <ele>1579</ele>
        <time>2019-08-04T07:13:06.724Z</time>
      </trkpt>
      <trkpt lat="42.82591" lon="-0.09707">
        <ele>1579</ele>
        <time>2019-08-04T07:13:20.724Z</time>
      </trkpt>
      <trkpt lat="42.82582" lon="-0.09707">
        <ele>1579</ele>
        <time>2019-08-04T07:13:27.724Z</time>
      </trkpt>
      <trkpt lat="42.82573" lon="-0.09705">
        <ele>1581</ele>
        <time>2019-08-04T07:13:41.724Z</time>
      </trkpt>
      <trkpt lat="42.82564" lon="-0.09703">
        <ele>1581</ele>
        <time>2019-08-04T07:13:50.724Z</time>
      </trkpt>
      <trkpt lat="42.82555" lon="-0.09697">
        <ele>1582</ele>
        <time>2019-08-04T07:14:04.724Z</time>
      </trkpt>
      <trkpt lat="42.82547" lon="-0.09704">
        <ele>1582.8270933333</ele>
        <time>2019-08-04T07:14:11.724Z</time>
      </trkpt>
      <trkpt lat="42.8254" lon="-0.09713">
        <ele>1583</ele>
        <time>2019-08-04T07:14:17.724Z</time>
      </trkpt>
      <trkpt lat="42.82531" lon="-0.09717">
        <ele>1583</ele>
        <time>2019-08-04T07:14:28.724Z</time>
      </trkpt>
      <trkpt lat="42.82522" lon="-0.09711">
        <ele>1583</ele>
        <time>2019-08-04T07:14:38.724Z</time>
      </trkpt>
      <trkpt lat="42.82513" lon="-0.09712">
        <ele>1583</ele>
        <time>2019-08-04T07:14:45.724Z</time>
      </trkpt>
      <trkpt lat="42.82504" lon="-0.09717">
        <ele>1583</ele>
        <time>2019-08-04T07:14:52.724Z</time>
      </trkpt>
      <trkpt lat="42.82494" lon="-0.0972">
        <ele>1583</ele>
        <time>2019-08-04T07:15:00.724Z</time>
      </trkpt>
      <trkpt lat="42.82485" lon="-0.09724">
        <ele>1584</ele>
        <time>2019-08-04T07:15:09.724Z</time>
      </trkpt>
      <trkpt lat="42.82476" lon="-0.09727">
        <ele>1585</ele>
        <time>2019-08-04T07:15:24.724Z</time>
      </trkpt>
      <trkpt lat="42.82475" lon="-0.0974">
        <ele>1584</ele>
        <time>2019-08-04T07:15:43.724Z</time>
      </trkpt>
      <trkpt lat="42.8248" lon="-0.09752">
        <ele>1585</ele>
        <time>2019-08-04T07:16:02.724Z</time>
      </trkpt>
      <trkpt lat="42.82488" lon="-0.09756">
        <ele>1586</ele>
        <time>2019-08-04T07:16:37.724Z</time>
      </trkpt>
      <trkpt lat="42.82479" lon="-0.09755">
        <ele>1586</ele>
        <time>2019-08-04T07:16:50.724Z</time>
      </trkpt>
      <trkpt lat="42.8247" lon="-0.09749">
        <ele>1587</ele>
        <time>2019-08-04T07:18:00.724Z</time>
      </trkpt>
      <trkpt lat="42.82479" lon="-0.09753">
        <ele>1588</ele>
        <time>2019-08-04T07:18:21.724Z</time>
      </trkpt>
      <trkpt lat="42.82472" lon="-0.09744">
        <ele>1589</ele>
        <time>2019-08-04T07:18:49.724Z</time>
      </trkpt>
      <trkpt lat="42.82467" lon="-0.09735">
        <ele>1589</ele>
        <time>2019-08-04T07:19:01.724Z</time>
      </trkpt>
      <trkpt lat="42.82461" lon="-0.09724">
        <ele>1588</ele>
        <time>2019-08-04T07:19:12.724Z</time>
      </trkpt>
      <trkpt lat="42.82471" lon="-0.09729">
        <ele>1589</ele>
        <time>2019-08-04T07:19:16.724Z</time>
      </trkpt>
      <trkpt lat="42.82479" lon="-0.09737">
        <ele>1588.5701513067</ele>
        <time>2019-08-04T07:19:47.724Z</time>
      </trkpt>
      <trkpt lat="42.82469" lon="-0.09736">
        <ele>1588</ele>
        <time>2019-08-04T07:20:04.724Z</time>
      </trkpt>
      <trkpt lat="42.8246" lon="-0.09731">
        <ele>1588</ele>
        <time>2019-08-04T07:20:10.724Z</time>
      </trkpt>
      <trkpt lat="42.82453" lon="-0.09723">
        <ele>1587</ele>
        <time>2019-08-04T07:20:36.724Z</time>
      </trkpt>
      <trkpt lat="42.82444" lon="-0.09718">
        <ele>1587</ele>
        <time>2019-08-04T07:20:43.713Z</time>
      </trkpt>
      <trkpt lat="42.82433" lon="-0.09713">
        <ele>1587</ele>
        <time>2019-08-04T07:21:17.724Z</time>
      </trkpt>
      <trkpt lat="42.82424" lon="-0.0971">
        <ele>1587</ele>
        <time>2019-08-04T07:22:27.724Z</time>
      </trkpt>
      <trkpt lat="42.82417" lon="-0.09701">
        <ele>1587</ele>
        <time>2019-08-04T07:23:01.724Z</time>
      </trkpt>
      <trkpt lat="42.82413" lon="-0.09712">
        <ele>1588</ele>
        <time>2019-08-04T07:23:21.724Z</time>
      </trkpt>
      <trkpt lat="42.82404" lon="-0.09716">
        <ele>1588</ele>
        <time>2019-08-04T07:23:30.724Z</time>
      </trkpt>
      <trkpt lat="42.82394" lon="-0.0972">
        <ele>1589</ele>
        <time>2019-08-04T07:23:37.724Z</time>
      </trkpt>
      <trkpt lat="42.82386" lon="-0.09726">
        <ele>1589</ele>
        <time>2019-08-04T07:23:47.724Z</time>
      </trkpt>
      <trkpt lat="42.82377" lon="-0.0973">
        <ele>1590</ele>
        <time>2019-08-04T07:23:55.724Z</time>
      </trkpt>
      <trkpt lat="42.82368" lon="-0.09733">
        <ele>1590</ele>
        <time>2019-08-04T07:24:04.724Z</time>
      </trkpt>
      <trkpt lat="42.82359" lon="-0.09739">
        <ele>1591</ele>
        <time>2019-08-04T07:24:15.724Z</time>
      </trkpt>
      <trkpt lat="42.82349" lon="-0.0974">
        <ele>1590.290532074</ele>
        <time>2019-08-04T07:24:24.724Z</time>
      </trkpt>
      <trkpt lat="42.8234" lon="-0.09739">
        <ele>1590</ele>
        <time>2019-08-04T07:24:32.724Z</time>
      </trkpt>
      <trkpt lat="42.8233" lon="-0.09736">
        <ele>1591</ele>
        <time>2019-08-04T07:24:42.724Z</time>
      </trkpt>
      <trkpt lat="42.8232" lon="-0.09727">
        <ele>1591</ele>
        <time>2019-08-04T07:24:47.724Z</time>
      </trkpt>
      <trkpt lat="42.82312" lon="-0.09719">
        <ele>1591</ele>
        <time>2019-08-04T07:24:51.724Z</time>
      </trkpt>
      <trkpt lat="42.82303" lon="-0.09717">
        <ele>1591</ele>
        <time>2019-08-04T07:25:03.724Z</time>
      </trkpt>
      <trkpt lat="42.82294" lon="-0.09719">
        <ele>1592</ele>
        <time>2019-08-04T07:25:15.724Z</time>
      </trkpt>
      <trkpt lat="42.82285" lon="-0.09723">
        <ele>1592</ele>
        <time>2019-08-04T07:25:25.724Z</time>
      </trkpt>
      <trkpt lat="42.82276" lon="-0.09722">
        <ele>1593.8047013824</ele>
        <time>2019-08-04T07:25:34.724Z</time>
      </trkpt>
      <trkpt lat="42.82266" lon="-0.09723">
        <ele>1594</ele>
        <time>2019-08-04T07:25:42.724Z</time>
      </trkpt>
      <trkpt lat="42.82256" lon="-0.09726">
        <ele>1595</ele>
        <time>2019-08-04T07:25:51.724Z</time>
      </trkpt>
      <trkpt lat="42.82247" lon="-0.0973">
        <ele>1595</ele>
        <time>2019-08-04T07:25:59.724Z</time>
      </trkpt>
      <trkpt lat="42.82238" lon="-0.09735">
        <ele>1595.7811827066</ele>
        <time>2019-08-04T07:26:09.724Z</time>
      </trkpt>
      <trkpt lat="42.82229" lon="-0.0974">
        <ele>1596</ele>
        <time>2019-08-04T07:26:18.724Z</time>
      </trkpt>
      <trkpt lat="42.82221" lon="-0.09748">
        <ele>1597</ele>
        <time>2019-08-04T07:26:26.724Z</time>
      </trkpt>
      <trkpt lat="42.82213" lon="-0.09755">
        <ele>1598</ele>
        <time>2019-08-04T07:26:34.724Z</time>
      </trkpt>
      <trkpt lat="42.82205" lon="-0.09761">
        <ele>1600</ele>
        <time>2019-08-04T07:26:44.724Z</time>
      </trkpt>
      <trkpt lat="42.82196" lon="-0.09765">
        <ele>1600</ele>
        <time>2019-08-04T07:26:57.724Z</time>
      </trkpt>
      <trkpt lat="42.82191" lon="-0.09776">
        <ele>1602</ele>
        <time>2019-08-04T07:27:07.724Z</time>
      </trkpt>
      <trkpt lat="42.82182" lon="-0.0978">
        <ele>1603</ele>
        <time>2019-08-04T07:27:19.724Z</time>
      </trkpt>
      <trkpt lat="42.82173" lon="-0.09784">
        <ele>1605</ele>
        <time>2019-08-04T07:27:33.724Z</time>
      </trkpt>
      <trkpt lat="42.82164" lon="-0.09787">
        <ele>1606</ele>
        <time>2019-08-04T07:27:43.724Z</time>
      </trkpt>
      <trkpt lat="42.82155" lon="-0.09791">
        <ele>1606</ele>
        <time>2019-08-04T07:27:54.724Z</time>
      </trkpt>
      <trkpt lat="42.82145" lon="-0.09791">
        <ele>1608</ele>
        <time>2019-08-04T07:28:11.724Z</time>
      </trkpt>
      <trkpt lat="42.82138" lon="-0.0979">
        <ele>1609</ele>
        <time>2019-08-04T07:28:19.724Z</time>
      </trkpt>
      <trkpt lat="42.82129" lon="-0.09795">
        <ele>1610</ele>
        <time>2019-08-04T07:28:31.724Z</time>
      </trkpt>
      <trkpt lat="42.82123" lon="-0.09804">
        <ele>1611</ele>
        <time>2019-08-04T07:28:42.724Z</time>
      </trkpt>
      <trkpt lat="42.82113" lon="-0.09806">
        <ele>1611</ele>
        <time>2019-08-04T07:28:53.724Z</time>
      </trkpt>
      <trkpt lat="42.82104" lon="-0.09803">
        <ele>1611</ele>
        <time>2019-08-04T07:29:03.724Z</time>
      </trkpt>
      <trkpt lat="42.82095" lon="-0.09801">
        <ele>1612</ele>
        <time>2019-08-04T07:29:13.724Z</time>
      </trkpt>
      <trkpt lat="42.82087" lon="-0.09807">
        <ele>1612</ele>
        <time>2019-08-04T07:29:23.724Z</time>
      </trkpt>
      <trkpt lat="42.82078" lon="-0.09804">
        <ele>1612</ele>
        <time>2019-08-04T07:29:36.724Z</time>
      </trkpt>
      <trkpt lat="42.8207" lon="-0.09799">
        <ele>1614</ele>
        <time>2019-08-04T07:29:46.724Z</time>
      </trkpt>
      <trkpt lat="42.8206" lon="-0.09799">
        <ele>1615</ele>
        <time>2019-08-04T07:29:57.724Z</time>
      </trkpt>
      <trkpt lat="42.82051" lon="-0.09797">
        <ele>1616</ele>
        <time>2019-08-04T07:30:08.724Z</time>
      </trkpt>
      <trkpt lat="42.82042" lon="-0.09798">
        <ele>1617</ele>
        <time>2019-08-04T07:30:18.724Z</time>
      </trkpt>
      <trkpt lat="42.82032" lon="-0.09795">
        <ele>1618.6863563636</ele>
        <time>2019-08-04T07:30:30.724Z</time>
      </trkpt>
      <trkpt lat="42.82024" lon="-0.09803">
        <ele>1620</ele>
        <time>2019-08-04T07:30:39.724Z</time>
      </trkpt>
      <trkpt lat="42.82014" lon="-0.098">
        <ele>1621</ele>
        <time>2019-08-04T07:30:53.724Z</time>
      </trkpt>
      <trkpt lat="42.82006" lon="-0.09805">
        <ele>1622</ele>
        <time>2019-08-04T07:31:04.724Z</time>
      </trkpt>
      <trkpt lat="42.81999" lon="-0.09813">
        <ele>1624</ele>
        <time>2019-08-04T07:31:17.724Z</time>
      </trkpt>
      <trkpt lat="42.81991" lon="-0.09822">
        <ele>1625</ele>
        <time>2019-08-04T07:31:27.724Z</time>
      </trkpt>
      <trkpt lat="42.81982" lon="-0.09826">
        <ele>1626.627343938</ele>
        <time>2019-08-04T07:31:38.724Z</time>
      </trkpt>
      <trkpt lat="42.81975" lon="-0.09833">
        <ele>1627.5761980952</ele>
        <time>2019-08-04T07:31:47.724Z</time>
      </trkpt>
      <trkpt lat="42.81965" lon="-0.09836">
        <ele>1630</ele>
        <time>2019-08-04T07:32:04.724Z</time>
      </trkpt>
      <trkpt lat="42.81956" lon="-0.09838">
        <ele>1631</ele>
        <time>2019-08-04T07:32:12.724Z</time>
      </trkpt>
      <trkpt lat="42.81946" lon="-0.09837">
        <ele>1630</ele>
        <time>2019-08-04T07:32:19.724Z</time>
      </trkpt>
      <trkpt lat="42.81937" lon="-0.09834">
        <ele>1630</ele>
        <time>2019-08-04T07:32:26.724Z</time>
      </trkpt>
      <trkpt lat="42.81928" lon="-0.09832">
        <ele>1630</ele>
        <time>2019-08-04T07:32:35.724Z</time>
      </trkpt>
      <trkpt lat="42.81919" lon="-0.09838">
        <ele>1630.802392381</ele>
        <time>2019-08-04T07:32:43.724Z</time>
      </trkpt>
      <trkpt lat="42.81912" lon="-0.09829">
        <ele>1630.224768685</ele>
        <time>2019-08-04T07:32:52.724Z</time>
      </trkpt>
      <trkpt lat="42.81903" lon="-0.0983">
        <ele>1630</ele>
        <time>2019-08-04T07:33:00.724Z</time>
      </trkpt>
      <trkpt lat="42.81895" lon="-0.09828">
        <ele>1630</ele>
        <time>2019-08-04T07:33:08.724Z</time>
      </trkpt>
      <trkpt lat="42.81893" lon="-0.09827">
        <ele>1630</ele>
        <time>2019-08-04T07:33:10.724Z</time>
      </trkpt>
      <trkpt lat="42.81891" lon="-0.09827">
        <ele>1630</ele>
        <time>2019-08-04T07:33:12.724Z</time>
      </trkpt>
      <trkpt lat="42.81888" lon="-0.09827">
        <ele>1630</ele>
        <time>2019-08-04T07:33:15.724Z</time>
      </trkpt>
      <trkpt lat="42.81895" lon="-0.09822">
        <ele>1632</ele>
        <time>2019-08-04T07:33:36.724Z</time>
      </trkpt>
      <trkpt lat="42.81898" lon="-0.09823">
        <ele>1631</ele>
        <time>2019-08-04T07:33:39.724Z</time>
      </trkpt>
      <trkpt lat="42.81899" lon="-0.09826">
        <ele>1632</ele>
        <time>2019-08-04T07:33:45.724Z</time>
      </trkpt>
      <trkpt lat="42.81898" lon="-0.09829">
        <ele>1632</ele>
        <time>2019-08-04T07:33:48.724Z</time>
      </trkpt>
      <trkpt lat="42.81891" lon="-0.09838">
        <ele>1633.77856</ele>
        <time>2019-08-04T07:34:00.724Z</time>
      </trkpt>
      <trkpt lat="42.81884" lon="-0.09844">
        <ele>1636</ele>
        <time>2019-08-04T07:34:09.724Z</time>
      </trkpt>
      <trkpt lat="42.81882" lon="-0.09842">
        <ele>1636</ele>
        <time>2019-08-04T07:34:12.724Z</time>
      </trkpt>
      <trkpt lat="42.81881" lon="-0.0984">
        <ele>1637</ele>
        <time>2019-08-04T07:34:14.724Z</time>
      </trkpt>
      <trkpt lat="42.81879" lon="-0.09845">
        <ele>1637</ele>
        <time>2019-08-04T07:34:21.724Z</time>
      </trkpt>
      <trkpt lat="42.8187" lon="-0.09861">
        <ele>1638</ele>
        <time>2019-08-04T07:35:00.724Z</time>
      </trkpt>
      <trkpt lat="42.8188" lon="-0.09864">
        <ele>1639</ele>
        <time>2019-08-04T07:35:15.724Z</time>
      </trkpt>
      <trkpt lat="42.81884" lon="-0.09875">
        <ele>1643</ele>
        <time>2019-08-04T07:35:31.724Z</time>
      </trkpt>
      <trkpt lat="42.81887" lon="-0.09887">
        <ele>1646</ele>
        <time>2019-08-04T07:35:48.724Z</time>
      </trkpt>
      <trkpt lat="42.81889" lon="-0.099">
        <ele>1647</ele>
        <time>2019-08-04T07:35:58.724Z</time>
      </trkpt>
      <trkpt lat="42.81887" lon="-0.09911">
        <ele>1649</ele>
        <time>2019-08-04T07:36:08.724Z</time>
      </trkpt>
      <trkpt lat="42.81887" lon="-0.09914">
        <ele>1651</ele>
        <time>2019-08-04T07:36:11.724Z</time>
      </trkpt>
      <trkpt lat="42.81885" lon="-0.09915">
        <ele>1651</ele>
        <time>2019-08-04T07:36:13.724Z</time>
      </trkpt>
      <trkpt lat="42.81879" lon="-0.09925">
        <ele>1652.595008</ele>
        <time>2019-08-04T07:36:25.724Z</time>
      </trkpt>
      <trkpt lat="42.81878" lon="-0.09937">
        <ele>1655</ele>
        <time>2019-08-04T07:36:39.724Z</time>
      </trkpt>
      <trkpt lat="42.81878" lon="-0.0995">
        <ele>1659</ele>
        <time>2019-08-04T07:37:03.724Z</time>
      </trkpt>
      <trkpt lat="42.81875" lon="-0.09963">
        <ele>1661</ele>
        <time>2019-08-04T07:37:16.724Z</time>
      </trkpt>
      <trkpt lat="42.81872" lon="-0.09975">
        <ele>1662</ele>
        <time>2019-08-04T07:37:28.724Z</time>
      </trkpt>
      <trkpt lat="42.81866" lon="-0.09984">
        <ele>1664</ele>
        <time>2019-08-04T07:37:41.724Z</time>
      </trkpt>
      <trkpt lat="42.81867" lon="-0.09997">
        <ele>1667</ele>
        <time>2019-08-04T07:37:52.724Z</time>
      </trkpt>
      <trkpt lat="42.81869" lon="-0.1001">
        <ele>1670</ele>
        <time>2019-08-04T07:38:12.724Z</time>
      </trkpt>
      <trkpt lat="42.81865" lon="-0.10022">
        <ele>1672</ele>
        <time>2019-08-04T07:38:41.724Z</time>
      </trkpt>
      <trkpt lat="42.81859" lon="-0.10032">
        <ele>1673</ele>
        <time>2019-08-04T07:38:52.724Z</time>
      </trkpt>
      <trkpt lat="42.81854" lon="-0.10044">
        <ele>1676</ele>
        <time>2019-08-04T07:39:05.724Z</time>
      </trkpt>
      <trkpt lat="42.81844" lon="-0.10042">
        <ele>1677.8340096</ele>
        <time>2019-08-04T07:39:21.724Z</time>
      </trkpt>
      <trkpt lat="42.81833" lon="-0.10046">
        <ele>1681</ele>
        <time>2019-08-04T07:39:45.724Z</time>
      </trkpt>
      <trkpt lat="42.81833" lon="-0.10059">
        <ele>1686.8220032</ele>
        <time>2019-08-04T07:40:14.712Z</time>
      </trkpt>
      <trkpt lat="42.81824" lon="-0.10063">
        <ele>1688.8155506884</ele>
        <time>2019-08-04T07:40:26.724Z</time>
      </trkpt>
      <trkpt lat="42.8182" lon="-0.10074">
        <ele>1695</ele>
        <time>2019-08-04T07:41:06.724Z</time>
      </trkpt>
      <trkpt lat="42.8181" lon="-0.10077">
        <ele>1698</ele>
        <time>2019-08-04T07:41:21.724Z</time>
      </trkpt>
      <trkpt lat="42.81802" lon="-0.10086">
        <ele>1701</ele>
        <time>2019-08-04T07:41:41.724Z</time>
      </trkpt>
      <trkpt lat="42.81798" lon="-0.10075">
        <ele>1704</ele>
        <time>2019-08-04T07:41:55.725Z</time>
      </trkpt>
      <trkpt lat="42.81793" lon="-0.10086">
        <ele>1706.73304</ele>
        <time>2019-08-04T07:42:12.711Z</time>
      </trkpt>
      <trkpt lat="42.81789" lon="-0.10098">
        <ele>1710</ele>
        <time>2019-08-04T07:42:38.724Z</time>
      </trkpt>
      <trkpt lat="42.81779" lon="-0.10103">
        <ele>1714</ele>
        <time>2019-08-04T07:43:04.724Z</time>
      </trkpt>
      <trkpt lat="42.81771" lon="-0.10111">
        <ele>1719</ele>
        <time>2019-08-04T07:43:23.724Z</time>
      </trkpt>
      <trkpt lat="42.81762" lon="-0.10111">
        <ele>1720.7867846836</ele>
        <time>2019-08-04T07:43:46.724Z</time>
      </trkpt>
      <trkpt lat="42.81756" lon="-0.10123">
        <ele>1724</ele>
        <time>2019-08-04T07:44:11.724Z</time>
      </trkpt>
      <trkpt lat="42.81751" lon="-0.10137">
        <ele>1729</ele>
        <time>2019-08-04T07:44:37.724Z</time>
      </trkpt>
      <trkpt lat="42.81747" lon="-0.10149">
        <ele>1736.69616</ele>
        <time>2019-08-04T07:45:23.724Z</time>
      </trkpt>
      <trkpt lat="42.8174" lon="-0.10159">
        <ele>1738</ele>
        <time>2019-08-04T07:49:10.725Z</time>
      </trkpt>
      <trkpt lat="42.81745" lon="-0.10147">
        <ele>1738</ele>
        <time>2019-08-04T07:49:51.710Z</time>
      </trkpt>
      <trkpt lat="42.81747" lon="-0.10159">
        <ele>1742</ele>
        <time>2019-08-04T07:50:52.724Z</time>
      </trkpt>
      <trkpt lat="42.81739" lon="-0.10166">
        <ele>1746</ele>
        <time>2019-08-04T07:51:10.724Z</time>
      </trkpt>
      <trkpt lat="42.81733" lon="-0.10172">
        <ele>1748</ele>
        <time>2019-08-04T07:51:18.724Z</time>
      </trkpt>
      <trkpt lat="42.81729" lon="-0.10173">
        <ele>1749</ele>
        <time>2019-08-04T07:51:21.724Z</time>
      </trkpt>
      <trkpt lat="42.81724" lon="-0.10183">
        <ele>1754</ele>
        <time>2019-08-04T07:52:07.724Z</time>
      </trkpt>
      <trkpt lat="42.81726" lon="-0.10195">
        <ele>1759</ele>
        <time>2019-08-04T07:52:44.724Z</time>
      </trkpt>
      <trkpt lat="42.81718" lon="-0.10202">
        <ele>1763</ele>
        <time>2019-08-04T07:53:03.724Z</time>
      </trkpt>
      <trkpt lat="42.81712" lon="-0.10212">
        <ele>1769</ele>
        <time>2019-08-04T07:53:53.724Z</time>
      </trkpt>
      <trkpt lat="42.81711" lon="-0.10224">
        <ele>1774</ele>
        <time>2019-08-04T07:54:42.724Z</time>
      </trkpt>
      <trkpt lat="42.8171" lon="-0.10236">
        <ele>1779.7871900487</ele>
        <time>2019-08-04T07:55:11.724Z</time>
      </trkpt>
      <trkpt lat="42.81704" lon="-0.10247">
        <ele>1783.8339968</ele>
        <time>2019-08-04T07:55:38.724Z</time>
      </trkpt>
      <trkpt lat="42.81704" lon="-0.1026">
        <ele>1790</ele>
        <time>2019-08-04T07:56:21.724Z</time>
      </trkpt>
      <trkpt lat="42.81699" lon="-0.10271">
        <ele>1795.8204093361</ele>
        <time>2019-08-04T07:56:53.724Z</time>
      </trkpt>
      <trkpt lat="42.81692" lon="-0.10279">
        <ele>1800</ele>
        <time>2019-08-04T07:57:26.724Z</time>
      </trkpt>
      <trkpt lat="42.8169" lon="-0.10292">
        <ele>1806</ele>
        <time>2019-08-04T08:00:33.724Z</time>
      </trkpt>
      <trkpt lat="42.81681" lon="-0.10296">
        <ele>1812</ele>
        <time>2019-08-04T08:01:13.724Z</time>
      </trkpt>
      <trkpt lat="42.81682" lon="-0.10308">
        <ele>1817</ele>
        <time>2019-08-04T08:02:20.724Z</time>
      </trkpt>
      <trkpt lat="42.81674" lon="-0.10316">
        <ele>1821</ele>
        <time>2019-08-04T08:02:55.724Z</time>
      </trkpt>
      <trkpt lat="42.81671" lon="-0.10328">
        <ele>1825</ele>
        <time>2019-08-04T08:03:24.724Z</time>
      </trkpt>
      <trkpt lat="42.81663" lon="-0.10332">
        <ele>1831</ele>
        <time>2019-08-04T08:04:04.724Z</time>
      </trkpt>
      <trkpt lat="42.81661" lon="-0.10344">
        <ele>1836</ele>
        <time>2019-08-04T08:04:34.724Z</time>
      </trkpt>
      <trkpt lat="42.81659" lon="-0.10356">
        <ele>1840</ele>
        <time>2019-08-04T08:04:59.724Z</time>
      </trkpt>
      <trkpt lat="42.81657" lon="-0.10369">
        <ele>1845</ele>
        <time>2019-08-04T08:05:52.724Z</time>
      </trkpt>
      <trkpt lat="42.8165" lon="-0.10377">
        <ele>1849.5464578357</ele>
        <time>2019-08-04T08:06:47.724Z</time>
      </trkpt>
      <trkpt lat="42.81646" lon="-0.10388">
        <ele>1855</ele>
        <time>2019-08-04T08:08:39.724Z</time>
      </trkpt>
      <trkpt lat="42.8164" lon="-0.10398">
        <ele>1860</ele>
        <time>2019-08-04T08:09:09.724Z</time>
      </trkpt>
      <trkpt lat="42.81639" lon="-0.10412">
        <ele>1865.4283626429</ele>
        <time>2019-08-04T08:09:49.724Z</time>
      </trkpt>
      <trkpt lat="42.81637" lon="-0.10415">
        <ele>1866</ele>
        <time>2019-08-04T08:09:53.724Z</time>
      </trkpt>
      <trkpt lat="42.81635" lon="-0.10414">
        <ele>1866</ele>
        <time>2019-08-04T08:09:58.724Z</time>
      </trkpt>
      <trkpt lat="42.81629" lon="-0.10419">
        <ele>1868</ele>
        <time>2019-08-04T08:10:24.724Z</time>
      </trkpt>
      <trkpt lat="42.81628" lon="-0.10421">
        <ele>1870</ele>
        <time>2019-08-04T08:10:32.724Z</time>
      </trkpt>
      <trkpt lat="42.81626" lon="-0.10423">
        <ele>1871</ele>
        <time>2019-08-04T08:10:36.724Z</time>
      </trkpt>
      <trkpt lat="42.81626" lon="-0.10425">
        <ele>1872</ele>
        <time>2019-08-04T08:10:45.724Z</time>
      </trkpt>
      <trkpt lat="42.81625" lon="-0.10428">
        <ele>1873</ele>
        <time>2019-08-04T08:10:54.724Z</time>
      </trkpt>
      <trkpt lat="42.81623" lon="-0.1043">
        <ele>1874</ele>
        <time>2019-08-04T08:10:57.724Z</time>
      </trkpt>
      <trkpt lat="42.81622" lon="-0.10432">
        <ele>1874.76634223</ele>
        <time>2019-08-04T08:10:59.724Z</time>
      </trkpt>
      <trkpt lat="42.81618" lon="-0.10432">
        <ele>1877</ele>
        <time>2019-08-04T08:11:15.724Z</time>
      </trkpt>
      <trkpt lat="42.81617" lon="-0.10435">
        <ele>1878</ele>
        <time>2019-08-04T08:11:24.724Z</time>
      </trkpt>
      <trkpt lat="42.81615" lon="-0.10435">
        <ele>1879</ele>
        <time>2019-08-04T08:11:30.724Z</time>
      </trkpt>
      <trkpt lat="42.81614" lon="-0.10437">
        <ele>1879</ele>
        <time>2019-08-04T08:11:34.724Z</time>
      </trkpt>
      <trkpt lat="42.81613" lon="-0.10439">
        <ele>1880</ele>
        <time>2019-08-04T08:11:42.724Z</time>
      </trkpt>
      <trkpt lat="42.81611" lon="-0.10446">
        <ele>1882</ele>
        <time>2019-08-04T08:11:53.724Z</time>
      </trkpt>
      <trkpt lat="42.8161" lon="-0.10448">
        <ele>1883</ele>
        <time>2019-08-04T08:11:57.724Z</time>
      </trkpt>
      <trkpt lat="42.81608" lon="-0.10448">
        <ele>1884</ele>
        <time>2019-08-04T08:12:03.724Z</time>
      </trkpt>
      <trkpt lat="42.81608" lon="-0.1045">
        <ele>1885</ele>
        <time>2019-08-04T08:12:20.724Z</time>
      </trkpt>
      <trkpt lat="42.8161" lon="-0.10452">
        <ele>1886</ele>
        <time>2019-08-04T08:12:27.724Z</time>
      </trkpt>
      <trkpt lat="42.81612" lon="-0.10453">
        <ele>1887</ele>
        <time>2019-08-04T08:12:31.724Z</time>
      </trkpt>
      <trkpt lat="42.81607" lon="-0.10457">
        <ele>1889</ele>
        <time>2019-08-04T08:12:47.724Z</time>
      </trkpt>
      <trkpt lat="42.81606" lon="-0.10459">
        <ele>1890</ele>
        <time>2019-08-04T08:12:53.724Z</time>
      </trkpt>
      <trkpt lat="42.81603" lon="-0.10459">
        <ele>1891</ele>
        <time>2019-08-04T08:12:57.724Z</time>
      </trkpt>
      <trkpt lat="42.81601" lon="-0.10458">
        <ele>1891</ele>
        <time>2019-08-04T08:13:01.724Z</time>
      </trkpt>
      <trkpt lat="42.81599" lon="-0.10458">
        <ele>1892</ele>
        <time>2019-08-04T08:14:30.724Z</time>
      </trkpt>
      <trkpt lat="42.81597" lon="-0.10459">
        <ele>1892</ele>
        <time>2019-08-04T08:14:34.724Z</time>
      </trkpt>
      <trkpt lat="42.81596" lon="-0.10461">
        <ele>1893.6382578498</ele>
        <time>2019-08-04T08:14:42.724Z</time>
      </trkpt>
      <trkpt lat="42.81596" lon="-0.10464">
        <ele>1894</ele>
        <time>2019-08-04T08:14:46.724Z</time>
      </trkpt>
      <trkpt lat="42.81594" lon="-0.10466">
        <ele>1895</ele>
        <time>2019-08-04T08:14:53.724Z</time>
      </trkpt>
      <trkpt lat="42.81593" lon="-0.10468">
        <ele>1895</ele>
        <time>2019-08-04T08:14:57.724Z</time>
      </trkpt>
      <trkpt lat="42.81591" lon="-0.10469">
        <ele>1896</ele>
        <time>2019-08-04T08:15:02.724Z</time>
      </trkpt>
      <trkpt lat="42.81589" lon="-0.10469">
        <ele>1896.5984718205</ele>
        <time>2019-08-04T08:15:06.724Z</time>
      </trkpt>
      <trkpt lat="42.81588" lon="-0.10471">
        <ele>1897</ele>
        <time>2019-08-04T08:15:09.724Z</time>
      </trkpt>
      <trkpt lat="42.81586" lon="-0.10473">
        <ele>1898</ele>
        <time>2019-08-04T08:15:14.724Z</time>
      </trkpt>
      <trkpt lat="42.81584" lon="-0.10471">
        <ele>1899</ele>
        <time>2019-08-04T08:15:17.724Z</time>
      </trkpt>
      <trkpt lat="42.81586" lon="-0.10474">
        <ele>1900</ele>
        <time>2019-08-04T08:15:26.724Z</time>
      </trkpt>
      <trkpt lat="42.81584" lon="-0.1048">
        <ele>1901</ele>
        <time>2019-08-04T08:15:33.724Z</time>
      </trkpt>
      <trkpt lat="42.81583" lon="-0.10482">
        <ele>1902</ele>
        <time>2019-08-04T08:15:38.724Z</time>
      </trkpt>
      <trkpt lat="42.81581" lon="-0.10483">
        <ele>1903</ele>
        <time>2019-08-04T08:15:43.724Z</time>
      </trkpt>
      <trkpt lat="42.8158" lon="-0.10485">
        <ele>1904</ele>
        <time>2019-08-04T08:15:51.724Z</time>
      </trkpt>
      <trkpt lat="42.81578" lon="-0.10485">
        <ele>1905</ele>
        <time>2019-08-04T08:15:55.724Z</time>
      </trkpt>
      <trkpt lat="42.81576" lon="-0.10486">
        <ele>1906</ele>
        <time>2019-08-04T08:16:01.724Z</time>
      </trkpt>
      <trkpt lat="42.81574" lon="-0.10485">
        <ele>1906</ele>
        <time>2019-08-04T08:16:04.724Z</time>
      </trkpt>
      <trkpt lat="42.81572" lon="-0.10484">
        <ele>1908.6079132132</ele>
        <time>2019-08-04T08:16:20.724Z</time>
      </trkpt>
      <trkpt lat="42.8157" lon="-0.10485">
        <ele>1909</ele>
        <time>2019-08-04T08:16:26.724Z</time>
      </trkpt>
      <trkpt lat="42.81568" lon="-0.10485">
        <ele>1911</ele>
        <time>2019-08-04T08:16:30.724Z</time>
      </trkpt>
      <trkpt lat="42.81569" lon="-0.10483">
        <ele>1911</ele>
        <time>2019-08-04T08:16:35.724Z</time>
      </trkpt>
      <trkpt lat="42.81568" lon="-0.10487">
        <ele>1911.5394024023</ele>
        <time>2019-08-04T08:16:41.724Z</time>
      </trkpt>
      <trkpt lat="42.81569" lon="-0.1049">
        <ele>1913</ele>
        <time>2019-08-04T08:16:50.724Z</time>
      </trkpt>
      <trkpt lat="42.81566" lon="-0.10492">
        <ele>1914</ele>
        <time>2019-08-04T08:16:55.724Z</time>
      </trkpt>
      <trkpt lat="42.81564" lon="-0.10491">
        <ele>1914</ele>
        <time>2019-08-04T08:16:59.724Z</time>
      </trkpt>
      <trkpt lat="42.81562" lon="-0.1049">
        <ele>1915</ele>
        <time>2019-08-04T08:17:02.724Z</time>
      </trkpt>
      <trkpt lat="42.8156" lon="-0.1049">
        <ele>1915</ele>
        <time>2019-08-04T08:17:06.724Z</time>
      </trkpt>
      <trkpt lat="42.81558" lon="-0.10489">
        <ele>1915</ele>
        <time>2019-08-04T08:17:11.724Z</time>
      </trkpt>
      <trkpt lat="42.81557" lon="-0.10488">
        <ele>1916</ele>
        <time>2019-08-04T08:17:19.724Z</time>
      </trkpt>
      <trkpt lat="42.81555" lon="-0.10486">
        <ele>1916.7437466667</ele>
        <time>2019-08-04T08:17:24.724Z</time>
      </trkpt>
      <trkpt lat="42.81553" lon="-0.10486">
        <ele>1917</ele>
        <time>2019-08-04T08:17:29.724Z</time>
      </trkpt>
      <trkpt lat="42.81552" lon="-0.10488">
        <ele>1917.7257755902</ele>
        <time>2019-08-04T08:17:33.724Z</time>
      </trkpt>
      <trkpt lat="42.81552" lon="-0.10491">
        <ele>1918</ele>
        <time>2019-08-04T08:17:39.724Z</time>
      </trkpt>
      <trkpt lat="42.81553" lon="-0.10494">
        <ele>1919</ele>
        <time>2019-08-04T08:17:44.724Z</time>
      </trkpt>
      <trkpt lat="42.81553" lon="-0.10496">
        <ele>1920</ele>
        <time>2019-08-04T08:17:49.724Z</time>
      </trkpt>
      <trkpt lat="42.81548" lon="-0.10498">
        <ele>1921.5773085442</ele>
        <time>2019-08-04T08:18:05.724Z</time>
      </trkpt>
      <trkpt lat="42.81545" lon="-0.105">
        <ele>1924</ele>
        <time>2019-08-04T08:18:19.724Z</time>
      </trkpt>
      <trkpt lat="42.81543" lon="-0.10501">
        <ele>1924</ele>
        <time>2019-08-04T08:18:25.724Z</time>
      </trkpt>
      <trkpt lat="42.81542" lon="-0.105">
        <ele>1925</ele>
        <time>2019-08-04T08:18:32.724Z</time>
      </trkpt>
      <trkpt lat="42.8154" lon="-0.10503">
        <ele>1926</ele>
        <time>2019-08-04T08:18:41.724Z</time>
      </trkpt>
      <trkpt lat="42.81538" lon="-0.10503">
        <ele>1928</ele>
        <time>2019-08-04T08:18:49.724Z</time>
      </trkpt>
      <trkpt lat="42.81536" lon="-0.10503">
        <ele>1928</ele>
        <time>2019-08-04T08:18:54.724Z</time>
      </trkpt>
      <trkpt lat="42.81534" lon="-0.10504">
        <ele>1929</ele>
        <time>2019-08-04T08:18:59.724Z</time>
      </trkpt>
      <trkpt lat="42.81533" lon="-0.10502">
        <ele>1930</ele>
        <time>2019-08-04T08:19:04.724Z</time>
      </trkpt>
      <trkpt lat="42.81531" lon="-0.10501">
        <ele>1930</ele>
        <time>2019-08-04T08:19:10.724Z</time>
      </trkpt>
      <trkpt lat="42.8153" lon="-0.10499">
        <ele>1932.6038131461</ele>
        <time>2019-08-04T08:19:43.724Z</time>
      </trkpt>
      <trkpt lat="42.81529" lon="-0.10496">
        <ele>1933</ele>
        <time>2019-08-04T08:19:47.724Z</time>
      </trkpt>
      <trkpt lat="42.81528" lon="-0.10494">
        <ele>1934</ele>
        <time>2019-08-04T08:20:30.724Z</time>
      </trkpt>
      <trkpt lat="42.81526" lon="-0.10494">
        <ele>1934</ele>
        <time>2019-08-04T08:20:34.724Z</time>
      </trkpt>
      <trkpt lat="42.81525" lon="-0.10496">
        <ele>1934</ele>
        <time>2019-08-04T08:20:39.724Z</time>
      </trkpt>
      <trkpt lat="42.81522" lon="-0.105">
        <ele>1935</ele>
        <time>2019-08-04T08:20:43.724Z</time>
      </trkpt>
      <trkpt lat="42.81519" lon="-0.10501">
        <ele>1936.5816433176</ele>
        <time>2019-08-04T08:20:50.724Z</time>
      </trkpt>
      <trkpt lat="42.81517" lon="-0.105">
        <ele>1939</ele>
        <time>2019-08-04T08:21:06.724Z</time>
      </trkpt>
      <trkpt lat="42.81515" lon="-0.105">
        <ele>1941</ele>
        <time>2019-08-04T08:21:14.724Z</time>
      </trkpt>
      <trkpt lat="42.81516" lon="-0.10506">
        <ele>1942</ele>
        <time>2019-08-04T08:21:23.724Z</time>
      </trkpt>
      <trkpt lat="42.8151" lon="-0.1051">
        <ele>1943.4762940602</ele>
        <time>2019-08-04T08:21:32.724Z</time>
      </trkpt>
      <trkpt lat="42.81508" lon="-0.10508">
        <ele>1945</ele>
        <time>2019-08-04T08:21:42.724Z</time>
      </trkpt>
      <trkpt lat="42.81506" lon="-0.10507">
        <ele>1946</ele>
        <time>2019-08-04T08:21:49.724Z</time>
      </trkpt>
      <trkpt lat="42.81504" lon="-0.10507">
        <ele>1947</ele>
        <time>2019-08-04T08:21:54.724Z</time>
      </trkpt>
      <trkpt lat="42.81502" lon="-0.10507">
        <ele>1948</ele>
        <time>2019-08-04T08:22:00.724Z</time>
      </trkpt>
      <trkpt lat="42.81501" lon="-0.10505">
        <ele>1949</ele>
        <time>2019-08-04T08:22:04.724Z</time>
      </trkpt>
      <trkpt lat="42.815" lon="-0.10503">
        <ele>1949</ele>
        <time>2019-08-04T08:22:07.724Z</time>
      </trkpt>
      <trkpt lat="42.81498" lon="-0.10502">
        <ele>1949</ele>
        <time>2019-08-04T08:22:11.724Z</time>
      </trkpt>
      <trkpt lat="42.81496" lon="-0.10502">
        <ele>1949</ele>
        <time>2019-08-04T08:22:14.724Z</time>
      </trkpt>
      <trkpt lat="42.81495" lon="-0.10501">
        <ele>1950</ele>
        <time>2019-08-04T08:22:19.724Z</time>
      </trkpt>
      <trkpt lat="42.81495" lon="-0.10504">
        <ele>1951.7902344604</ele>
        <time>2019-08-04T08:22:34.724Z</time>
      </trkpt>
      <trkpt lat="42.81494" lon="-0.10507">
        <ele>1953.5421136842</ele>
        <time>2019-08-04T08:22:39.724Z</time>
      </trkpt>
      <trkpt lat="42.81494" lon="-0.1051">
        <ele>1954</ele>
        <time>2019-08-04T08:22:43.724Z</time>
      </trkpt>
      <trkpt lat="42.81492" lon="-0.1051">
        <ele>1955.4860818562</ele>
        <time>2019-08-04T08:22:53.724Z</time>
      </trkpt>
      <trkpt lat="42.8149" lon="-0.1051">
        <ele>1957</ele>
        <time>2019-08-04T08:23:02.724Z</time>
      </trkpt>
      <trkpt lat="42.81488" lon="-0.1051">
        <ele>1957</ele>
        <time>2019-08-04T08:23:08.724Z</time>
      </trkpt>
      <trkpt lat="42.81486" lon="-0.10508">
        <ele>1958.686656</ele>
        <time>2019-08-04T08:23:16.724Z</time>
      </trkpt>
      <trkpt lat="42.81485" lon="-0.10509">
        <ele>1959</ele>
        <time>2019-08-04T08:23:21.724Z</time>
      </trkpt>
      <trkpt lat="42.81486" lon="-0.10511">
        <ele>1960</ele>
        <time>2019-08-04T08:23:34.724Z</time>
      </trkpt>
      <trkpt lat="42.81484" lon="-0.10516">
        <ele>1961</ele>
        <time>2019-08-04T08:23:39.724Z</time>
      </trkpt>
      <trkpt lat="42.81486" lon="-0.10518">
        <ele>1963</ele>
        <time>2019-08-04T08:23:46.724Z</time>
      </trkpt>
      <trkpt lat="42.81487" lon="-0.1052">
        <ele>1963.7051635634</ele>
        <time>2019-08-04T08:23:51.724Z</time>
      </trkpt>
      <trkpt lat="42.81486" lon="-0.10523">
        <ele>1964</ele>
        <time>2019-08-04T08:23:56.724Z</time>
      </trkpt>
      <trkpt lat="42.81483" lon="-0.10523">
        <ele>1964</ele>
        <time>2019-08-04T08:24:01.724Z</time>
      </trkpt>
      <trkpt lat="42.81482" lon="-0.10526">
        <ele>1965</ele>
        <time>2019-08-04T08:24:07.724Z</time>
      </trkpt>
      <trkpt lat="42.8148" lon="-0.10524">
        <ele>1966</ele>
        <time>2019-08-04T08:24:15.724Z</time>
      </trkpt>
      <trkpt lat="42.8148" lon="-0.10522">
        <ele>1966.5027733333</ele>
        <time>2019-08-04T08:24:18.724Z</time>
      </trkpt>
      <trkpt lat="42.81479" lon="-0.10519">
        <ele>1967</ele>
        <time>2019-08-04T08:24:21.724Z</time>
      </trkpt>
      <trkpt lat="42.81477" lon="-0.10517">
        <ele>1967</ele>
        <time>2019-08-04T08:24:28.724Z</time>
      </trkpt>
      <trkpt lat="42.81475" lon="-0.10517">
        <ele>1967</ele>
        <time>2019-08-04T08:24:33.724Z</time>
      </trkpt>
      <trkpt lat="42.81473" lon="-0.10519">
        <ele>1967.6469082347</ele>
        <time>2019-08-04T08:24:38.724Z</time>
      </trkpt>
      <trkpt lat="42.81471" lon="-0.1052">
        <ele>1968</ele>
        <time>2019-08-04T08:24:41.724Z</time>
      </trkpt>
      <trkpt lat="42.81471" lon="-0.10523">
        <ele>1972</ele>
        <time>2019-08-04T08:25:02.724Z</time>
      </trkpt>
      <trkpt lat="42.81469" lon="-0.10525">
        <ele>1972</ele>
        <time>2019-08-04T08:25:06.724Z</time>
      </trkpt>
      <trkpt lat="42.8147" lon="-0.10528">
        <ele>1972</ele>
        <time>2019-08-04T08:25:09.724Z</time>
      </trkpt>
      <trkpt lat="42.81467" lon="-0.10528">
        <ele>1975</ele>
        <time>2019-08-04T08:25:29.724Z</time>
      </trkpt>
      <trkpt lat="42.81465" lon="-0.10526">
        <ele>1975.6161341935</ele>
        <time>2019-08-04T08:25:33.724Z</time>
      </trkpt>
      <trkpt lat="42.81463" lon="-0.10527">
        <ele>1976</ele>
        <time>2019-08-04T08:25:38.724Z</time>
      </trkpt>
      <trkpt lat="42.81461" lon="-0.10527">
        <ele>1976</ele>
        <time>2019-08-04T08:25:42.724Z</time>
      </trkpt>
      <trkpt lat="42.81459" lon="-0.10524">
        <ele>1978</ele>
        <time>2019-08-04T08:25:46.724Z</time>
      </trkpt>
      <trkpt lat="42.81458" lon="-0.10522">
        <ele>1978</ele>
        <time>2019-08-04T08:25:49.724Z</time>
      </trkpt>
      <trkpt lat="42.81456" lon="-0.1052">
        <ele>1980</ele>
        <time>2019-08-04T08:26:02.724Z</time>
      </trkpt>
      <trkpt lat="42.81458" lon="-0.10516">
        <ele>1979</ele>
        <time>2019-08-04T08:26:40.724Z</time>
      </trkpt>
      <trkpt lat="42.81458" lon="-0.10513">
        <ele>1980</ele>
        <time>2019-08-04T08:27:45.724Z</time>
      </trkpt>
      <trkpt lat="42.81462" lon="-0.10513">
        <ele>1981</ele>
        <time>2019-08-04T08:28:16.724Z</time>
      </trkpt>
      <trkpt lat="42.81461" lon="-0.10512">
        <ele>1980</ele>
        <time>2019-08-04T08:28:23.724Z</time>
      </trkpt>
      <trkpt lat="42.81458" lon="-0.10512">
        <ele>1980</ele>
        <time>2019-08-04T08:28:30.724Z</time>
      </trkpt>
      <trkpt lat="42.81456" lon="-0.10512">
        <ele>1981</ele>
        <time>2019-08-04T08:28:37.724Z</time>
      </trkpt>
      <trkpt lat="42.81455" lon="-0.10511">
        <ele>1981</ele>
        <time>2019-08-04T08:28:40.724Z</time>
      </trkpt>
      <trkpt lat="42.81452" lon="-0.1051">
        <ele>1982</ele>
        <time>2019-08-04T08:28:43.724Z</time>
      </trkpt>
      <trkpt lat="42.8145" lon="-0.1051">
        <ele>1982</ele>
        <time>2019-08-04T08:28:46.724Z</time>
      </trkpt>
      <trkpt lat="42.81448" lon="-0.10509">
        <ele>1983</ele>
        <time>2019-08-04T08:28:49.724Z</time>
      </trkpt>
      <trkpt lat="42.81444" lon="-0.10513">
        <ele>1984.6915674542</ele>
        <time>2019-08-04T08:28:57.724Z</time>
      </trkpt>
      <trkpt lat="42.81442" lon="-0.10514">
        <ele>1985</ele>
        <time>2019-08-04T08:29:00.724Z</time>
      </trkpt>
      <trkpt lat="42.81439" lon="-0.10513">
        <ele>1988</ele>
        <time>2019-08-04T08:29:15.724Z</time>
      </trkpt>
      <trkpt lat="42.81438" lon="-0.10511">
        <ele>1988</ele>
        <time>2019-08-04T08:29:18.724Z</time>
      </trkpt>
      <trkpt lat="42.81436" lon="-0.10509">
        <ele>1988</ele>
        <time>2019-08-04T08:29:23.724Z</time>
      </trkpt>
      <trkpt lat="42.81432" lon="-0.10509">
        <ele>1992</ele>
        <time>2019-08-04T08:29:47.724Z</time>
      </trkpt>
      <trkpt lat="42.81429" lon="-0.10507">
        <ele>1992.5942875254</ele>
        <time>2019-08-04T08:29:53.724Z</time>
      </trkpt>
      <trkpt lat="42.81426" lon="-0.10506">
        <ele>1993</ele>
        <time>2019-08-04T08:29:57.724Z</time>
      </trkpt>
      <trkpt lat="42.81424" lon="-0.10505">
        <ele>1993</ele>
        <time>2019-08-04T08:30:00.724Z</time>
      </trkpt>
      <trkpt lat="42.81415" lon="-0.10505">
        <ele>1995.5688475743</ele>
        <time>2019-08-04T08:30:20.724Z</time>
      </trkpt>
      <trkpt lat="42.81406" lon="-0.10504">
        <ele>1998</ele>
        <time>2019-08-04T08:30:36.724Z</time>
      </trkpt>
      <trkpt lat="42.81408" lon="-0.10503">
        <ele>1998</ele>
        <time>2019-08-04T08:30:47.724Z</time>
      </trkpt>
      <trkpt lat="42.81406" lon="-0.10504">
        <ele>2000</ele>
        <time>2019-08-04T08:30:57.724Z</time>
      </trkpt>
      <trkpt lat="42.81404" lon="-0.10504">
        <ele>2000</ele>
        <time>2019-08-04T08:31:02.724Z</time>
      </trkpt>
      <trkpt lat="42.81402" lon="-0.10504">
        <ele>2003</ele>
        <time>2019-08-04T08:31:09.724Z</time>
      </trkpt>
      <trkpt lat="42.814" lon="-0.10502">
        <ele>2003</ele>
        <time>2019-08-04T08:31:14.724Z</time>
      </trkpt>
      <trkpt lat="42.81398" lon="-0.10503">
        <ele>2004</ele>
        <time>2019-08-04T08:31:23.724Z</time>
      </trkpt>
      <trkpt lat="42.81398" lon="-0.10501">
        <ele>2005</ele>
        <time>2019-08-04T08:31:29.724Z</time>
      </trkpt>
      <trkpt lat="42.81395" lon="-0.10499">
        <ele>2007</ele>
        <time>2019-08-04T08:31:38.724Z</time>
      </trkpt>
      <trkpt lat="42.81394" lon="-0.10497">
        <ele>2008</ele>
        <time>2019-08-04T08:31:46.724Z</time>
      </trkpt>
      <trkpt lat="42.81393" lon="-0.10494">
        <ele>2008</ele>
        <time>2019-08-04T08:31:49.724Z</time>
      </trkpt>
      <trkpt lat="42.81392" lon="-0.10492">
        <ele>2008</ele>
        <time>2019-08-04T08:31:52.724Z</time>
      </trkpt>
      <trkpt lat="42.8139" lon="-0.10494">
        <ele>2008</ele>
        <time>2019-08-04T08:31:58.724Z</time>
      </trkpt>
      <trkpt lat="42.81388" lon="-0.10495">
        <ele>2010</ele>
        <time>2019-08-04T08:32:08.724Z</time>
      </trkpt>
      <trkpt lat="42.81386" lon="-0.10496">
        <ele>2010</ele>
        <time>2019-08-04T08:32:13.724Z</time>
      </trkpt>
      <trkpt lat="42.81381" lon="-0.10506">
        <ele>2013</ele>
        <time>2019-08-04T08:32:33.724Z</time>
      </trkpt>
      <trkpt lat="42.8138" lon="-0.10503">
        <ele>2015</ele>
        <time>2019-08-04T08:32:39.724Z</time>
      </trkpt>
      <trkpt lat="42.81379" lon="-0.10501">
        <ele>2016</ele>
        <time>2019-08-04T08:32:43.724Z</time>
      </trkpt>
      <trkpt lat="42.81378" lon="-0.10499">
        <ele>2016</ele>
        <time>2019-08-04T08:32:47.724Z</time>
      </trkpt>
      <trkpt lat="42.81376" lon="-0.10498">
        <ele>2016</ele>
        <time>2019-08-04T08:32:50.724Z</time>
      </trkpt>
      <trkpt lat="42.81375" lon="-0.10499">
        <ele>2018</ele>
        <time>2019-08-04T08:33:04.724Z</time>
      </trkpt>
      <trkpt lat="42.81372" lon="-0.105">
        <ele>2020</ele>
        <time>2019-08-04T08:33:15.724Z</time>
      </trkpt>
      <trkpt lat="42.81369" lon="-0.10503">
        <ele>2021</ele>
        <time>2019-08-04T08:33:24.724Z</time>
      </trkpt>
      <trkpt lat="42.81368" lon="-0.10505">
        <ele>2023</ele>
        <time>2019-08-04T08:33:33.724Z</time>
      </trkpt>
      <trkpt lat="42.81367" lon="-0.10508">
        <ele>2023</ele>
        <time>2019-08-04T08:33:39.724Z</time>
      </trkpt>
      <trkpt lat="42.81364" lon="-0.10511">
        <ele>2024</ele>
        <time>2019-08-04T08:33:50.724Z</time>
      </trkpt>
      <trkpt lat="42.8136" lon="-0.1051">
        <ele>2027</ele>
        <time>2019-08-04T08:34:06.724Z</time>
      </trkpt>
      <trkpt lat="42.81358" lon="-0.10509">
        <ele>2030</ele>
        <time>2019-08-04T08:34:14.724Z</time>
      </trkpt>
      <trkpt lat="42.81355" lon="-0.10507">
        <ele>2030</ele>
        <time>2019-08-04T08:34:25.724Z</time>
      </trkpt>
      <trkpt lat="42.81348" lon="-0.10516">
        <ele>2041</ele>
        <time>2019-08-04T08:35:59.724Z</time>
      </trkpt>
      <trkpt lat="42.81342" lon="-0.10524">
        <ele>2044.8220032</ele>
        <time>2019-08-04T08:37:27.712Z</time>
      </trkpt>
      <trkpt lat="42.81343" lon="-0.10537">
        <ele>2051</ele>
        <time>2019-08-04T08:38:08.724Z</time>
      </trkpt>
      <trkpt lat="42.8135" lon="-0.10547">
        <ele>2053</ele>
        <time>2019-08-04T08:38:21.724Z</time>
      </trkpt>
      <trkpt lat="42.81341" lon="-0.10555">
        <ele>2058</ele>
        <time>2019-08-04T08:38:47.724Z</time>
      </trkpt>
      <trkpt lat="42.81339" lon="-0.10567">
        <ele>2063</ele>
        <time>2019-08-04T08:39:14.724Z</time>
      </trkpt>
      <trkpt lat="42.81334" lon="-0.10579">
        <ele>2067</ele>
        <time>2019-08-04T08:39:47.711Z</time>
      </trkpt>
      <trkpt lat="42.81325" lon="-0.1058">
        <ele>2070</ele>
        <time>2019-08-04T08:40:06.711Z</time>
      </trkpt>
      <trkpt lat="42.81333" lon="-0.10572">
        <ele>2071</ele>
        <time>2019-08-04T08:40:39.724Z</time>
      </trkpt>
      <trkpt lat="42.81322" lon="-0.10574">
        <ele>2071</ele>
        <time>2019-08-04T08:40:48.722Z</time>
      </trkpt>
      <trkpt lat="42.81313" lon="-0.10582">
        <ele>2071</ele>
        <time>2019-08-04T08:40:50.713Z</time>
      </trkpt>
      <trkpt lat="42.81303" lon="-0.10592">
        <ele>2071</ele>
        <time>2019-08-04T08:40:51.712Z</time>
      </trkpt>
      <trkpt lat="42.81295" lon="-0.10601">
        <ele>2071</ele>
        <time>2019-08-04T08:40:53.753Z</time>
      </trkpt>
      <trkpt lat="42.81305" lon="-0.10595">
        <ele>2071</ele>
        <time>2019-08-04T08:41:31.724Z</time>
      </trkpt>
      <trkpt lat="42.81314" lon="-0.10586">
        <ele>2071</ele>
        <time>2019-08-04T08:41:35.724Z</time>
      </trkpt>
      <trkpt lat="42.81322" lon="-0.10578">
        <ele>2071</ele>
        <time>2019-08-04T08:41:39.713Z</time>
      </trkpt>
      <trkpt lat="42.81331" lon="-0.10583">
        <ele>2073</ele>
        <time>2019-08-04T08:41:57.711Z</time>
      </trkpt>
      <trkpt lat="42.81336" lon="-0.10594">
        <ele>2076</ele>
        <time>2019-08-04T08:42:17.724Z</time>
      </trkpt>
      <trkpt lat="42.81344" lon="-0.106">
        <ele>2078</ele>
        <time>2019-08-04T08:42:39.726Z</time>
      </trkpt>
      <trkpt lat="42.81349" lon="-0.10613">
        <ele>2081</ele>
        <time>2019-08-04T08:43:04.724Z</time>
      </trkpt>
      <trkpt lat="42.81357" lon="-0.10619">
        <ele>2081</ele>
        <time>2019-08-04T08:43:25.710Z</time>
      </trkpt>
      <trkpt lat="42.81362" lon="-0.1063">
        <ele>2082</ele>
        <time>2019-08-04T08:43:38.724Z</time>
      </trkpt>
      <trkpt lat="42.81369" lon="-0.10637">
        <ele>2085</ele>
        <time>2019-08-04T08:43:57.726Z</time>
      </trkpt>
      <trkpt lat="42.8137" lon="-0.1065">
        <ele>2087</ele>
        <time>2019-08-04T08:44:22.724Z</time>
      </trkpt>
      <trkpt lat="42.81378" lon="-0.10657">
        <ele>2090</ele>
        <time>2019-08-04T08:44:35.726Z</time>
      </trkpt>
      <trkpt lat="42.81386" lon="-0.10664">
        <ele>2092</ele>
        <time>2019-08-04T08:44:57.711Z</time>
      </trkpt>
      <trkpt lat="42.81395" lon="-0.10668">
        <ele>2093</ele>
        <time>2019-08-04T08:45:13.726Z</time>
      </trkpt>
      <trkpt lat="42.81404" lon="-0.10672">
        <ele>2095.7894276923</ele>
        <time>2019-08-04T08:45:32.711Z</time>
      </trkpt>
      <trkpt lat="42.81407" lon="-0.10684">
        <ele>2098</ele>
        <time>2019-08-04T08:45:49.724Z</time>
      </trkpt>
      <trkpt lat="42.81414" lon="-0.10691">
        <ele>2101</ele>
        <time>2019-08-04T08:46:12.724Z</time>
      </trkpt>
      <trkpt lat="42.81417" lon="-0.10703">
        <ele>2107</ele>
        <time>2019-08-04T08:46:46.724Z</time>
      </trkpt>
      <trkpt lat="42.81422" lon="-0.10715">
        <ele>2112</ele>
        <time>2019-08-04T08:47:23.724Z</time>
      </trkpt>
      <trkpt lat="42.81429" lon="-0.10723">
        <ele>2114.8340096</ele>
        <time>2019-08-04T08:47:47.724Z</time>
      </trkpt>
      <trkpt lat="42.81433" lon="-0.10734">
        <ele>2117</ele>
        <time>2019-08-04T08:48:08.724Z</time>
      </trkpt>
      <trkpt lat="42.81437" lon="-0.10745">
        <ele>2120</ele>
        <time>2019-08-04T08:48:34.724Z</time>
      </trkpt>
      <trkpt lat="42.81445" lon="-0.10752">
        <ele>2123.6073777974</ele>
        <time>2019-08-04T08:49:05.721Z</time>
      </trkpt>
      <trkpt lat="42.81454" lon="-0.10757">
        <ele>2125</ele>
        <time>2019-08-04T08:49:26.711Z</time>
      </trkpt>
      <trkpt lat="42.81463" lon="-0.10762">
        <ele>2128</ele>
        <time>2019-08-04T08:49:50.724Z</time>
      </trkpt>
      <trkpt lat="42.81468" lon="-0.10773">
        <ele>2129</ele>
        <time>2019-08-04T08:52:04.724Z</time>
      </trkpt>
      <trkpt lat="42.81472" lon="-0.10784">
        <ele>2130</ele>
        <time>2019-08-04T08:52:21.711Z</time>
      </trkpt>
      <trkpt lat="42.81476" lon="-0.10796">
        <ele>2136</ele>
        <time>2019-08-04T08:52:58.724Z</time>
      </trkpt>
      <trkpt lat="42.81477" lon="-0.10808">
        <ele>2140</ele>
        <time>2019-08-04T08:53:29.724Z</time>
      </trkpt>
      <trkpt lat="42.81469" lon="-0.10815">
        <ele>2145</ele>
        <time>2019-08-04T08:54:08.724Z</time>
      </trkpt>
      <trkpt lat="42.81468" lon="-0.10828">
        <ele>2151</ele>
        <time>2019-08-04T08:54:42.724Z</time>
      </trkpt>
      <trkpt lat="42.81462" lon="-0.10838">
        <ele>2154.80192</ele>
        <time>2019-08-04T08:55:14.724Z</time>
      </trkpt>
      <trkpt lat="42.81458" lon="-0.10852">
        <ele>2161</ele>
        <time>2019-08-04T08:55:45.724Z</time>
      </trkpt>
      <trkpt lat="42.81457" lon="-0.10864">
        <ele>2165</ele>
        <time>2019-08-04T08:56:21.710Z</time>
      </trkpt>
      <trkpt lat="42.81463" lon="-0.10874">
        <ele>2166</ele>
        <time>2019-08-04T08:56:42.742Z</time>
      </trkpt>
      <trkpt lat="42.81469" lon="-0.10884">
        <ele>2170</ele>
        <time>2019-08-04T08:57:10.724Z</time>
      </trkpt>
      <trkpt lat="42.81465" lon="-0.10895">
        <ele>2175</ele>
        <time>2019-08-04T08:57:48.724Z</time>
      </trkpt>
      <trkpt lat="42.81474" lon="-0.10896">
        <ele>2179</ele>
        <time>2019-08-04T08:58:25.823Z</time>
      </trkpt>
      <trkpt lat="42.81469" lon="-0.10907">
        <ele>2180</ele>
        <time>2019-08-04T08:58:41.724Z</time>
      </trkpt>
      <trkpt lat="42.81478" lon="-0.10902">
        <ele>2182</ele>
        <time>2019-08-04T08:58:58.823Z</time>
      </trkpt>
      <trkpt lat="42.81481" lon="-0.10914">
        <ele>2186</ele>
        <time>2019-08-04T08:59:21.725Z</time>
      </trkpt>
      <trkpt lat="42.81475" lon="-0.10923">
        <ele>2189</ele>
        <time>2019-08-04T08:59:41.724Z</time>
      </trkpt>
      <trkpt lat="42.81472" lon="-0.10938">
        <ele>2192</ele>
        <time>2019-08-04T09:01:36.724Z</time>
      </trkpt>
      <trkpt lat="42.81479" lon="-0.10946">
        <ele>2200</ele>
        <time>2019-08-04T09:03:15.713Z</time>
      </trkpt>
      <trkpt lat="42.81486" lon="-0.10956">
        <ele>2204</ele>
        <time>2019-08-04T09:03:51.823Z</time>
      </trkpt>
      <trkpt lat="42.81488" lon="-0.10968">
        <ele>2211</ele>
        <time>2019-08-04T09:04:31.713Z</time>
      </trkpt>
      <trkpt lat="42.81481" lon="-0.10978">
        <ele>2213</ele>
        <time>2019-08-04T09:04:53.724Z</time>
      </trkpt>
      <trkpt lat="42.8149" lon="-0.10984">
        <ele>2216</ele>
        <time>2019-08-04T09:05:16.825Z</time>
      </trkpt>
      <trkpt lat="42.8149" lon="-0.10996">
        <ele>2222</ele>
        <time>2019-08-04T09:05:49.714Z</time>
      </trkpt>
      <trkpt lat="42.8149" lon="-0.11009">
        <ele>2228</ele>
        <time>2019-08-04T09:06:29.724Z</time>
      </trkpt>
      <trkpt lat="42.81484" lon="-0.1102">
        <ele>2229</ele>
        <time>2019-08-04T09:06:53.724Z</time>
      </trkpt>
      <trkpt lat="42.81492" lon="-0.11015">
        <ele>2231</ele>
        <time>2019-08-04T09:07:35.714Z</time>
      </trkpt>
      <trkpt lat="42.81489" lon="-0.11026">
        <ele>2233</ele>
        <time>2019-08-04T09:08:06.740Z</time>
      </trkpt>
      <trkpt lat="42.81496" lon="-0.11035">
        <ele>2234</ele>
        <time>2019-08-04T09:08:26.698Z</time>
      </trkpt>
      <trkpt lat="42.81504" lon="-0.11042">
        <ele>2235</ele>
        <time>2019-08-04T09:08:52.714Z</time>
      </trkpt>
      <trkpt lat="42.81512" lon="-0.11049">
        <ele>2240</ele>
        <time>2019-08-04T09:09:15.714Z</time>
      </trkpt>
      <trkpt lat="42.81519" lon="-0.11056">
        <ele>2241.8068592511</ele>
        <time>2019-08-04T09:09:29.713Z</time>
      </trkpt>
      <trkpt lat="42.81527" lon="-0.11063">
        <ele>2243</ele>
        <time>2019-08-04T09:09:43.710Z</time>
      </trkpt>
      <trkpt lat="42.81536" lon="-0.11068">
        <ele>2244.8339968</ele>
        <time>2019-08-04T09:09:58.724Z</time>
      </trkpt>
      <trkpt lat="42.81544" lon="-0.11073">
        <ele>2248</ele>
        <time>2019-08-04T09:10:20.684Z</time>
      </trkpt>
      <trkpt lat="42.81553" lon="-0.11072">
        <ele>2249</ele>
        <time>2019-08-04T09:10:36.714Z</time>
      </trkpt>
      <trkpt lat="42.8155" lon="-0.11084">
        <ele>2256</ele>
        <time>2019-08-04T09:11:17.724Z</time>
      </trkpt>
      <trkpt lat="42.81555" lon="-0.11094">
        <ele>2258</ele>
        <time>2019-08-04T09:11:36.724Z</time>
      </trkpt>
      <trkpt lat="42.81552" lon="-0.11107">
        <ele>2263</ele>
        <time>2019-08-04T09:12:02.724Z</time>
      </trkpt>
      <trkpt lat="42.81543" lon="-0.11111">
        <ele>2265</ele>
        <time>2019-08-04T09:12:26.713Z</time>
      </trkpt>
      <trkpt lat="42.81541" lon="-0.11124">
        <ele>2267</ele>
        <time>2019-08-04T09:13:02.724Z</time>
      </trkpt>
      <trkpt lat="42.81536" lon="-0.11135">
        <ele>2269</ele>
        <time>2019-08-04T09:13:15.713Z</time>
      </trkpt>
      <trkpt lat="42.81528" lon="-0.1114">
        <ele>2271</ele>
        <time>2019-08-04T09:13:32.724Z</time>
      </trkpt>
      <trkpt lat="42.81522" lon="-0.1115">
        <ele>2270</ele>
        <time>2019-08-04T09:14:49.710Z</time>
      </trkpt>
      <trkpt lat="42.81522" lon="-0.11163">
        <ele>2274</ele>
        <time>2019-08-04T09:15:07.724Z</time>
      </trkpt>
      <trkpt lat="42.81517" lon="-0.11173">
        <ele>2275</ele>
        <time>2019-08-04T09:15:24.722Z</time>
      </trkpt>
      <trkpt lat="42.8151" lon="-0.11183">
        <ele>2279</ele>
        <time>2019-08-04T09:15:55.724Z</time>
      </trkpt>
      <trkpt lat="42.81508" lon="-0.11195">
        <ele>2283</ele>
        <time>2019-08-04T09:16:20.724Z</time>
      </trkpt>
      <trkpt lat="42.81515" lon="-0.11204">
        <ele>2289</ele>
        <time>2019-08-04T09:17:56.824Z</time>
      </trkpt>
      <trkpt lat="42.81523" lon="-0.11211">
        <ele>2291</ele>
        <time>2019-08-04T09:18:12.724Z</time>
      </trkpt>
      <trkpt lat="42.8153" lon="-0.1122">
        <ele>2299</ele>
        <time>2019-08-04T09:19:11.710Z</time>
      </trkpt>
      <trkpt lat="42.81539" lon="-0.11222">
        <ele>2301</ele>
        <time>2019-08-04T09:19:34.709Z</time>
      </trkpt>
      <trkpt lat="42.81536" lon="-0.11234">
        <ele>2306</ele>
        <time>2019-08-04T09:20:09.714Z</time>
      </trkpt>
      <trkpt lat="42.81537" lon="-0.11247">
        <ele>2310</ele>
        <time>2019-08-04T09:20:35.724Z</time>
      </trkpt>
      <trkpt lat="42.81536" lon="-0.11261">
        <ele>2315</ele>
        <time>2019-08-04T09:21:06.724Z</time>
      </trkpt>
      <trkpt lat="42.81545" lon="-0.11268">
        <ele>2317</ele>
        <time>2019-08-04T09:21:44.714Z</time>
      </trkpt>
      <trkpt lat="42.81544" lon="-0.1128">
        <ele>2318</ele>
        <time>2019-08-04T09:22:17.724Z</time>
      </trkpt>
      <trkpt lat="42.81551" lon="-0.1129">
        <ele>2319</ele>
        <time>2019-08-04T09:22:35.714Z</time>
      </trkpt>
      <trkpt lat="42.81556" lon="-0.113">
        <ele>2320</ele>
        <time>2019-08-04T09:22:52.723Z</time>
      </trkpt>
      <trkpt lat="42.8156" lon="-0.11311">
        <ele>2324</ele>
        <time>2019-08-04T09:23:21.724Z</time>
      </trkpt>
      <trkpt lat="42.81567" lon="-0.1132">
        <ele>2328</ele>
        <time>2019-08-04T09:23:48.714Z</time>
      </trkpt>
      <trkpt lat="42.81569" lon="-0.11333">
        <ele>2330.8103519303</ele>
        <time>2019-08-04T09:24:19.725Z</time>
      </trkpt>
      <trkpt lat="42.81576" lon="-0.11341">
        <ele>2333.8</ele>
        <time>2019-08-04T09:24:38.714Z</time>
      </trkpt>
      <trkpt lat="42.81574" lon="-0.11353">
        <ele>2339</ele>
        <time>2019-08-04T09:25:12.714Z</time>
      </trkpt>
      <trkpt lat="42.81579" lon="-0.11364">
        <ele>2342</ele>
        <time>2019-08-04T09:25:32.724Z</time>
      </trkpt>
      <trkpt lat="42.81583" lon="-0.11375">
        <ele>2342</ele>
        <time>2019-08-04T09:25:45.724Z</time>
      </trkpt>
      <trkpt lat="42.81588" lon="-0.11386">
        <ele>2345</ele>
        <time>2019-08-04T09:26:13.714Z</time>
      </trkpt>
      <trkpt lat="42.81592" lon="-0.11397">
        <ele>2347</ele>
        <time>2019-08-04T09:26:44.714Z</time>
      </trkpt>
      <trkpt lat="42.81598" lon="-0.11407">
        <ele>2348</ele>
        <time>2019-08-04T09:27:01.714Z</time>
      </trkpt>
      <trkpt lat="42.81596" lon="-0.11419">
        <ele>2353</ele>
        <time>2019-08-04T09:27:36.714Z</time>
      </trkpt>
      <trkpt lat="42.81599" lon="-0.11431">
        <ele>2354</ele>
        <time>2019-08-04T09:29:27.725Z</time>
      </trkpt>
      <trkpt lat="42.81595" lon="-0.11443">
        <ele>2352</ele>
        <time>2019-08-04T09:36:35.724Z</time>
      </trkpt>
      <trkpt lat="42.81588" lon="-0.11455">
        <ele>2352</ele>
        <time>2019-08-04T09:36:45.724Z</time>
      </trkpt>
      <trkpt lat="42.81583" lon="-0.11467">
        <ele>2352</ele>
        <time>2019-08-04T09:37:02.724Z</time>
      </trkpt>
      <trkpt lat="42.81575" lon="-0.11475">
        <ele>2348</ele>
        <time>2019-08-04T09:37:19.724Z</time>
      </trkpt>
      <trkpt lat="42.81569" lon="-0.11486">
        <ele>2346</ele>
        <time>2019-08-04T09:37:42.724Z</time>
      </trkpt>
      <trkpt lat="42.81564" lon="-0.11497">
        <ele>2345</ele>
        <time>2019-08-04T09:37:54.724Z</time>
      </trkpt>
      <trkpt lat="42.81561" lon="-0.11508">
        <ele>2344</ele>
        <time>2019-08-04T09:38:03.712Z</time>
      </trkpt>
      <trkpt lat="42.81551" lon="-0.11511">
        <ele>2341</ele>
        <time>2019-08-04T09:38:24.724Z</time>
      </trkpt>
      <trkpt lat="42.81542" lon="-0.11518">
        <ele>2341</ele>
        <time>2019-08-04T09:38:35.712Z</time>
      </trkpt>
      <trkpt lat="42.81548" lon="-0.11528">
        <ele>2341</ele>
        <time>2019-08-04T09:39:02.724Z</time>
      </trkpt>
      <trkpt lat="42.81547" lon="-0.1154">
        <ele>2340</ele>
        <time>2019-08-04T09:39:37.724Z</time>
      </trkpt>
      <trkpt lat="42.81537" lon="-0.11544">
        <ele>2338</ele>
        <time>2019-08-04T09:39:55.724Z</time>
      </trkpt>
      <trkpt lat="42.8153" lon="-0.11552">
        <ele>2337</ele>
        <time>2019-08-04T09:40:07.724Z</time>
      </trkpt>
      <trkpt lat="42.81521" lon="-0.11557">
        <ele>2336</ele>
        <time>2019-08-04T09:40:13.724Z</time>
      </trkpt>
      <trkpt lat="42.81511" lon="-0.1156">
        <ele>2336</ele>
        <time>2019-08-04T09:40:21.724Z</time>
      </trkpt>
      <trkpt lat="42.81515" lon="-0.1156">
        <ele>2337</ele>
        <time>2019-08-04T09:40:37.724Z</time>
      </trkpt>
      <trkpt lat="42.81513" lon="-0.11562">
        <ele>2336</ele>
        <time>2019-08-04T09:40:45.724Z</time>
      </trkpt>
      <trkpt lat="42.81513" lon="-0.11564">
        <ele>2336</ele>
        <time>2019-08-04T09:40:51.724Z</time>
      </trkpt>
      <trkpt lat="42.81514" lon="-0.11567">
        <ele>2335</ele>
        <time>2019-08-04T09:40:55.724Z</time>
      </trkpt>
      <trkpt lat="42.81514" lon="-0.1157">
        <ele>2334</ele>
        <time>2019-08-04T09:41:02.724Z</time>
      </trkpt>
      <trkpt lat="42.81516" lon="-0.11571">
        <ele>2334</ele>
        <time>2019-08-04T09:41:05.724Z</time>
      </trkpt>
      <trkpt lat="42.81515" lon="-0.11574">
        <ele>2333.3327558621</ele>
        <time>2019-08-04T09:41:09.724Z</time>
      </trkpt>
      <trkpt lat="42.81515" lon="-0.11577">
        <ele>2333</ele>
        <time>2019-08-04T09:41:13.724Z</time>
      </trkpt>
      <trkpt lat="42.81517" lon="-0.11585">
        <ele>2332</ele>
        <time>2019-08-04T09:41:22.724Z</time>
      </trkpt>
      <trkpt lat="42.81517" lon="-0.11587">
        <ele>2332</ele>
        <time>2019-08-04T09:41:33.724Z</time>
      </trkpt>
      <trkpt lat="42.81514" lon="-0.11589">
        <ele>2331</ele>
        <time>2019-08-04T09:41:37.724Z</time>
      </trkpt>
      <trkpt lat="42.81513" lon="-0.11592">
        <ele>2331</ele>
        <time>2019-08-04T09:41:40.724Z</time>
      </trkpt>
      <trkpt lat="42.81512" lon="-0.11596">
        <ele>2330</ele>
        <time>2019-08-04T09:41:46.724Z</time>
      </trkpt>
      <trkpt lat="42.81511" lon="-0.11598">
        <ele>2330</ele>
        <time>2019-08-04T09:41:59.724Z</time>
      </trkpt>
      <trkpt lat="42.8151" lon="-0.11601">
        <ele>2330</ele>
        <time>2019-08-04T09:42:04.724Z</time>
      </trkpt>
      <trkpt lat="42.81508" lon="-0.11603">
        <ele>2329</ele>
        <time>2019-08-04T09:42:08.724Z</time>
      </trkpt>
      <trkpt lat="42.81506" lon="-0.11605">
        <ele>2328.2410969473</ele>
        <time>2019-08-04T09:42:12.724Z</time>
      </trkpt>
      <trkpt lat="42.81506" lon="-0.11608">
        <ele>2328</ele>
        <time>2019-08-04T09:42:16.724Z</time>
      </trkpt>
      <trkpt lat="42.81509" lon="-0.1161">
        <ele>2328</ele>
        <time>2019-08-04T09:42:21.724Z</time>
      </trkpt>
      <trkpt lat="42.81509" lon="-0.11613">
        <ele>2327</ele>
        <time>2019-08-04T09:42:24.724Z</time>
      </trkpt>
      <trkpt lat="42.81509" lon="-0.11616">
        <ele>2327</ele>
        <time>2019-08-04T09:42:28.724Z</time>
      </trkpt>
      <trkpt lat="42.81511" lon="-0.1162">
        <ele>2326</ele>
        <time>2019-08-04T09:42:34.724Z</time>
      </trkpt>
      <trkpt lat="42.81507" lon="-0.11625">
        <ele>2326</ele>
        <time>2019-08-04T09:42:41.724Z</time>
      </trkpt>
      <trkpt lat="42.81507" lon="-0.11628">
        <ele>2326</ele>
        <time>2019-08-04T09:42:44.724Z</time>
      </trkpt>
      <trkpt lat="42.81508" lon="-0.11631">
        <ele>2326</ele>
        <time>2019-08-04T09:42:47.724Z</time>
      </trkpt>
      <trkpt lat="42.81509" lon="-0.11634">
        <ele>2326</ele>
        <time>2019-08-04T09:42:50.724Z</time>
      </trkpt>
      <trkpt lat="42.8151" lon="-0.11636">
        <ele>2326</ele>
        <time>2019-08-04T09:42:53.724Z</time>
      </trkpt>
      <trkpt lat="42.81509" lon="-0.11639">
        <ele>2326</ele>
        <time>2019-08-04T09:42:57.724Z</time>
      </trkpt>
      <trkpt lat="42.81509" lon="-0.11642">
        <ele>2326</ele>
        <time>2019-08-04T09:43:01.724Z</time>
      </trkpt>
      <trkpt lat="42.81508" lon="-0.11644">
        <ele>2326</ele>
        <time>2019-08-04T09:43:04.724Z</time>
      </trkpt>
      <trkpt lat="42.81507" lon="-0.11646">
        <ele>2326</ele>
        <time>2019-08-04T09:43:07.724Z</time>
      </trkpt>
      <trkpt lat="42.81507" lon="-0.11649">
        <ele>2326</ele>
        <time>2019-08-04T09:43:10.724Z</time>
      </trkpt>
      <trkpt lat="42.81506" lon="-0.11652">
        <ele>2326</ele>
        <time>2019-08-04T09:43:14.724Z</time>
      </trkpt>
      <trkpt lat="42.81505" lon="-0.11655">
        <ele>2325</ele>
        <time>2019-08-04T09:43:18.724Z</time>
      </trkpt>
      <trkpt lat="42.81505" lon="-0.11657">
        <ele>2325.5386087419</ele>
        <time>2019-08-04T09:43:22.724Z</time>
      </trkpt>
      <trkpt lat="42.81506" lon="-0.1166">
        <ele>2326</ele>
        <time>2019-08-04T09:43:25.724Z</time>
      </trkpt>
      <trkpt lat="42.81504" lon="-0.11662">
        <ele>2326</ele>
        <time>2019-08-04T09:43:28.724Z</time>
      </trkpt>
      <trkpt lat="42.81502" lon="-0.11665">
        <ele>2326</ele>
        <time>2019-08-04T09:43:31.724Z</time>
      </trkpt>
      <trkpt lat="42.815" lon="-0.11668">
        <ele>2326</ele>
        <time>2019-08-04T09:43:34.724Z</time>
      </trkpt>
      <trkpt lat="42.81499" lon="-0.11671">
        <ele>2326</ele>
        <time>2019-08-04T09:43:40.724Z</time>
      </trkpt>
      <trkpt lat="42.81498" lon="-0.11674">
        <ele>2326</ele>
        <time>2019-08-04T09:43:43.724Z</time>
      </trkpt>
      <trkpt lat="42.81498" lon="-0.11676">
        <ele>2326</ele>
        <time>2019-08-04T09:43:46.724Z</time>
      </trkpt>
      <trkpt lat="42.81498" lon="-0.1168">
        <ele>2326</ele>
        <time>2019-08-04T09:43:49.724Z</time>
      </trkpt>
      <trkpt lat="42.81497" lon="-0.11683">
        <ele>2326</ele>
        <time>2019-08-04T09:43:52.724Z</time>
      </trkpt>
      <trkpt lat="42.81496" lon="-0.11686">
        <ele>2326</ele>
        <time>2019-08-04T09:43:55.724Z</time>
      </trkpt>
      <trkpt lat="42.81498" lon="-0.11687">
        <ele>2326</ele>
        <time>2019-08-04T09:43:57.724Z</time>
      </trkpt>
      <trkpt lat="42.81499" lon="-0.1169">
        <ele>2326.5863997316</ele>
        <time>2019-08-04T09:44:00.724Z</time>
      </trkpt>
      <trkpt lat="42.81505" lon="-0.11694">
        <ele>2327</ele>
        <time>2019-08-04T09:44:08.724Z</time>
      </trkpt>
      <trkpt lat="42.81506" lon="-0.11696">
        <ele>2327</ele>
        <time>2019-08-04T09:44:11.724Z</time>
      </trkpt>
      <trkpt lat="42.81507" lon="-0.11699">
        <ele>2327</ele>
        <time>2019-08-04T09:44:14.724Z</time>
      </trkpt>
      <trkpt lat="42.81506" lon="-0.11701">
        <ele>2326</ele>
        <time>2019-08-04T09:44:17.724Z</time>
      </trkpt>
      <trkpt lat="42.81504" lon="-0.11704">
        <ele>2326</ele>
        <time>2019-08-04T09:44:20.724Z</time>
      </trkpt>
      <trkpt lat="42.81504" lon="-0.11707">
        <ele>2326</ele>
        <time>2019-08-04T09:44:23.724Z</time>
      </trkpt>
      <trkpt lat="42.81505" lon="-0.11709">
        <ele>2326</ele>
        <time>2019-08-04T09:44:26.724Z</time>
      </trkpt>
      <trkpt lat="42.81505" lon="-0.11712">
        <ele>2326</ele>
        <time>2019-08-04T09:44:29.724Z</time>
      </trkpt>
      <trkpt lat="42.81504" lon="-0.11715">
        <ele>2326</ele>
        <time>2019-08-04T09:44:32.724Z</time>
      </trkpt>
      <trkpt lat="42.81504" lon="-0.11719">
        <ele>2326</ele>
        <time>2019-08-04T09:44:36.724Z</time>
      </trkpt>
      <trkpt lat="42.81504" lon="-0.11722">
        <ele>2326</ele>
        <time>2019-08-04T09:44:39.724Z</time>
      </trkpt>
      <trkpt lat="42.81503" lon="-0.11724">
        <ele>2326</ele>
        <time>2019-08-04T09:44:41.724Z</time>
      </trkpt>
      <trkpt lat="42.81503" lon="-0.11727">
        <ele>2326</ele>
        <time>2019-08-04T09:44:44.724Z</time>
      </trkpt>
      <trkpt lat="42.81502" lon="-0.11729">
        <ele>2326</ele>
        <time>2019-08-04T09:44:47.724Z</time>
      </trkpt>
      <trkpt lat="42.81503" lon="-0.11732">
        <ele>2326.578659931</ele>
        <time>2019-08-04T09:44:50.724Z</time>
      </trkpt>
      <trkpt lat="42.81502" lon="-0.11734">
        <ele>2327</ele>
        <time>2019-08-04T09:44:54.724Z</time>
      </trkpt>
      <trkpt lat="42.81501" lon="-0.11736">
        <ele>2327</ele>
        <time>2019-08-04T09:44:58.724Z</time>
      </trkpt>
      <trkpt lat="42.815" lon="-0.11738">
        <ele>2327</ele>
        <time>2019-08-04T09:45:00.724Z</time>
      </trkpt>
      <trkpt lat="42.81498" lon="-0.11741">
        <ele>2327</ele>
        <time>2019-08-04T09:45:03.724Z</time>
      </trkpt>
      <trkpt lat="42.81497" lon="-0.11743">
        <ele>2327</ele>
        <time>2019-08-04T09:45:05.724Z</time>
      </trkpt>
      <trkpt lat="42.81495" lon="-0.11745">
        <ele>2327</ele>
        <time>2019-08-04T09:45:08.724Z</time>
      </trkpt>
      <trkpt lat="42.81494" lon="-0.11748">
        <ele>2328</ele>
        <time>2019-08-04T09:45:11.724Z</time>
      </trkpt>
      <trkpt lat="42.81492" lon="-0.1175">
        <ele>2328</ele>
        <time>2019-08-04T09:45:14.724Z</time>
      </trkpt>
      <trkpt lat="42.8149" lon="-0.11753">
        <ele>2328</ele>
        <time>2019-08-04T09:45:17.724Z</time>
      </trkpt>
      <trkpt lat="42.81488" lon="-0.11755">
        <ele>2328</ele>
        <time>2019-08-04T09:45:21.724Z</time>
      </trkpt>
      <trkpt lat="42.81488" lon="-0.11757">
        <ele>2329</ele>
        <time>2019-08-04T09:45:25.724Z</time>
      </trkpt>
      <trkpt lat="42.81488" lon="-0.1176">
        <ele>2329</ele>
        <time>2019-08-04T09:45:28.724Z</time>
      </trkpt>
      <trkpt lat="42.81487" lon="-0.11763">
        <ele>2329</ele>
        <time>2019-08-04T09:45:32.724Z</time>
      </trkpt>
      <trkpt lat="42.81487" lon="-0.11766">
        <ele>2328</ele>
        <time>2019-08-04T09:45:35.724Z</time>
      </trkpt>
      <trkpt lat="42.81486" lon="-0.11768">
        <ele>2329</ele>
        <time>2019-08-04T09:45:38.724Z</time>
      </trkpt>
      <trkpt lat="42.81492" lon="-0.11774">
        <ele>2329</ele>
        <time>2019-08-04T09:45:47.724Z</time>
      </trkpt>
      <trkpt lat="42.81494" lon="-0.11776">
        <ele>2329.7547733333</ele>
        <time>2019-08-04T09:45:57.724Z</time>
      </trkpt>
      <trkpt lat="42.81495" lon="-0.11778">
        <ele>2330</ele>
        <time>2019-08-04T09:45:59.724Z</time>
      </trkpt>
      <trkpt lat="42.81496" lon="-0.1178">
        <ele>2329.460617501</ele>
        <time>2019-08-04T09:46:02.724Z</time>
      </trkpt>
      <trkpt lat="42.81499" lon="-0.11783">
        <ele>2329</ele>
        <time>2019-08-04T09:46:06.724Z</time>
      </trkpt>
      <trkpt lat="42.815" lon="-0.11784">
        <ele>2330</ele>
        <time>2019-08-04T09:46:10.724Z</time>
      </trkpt>
      <trkpt lat="42.81501" lon="-0.11786">
        <ele>2330</ele>
        <time>2019-08-04T09:46:16.724Z</time>
      </trkpt>
      <trkpt lat="42.81503" lon="-0.11789">
        <ele>2330</ele>
        <time>2019-08-04T09:46:22.724Z</time>
      </trkpt>
      <trkpt lat="42.81502" lon="-0.11792">
        <ele>2330</ele>
        <time>2019-08-04T09:46:25.724Z</time>
      </trkpt>
      <trkpt lat="42.81503" lon="-0.11795">
        <ele>2330</ele>
        <time>2019-08-04T09:46:28.724Z</time>
      </trkpt>
      <trkpt lat="42.81504" lon="-0.11797">
        <ele>2330</ele>
        <time>2019-08-04T09:46:32.724Z</time>
      </trkpt>
      <trkpt lat="42.81505" lon="-0.118">
        <ele>2331</ele>
        <time>2019-08-04T09:46:38.724Z</time>
      </trkpt>
      <trkpt lat="42.81506" lon="-0.11802">
        <ele>2331</ele>
        <time>2019-08-04T09:46:43.724Z</time>
      </trkpt>
      <trkpt lat="42.81506" lon="-0.11804">
        <ele>2331</ele>
        <time>2019-08-04T09:46:47.724Z</time>
      </trkpt>
      <trkpt lat="42.81506" lon="-0.11807">
        <ele>2332</ele>
        <time>2019-08-04T09:46:50.724Z</time>
      </trkpt>
      <trkpt lat="42.81504" lon="-0.11809">
        <ele>2332.5218338041</ele>
        <time>2019-08-04T09:46:52.724Z</time>
      </trkpt>
      <trkpt lat="42.81502" lon="-0.1181">
        <ele>2333</ele>
        <time>2019-08-04T09:46:54.724Z</time>
      </trkpt>
      <trkpt lat="42.81501" lon="-0.11813">
        <ele>2333</ele>
        <time>2019-08-04T09:46:57.724Z</time>
      </trkpt>
      <trkpt lat="42.815" lon="-0.11816">
        <ele>2333</ele>
        <time>2019-08-04T09:47:01.724Z</time>
      </trkpt>
      <trkpt lat="42.81499" lon="-0.11818">
        <ele>2333</ele>
        <time>2019-08-04T09:47:04.724Z</time>
      </trkpt>
      <trkpt lat="42.81498" lon="-0.11821">
        <ele>2333</ele>
        <time>2019-08-04T09:47:07.724Z</time>
      </trkpt>
      <trkpt lat="42.81496" lon="-0.11823">
        <ele>2333</ele>
        <time>2019-08-04T09:47:11.724Z</time>
      </trkpt>
      <trkpt lat="42.81494" lon="-0.11824">
        <ele>2333</ele>
        <time>2019-08-04T09:47:17.724Z</time>
      </trkpt>
      <trkpt lat="42.81492" lon="-0.11825">
        <ele>2332</ele>
        <time>2019-08-04T09:47:20.724Z</time>
      </trkpt>
      <trkpt lat="42.81491" lon="-0.11827">
        <ele>2332</ele>
        <time>2019-08-04T09:47:23.724Z</time>
      </trkpt>
      <trkpt lat="42.81489" lon="-0.1183">
        <ele>2332</ele>
        <time>2019-08-04T09:47:30.724Z</time>
      </trkpt>
      <trkpt lat="42.81489" lon="-0.11832">
        <ele>2332</ele>
        <time>2019-08-04T09:47:33.724Z</time>
      </trkpt>
      <trkpt lat="42.81488" lon="-0.11835">
        <ele>2332</ele>
        <time>2019-08-04T09:47:37.724Z</time>
      </trkpt>
      <trkpt lat="42.81486" lon="-0.11837">
        <ele>2332.6000077575</ele>
        <time>2019-08-04T09:47:43.724Z</time>
      </trkpt>
      <trkpt lat="42.81484" lon="-0.11838">
        <ele>2333</ele>
        <time>2019-08-04T09:47:46.724Z</time>
      </trkpt>
      <trkpt lat="42.81483" lon="-0.1184">
        <ele>2333</ele>
        <time>2019-08-04T09:47:55.724Z</time>
      </trkpt>
      <trkpt lat="42.81482" lon="-0.11843">
        <ele>2333</ele>
        <time>2019-08-04T09:47:58.724Z</time>
      </trkpt>
      <trkpt lat="42.81481" lon="-0.11845">
        <ele>2333</ele>
        <time>2019-08-04T09:48:00.724Z</time>
      </trkpt>
      <trkpt lat="42.81481" lon="-0.11848">
        <ele>2333</ele>
        <time>2019-08-04T09:48:03.724Z</time>
      </trkpt>
      <trkpt lat="42.81481" lon="-0.11851">
        <ele>2333</ele>
        <time>2019-08-04T09:48:06.724Z</time>
      </trkpt>
      <trkpt lat="42.81479" lon="-0.11852">
        <ele>2334</ele>
        <time>2019-08-04T09:48:09.724Z</time>
      </trkpt>
      <trkpt lat="42.81479" lon="-0.11855">
        <ele>2334</ele>
        <time>2019-08-04T09:48:13.724Z</time>
      </trkpt>
      <trkpt lat="42.81476" lon="-0.11857">
        <ele>2334</ele>
        <time>2019-08-04T09:48:18.724Z</time>
      </trkpt>
      <trkpt lat="42.81474" lon="-0.11858">
        <ele>2334</ele>
        <time>2019-08-04T09:48:21.724Z</time>
      </trkpt>
      <trkpt lat="42.81472" lon="-0.11859">
        <ele>2334</ele>
        <time>2019-08-04T09:48:23.724Z</time>
      </trkpt>
      <trkpt lat="42.8147" lon="-0.1186">
        <ele>2333.3327152667</ele>
        <time>2019-08-04T09:48:26.724Z</time>
      </trkpt>
      <trkpt lat="42.81471" lon="-0.11863">
        <ele>2333</ele>
        <time>2019-08-04T09:48:32.724Z</time>
      </trkpt>
      <trkpt lat="42.8147" lon="-0.11866">
        <ele>2334</ele>
        <time>2019-08-04T09:48:45.724Z</time>
      </trkpt>
      <trkpt lat="42.8147" lon="-0.11868">
        <ele>2335</ele>
        <time>2019-08-04T09:48:48.724Z</time>
      </trkpt>
      <trkpt lat="42.81469" lon="-0.11871">
        <ele>2335</ele>
        <time>2019-08-04T09:48:52.724Z</time>
      </trkpt>
      <trkpt lat="42.81471" lon="-0.11873">
        <ele>2335</ele>
        <time>2019-08-04T09:48:57.724Z</time>
      </trkpt>
      <trkpt lat="42.81473" lon="-0.11874">
        <ele>2336</ele>
        <time>2019-08-04T09:48:59.724Z</time>
      </trkpt>
      <trkpt lat="42.81474" lon="-0.11877">
        <ele>2336</ele>
        <time>2019-08-04T09:49:03.724Z</time>
      </trkpt>
      <trkpt lat="42.81473" lon="-0.11879">
        <ele>2336.7240064</ele>
        <time>2019-08-04T09:49:07.724Z</time>
      </trkpt>
      <trkpt lat="42.81476" lon="-0.11885">
        <ele>2337.5394024023</ele>
        <time>2019-08-04T09:49:13.724Z</time>
      </trkpt>
      <trkpt lat="42.81466" lon="-0.11888">
        <ele>2338</ele>
        <time>2019-08-04T09:49:20.724Z</time>
      </trkpt>
      <trkpt lat="42.8146" lon="-0.11896">
        <ele>2338</ele>
        <time>2019-08-04T09:49:30.724Z</time>
      </trkpt>
      <trkpt lat="42.81459" lon="-0.11901">
        <ele>2338</ele>
        <time>2019-08-04T09:49:34.724Z</time>
      </trkpt>
      <trkpt lat="42.81462" lon="-0.11905">
        <ele>2339</ele>
        <time>2019-08-04T09:49:50.724Z</time>
      </trkpt>
      <trkpt lat="42.8146" lon="-0.11907">
        <ele>2339</ele>
        <time>2019-08-04T09:49:53.724Z</time>
      </trkpt>
      <trkpt lat="42.81458" lon="-0.11908">
        <ele>2339</ele>
        <time>2019-08-04T09:49:55.724Z</time>
      </trkpt>
      <trkpt lat="42.81456" lon="-0.11909">
        <ele>2339</ele>
        <time>2019-08-04T09:49:58.724Z</time>
      </trkpt>
      <trkpt lat="42.81455" lon="-0.11911">
        <ele>2338</ele>
        <time>2019-08-04T09:50:03.724Z</time>
      </trkpt>
      <trkpt lat="42.81455" lon="-0.11913">
        <ele>2338</ele>
        <time>2019-08-04T09:50:07.724Z</time>
      </trkpt>
      <trkpt lat="42.81454" lon="-0.11916">
        <ele>2338</ele>
        <time>2019-08-04T09:50:12.724Z</time>
      </trkpt>
      <trkpt lat="42.81452" lon="-0.11916">
        <ele>2339</ele>
        <time>2019-08-04T09:50:17.724Z</time>
      </trkpt>
      <trkpt lat="42.81447" lon="-0.11926">
        <ele>2338</ele>
        <time>2019-08-04T09:50:38.724Z</time>
      </trkpt>
      <trkpt lat="42.81441" lon="-0.11939">
        <ele>2341</ele>
        <time>2019-08-04T09:51:21.724Z</time>
      </trkpt>
      <trkpt lat="42.81446" lon="-0.1195">
        <ele>2343</ele>
        <time>2019-08-04T09:51:39.724Z</time>
      </trkpt>
      <trkpt lat="42.81442" lon="-0.11951">
        <ele>2345</ele>
        <time>2019-08-04T09:51:52.724Z</time>
      </trkpt>
      <trkpt lat="42.81438" lon="-0.11959">
        <ele>2347</ele>
        <time>2019-08-04T09:52:18.724Z</time>
      </trkpt>
      <trkpt lat="42.81445" lon="-0.11973">
        <ele>2350</ele>
        <time>2019-08-04T09:52:44.724Z</time>
      </trkpt>
      <trkpt lat="42.81436" lon="-0.11974">
        <ele>2350</ele>
        <time>2019-08-04T09:53:04.724Z</time>
      </trkpt>
      <trkpt lat="42.81429" lon="-0.11982">
        <ele>2348</ele>
        <time>2019-08-04T09:53:15.724Z</time>
      </trkpt>
      <trkpt lat="42.81422" lon="-0.11982">
        <ele>2348.9119860734</ele>
        <time>2019-08-04T09:53:21.724Z</time>
      </trkpt>
      <trkpt lat="42.81421" lon="-0.11987">
        <ele>2348</ele>
        <time>2019-08-04T09:53:30.724Z</time>
      </trkpt>
      <trkpt lat="42.81412" lon="-0.11988">
        <ele>2348</ele>
        <time>2019-08-04T09:53:42.724Z</time>
      </trkpt>
      <trkpt lat="42.8141" lon="-0.11988">
        <ele>2348</ele>
        <time>2019-08-04T09:53:45.724Z</time>
      </trkpt>
      <trkpt lat="42.8141" lon="-0.11991">
        <ele>2348</ele>
        <time>2019-08-04T09:53:50.724Z</time>
      </trkpt>
      <trkpt lat="42.81415" lon="-0.12002">
        <ele>2351</ele>
        <time>2019-08-04T09:54:10.724Z</time>
      </trkpt>
      <trkpt lat="42.81407" lon="-0.12">
        <ele>2353</ele>
        <time>2019-08-04T09:54:19.724Z</time>
      </trkpt>
      <trkpt lat="42.81403" lon="-0.12004">
        <ele>2352</ele>
        <time>2019-08-04T09:54:31.724Z</time>
      </trkpt>
      <trkpt lat="42.81411" lon="-0.1201">
        <ele>2352</ele>
        <time>2019-08-04T09:54:46.724Z</time>
      </trkpt>
      <trkpt lat="42.81408" lon="-0.12">
        <ele>2354</ele>
        <time>2019-08-04T09:54:54.724Z</time>
      </trkpt>
      <trkpt lat="42.8141" lon="-0.11999">
        <ele>2355</ele>
        <time>2019-08-04T09:55:08.724Z</time>
      </trkpt>
      <trkpt lat="42.81411" lon="-0.12001">
        <ele>2357</ele>
        <time>2019-08-04T09:55:16.724Z</time>
      </trkpt>
      <trkpt lat="42.81413" lon="-0.12003">
        <ele>2357</ele>
        <time>2019-08-04T09:55:19.724Z</time>
      </trkpt>
      <trkpt lat="42.8142" lon="-0.12012">
        <ele>2358</ele>
        <time>2019-08-04T09:55:26.724Z</time>
      </trkpt>
      <trkpt lat="42.81424" lon="-0.12018">
        <ele>2357</ele>
        <time>2019-08-04T09:55:29.724Z</time>
      </trkpt>
      <trkpt lat="42.81425" lon="-0.12026">
        <ele>2359</ele>
        <time>2019-08-04T09:55:41.724Z</time>
      </trkpt>
      <trkpt lat="42.81419" lon="-0.12016">
        <ele>2364</ele>
        <time>2019-08-04T09:56:26.724Z</time>
      </trkpt>
      <trkpt lat="42.81422" lon="-0.12027">
        <ele>2364</ele>
        <time>2019-08-04T09:56:38.724Z</time>
      </trkpt>
      <trkpt lat="42.81415" lon="-0.12033">
        <ele>2365</ele>
        <time>2019-08-04T09:56:53.724Z</time>
      </trkpt>
      <trkpt lat="42.81405" lon="-0.12034">
        <ele>2366</ele>
        <time>2019-08-04T09:57:04.724Z</time>
      </trkpt>
      <trkpt lat="42.81398" lon="-0.12043">
        <ele>2367</ele>
        <time>2019-08-04T09:58:24.724Z</time>
      </trkpt>
      <trkpt lat="42.8139" lon="-0.12047">
        <ele>2369</ele>
        <time>2019-08-04T09:58:42.724Z</time>
      </trkpt>
      <trkpt lat="42.81383" lon="-0.12056">
        <ele>2372</ele>
        <time>2019-08-04T09:59:04.724Z</time>
      </trkpt>
      <trkpt lat="42.81377" lon="-0.12066">
        <ele>2374</ele>
        <time>2019-08-04T09:59:25.724Z</time>
      </trkpt>
      <trkpt lat="42.81371" lon="-0.12074">
        <ele>2377</ele>
        <time>2019-08-04T09:59:53.724Z</time>
      </trkpt>
      <trkpt lat="42.81368" lon="-0.12087">
        <ele>2377</ele>
        <time>2019-08-04T10:00:02.724Z</time>
      </trkpt>
      <trkpt lat="42.81359" lon="-0.12085">
        <ele>2379</ele>
        <time>2019-08-04T10:00:20.724Z</time>
      </trkpt>
      <trkpt lat="42.81361" lon="-0.12099">
        <ele>2380</ele>
        <time>2019-08-04T10:01:36.724Z</time>
      </trkpt>
      <trkpt lat="42.81352" lon="-0.12103">
        <ele>2381</ele>
        <time>2019-08-04T10:01:50.724Z</time>
      </trkpt>
      <trkpt lat="42.81343" lon="-0.12103">
        <ele>2383</ele>
        <time>2019-08-04T10:02:24.724Z</time>
      </trkpt>
      <trkpt lat="42.81349" lon="-0.12094">
        <ele>2383</ele>
        <time>2019-08-04T10:04:16.724Z</time>
      </trkpt>
      <trkpt lat="42.81347" lon="-0.12107">
        <ele>2383.7726188712</ele>
        <time>2019-08-04T10:04:32.724Z</time>
      </trkpt>
      <trkpt lat="42.81339" lon="-0.12112">
        <ele>2384</ele>
        <time>2019-08-04T10:04:41.724Z</time>
      </trkpt>
      <trkpt lat="42.81332" lon="-0.12121">
        <ele>2387</ele>
        <time>2019-08-04T10:05:03.724Z</time>
      </trkpt>
      <trkpt lat="42.81324" lon="-0.12125">
        <ele>2387</ele>
        <time>2019-08-04T10:05:17.724Z</time>
      </trkpt>
      <trkpt lat="42.81317" lon="-0.12132">
        <ele>2392</ele>
        <time>2019-08-04T10:05:52.724Z</time>
      </trkpt>
      <trkpt lat="42.81316" lon="-0.1214">
        <ele>2394.6904412092</ele>
        <time>2019-08-04T10:06:09.724Z</time>
      </trkpt>
      <trkpt lat="42.81311" lon="-0.12148">
        <ele>2398</ele>
        <time>2019-08-04T10:06:36.724Z</time>
      </trkpt>
      <trkpt lat="42.81304" lon="-0.12158">
        <ele>2402.6595352381</ele>
        <time>2019-08-04T10:06:57.724Z</time>
      </trkpt>
      <trkpt lat="42.81302" lon="-0.12153">
        <ele>2403</ele>
        <time>2019-08-04T10:07:10.724Z</time>
      </trkpt>
      <trkpt lat="42.81303" lon="-0.12151">
        <ele>2403</ele>
        <time>2019-08-04T10:07:16.724Z</time>
      </trkpt>
      <trkpt lat="42.81298" lon="-0.12155">
        <ele>2406</ele>
        <time>2019-08-04T10:08:11.724Z</time>
      </trkpt>
      <trkpt lat="42.81296" lon="-0.12156">
        <ele>2406</ele>
        <time>2019-08-04T10:08:25.724Z</time>
      </trkpt>
      <trkpt lat="42.81294" lon="-0.12157">
        <ele>2407</ele>
        <time>2019-08-04T10:08:35.724Z</time>
      </trkpt>
      <trkpt lat="42.81293" lon="-0.1216">
        <ele>2407</ele>
        <time>2019-08-04T10:08:44.724Z</time>
      </trkpt>
      <trkpt lat="42.81291" lon="-0.12161">
        <ele>2407</ele>
        <time>2019-08-04T10:08:48.724Z</time>
      </trkpt>
      <trkpt lat="42.81288" lon="-0.12162">
        <ele>2408</ele>
        <time>2019-08-04T10:08:55.724Z</time>
      </trkpt>
      <trkpt lat="42.81286" lon="-0.12164">
        <ele>2408</ele>
        <time>2019-08-04T10:09:00.724Z</time>
      </trkpt>
      <trkpt lat="42.81282" lon="-0.12166">
        <ele>2409</ele>
        <time>2019-08-04T10:09:09.724Z</time>
      </trkpt>
      <trkpt lat="42.8128" lon="-0.12169">
        <ele>2411</ele>
        <time>2019-08-04T10:09:18.724Z</time>
      </trkpt>
      <trkpt lat="42.81279" lon="-0.1217">
        <ele>2411</ele>
        <time>2019-08-04T10:09:22.724Z</time>
      </trkpt>
      <trkpt lat="42.81273" lon="-0.12176">
        <ele>2414</ele>
        <time>2019-08-04T10:09:48.724Z</time>
      </trkpt>
      <trkpt lat="42.8127" lon="-0.12177">
        <ele>2414</ele>
        <time>2019-08-04T10:09:55.724Z</time>
      </trkpt>
      <trkpt lat="42.81273" lon="-0.12184">
        <ele>2417</ele>
        <time>2019-08-04T10:10:22.724Z</time>
      </trkpt>
      <trkpt lat="42.81269" lon="-0.12186">
        <ele>2418</ele>
        <time>2019-08-04T10:10:28.724Z</time>
      </trkpt>
      <trkpt lat="42.81278" lon="-0.1219">
        <ele>2420</ele>
        <time>2019-08-04T10:10:44.724Z</time>
      </trkpt>
      <trkpt lat="42.8128" lon="-0.12192">
        <ele>2420</ele>
        <time>2019-08-04T10:10:54.724Z</time>
      </trkpt>
      <trkpt lat="42.81279" lon="-0.12194">
        <ele>2423</ele>
        <time>2019-08-04T10:10:59.724Z</time>
      </trkpt>
      <trkpt lat="42.81275" lon="-0.12194">
        <ele>2423</ele>
        <time>2019-08-04T10:11:02.724Z</time>
      </trkpt>
      <trkpt lat="42.81269" lon="-0.12202">
        <ele>2425</ele>
        <time>2019-08-04T10:11:21.724Z</time>
      </trkpt>
      <trkpt lat="42.81263" lon="-0.122">
        <ele>2426</ele>
        <time>2019-08-04T10:11:35.724Z</time>
      </trkpt>
      <trkpt lat="42.81269" lon="-0.1221">
        <ele>2429</ele>
        <time>2019-08-04T10:12:00.724Z</time>
      </trkpt>
      <trkpt lat="42.8126" lon="-0.12212">
        <ele>2432</ele>
        <time>2019-08-04T10:12:12.724Z</time>
      </trkpt>
      <trkpt lat="42.81258" lon="-0.12212">
        <ele>2432.7573168802</ele>
        <time>2019-08-04T10:12:19.724Z</time>
      </trkpt>
      <trkpt lat="42.81252" lon="-0.12222">
        <ele>2436</ele>
        <time>2019-08-04T10:12:41.724Z</time>
      </trkpt>
      <trkpt lat="42.81249" lon="-0.12226">
        <ele>2436.6318254545</ele>
        <time>2019-08-04T10:12:51.724Z</time>
      </trkpt>
      <trkpt lat="42.81251" lon="-0.12227">
        <ele>2437</ele>
        <time>2019-08-04T10:12:57.724Z</time>
      </trkpt>
      <trkpt lat="42.81242" lon="-0.12232">
        <ele>2439</ele>
        <time>2019-08-04T10:13:17.724Z</time>
      </trkpt>
      <trkpt lat="42.81241" lon="-0.12231">
        <ele>2440</ele>
        <time>2019-08-04T10:13:20.724Z</time>
      </trkpt>
      <trkpt lat="42.81239" lon="-0.12232">
        <ele>2440</ele>
        <time>2019-08-04T10:13:26.724Z</time>
      </trkpt>
      <trkpt lat="42.81237" lon="-0.12233">
        <ele>2440</ele>
        <time>2019-08-04T10:13:35.724Z</time>
      </trkpt>
      <trkpt lat="42.81239" lon="-0.12246">
        <ele>2444</ele>
        <time>2019-08-04T10:14:11.724Z</time>
      </trkpt>
      <trkpt lat="42.81236" lon="-0.12245">
        <ele>2444</ele>
        <time>2019-08-04T10:14:19.724Z</time>
      </trkpt>
      <trkpt lat="42.81235" lon="-0.12247">
        <ele>2444.8020143773</ele>
        <time>2019-08-04T10:14:24.724Z</time>
      </trkpt>
      <trkpt lat="42.81226" lon="-0.12252">
        <ele>2448.5752337531</ele>
        <time>2019-08-04T10:14:46.724Z</time>
      </trkpt>
      <trkpt lat="42.81216" lon="-0.12257">
        <ele>2452</ele>
        <time>2019-08-04T10:15:12.724Z</time>
      </trkpt>
      <trkpt lat="42.81217" lon="-0.12254">
        <ele>2452</ele>
        <time>2019-08-04T10:15:15.724Z</time>
      </trkpt>
      <trkpt lat="42.81208" lon="-0.12255">
        <ele>2455</ele>
        <time>2019-08-04T10:15:56.724Z</time>
      </trkpt>
      <trkpt lat="42.81204" lon="-0.12256">
        <ele>2457.6644103832</ele>
        <time>2019-08-04T10:16:13.724Z</time>
      </trkpt>
      <trkpt lat="42.81201" lon="-0.1226">
        <ele>2458.2329840859</ele>
        <time>2019-08-04T10:16:23.724Z</time>
      </trkpt>
      <trkpt lat="42.81199" lon="-0.1227">
        <ele>2459</ele>
        <time>2019-08-04T10:16:41.724Z</time>
      </trkpt>
      <trkpt lat="42.81196" lon="-0.12271">
        <ele>2460</ele>
        <time>2019-08-04T10:16:49.724Z</time>
      </trkpt>
      <trkpt lat="42.81194" lon="-0.12272">
        <ele>2460</ele>
        <time>2019-08-04T10:16:53.724Z</time>
      </trkpt>
      <trkpt lat="42.81192" lon="-0.12272">
        <ele>2461</ele>
        <time>2019-08-04T10:16:56.724Z</time>
      </trkpt>
      <trkpt lat="42.81189" lon="-0.12271">
        <ele>2462</ele>
        <time>2019-08-04T10:17:04.724Z</time>
      </trkpt>
      <trkpt lat="42.81183" lon="-0.12269">
        <ele>2464</ele>
        <time>2019-08-04T10:17:19.724Z</time>
      </trkpt>
      <trkpt lat="42.81175" lon="-0.12273">
        <ele>2465</ele>
        <time>2019-08-04T10:17:39.724Z</time>
      </trkpt>
      <trkpt lat="42.81167" lon="-0.12277">
        <ele>2473</ele>
        <time>2019-08-04T10:18:23.724Z</time>
      </trkpt>
      <trkpt lat="42.81158" lon="-0.12277">
        <ele>2476</ele>
        <time>2019-08-04T10:18:52.724Z</time>
      </trkpt>
      <trkpt lat="42.81159" lon="-0.12289">
        <ele>2479</ele>
        <time>2019-08-04T10:19:43.724Z</time>
      </trkpt>
      <trkpt lat="42.81153" lon="-0.12299">
        <ele>2481</ele>
        <time>2019-08-04T10:19:54.724Z</time>
      </trkpt>
      <trkpt lat="42.8115" lon="-0.12299">
        <ele>2482</ele>
        <time>2019-08-04T10:20:08.724Z</time>
      </trkpt>
      <trkpt lat="42.81154" lon="-0.12288">
        <ele>2481</ele>
        <time>2019-08-04T10:20:22.724Z</time>
      </trkpt>
      <trkpt lat="42.81145" lon="-0.12296">
        <ele>2483</ele>
        <time>2019-08-04T10:20:37.724Z</time>
      </trkpt>
      <trkpt lat="42.8114" lon="-0.12306">
        <ele>2482.4071542857</ele>
        <time>2019-08-04T10:20:42.724Z</time>
      </trkpt>
      <trkpt lat="42.81133" lon="-0.12315">
        <ele>2485</ele>
        <time>2019-08-04T10:21:16.724Z</time>
      </trkpt>
      <trkpt lat="42.81125" lon="-0.12324">
        <ele>2487</ele>
        <time>2019-08-04T10:21:28.724Z</time>
      </trkpt>
      <trkpt lat="42.81116" lon="-0.12328">
        <ele>2490</ele>
        <time>2019-08-04T10:22:12.724Z</time>
      </trkpt>
      <trkpt lat="42.8111" lon="-0.12339">
        <ele>2493</ele>
        <time>2019-08-04T10:22:27.724Z</time>
      </trkpt>
      <trkpt lat="42.81111" lon="-0.12336">
        <ele>2494</ele>
        <time>2019-08-04T10:22:45.724Z</time>
      </trkpt>
      <trkpt lat="42.81114" lon="-0.12324">
        <ele>2494</ele>
        <time>2019-08-04T10:23:07.724Z</time>
      </trkpt>
      <trkpt lat="42.81106" lon="-0.12332">
        <ele>2497</ele>
        <time>2019-08-04T10:23:29.724Z</time>
      </trkpt>
      <trkpt lat="42.811" lon="-0.12343">
        <ele>2497</ele>
        <time>2019-08-04T10:23:39.724Z</time>
      </trkpt>
      <trkpt lat="42.81094" lon="-0.12355">
        <ele>2500</ele>
        <time>2019-08-04T10:23:54.724Z</time>
      </trkpt>
      <trkpt lat="42.81084" lon="-0.12353">
        <ele>2505</ele>
        <time>2019-08-04T10:25:24.724Z</time>
      </trkpt>
      <trkpt lat="42.81075" lon="-0.12356">
        <ele>2508</ele>
        <time>2019-08-04T10:25:59.724Z</time>
      </trkpt>
      <trkpt lat="42.81071" lon="-0.12368">
        <ele>2509</ele>
        <time>2019-08-04T10:26:04.724Z</time>
      </trkpt>
      <trkpt lat="42.81072" lon="-0.12354">
        <ele>2514</ele>
        <time>2019-08-04T10:26:49.724Z</time>
      </trkpt>
      <trkpt lat="42.81067" lon="-0.12364">
        <ele>2515</ele>
        <time>2019-08-04T10:27:07.724Z</time>
      </trkpt>
      <trkpt lat="42.81057" lon="-0.12368">
        <ele>2519.4990552352</ele>
        <time>2019-08-04T10:27:33.724Z</time>
      </trkpt>
      <trkpt lat="42.81052" lon="-0.12381">
        <ele>2520</ele>
        <time>2019-08-04T10:27:38.724Z</time>
      </trkpt>
      <trkpt lat="42.81058" lon="-0.12371">
        <ele>2521</ele>
        <time>2019-08-04T10:27:48.724Z</time>
      </trkpt>
      <trkpt lat="42.81055" lon="-0.12369">
        <ele>2523</ele>
        <time>2019-08-04T10:28:14.724Z</time>
      </trkpt>
      <trkpt lat="42.81057" lon="-0.12371">
        <ele>2527</ele>
        <time>2019-08-04T10:28:47.724Z</time>
      </trkpt>
      <trkpt lat="42.8105" lon="-0.12365">
        <ele>2528</ele>
        <time>2019-08-04T10:29:09.724Z</time>
      </trkpt>
      <trkpt lat="42.81049" lon="-0.12367">
        <ele>2530</ele>
        <time>2019-08-04T10:29:12.724Z</time>
      </trkpt>
      <trkpt lat="42.81047" lon="-0.12368">
        <ele>2530</ele>
        <time>2019-08-04T10:29:15.724Z</time>
      </trkpt>
      <trkpt lat="42.81043" lon="-0.12378">
        <ele>2532</ele>
        <time>2019-08-04T10:29:31.724Z</time>
      </trkpt>
      <trkpt lat="42.81042" lon="-0.12386">
        <ele>2532</ele>
        <time>2019-08-04T10:29:40.724Z</time>
      </trkpt>
      <trkpt lat="42.81038" lon="-0.12386">
        <ele>2533</ele>
        <time>2019-08-04T10:29:50.724Z</time>
      </trkpt>
      <trkpt lat="42.81039" lon="-0.12398">
        <ele>2537</ele>
        <time>2019-08-04T10:30:06.724Z</time>
      </trkpt>
      <trkpt lat="42.81035" lon="-0.12404">
        <ele>2539</ele>
        <time>2019-08-04T10:30:23.724Z</time>
      </trkpt>
      <trkpt lat="42.81033" lon="-0.12402">
        <ele>2539</ele>
        <time>2019-08-04T10:30:26.724Z</time>
      </trkpt>
      <trkpt lat="42.81026" lon="-0.12414">
        <ele>2541.5292847538</ele>
        <time>2019-08-04T10:30:44.724Z</time>
      </trkpt>
      <trkpt lat="42.81022" lon="-0.12409">
        <ele>2545</ele>
        <time>2019-08-04T10:31:38.724Z</time>
      </trkpt>
      <trkpt lat="42.81019" lon="-0.12421">
        <ele>2545</ele>
        <time>2019-08-04T10:31:48.714Z</time>
      </trkpt>
      <trkpt lat="42.81027" lon="-0.12415">
        <ele>2545</ele>
        <time>2019-08-04T10:32:23.714Z</time>
      </trkpt>
      <trkpt lat="42.81026" lon="-0.12402">
        <ele>2544</ele>
        <time>2019-08-04T10:33:48.724Z</time>
      </trkpt>
      <trkpt lat="42.81023" lon="-0.12414">
        <ele>2547</ele>
        <time>2019-08-04T10:34:26.711Z</time>
      </trkpt>
      <trkpt lat="42.81025" lon="-0.12426">
        <ele>2549</ele>
        <time>2019-08-04T10:35:02.724Z</time>
      </trkpt>
      <trkpt lat="42.81024" lon="-0.1244">
        <ele>2552</ele>
        <time>2019-08-04T10:35:42.724Z</time>
      </trkpt>
      <trkpt lat="42.81014" lon="-0.12443">
        <ele>2553</ele>
        <time>2019-08-04T10:35:53.724Z</time>
      </trkpt>
      <trkpt lat="42.81008" lon="-0.12453">
        <ele>2561</ele>
        <time>2019-08-04T10:36:47.711Z</time>
      </trkpt>
      <trkpt lat="42.81" lon="-0.1246">
        <ele>2562</ele>
        <time>2019-08-04T10:36:55.713Z</time>
      </trkpt>
      <trkpt lat="42.81009" lon="-0.12456">
        <ele>2563</ele>
        <time>2019-08-04T10:37:09.713Z</time>
      </trkpt>
      <trkpt lat="42.81018" lon="-0.12459">
        <ele>2564</ele>
        <time>2019-08-04T10:37:16.724Z</time>
      </trkpt>
      <trkpt lat="42.8101" lon="-0.12466">
        <ele>2566</ele>
        <time>2019-08-04T10:37:31.724Z</time>
      </trkpt>
      <trkpt lat="42.81013" lon="-0.1248">
        <ele>2570</ele>
        <time>2019-08-04T10:38:20.724Z</time>
      </trkpt>
      <trkpt lat="42.81012" lon="-0.12493">
        <ele>2570</ele>
        <time>2019-08-04T10:38:25.724Z</time>
      </trkpt>
      <trkpt lat="42.81023" lon="-0.12498">
        <ele>2570</ele>
        <time>2019-08-04T10:38:29.724Z</time>
      </trkpt>
      <trkpt lat="42.81025" lon="-0.12468">
        <ele>2570</ele>
        <time>2019-08-04T10:38:30.724Z</time>
      </trkpt>
      <trkpt lat="42.81015" lon="-0.12463">
        <ele>2570</ele>
        <time>2019-08-04T10:38:38.724Z</time>
      </trkpt>
      <trkpt lat="42.81006" lon="-0.12462">
        <ele>2570.7594145364</ele>
        <time>2019-08-04T10:38:40.724Z</time>
      </trkpt>
      <trkpt lat="42.81009" lon="-0.12474">
        <ele>2572.8230016</ele>
        <time>2019-08-04T10:38:53.713Z</time>
      </trkpt>
      <trkpt lat="42.81001" lon="-0.12482">
        <ele>2575.8370048</ele>
        <time>2019-08-04T10:39:10.727Z</time>
      </trkpt>
      <trkpt lat="42.81011" lon="-0.12487">
        <ele>2577</ele>
        <time>2019-08-04T10:39:18.724Z</time>
      </trkpt>
      <trkpt lat="42.8102" lon="-0.12486">
        <ele>2578</ele>
        <time>2019-08-04T10:39:29.724Z</time>
      </trkpt>
      <trkpt lat="42.81008" lon="-0.12487">
        <ele>2580</ele>
        <time>2019-08-04T10:39:43.724Z</time>
      </trkpt>
      <trkpt lat="42.81018" lon="-0.12491">
        <ele>2581</ele>
        <time>2019-08-04T10:39:50.724Z</time>
      </trkpt>
      <trkpt lat="42.81019" lon="-0.12491">
        <ele>2581</ele>
        <time>2019-08-04T10:39:59.724Z</time>
      </trkpt>
      <trkpt lat="42.81008" lon="-0.12493">
        <ele>2581</ele>
        <time>2019-08-04T10:39:59.725Z</time>
      </trkpt>
      <trkpt lat="42.81028" lon="-0.12487">
        <ele>2581</ele>
        <time>2019-08-04T10:40:05.713Z</time>
      </trkpt>
      <trkpt lat="42.81039" lon="-0.12485">
        <ele>2581</ele>
        <time>2019-08-04T10:40:11.711Z</time>
      </trkpt>
      <trkpt lat="42.81029" lon="-0.12494">
        <ele>2581</ele>
        <time>2019-08-04T10:40:20.724Z</time>
      </trkpt>
      <trkpt lat="42.81017" lon="-0.12499">
        <ele>2582</ele>
        <time>2019-08-04T10:40:27.724Z</time>
      </trkpt>
      <trkpt lat="42.81008" lon="-0.12496">
        <ele>2582</ele>
        <time>2019-08-04T10:40:32.724Z</time>
      </trkpt>
      <trkpt lat="42.81001" lon="-0.12504">
        <ele>2585</ele>
        <time>2019-08-04T10:40:45.712Z</time>
      </trkpt>
      <trkpt lat="42.80991" lon="-0.12501">
        <ele>2593</ele>
        <time>2019-08-04T10:42:00.722Z</time>
      </trkpt>
      <trkpt lat="42.80983" lon="-0.12509">
        <ele>2595</ele>
        <time>2019-08-04T10:42:11.724Z</time>
      </trkpt>
      <trkpt lat="42.80992" lon="-0.12507">
        <ele>2598</ele>
        <time>2019-08-04T10:43:00.712Z</time>
      </trkpt>
      <trkpt lat="42.80983" lon="-0.12509">
        <ele>2598</ele>
        <time>2019-08-04T10:43:37.712Z</time>
      </trkpt>
      <trkpt lat="42.80973" lon="-0.1251">
        <ele>2602</ele>
        <time>2019-08-04T10:43:53.722Z</time>
      </trkpt>
      <trkpt lat="42.80967" lon="-0.12521">
        <ele>2603</ele>
        <time>2019-08-04T10:44:00.724Z</time>
      </trkpt>
      <trkpt lat="42.80959" lon="-0.12514">
        <ele>2611</ele>
        <time>2019-08-04T10:45:00.724Z</time>
      </trkpt>
      <trkpt lat="42.80953" lon="-0.1252">
        <ele>2619.8115737781</ele>
        <time>2019-08-04T10:46:08.724Z</time>
      </trkpt>
      <trkpt lat="42.8095" lon="-0.12522">
        <ele>2620</ele>
        <time>2019-08-04T10:46:15.724Z</time>
      </trkpt>
      <trkpt lat="42.80948" lon="-0.12522">
        <ele>2621</ele>
        <time>2019-08-04T10:46:20.724Z</time>
      </trkpt>
      <trkpt lat="42.8095" lon="-0.12524">
        <ele>2622</ele>
        <time>2019-08-04T10:46:30.724Z</time>
      </trkpt>
      <trkpt lat="42.80951" lon="-0.12526">
        <ele>2623</ele>
        <time>2019-08-04T10:46:34.724Z</time>
      </trkpt>
      <trkpt lat="42.80949" lon="-0.12528">
        <ele>2625</ele>
        <time>2019-08-04T10:47:00.724Z</time>
      </trkpt>
      <trkpt lat="42.8095" lon="-0.12531">
        <ele>2625</ele>
        <time>2019-08-04T10:47:04.724Z</time>
      </trkpt>
      <trkpt lat="42.80952" lon="-0.12533">
        <ele>2625</ele>
        <time>2019-08-04T10:47:09.724Z</time>
      </trkpt>
      <trkpt lat="42.8095" lon="-0.12534">
        <ele>2627</ele>
        <time>2019-08-04T10:47:14.724Z</time>
      </trkpt>
      <trkpt lat="42.80948" lon="-0.12535">
        <ele>2628</ele>
        <time>2019-08-04T10:47:17.724Z</time>
      </trkpt>
      <trkpt lat="42.80946" lon="-0.12534">
        <ele>2628</ele>
        <time>2019-08-04T10:47:23.724Z</time>
      </trkpt>
      <trkpt lat="42.80944" lon="-0.12532">
        <ele>2630</ele>
        <time>2019-08-04T10:47:34.724Z</time>
      </trkpt>
      <trkpt lat="42.80942" lon="-0.12532">
        <ele>2630</ele>
        <time>2019-08-04T10:47:38.724Z</time>
      </trkpt>
      <trkpt lat="42.8094" lon="-0.12531">
        <ele>2630.5291831257</ele>
        <time>2019-08-04T10:47:43.724Z</time>
      </trkpt>
      <trkpt lat="42.80939" lon="-0.12529">
        <ele>2631</ele>
        <time>2019-08-04T10:47:48.724Z</time>
      </trkpt>
      <trkpt lat="42.8094" lon="-0.12528">
        <ele>2633</ele>
        <time>2019-08-04T10:48:14.724Z</time>
      </trkpt>
      <trkpt lat="42.80941" lon="-0.12531">
        <ele>2633</ele>
        <time>2019-08-04T10:48:42.724Z</time>
      </trkpt>
      <trkpt lat="42.80941" lon="-0.12533">
        <ele>2634</ele>
        <time>2019-08-04T10:48:47.724Z</time>
      </trkpt>
      <trkpt lat="42.80943" lon="-0.12535">
        <ele>2634</ele>
        <time>2019-08-04T10:48:51.724Z</time>
      </trkpt>
      <trkpt lat="42.80941" lon="-0.12536">
        <ele>2636</ele>
        <time>2019-08-04T10:49:00.724Z</time>
      </trkpt>
      <trkpt lat="42.80939" lon="-0.12535">
        <ele>2637</ele>
        <time>2019-08-04T10:49:04.724Z</time>
      </trkpt>
      <trkpt lat="42.80937" lon="-0.12534">
        <ele>2638</ele>
        <time>2019-08-04T10:49:11.724Z</time>
      </trkpt>
      <trkpt lat="42.80935" lon="-0.12533">
        <ele>2639</ele>
        <time>2019-08-04T10:49:16.724Z</time>
      </trkpt>
      <trkpt lat="42.80934" lon="-0.12534">
        <ele>2641</ele>
        <time>2019-08-04T10:49:31.724Z</time>
      </trkpt>
      <trkpt lat="42.80932" lon="-0.12536">
        <ele>2643</ele>
        <time>2019-08-04T10:49:40.724Z</time>
      </trkpt>
      <trkpt lat="42.80931" lon="-0.12535">
        <ele>2644.5275479538</ele>
        <time>2019-08-04T10:49:47.724Z</time>
      </trkpt>
      <trkpt lat="42.80931" lon="-0.12538">
        <ele>2648</ele>
        <time>2019-08-04T10:51:23.724Z</time>
      </trkpt>
      <trkpt lat="42.80929" lon="-0.12537">
        <ele>2651</ele>
        <time>2019-08-04T10:52:13.724Z</time>
      </trkpt>
      <trkpt lat="42.80928" lon="-0.12534">
        <ele>2651</ele>
        <time>2019-08-04T10:52:20.724Z</time>
      </trkpt>
      <trkpt lat="42.80926" lon="-0.12534">
        <ele>2652</ele>
        <time>2019-08-04T10:52:26.724Z</time>
      </trkpt>
      <trkpt lat="42.80926" lon="-0.12531">
        <ele>2653</ele>
        <time>2019-08-04T10:52:34.724Z</time>
      </trkpt>
      <trkpt lat="42.80925" lon="-0.12528">
        <ele>2655</ele>
        <time>2019-08-04T10:52:44.724Z</time>
      </trkpt>
      <trkpt lat="42.80926" lon="-0.12526">
        <ele>2653.4613912581</ele>
        <time>2019-08-04T10:52:52.724Z</time>
      </trkpt>
      <trkpt lat="42.80924" lon="-0.12523">
        <ele>2653</ele>
        <time>2019-08-04T10:52:56.724Z</time>
      </trkpt>
      <trkpt lat="42.80922" lon="-0.12522">
        <ele>2653.7342744295</ele>
        <time>2019-08-04T10:53:00.724Z</time>
      </trkpt>
      <trkpt lat="42.8092" lon="-0.12521">
        <ele>2654</ele>
        <time>2019-08-04T10:53:03.724Z</time>
      </trkpt>
      <trkpt lat="42.80919" lon="-0.12519">
        <ele>2654</ele>
        <time>2019-08-04T10:53:09.724Z</time>
      </trkpt>
      <trkpt lat="42.80917" lon="-0.12516">
        <ele>2655</ele>
        <time>2019-08-04T10:53:20.724Z</time>
      </trkpt>
      <trkpt lat="42.80916" lon="-0.12515">
        <ele>2655</ele>
        <time>2019-08-04T10:53:24.724Z</time>
      </trkpt>
      <trkpt lat="42.80914" lon="-0.12513">
        <ele>2656</ele>
        <time>2019-08-04T10:53:30.724Z</time>
      </trkpt>
      <trkpt lat="42.80912" lon="-0.12514">
        <ele>2657.1257314219</ele>
        <time>2019-08-04T10:53:35.724Z</time>
      </trkpt>
      <trkpt lat="42.8091" lon="-0.12514">
        <ele>2659</ele>
        <time>2019-08-04T10:53:41.724Z</time>
      </trkpt>
      <trkpt lat="42.80908" lon="-0.12514">
        <ele>2659</ele>
        <time>2019-08-04T10:53:45.724Z</time>
      </trkpt>
      <trkpt lat="42.80906" lon="-0.12514">
        <ele>2659</ele>
        <time>2019-08-04T10:54:14.724Z</time>
      </trkpt>
      <trkpt lat="42.80907" lon="-0.12512">
        <ele>2662</ele>
        <time>2019-08-04T10:54:21.724Z</time>
      </trkpt>
      <trkpt lat="42.80906" lon="-0.12509">
        <ele>2664</ele>
        <time>2019-08-04T10:54:29.724Z</time>
      </trkpt>
      <trkpt lat="42.80904" lon="-0.12507">
        <ele>2664.6139904</ele>
        <time>2019-08-04T10:54:36.724Z</time>
      </trkpt>
      <trkpt lat="42.80902" lon="-0.12507">
        <ele>2666</ele>
        <time>2019-08-04T10:55:32.724Z</time>
      </trkpt>
      <trkpt lat="42.80901" lon="-0.12506">
        <ele>2667</ele>
        <time>2019-08-04T10:55:38.724Z</time>
      </trkpt>
      <trkpt lat="42.809" lon="-0.12503">
        <ele>2666</ele>
        <time>2019-08-04T10:55:43.724Z</time>
      </trkpt>
      <trkpt lat="42.80898" lon="-0.12503">
        <ele>2668</ele>
        <time>2019-08-04T10:55:49.724Z</time>
      </trkpt>
      <trkpt lat="42.80896" lon="-0.12502">
        <ele>2669.6178237396</ele>
        <time>2019-08-04T10:55:55.724Z</time>
      </trkpt>
      <trkpt lat="42.80895" lon="-0.12499">
        <ele>2670</ele>
        <time>2019-08-04T10:56:00.724Z</time>
      </trkpt>
      <trkpt lat="42.80893" lon="-0.12499">
        <ele>2671</ele>
        <time>2019-08-04T10:56:05.724Z</time>
      </trkpt>
      <trkpt lat="42.80891" lon="-0.12499">
        <ele>2671</ele>
        <time>2019-08-04T10:56:09.724Z</time>
      </trkpt>
      <trkpt lat="42.80891" lon="-0.12497">
        <ele>2672</ele>
        <time>2019-08-04T10:56:14.724Z</time>
      </trkpt>
      <trkpt lat="42.80888" lon="-0.12497">
        <ele>2674</ele>
        <time>2019-08-04T10:56:20.724Z</time>
      </trkpt>
      <trkpt lat="42.80887" lon="-0.12498">
        <ele>2676</ele>
        <time>2019-08-04T10:56:57.724Z</time>
      </trkpt>
      <trkpt lat="42.80885" lon="-0.12497">
        <ele>2676.7380158287</ele>
        <time>2019-08-04T10:57:00.724Z</time>
      </trkpt>
      <trkpt lat="42.80883" lon="-0.12496">
        <ele>2677</ele>
        <time>2019-08-04T10:57:04.724Z</time>
      </trkpt>
      <trkpt lat="42.80881" lon="-0.12494">
        <ele>2678</ele>
        <time>2019-08-04T10:57:12.724Z</time>
      </trkpt>
      <trkpt lat="42.80879" lon="-0.12495">
        <ele>2678</ele>
        <time>2019-08-04T10:57:16.724Z</time>
      </trkpt>
      <trkpt lat="42.80877" lon="-0.12495">
        <ele>2677.255068915</ele>
        <time>2019-08-04T10:57:19.724Z</time>
      </trkpt>
      <trkpt lat="42.80875" lon="-0.12494">
        <ele>2678</ele>
        <time>2019-08-04T10:57:24.724Z</time>
      </trkpt>
      <trkpt lat="42.80874" lon="-0.12492">
        <ele>2679</ele>
        <time>2019-08-04T10:57:30.724Z</time>
      </trkpt>
      <trkpt lat="42.80872" lon="-0.12491">
        <ele>2682</ele>
        <time>2019-08-04T10:57:40.724Z</time>
      </trkpt>
      <trkpt lat="42.80871" lon="-0.12492">
        <ele>2684</ele>
        <time>2019-08-04T10:58:38.724Z</time>
      </trkpt>
      <trkpt lat="42.80869" lon="-0.12493">
        <ele>2683</ele>
        <time>2019-08-04T10:58:43.724Z</time>
      </trkpt>
      <trkpt lat="42.80867" lon="-0.12494">
        <ele>2683</ele>
        <time>2019-08-04T10:58:46.724Z</time>
      </trkpt>
      <trkpt lat="42.80866" lon="-0.12496">
        <ele>2682.3090866777</ele>
        <time>2019-08-04T10:58:49.724Z</time>
      </trkpt>
      <trkpt lat="42.80864" lon="-0.12498">
        <ele>2682</ele>
        <time>2019-08-04T10:58:52.724Z</time>
      </trkpt>
      <trkpt lat="42.80862" lon="-0.12499">
        <ele>2682</ele>
        <time>2019-08-04T10:58:56.724Z</time>
      </trkpt>
      <trkpt lat="42.8086" lon="-0.12499">
        <ele>2684</ele>
        <time>2019-08-04T10:59:05.724Z</time>
      </trkpt>
      <trkpt lat="42.80858" lon="-0.12498">
        <ele>2686.5519261539</ele>
        <time>2019-08-04T10:59:11.724Z</time>
      </trkpt>
      <trkpt lat="42.80856" lon="-0.12497">
        <ele>2687</ele>
        <time>2019-08-04T10:59:22.724Z</time>
      </trkpt>
      <trkpt lat="42.80855" lon="-0.12495">
        <ele>2690</ele>
        <time>2019-08-04T10:59:34.724Z</time>
      </trkpt>
      <trkpt lat="42.80853" lon="-0.12494">
        <ele>2689</ele>
        <time>2019-08-04T10:59:40.724Z</time>
      </trkpt>
      <trkpt lat="42.80851" lon="-0.12493">
        <ele>2691</ele>
        <time>2019-08-04T10:59:46.724Z</time>
      </trkpt>
      <trkpt lat="42.8085" lon="-0.12492">
        <ele>2690.7729293785</ele>
        <time>2019-08-04T10:59:52.724Z</time>
      </trkpt>
      <trkpt lat="42.80848" lon="-0.12492">
        <ele>2692</ele>
        <time>2019-08-04T11:00:02.724Z</time>
      </trkpt>
      <trkpt lat="42.80846" lon="-0.12493">
        <ele>2692</ele>
        <time>2019-08-04T11:00:05.724Z</time>
      </trkpt>
      <trkpt lat="42.80844" lon="-0.12493">
        <ele>2692</ele>
        <time>2019-08-04T11:00:09.724Z</time>
      </trkpt>
      <trkpt lat="42.80844" lon="-0.12491">
        <ele>2694</ele>
        <time>2019-08-04T11:00:25.724Z</time>
      </trkpt>
      <trkpt lat="42.80842" lon="-0.12489">
        <ele>2696</ele>
        <time>2019-08-04T11:00:31.724Z</time>
      </trkpt>
      <trkpt lat="42.8084" lon="-0.12488">
        <ele>2699</ele>
        <time>2019-08-04T11:00:43.724Z</time>
      </trkpt>
      <trkpt lat="42.80839" lon="-0.12485">
        <ele>2697</ele>
        <time>2019-08-04T11:00:49.724Z</time>
      </trkpt>
      <trkpt lat="42.80841" lon="-0.12483">
        <ele>2701</ele>
        <time>2019-08-04T11:00:57.724Z</time>
      </trkpt>
      <trkpt lat="42.80842" lon="-0.12482">
        <ele>2701</ele>
        <time>2019-08-04T11:01:02.724Z</time>
      </trkpt>
      <trkpt lat="42.80842" lon="-0.12479">
        <ele>2702</ele>
        <time>2019-08-04T11:01:18.724Z</time>
      </trkpt>
      <trkpt lat="42.80843" lon="-0.12477">
        <ele>2702</ele>
        <time>2019-08-04T11:01:25.724Z</time>
      </trkpt>
      <trkpt lat="42.80845" lon="-0.12475">
        <ele>2704</ele>
        <time>2019-08-04T11:01:38.724Z</time>
      </trkpt>
      <trkpt lat="42.80843" lon="-0.12473">
        <ele>2705</ele>
        <time>2019-08-04T11:02:05.724Z</time>
      </trkpt>
      <trkpt lat="42.80841" lon="-0.12473">
        <ele>2705.5475649008</ele>
        <time>2019-08-04T11:02:12.724Z</time>
      </trkpt>
      <trkpt lat="42.8084" lon="-0.12472">
        <ele>2705.3241453887</ele>
        <time>2019-08-04T11:02:16.724Z</time>
      </trkpt>
      <trkpt lat="42.80838" lon="-0.12472">
        <ele>2706</ele>
        <time>2019-08-04T11:02:22.724Z</time>
      </trkpt>
      <trkpt lat="42.80836" lon="-0.12471">
        <ele>2706</ele>
        <time>2019-08-04T11:02:27.724Z</time>
      </trkpt>
      <trkpt lat="42.80834" lon="-0.1247">
        <ele>2706</ele>
        <time>2019-08-04T11:02:30.724Z</time>
      </trkpt>
      <trkpt lat="42.80833" lon="-0.12468">
        <ele>2706</ele>
        <time>2019-08-04T11:02:35.724Z</time>
      </trkpt>
      <trkpt lat="42.80831" lon="-0.12465">
        <ele>2708</ele>
        <time>2019-08-04T11:02:42.724Z</time>
      </trkpt>
      <trkpt lat="42.8083" lon="-0.12464">
        <ele>2708</ele>
        <time>2019-08-04T11:02:45.724Z</time>
      </trkpt>
      <trkpt lat="42.80828" lon="-0.12462">
        <ele>2709</ele>
        <time>2019-08-04T11:03:05.724Z</time>
      </trkpt>
      <trkpt lat="42.80826" lon="-0.12461">
        <ele>2709</ele>
        <time>2019-08-04T11:03:08.724Z</time>
      </trkpt>
      <trkpt lat="42.80825" lon="-0.12461">
        <ele>2711</ele>
        <time>2019-08-04T11:03:18.724Z</time>
      </trkpt>
      <trkpt lat="42.80823" lon="-0.12462">
        <ele>2711</ele>
        <time>2019-08-04T11:03:22.724Z</time>
      </trkpt>
      <trkpt lat="42.80821" lon="-0.12463">
        <ele>2709</ele>
        <time>2019-08-04T11:03:30.724Z</time>
      </trkpt>
      <trkpt lat="42.80819" lon="-0.12462">
        <ele>2711</ele>
        <time>2019-08-04T11:03:35.724Z</time>
      </trkpt>
      <trkpt lat="42.80816" lon="-0.12461">
        <ele>2712.5922445699</ele>
        <time>2019-08-04T11:03:40.724Z</time>
      </trkpt>
      <trkpt lat="42.80815" lon="-0.1246">
        <ele>2714</ele>
        <time>2019-08-04T11:03:47.724Z</time>
      </trkpt>
      <trkpt lat="42.80813" lon="-0.12459">
        <ele>2715</ele>
        <time>2019-08-04T11:03:52.724Z</time>
      </trkpt>
      <trkpt lat="42.80812" lon="-0.12457">
        <ele>2716</ele>
        <time>2019-08-04T11:04:04.724Z</time>
      </trkpt>
      <trkpt lat="42.80811" lon="-0.12455">
        <ele>2718</ele>
        <time>2019-08-04T11:04:10.724Z</time>
      </trkpt>
      <trkpt lat="42.80809" lon="-0.12454">
        <ele>2720</ele>
        <time>2019-08-04T11:05:05.724Z</time>
      </trkpt>
      <trkpt lat="42.80807" lon="-0.12454">
        <ele>2720</ele>
        <time>2019-08-04T11:05:09.724Z</time>
      </trkpt>
      <trkpt lat="42.80805" lon="-0.12455">
        <ele>2720.5079688721</ele>
        <time>2019-08-04T11:05:15.724Z</time>
      </trkpt>
      <trkpt lat="42.80803" lon="-0.12455">
        <ele>2722</ele>
        <time>2019-08-04T11:05:21.724Z</time>
      </trkpt>
      <trkpt lat="42.80801" lon="-0.12456">
        <ele>2723</ele>
        <time>2019-08-04T11:05:26.724Z</time>
      </trkpt>
      <trkpt lat="42.80799" lon="-0.12458">
        <ele>2723</ele>
        <time>2019-08-04T11:05:36.724Z</time>
      </trkpt>
      <trkpt lat="42.80797" lon="-0.12459">
        <ele>2724</ele>
        <time>2019-08-04T11:05:46.724Z</time>
      </trkpt>
      <trkpt lat="42.80795" lon="-0.12458">
        <ele>2726</ele>
        <time>2019-08-04T11:05:54.724Z</time>
      </trkpt>
      <trkpt lat="42.80794" lon="-0.12456">
        <ele>2728</ele>
        <time>2019-08-04T11:06:10.724Z</time>
      </trkpt>
      <trkpt lat="42.80794" lon="-0.12454">
        <ele>2728.7465338504</ele>
        <time>2019-08-04T11:06:18.724Z</time>
      </trkpt>
      <trkpt lat="42.80793" lon="-0.12452">
        <ele>2730</ele>
        <time>2019-08-04T11:06:33.724Z</time>
      </trkpt>
      <trkpt lat="42.80791" lon="-0.12452">
        <ele>2731</ele>
        <time>2019-08-04T11:06:43.724Z</time>
      </trkpt>
      <trkpt lat="42.80789" lon="-0.12452">
        <ele>2732</ele>
        <time>2019-08-04T11:06:50.724Z</time>
      </trkpt>
      <trkpt lat="42.80788" lon="-0.1245">
        <ele>2734</ele>
        <time>2019-08-04T11:06:57.724Z</time>
      </trkpt>
      <trkpt lat="42.80787" lon="-0.12452">
        <ele>2735</ele>
        <time>2019-08-04T11:07:44.724Z</time>
      </trkpt>
      <trkpt lat="42.80785" lon="-0.12453">
        <ele>2733</ele>
        <time>2019-08-04T11:07:56.724Z</time>
      </trkpt>
      <trkpt lat="42.80783" lon="-0.12452">
        <ele>2733</ele>
        <time>2019-08-04T11:08:06.724Z</time>
      </trkpt>
      <trkpt lat="42.80782" lon="-0.12454">
        <ele>2732</ele>
        <time>2019-08-04T11:08:12.724Z</time>
      </trkpt>
      <trkpt lat="42.8078" lon="-0.12453">
        <ele>2731</ele>
        <time>2019-08-04T11:08:15.724Z</time>
      </trkpt>
      <trkpt lat="42.80778" lon="-0.12454">
        <ele>2731</ele>
        <time>2019-08-04T11:08:20.724Z</time>
      </trkpt>
      <trkpt lat="42.80776" lon="-0.12454">
        <ele>2732</ele>
        <time>2019-08-04T11:08:41.724Z</time>
      </trkpt>
      <trkpt lat="42.80775" lon="-0.12454">
        <ele>2732</ele>
        <time>2019-08-04T11:08:44.724Z</time>
      </trkpt>
      <trkpt lat="42.80773" lon="-0.12453">
        <ele>2731</ele>
        <time>2019-08-04T11:08:50.724Z</time>
      </trkpt>
      <trkpt lat="42.80771" lon="-0.12452">
        <ele>2732</ele>
        <time>2019-08-04T11:08:54.724Z</time>
      </trkpt>
      <trkpt lat="42.80769" lon="-0.12452">
        <ele>2732</ele>
        <time>2019-08-04T11:08:59.724Z</time>
      </trkpt>
      <trkpt lat="42.80767" lon="-0.12451">
        <ele>2735</ele>
        <time>2019-08-04T11:09:05.724Z</time>
      </trkpt>
      <trkpt lat="42.80766" lon="-0.12448">
        <ele>2738</ele>
        <time>2019-08-04T11:09:19.724Z</time>
      </trkpt>
      <trkpt lat="42.80766" lon="-0.12446">
        <ele>2739</ele>
        <time>2019-08-04T11:09:24.724Z</time>
      </trkpt>
      <trkpt lat="42.80765" lon="-0.12444">
        <ele>2739</ele>
        <time>2019-08-04T11:09:30.724Z</time>
      </trkpt>
      <trkpt lat="42.80764" lon="-0.12441">
        <ele>2741.6584128135</ele>
        <time>2019-08-04T11:09:45.724Z</time>
      </trkpt>
      <trkpt lat="42.80763" lon="-0.12439">
        <ele>2743.1314121319</ele>
        <time>2019-08-04T11:09:52.724Z</time>
      </trkpt>
      <trkpt lat="42.80762" lon="-0.12436">
        <ele>2744</ele>
        <time>2019-08-04T11:09:57.724Z</time>
      </trkpt>
      <trkpt lat="42.80762" lon="-0.12433">
        <ele>2745</ele>
        <time>2019-08-04T11:10:02.724Z</time>
      </trkpt>
      <trkpt lat="42.8076" lon="-0.12431">
        <ele>2747</ele>
        <time>2019-08-04T11:11:24.724Z</time>
      </trkpt>
      <trkpt lat="42.80759" lon="-0.12431">
        <ele>2747</ele>
        <time>2019-08-04T11:11:30.724Z</time>
      </trkpt>
      <trkpt lat="42.80757" lon="-0.1243">
        <ele>2747</ele>
        <time>2019-08-04T11:11:42.724Z</time>
      </trkpt>
      <trkpt lat="42.80755" lon="-0.12428">
        <ele>2747</ele>
        <time>2019-08-04T11:11:51.724Z</time>
      </trkpt>
      <trkpt lat="42.80754" lon="-0.12429">
        <ele>2745</ele>
        <time>2019-08-04T11:11:58.724Z</time>
      </trkpt>
      <trkpt lat="42.80752" lon="-0.12429">
        <ele>2745</ele>
        <time>2019-08-04T11:12:05.724Z</time>
      </trkpt>
      <trkpt lat="42.80749" lon="-0.12429">
        <ele>2746</ele>
        <time>2019-08-04T11:12:11.724Z</time>
      </trkpt>
      <trkpt lat="42.80747" lon="-0.12428">
        <ele>2749</ele>
        <time>2019-08-04T11:12:22.724Z</time>
      </trkpt>
      <trkpt lat="42.80745" lon="-0.12429">
        <ele>2749</ele>
        <time>2019-08-04T11:12:29.724Z</time>
      </trkpt>
      <trkpt lat="42.80744" lon="-0.1243">
        <ele>2750</ele>
        <time>2019-08-04T11:12:37.724Z</time>
      </trkpt>
      <trkpt lat="42.80742" lon="-0.12428">
        <ele>2752</ele>
        <time>2019-08-04T11:12:42.724Z</time>
      </trkpt>
      <trkpt lat="42.80741" lon="-0.12427">
        <ele>2754</ele>
        <time>2019-08-04T11:12:51.724Z</time>
      </trkpt>
      <trkpt lat="42.80739" lon="-0.12428">
        <ele>2754</ele>
        <time>2019-08-04T11:13:04.724Z</time>
      </trkpt>
      <trkpt lat="42.80738" lon="-0.12429">
        <ele>2756</ele>
        <time>2019-08-04T11:14:17.724Z</time>
      </trkpt>
      <trkpt lat="42.80736" lon="-0.1243">
        <ele>2756</ele>
        <time>2019-08-04T11:14:33.724Z</time>
      </trkpt>
      <trkpt lat="42.80735" lon="-0.12427">
        <ele>2758</ele>
        <time>2019-08-04T11:14:55.724Z</time>
      </trkpt>
      <trkpt lat="42.80734" lon="-0.12425">
        <ele>2760</ele>
        <time>2019-08-04T11:15:11.724Z</time>
      </trkpt>
      <trkpt lat="42.80731" lon="-0.12424">
        <ele>2760</ele>
        <time>2019-08-04T11:15:19.724Z</time>
      </trkpt>
      <trkpt lat="42.8073" lon="-0.12426">
        <ele>2761</ele>
        <time>2019-08-04T11:15:26.724Z</time>
      </trkpt>
      <trkpt lat="42.80728" lon="-0.12426">
        <ele>2763</ele>
        <time>2019-08-04T11:15:37.724Z</time>
      </trkpt>
      <trkpt lat="42.80725" lon="-0.12427">
        <ele>2763</ele>
        <time>2019-08-04T11:15:42.724Z</time>
      </trkpt>
      <trkpt lat="42.80724" lon="-0.12426">
        <ele>2764</ele>
        <time>2019-08-04T11:15:49.724Z</time>
      </trkpt>
      <trkpt lat="42.80722" lon="-0.12426">
        <ele>2763</ele>
        <time>2019-08-04T11:15:59.724Z</time>
      </trkpt>
      <trkpt lat="42.8072" lon="-0.12426">
        <ele>2763</ele>
        <time>2019-08-04T11:16:07.724Z</time>
      </trkpt>
      <trkpt lat="42.80718" lon="-0.12425">
        <ele>2764</ele>
        <time>2019-08-04T11:16:18.724Z</time>
      </trkpt>
      <trkpt lat="42.80716" lon="-0.12424">
        <ele>2764</ele>
        <time>2019-08-04T11:16:22.724Z</time>
      </trkpt>
      <trkpt lat="42.80714" lon="-0.12422">
        <ele>2765</ele>
        <time>2019-08-04T11:16:26.724Z</time>
      </trkpt>
      <trkpt lat="42.80713" lon="-0.1242">
        <ele>2768</ele>
        <time>2019-08-04T11:16:56.724Z</time>
      </trkpt>
      <trkpt lat="42.80712" lon="-0.12421">
        <ele>2769</ele>
        <time>2019-08-04T11:17:04.724Z</time>
      </trkpt>
      <trkpt lat="42.8071" lon="-0.12423">
        <ele>2769</ele>
        <time>2019-08-04T11:17:10.724Z</time>
      </trkpt>
      <trkpt lat="42.80708" lon="-0.12424">
        <ele>2769</ele>
        <time>2019-08-04T11:17:17.724Z</time>
      </trkpt>
      <trkpt lat="42.80706" lon="-0.12425">
        <ele>2770</ele>
        <time>2019-08-04T11:17:28.724Z</time>
      </trkpt>
      <trkpt lat="42.80704" lon="-0.12425">
        <ele>2768</ele>
        <time>2019-08-04T11:17:42.724Z</time>
      </trkpt>
      <trkpt lat="42.80702" lon="-0.12426">
        <ele>2768.5819490693</ele>
        <time>2019-08-04T11:17:46.724Z</time>
      </trkpt>
      <trkpt lat="42.80702" lon="-0.12429">
        <ele>2768</ele>
        <time>2019-08-04T11:17:58.724Z</time>
      </trkpt>
      <trkpt lat="42.80701" lon="-0.12431">
        <ele>2767</ele>
        <time>2019-08-04T11:18:02.724Z</time>
      </trkpt>
      <trkpt lat="42.80699" lon="-0.12432">
        <ele>2767</ele>
        <time>2019-08-04T11:18:05.724Z</time>
      </trkpt>
      <trkpt lat="42.80698" lon="-0.12432">
        <ele>2768</ele>
        <time>2019-08-04T11:18:12.724Z</time>
      </trkpt>
      <trkpt lat="42.80696" lon="-0.12434">
        <ele>2768.583152562</ele>
        <time>2019-08-04T11:18:20.724Z</time>
      </trkpt>
      <trkpt lat="42.80694" lon="-0.12434">
        <ele>2772</ele>
        <time>2019-08-04T11:18:53.724Z</time>
      </trkpt>
      <trkpt lat="42.80691" lon="-0.12427">
        <ele>2776</ele>
        <time>2019-08-04T11:19:22.724Z</time>
      </trkpt>
      <trkpt lat="42.80692" lon="-0.12424">
        <ele>2778</ele>
        <time>2019-08-04T11:19:32.724Z</time>
      </trkpt>
      <trkpt lat="42.80693" lon="-0.12422">
        <ele>2777</ele>
        <time>2019-08-04T11:19:45.724Z</time>
      </trkpt>
      <trkpt lat="42.80691" lon="-0.12421">
        <ele>2779</ele>
        <time>2019-08-04T11:20:08.724Z</time>
      </trkpt>
      <trkpt lat="42.8069" lon="-0.12419">
        <ele>2784</ele>
        <time>2019-08-04T11:20:36.724Z</time>
      </trkpt>
      <trkpt lat="42.80688" lon="-0.12418">
        <ele>2784.8140032</ele>
        <time>2019-08-04T11:21:09.724Z</time>
      </trkpt>
      <trkpt lat="42.8069" lon="-0.12416">
        <ele>2785</ele>
        <time>2019-08-04T11:21:14.724Z</time>
      </trkpt>
      <trkpt lat="42.80688" lon="-0.12417">
        <ele>2786</ele>
        <time>2019-08-04T11:21:53.724Z</time>
      </trkpt>
      <trkpt lat="42.80686" lon="-0.12416">
        <ele>2787</ele>
        <time>2019-08-04T11:22:08.724Z</time>
      </trkpt>
      <trkpt lat="42.80686" lon="-0.12414">
        <ele>2789</ele>
        <time>2019-08-04T11:22:19.724Z</time>
      </trkpt>
      <trkpt lat="42.80684" lon="-0.12414">
        <ele>2791</ele>
        <time>2019-08-04T11:22:56.724Z</time>
      </trkpt>
      <trkpt lat="42.80682" lon="-0.12414">
        <ele>2793.1959936</ele>
        <time>2019-08-04T11:24:07.724Z</time>
      </trkpt>
      <trkpt lat="42.8068" lon="-0.12415">
        <ele>2795</ele>
        <time>2019-08-04T11:28:51.724Z</time>
      </trkpt>
      <trkpt lat="42.80681" lon="-0.12419">
        <ele>2801</ele>
        <time>2019-08-04T11:46:00.724Z</time>
      </trkpt>
      <trkpt lat="42.80683" lon="-0.12419">
        <ele>2800</ele>
        <time>2019-08-04T11:46:05.724Z</time>
      </trkpt>
      <trkpt lat="42.80685" lon="-0.1242">
        <ele>2798</ele>
        <time>2019-08-04T11:46:20.724Z</time>
      </trkpt>
      <trkpt lat="42.80687" lon="-0.12421">
        <ele>2796</ele>
        <time>2019-08-04T11:46:52.724Z</time>
      </trkpt>
      <trkpt lat="42.80689" lon="-0.1242">
        <ele>2792</ele>
        <time>2019-08-04T11:47:04.724Z</time>
      </trkpt>
      <trkpt lat="42.80691" lon="-0.12419">
        <ele>2792</ele>
        <time>2019-08-04T11:47:12.724Z</time>
      </trkpt>
      <trkpt lat="42.80691" lon="-0.12422">
        <ele>2790</ele>
        <time>2019-08-04T11:47:29.724Z</time>
      </trkpt>
      <trkpt lat="42.80692" lon="-0.12424">
        <ele>2789.2249866667</ele>
        <time>2019-08-04T11:47:37.724Z</time>
      </trkpt>
      <trkpt lat="42.80694" lon="-0.12423">
        <ele>2789</ele>
        <time>2019-08-04T11:47:45.724Z</time>
      </trkpt>
      <trkpt lat="42.80696" lon="-0.12423">
        <ele>2787</ele>
        <time>2019-08-04T11:47:53.724Z</time>
      </trkpt>
      <trkpt lat="42.80695" lon="-0.12426">
        <ele>2785</ele>
        <time>2019-08-04T11:48:01.724Z</time>
      </trkpt>
      <trkpt lat="42.80694" lon="-0.12428">
        <ele>2785</ele>
        <time>2019-08-04T11:48:09.724Z</time>
      </trkpt>
      <trkpt lat="42.80694" lon="-0.1243">
        <ele>2784</ele>
        <time>2019-08-04T11:48:20.724Z</time>
      </trkpt>
      <trkpt lat="42.80693" lon="-0.12433">
        <ele>2783</ele>
        <time>2019-08-04T11:48:30.724Z</time>
      </trkpt>
      <trkpt lat="42.80695" lon="-0.12433">
        <ele>2780</ele>
        <time>2019-08-04T11:49:05.724Z</time>
      </trkpt>
      <trkpt lat="42.80697" lon="-0.12434">
        <ele>2780</ele>
        <time>2019-08-04T11:49:11.724Z</time>
      </trkpt>
      <trkpt lat="42.80699" lon="-0.12434">
        <ele>2778</ele>
        <time>2019-08-04T11:49:16.724Z</time>
      </trkpt>
      <trkpt lat="42.807" lon="-0.12432">
        <ele>2778</ele>
        <time>2019-08-04T11:49:24.724Z</time>
      </trkpt>
      <trkpt lat="42.80702" lon="-0.12431">
        <ele>2777.3042114372</ele>
        <time>2019-08-04T11:49:27.724Z</time>
      </trkpt>
      <trkpt lat="42.80704" lon="-0.12431">
        <ele>2776.2060032</ele>
        <time>2019-08-04T11:49:30.724Z</time>
      </trkpt>
      <trkpt lat="42.80706" lon="-0.1243">
        <ele>2775</ele>
        <time>2019-08-04T11:49:33.724Z</time>
      </trkpt>
      <trkpt lat="42.80708" lon="-0.12428">
        <ele>2775</ele>
        <time>2019-08-04T11:49:38.724Z</time>
      </trkpt>
      <trkpt lat="42.8071" lon="-0.12427">
        <ele>2775</ele>
        <time>2019-08-04T11:49:42.724Z</time>
      </trkpt>
      <trkpt lat="42.80712" lon="-0.12426">
        <ele>2776</ele>
        <time>2019-08-04T11:50:01.724Z</time>
      </trkpt>
      <trkpt lat="42.80714" lon="-0.12424">
        <ele>2774</ele>
        <time>2019-08-04T11:50:08.724Z</time>
      </trkpt>
      <trkpt lat="42.80716" lon="-0.12424">
        <ele>2774</ele>
        <time>2019-08-04T11:50:11.724Z</time>
      </trkpt>
      <trkpt lat="42.80718" lon="-0.12424">
        <ele>2774.7663295567</ele>
        <time>2019-08-04T11:50:20.724Z</time>
      </trkpt>
      <trkpt lat="42.80719" lon="-0.12426">
        <ele>2774</ele>
        <time>2019-08-04T11:50:57.724Z</time>
      </trkpt>
      <trkpt lat="42.80721" lon="-0.12428">
        <ele>2773.2659968</ele>
        <time>2019-08-04T11:51:05.724Z</time>
      </trkpt>
      <trkpt lat="42.80723" lon="-0.12428">
        <ele>2773</ele>
        <time>2019-08-04T11:51:12.724Z</time>
      </trkpt>
      <trkpt lat="42.80725" lon="-0.12429">
        <ele>2773</ele>
        <time>2019-08-04T11:51:15.724Z</time>
      </trkpt>
      <trkpt lat="42.80727" lon="-0.1243">
        <ele>2773</ele>
        <time>2019-08-04T11:51:18.724Z</time>
      </trkpt>
      <trkpt lat="42.80729" lon="-0.12429">
        <ele>2773</ele>
        <time>2019-08-04T11:51:46.724Z</time>
      </trkpt>
      <trkpt lat="42.8073" lon="-0.12429">
        <ele>2772</ele>
        <time>2019-08-04T11:52:06.724Z</time>
      </trkpt>
      <trkpt lat="42.80732" lon="-0.12428">
        <ele>2771</ele>
        <time>2019-08-04T11:52:17.724Z</time>
      </trkpt>
      <trkpt lat="42.80733" lon="-0.1243">
        <ele>2768</ele>
        <time>2019-08-04T11:52:44.724Z</time>
      </trkpt>
      <trkpt lat="42.80735" lon="-0.12431">
        <ele>2768</ele>
        <time>2019-08-04T11:52:48.724Z</time>
      </trkpt>
      <trkpt lat="42.80737" lon="-0.12431">
        <ele>2766.3142784803</ele>
        <time>2019-08-04T11:53:01.724Z</time>
      </trkpt>
      <trkpt lat="42.80739" lon="-0.1243">
        <ele>2766</ele>
        <time>2019-08-04T11:53:10.724Z</time>
      </trkpt>
      <trkpt lat="42.8074" lon="-0.12428">
        <ele>2766</ele>
        <time>2019-08-04T11:53:14.724Z</time>
      </trkpt>
      <trkpt lat="42.80742" lon="-0.12427">
        <ele>2765</ele>
        <time>2019-08-04T11:53:20.724Z</time>
      </trkpt>
      <trkpt lat="42.80743" lon="-0.12425">
        <ele>2764</ele>
        <time>2019-08-04T11:53:25.724Z</time>
      </trkpt>
      <trkpt lat="42.80745" lon="-0.12426">
        <ele>2764</ele>
        <time>2019-08-04T11:53:52.724Z</time>
      </trkpt>
      <trkpt lat="42.80745" lon="-0.12428">
        <ele>2763</ele>
        <time>2019-08-04T11:54:12.724Z</time>
      </trkpt>
      <trkpt lat="42.80747" lon="-0.1243">
        <ele>2761</ele>
        <time>2019-08-04T11:54:19.724Z</time>
      </trkpt>
      <trkpt lat="42.80749" lon="-0.12431">
        <ele>2760.2359936</ele>
        <time>2019-08-04T11:54:23.724Z</time>
      </trkpt>
      <trkpt lat="42.80751" lon="-0.12431">
        <ele>2759.2383766032</ele>
        <time>2019-08-04T11:54:27.724Z</time>
      </trkpt>
      <trkpt lat="42.80753" lon="-0.12431">
        <ele>2757</ele>
        <time>2019-08-04T11:54:39.724Z</time>
      </trkpt>
      <trkpt lat="42.80754" lon="-0.12429">
        <ele>2757</ele>
        <time>2019-08-04T11:54:49.724Z</time>
      </trkpt>
      <trkpt lat="42.80755" lon="-0.12427">
        <ele>2758</ele>
        <time>2019-08-04T11:54:57.724Z</time>
      </trkpt>
      <trkpt lat="42.80757" lon="-0.12428">
        <ele>2758.2408244299</ele>
        <time>2019-08-04T11:55:22.724Z</time>
      </trkpt>
      <trkpt lat="42.80758" lon="-0.1243">
        <ele>2757</ele>
        <time>2019-08-04T11:55:27.724Z</time>
      </trkpt>
      <trkpt lat="42.80759" lon="-0.12433">
        <ele>2757</ele>
        <time>2019-08-04T11:55:32.724Z</time>
      </trkpt>
      <trkpt lat="42.80761" lon="-0.12434">
        <ele>2757</ele>
        <time>2019-08-04T11:55:40.724Z</time>
      </trkpt>
      <trkpt lat="42.80763" lon="-0.12434">
        <ele>2757</ele>
        <time>2019-08-04T11:55:44.724Z</time>
      </trkpt>
      <trkpt lat="42.80765" lon="-0.12436">
        <ele>2758</ele>
        <time>2019-08-04T11:55:48.724Z</time>
      </trkpt>
      <trkpt lat="42.80764" lon="-0.12439">
        <ele>2757</ele>
        <time>2019-08-04T11:55:53.724Z</time>
      </trkpt>
      <trkpt lat="42.80765" lon="-0.12442">
        <ele>2754.3660032</ele>
        <time>2019-08-04T11:55:58.724Z</time>
      </trkpt>
      <trkpt lat="42.80766" lon="-0.12444">
        <ele>2755</ele>
        <time>2019-08-04T11:56:03.724Z</time>
      </trkpt>
      <trkpt lat="42.80767" lon="-0.12446">
        <ele>2753</ele>
        <time>2019-08-04T11:56:11.724Z</time>
      </trkpt>
      <trkpt lat="42.80766" lon="-0.12449">
        <ele>2753</ele>
        <time>2019-08-04T11:56:16.724Z</time>
      </trkpt>
      <trkpt lat="42.80768" lon="-0.12451">
        <ele>2751</ele>
        <time>2019-08-04T11:56:22.724Z</time>
      </trkpt>
      <trkpt lat="42.80768" lon="-0.12453">
        <ele>2749</ele>
        <time>2019-08-04T11:56:29.724Z</time>
      </trkpt>
      <trkpt lat="42.8077" lon="-0.12454">
        <ele>2748</ele>
        <time>2019-08-04T11:56:34.724Z</time>
      </trkpt>
      <trkpt lat="42.8077" lon="-0.12456">
        <ele>2745.488521907</ele>
        <time>2019-08-04T11:56:43.724Z</time>
      </trkpt>
      <trkpt lat="42.80772" lon="-0.12457">
        <ele>2744</ele>
        <time>2019-08-04T11:56:48.724Z</time>
      </trkpt>
      <trkpt lat="42.80774" lon="-0.12458">
        <ele>2743</ele>
        <time>2019-08-04T11:56:53.724Z</time>
      </trkpt>
      <trkpt lat="42.80776" lon="-0.12459">
        <ele>2742</ele>
        <time>2019-08-04T11:57:01.724Z</time>
      </trkpt>
      <trkpt lat="42.80779" lon="-0.12459">
        <ele>2741</ele>
        <time>2019-08-04T11:57:06.724Z</time>
      </trkpt>
      <trkpt lat="42.80781" lon="-0.12459">
        <ele>2740</ele>
        <time>2019-08-04T11:57:13.724Z</time>
      </trkpt>
      <trkpt lat="42.80783" lon="-0.12459">
        <ele>2740</ele>
        <time>2019-08-04T11:57:16.724Z</time>
      </trkpt>
      <trkpt lat="42.80785" lon="-0.12458">
        <ele>2739</ele>
        <time>2019-08-04T11:57:23.724Z</time>
      </trkpt>
      <trkpt lat="42.80786" lon="-0.1246">
        <ele>2740</ele>
        <time>2019-08-04T11:57:31.724Z</time>
      </trkpt>
      <trkpt lat="42.80787" lon="-0.12462">
        <ele>2739</ele>
        <time>2019-08-04T11:57:39.724Z</time>
      </trkpt>
      <trkpt lat="42.80789" lon="-0.12463">
        <ele>2739</ele>
        <time>2019-08-04T11:57:43.724Z</time>
      </trkpt>
      <trkpt lat="42.80789" lon="-0.12465">
        <ele>2737</ele>
        <time>2019-08-04T11:57:49.724Z</time>
      </trkpt>
      <trkpt lat="42.8079" lon="-0.12467">
        <ele>2737</ele>
        <time>2019-08-04T11:57:54.724Z</time>
      </trkpt>
      <trkpt lat="42.80789" lon="-0.12469">
        <ele>2736</ele>
        <time>2019-08-04T11:58:05.724Z</time>
      </trkpt>
      <trkpt lat="42.8079" lon="-0.12471">
        <ele>2736</ele>
        <time>2019-08-04T11:58:12.724Z</time>
      </trkpt>
      <trkpt lat="42.8079" lon="-0.12473">
        <ele>2735</ele>
        <time>2019-08-04T11:58:21.724Z</time>
      </trkpt>
      <trkpt lat="42.80791" lon="-0.12472">
        <ele>2732</ele>
        <time>2019-08-04T11:58:29.724Z</time>
      </trkpt>
      <trkpt lat="42.80793" lon="-0.1247">
        <ele>2733.4792363518</ele>
        <time>2019-08-04T11:58:34.724Z</time>
      </trkpt>
      <trkpt lat="42.80795" lon="-0.12469">
        <ele>2734</ele>
        <time>2019-08-04T11:58:39.724Z</time>
      </trkpt>
      <trkpt lat="42.80797" lon="-0.1247">
        <ele>2734</ele>
        <time>2019-08-04T11:58:42.724Z</time>
      </trkpt>
      <trkpt lat="42.80798" lon="-0.12473">
        <ele>2731</ele>
        <time>2019-08-04T11:58:48.724Z</time>
      </trkpt>
      <trkpt lat="42.808" lon="-0.12474">
        <ele>2731</ele>
        <time>2019-08-04T11:58:52.724Z</time>
      </trkpt>
      <trkpt lat="42.80802" lon="-0.12473">
        <ele>2731</ele>
        <time>2019-08-04T11:59:04.724Z</time>
      </trkpt>
      <trkpt lat="42.80804" lon="-0.12472">
        <ele>2731</ele>
        <time>2019-08-04T11:59:08.724Z</time>
      </trkpt>
      <trkpt lat="42.80805" lon="-0.1247">
        <ele>2730</ele>
        <time>2019-08-04T11:59:13.724Z</time>
      </trkpt>
      <trkpt lat="42.80807" lon="-0.12468">
        <ele>2729</ele>
        <time>2019-08-04T11:59:16.724Z</time>
      </trkpt>
      <trkpt lat="42.80809" lon="-0.12466">
        <ele>2729</ele>
        <time>2019-08-04T11:59:19.724Z</time>
      </trkpt>
      <trkpt lat="42.8081" lon="-0.12463">
        <ele>2729</ele>
        <time>2019-08-04T11:59:23.724Z</time>
      </trkpt>
      <trkpt lat="42.80812" lon="-0.12461">
        <ele>2729</ele>
        <time>2019-08-04T11:59:27.724Z</time>
      </trkpt>
      <trkpt lat="42.80814" lon="-0.12459">
        <ele>2729</ele>
        <time>2019-08-04T11:59:30.724Z</time>
      </trkpt>
      <trkpt lat="42.80816" lon="-0.12459">
        <ele>2729</ele>
        <time>2019-08-04T11:59:34.724Z</time>
      </trkpt>
      <trkpt lat="42.80818" lon="-0.12459">
        <ele>2729</ele>
        <time>2019-08-04T11:59:38.724Z</time>
      </trkpt>
      <trkpt lat="42.8082" lon="-0.12458">
        <ele>2728</ele>
        <time>2019-08-04T11:59:43.724Z</time>
      </trkpt>
      <trkpt lat="42.80822" lon="-0.12458">
        <ele>2728</ele>
        <time>2019-08-04T11:59:48.724Z</time>
      </trkpt>
      <trkpt lat="42.80824" lon="-0.12459">
        <ele>2728</ele>
        <time>2019-08-04T11:59:52.724Z</time>
      </trkpt>
      <trkpt lat="42.80826" lon="-0.1246">
        <ele>2727</ele>
        <time>2019-08-04T11:59:57.724Z</time>
      </trkpt>
      <trkpt lat="42.80827" lon="-0.12462">
        <ele>2726.3011730691</ele>
        <time>2019-08-04T12:00:03.724Z</time>
      </trkpt>
      <trkpt lat="42.80829" lon="-0.12464">
        <ele>2725</ele>
        <time>2019-08-04T12:00:07.724Z</time>
      </trkpt>
      <trkpt lat="42.8083" lon="-0.12465">
        <ele>2724</ele>
        <time>2019-08-04T12:00:10.724Z</time>
      </trkpt>
      <trkpt lat="42.80832" lon="-0.12466">
        <ele>2724</ele>
        <time>2019-08-04T12:00:14.724Z</time>
      </trkpt>
      <trkpt lat="42.80834" lon="-0.12467">
        <ele>2723</ele>
        <time>2019-08-04T12:00:17.724Z</time>
      </trkpt>
      <trkpt lat="42.80836" lon="-0.12469">
        <ele>2722.22</ele>
        <time>2019-08-04T12:00:21.724Z</time>
      </trkpt>
      <trkpt lat="42.80838" lon="-0.12471">
        <ele>2723</ele>
        <time>2019-08-04T12:00:25.724Z</time>
      </trkpt>
      <trkpt lat="42.80839" lon="-0.12469">
        <ele>2724.7139476387</ele>
        <time>2019-08-04T12:00:36.724Z</time>
      </trkpt>
      <trkpt lat="42.80841" lon="-0.12468">
        <ele>2725</ele>
        <time>2019-08-04T12:00:40.724Z</time>
      </trkpt>
      <trkpt lat="42.80843" lon="-0.12471">
        <ele>2724</ele>
        <time>2019-08-04T12:00:45.724Z</time>
      </trkpt>
      <trkpt lat="42.80844" lon="-0.12472">
        <ele>2720</ele>
        <time>2019-08-04T12:00:58.724Z</time>
      </trkpt>
      <trkpt lat="42.80846" lon="-0.12473">
        <ele>2720</ele>
        <time>2019-08-04T12:01:03.724Z</time>
      </trkpt>
      <trkpt lat="42.80845" lon="-0.12475">
        <ele>2719</ele>
        <time>2019-08-04T12:01:12.724Z</time>
      </trkpt>
      <trkpt lat="42.80847" lon="-0.12477">
        <ele>2717</ele>
        <time>2019-08-04T12:01:21.724Z</time>
      </trkpt>
      <trkpt lat="42.80846" lon="-0.12479">
        <ele>2717</ele>
        <time>2019-08-04T12:01:26.724Z</time>
      </trkpt>
      <trkpt lat="42.80844" lon="-0.12481">
        <ele>2716.3553462246</ele>
        <time>2019-08-04T12:01:30.724Z</time>
      </trkpt>
      <trkpt lat="42.80845" lon="-0.12483">
        <ele>2715</ele>
        <time>2019-08-04T12:01:39.724Z</time>
      </trkpt>
      <trkpt lat="42.80847" lon="-0.12484">
        <ele>2714.3037088542</ele>
        <time>2019-08-04T12:01:44.724Z</time>
      </trkpt>
      <trkpt lat="42.80847" lon="-0.12487">
        <ele>2713.3509157765</ele>
        <time>2019-08-04T12:01:54.724Z</time>
      </trkpt>
      <trkpt lat="42.80849" lon="-0.12487">
        <ele>2712</ele>
        <time>2019-08-04T12:01:59.724Z</time>
      </trkpt>
      <trkpt lat="42.80851" lon="-0.12487">
        <ele>2711</ele>
        <time>2019-08-04T12:02:11.724Z</time>
      </trkpt>
      <trkpt lat="42.80853" lon="-0.12488">
        <ele>2709</ele>
        <time>2019-08-04T12:02:15.724Z</time>
      </trkpt>
      <trkpt lat="42.80855" lon="-0.12489">
        <ele>2709</ele>
        <time>2019-08-04T12:02:20.724Z</time>
      </trkpt>
      <trkpt lat="42.80857" lon="-0.12489">
        <ele>2707</ele>
        <time>2019-08-04T12:02:25.724Z</time>
      </trkpt>
      <trkpt lat="42.80859" lon="-0.1249">
        <ele>2707</ele>
        <time>2019-08-04T12:02:37.724Z</time>
      </trkpt>
      <trkpt lat="42.80859" lon="-0.12492">
        <ele>2704</ele>
        <time>2019-08-04T12:02:53.724Z</time>
      </trkpt>
      <trkpt lat="42.80858" lon="-0.12494">
        <ele>2704</ele>
        <time>2019-08-04T12:02:57.724Z</time>
      </trkpt>
      <trkpt lat="42.80856" lon="-0.12496">
        <ele>2702</ele>
        <time>2019-08-04T12:03:02.724Z</time>
      </trkpt>
      <trkpt lat="42.80856" lon="-0.12498">
        <ele>2702</ele>
        <time>2019-08-04T12:03:08.724Z</time>
      </trkpt>
      <trkpt lat="42.80855" lon="-0.125">
        <ele>2702</ele>
        <time>2019-08-04T12:03:13.724Z</time>
      </trkpt>
      <trkpt lat="42.80856" lon="-0.12503">
        <ele>2700</ele>
        <time>2019-08-04T12:03:26.724Z</time>
      </trkpt>
      <trkpt lat="42.80858" lon="-0.12504">
        <ele>2699</ele>
        <time>2019-08-04T12:03:38.724Z</time>
      </trkpt>
      <trkpt lat="42.8086" lon="-0.12505">
        <ele>2697</ele>
        <time>2019-08-04T12:03:42.724Z</time>
      </trkpt>
      <trkpt lat="42.80861" lon="-0.12506">
        <ele>2696</ele>
        <time>2019-08-04T12:03:46.724Z</time>
      </trkpt>
      <trkpt lat="42.80863" lon="-0.12508">
        <ele>2696</ele>
        <time>2019-08-04T12:03:50.724Z</time>
      </trkpt>
      <trkpt lat="42.80865" lon="-0.12507">
        <ele>2695</ele>
        <time>2019-08-04T12:03:53.724Z</time>
      </trkpt>
      <trkpt lat="42.80866" lon="-0.12505">
        <ele>2694</ele>
        <time>2019-08-04T12:04:02.724Z</time>
      </trkpt>
      <trkpt lat="42.80867" lon="-0.12503">
        <ele>2693</ele>
        <time>2019-08-04T12:04:18.724Z</time>
      </trkpt>
      <trkpt lat="42.80869" lon="-0.12501">
        <ele>2693</ele>
        <time>2019-08-04T12:04:22.724Z</time>
      </trkpt>
      <trkpt lat="42.80871" lon="-0.125">
        <ele>2694</ele>
        <time>2019-08-04T12:04:32.724Z</time>
      </trkpt>
      <trkpt lat="42.80872" lon="-0.12498">
        <ele>2694</ele>
        <time>2019-08-04T12:04:35.724Z</time>
      </trkpt>
      <trkpt lat="42.80874" lon="-0.12498">
        <ele>2693</ele>
        <time>2019-08-04T12:04:38.724Z</time>
      </trkpt>
      <trkpt lat="42.80876" lon="-0.12498">
        <ele>2693</ele>
        <time>2019-08-04T12:04:42.724Z</time>
      </trkpt>
      <trkpt lat="42.80878" lon="-0.12499">
        <ele>2693</ele>
        <time>2019-08-04T12:04:47.724Z</time>
      </trkpt>
      <trkpt lat="42.8088" lon="-0.12499">
        <ele>2692</ele>
        <time>2019-08-04T12:04:50.724Z</time>
      </trkpt>
      <trkpt lat="42.80881" lon="-0.12497">
        <ele>2692</ele>
        <time>2019-08-04T12:05:07.724Z</time>
      </trkpt>
      <trkpt lat="42.80884" lon="-0.12496">
        <ele>2691</ele>
        <time>2019-08-04T12:05:10.724Z</time>
      </trkpt>
      <trkpt lat="42.80886" lon="-0.12497">
        <ele>2690.3295299395</ele>
        <time>2019-08-04T12:05:14.724Z</time>
      </trkpt>
      <trkpt lat="42.80884" lon="-0.12499">
        <ele>2690</ele>
        <time>2019-08-04T12:05:19.724Z</time>
      </trkpt>
      <trkpt lat="42.80884" lon="-0.12502">
        <ele>2690</ele>
        <time>2019-08-04T12:05:23.724Z</time>
      </trkpt>
      <trkpt lat="42.80886" lon="-0.12503">
        <ele>2688</ele>
        <time>2019-08-04T12:05:28.724Z</time>
      </trkpt>
      <trkpt lat="42.80887" lon="-0.12505">
        <ele>2687</ele>
        <time>2019-08-04T12:05:36.724Z</time>
      </trkpt>
      <trkpt lat="42.80889" lon="-0.12505">
        <ele>2685.7473586113</ele>
        <time>2019-08-04T12:05:39.724Z</time>
      </trkpt>
      <trkpt lat="42.8089" lon="-0.12507">
        <ele>2685</ele>
        <time>2019-08-04T12:05:43.724Z</time>
      </trkpt>
      <trkpt lat="42.80893" lon="-0.12507">
        <ele>2685</ele>
        <time>2019-08-04T12:05:46.724Z</time>
      </trkpt>
      <trkpt lat="42.80895" lon="-0.12507">
        <ele>2684</ele>
        <time>2019-08-04T12:05:49.724Z</time>
      </trkpt>
      <trkpt lat="42.80897" lon="-0.12508">
        <ele>2684</ele>
        <time>2019-08-04T12:05:53.724Z</time>
      </trkpt>
      <trkpt lat="42.80899" lon="-0.12508">
        <ele>2683</ele>
        <time>2019-08-04T12:05:57.724Z</time>
      </trkpt>
      <trkpt lat="42.80901" lon="-0.12509">
        <ele>2682.3359306068</ele>
        <time>2019-08-04T12:06:02.724Z</time>
      </trkpt>
      <trkpt lat="42.80903" lon="-0.12509">
        <ele>2681</ele>
        <time>2019-08-04T12:06:06.724Z</time>
      </trkpt>
      <trkpt lat="42.80904" lon="-0.1251">
        <ele>2681</ele>
        <time>2019-08-04T12:06:10.724Z</time>
      </trkpt>
      <trkpt lat="42.80906" lon="-0.12512">
        <ele>2679.47392</ele>
        <time>2019-08-04T12:06:14.724Z</time>
      </trkpt>
      <trkpt lat="42.80907" lon="-0.12514">
        <ele>2677</ele>
        <time>2019-08-04T12:06:21.724Z</time>
      </trkpt>
      <trkpt lat="42.80909" lon="-0.12515">
        <ele>2677</ele>
        <time>2019-08-04T12:06:26.724Z</time>
      </trkpt>
      <trkpt lat="42.80911" lon="-0.12516">
        <ele>2676</ele>
        <time>2019-08-04T12:06:30.724Z</time>
      </trkpt>
      <trkpt lat="42.80913" lon="-0.12515">
        <ele>2675</ele>
        <time>2019-08-04T12:06:34.724Z</time>
      </trkpt>
      <trkpt lat="42.80915" lon="-0.12515">
        <ele>2673</ele>
        <time>2019-08-04T12:06:39.724Z</time>
      </trkpt>
      <trkpt lat="42.80917" lon="-0.12515">
        <ele>2672</ele>
        <time>2019-08-04T12:06:44.724Z</time>
      </trkpt>
      <trkpt lat="42.80919" lon="-0.12516">
        <ele>2671</ele>
        <time>2019-08-04T12:06:48.724Z</time>
      </trkpt>
      <trkpt lat="42.8092" lon="-0.12518">
        <ele>2671</ele>
        <time>2019-08-04T12:06:52.724Z</time>
      </trkpt>
      <trkpt lat="42.80921" lon="-0.12521">
        <ele>2670</ele>
        <time>2019-08-04T12:06:56.724Z</time>
      </trkpt>
      <trkpt lat="42.80923" lon="-0.12523">
        <ele>2668</ele>
        <time>2019-08-04T12:07:01.724Z</time>
      </trkpt>
      <trkpt lat="42.80925" lon="-0.12524">
        <ele>2667</ele>
        <time>2019-08-04T12:07:04.724Z</time>
      </trkpt>
      <trkpt lat="42.80927" lon="-0.12525">
        <ele>2668</ele>
        <time>2019-08-04T12:07:09.724Z</time>
      </trkpt>
      <trkpt lat="42.80925" lon="-0.12524">
        <ele>2666</ele>
        <time>2019-08-04T12:07:34.724Z</time>
      </trkpt>
      <trkpt lat="42.80927" lon="-0.12524">
        <ele>2666.6863202145</ele>
        <time>2019-08-04T12:13:02.724Z</time>
      </trkpt>
      <trkpt lat="42.80929" lon="-0.12524">
        <ele>2665</ele>
        <time>2019-08-04T12:13:09.724Z</time>
      </trkpt>
      <trkpt lat="42.80931" lon="-0.12524">
        <ele>2665</ele>
        <time>2019-08-04T12:13:14.724Z</time>
      </trkpt>
      <trkpt lat="42.80933" lon="-0.12526">
        <ele>2664.4071864007</ele>
        <time>2019-08-04T12:13:19.724Z</time>
      </trkpt>
      <trkpt lat="42.80934" lon="-0.12527">
        <ele>2663</ele>
        <time>2019-08-04T12:13:23.724Z</time>
      </trkpt>
      <trkpt lat="42.80936" lon="-0.12528">
        <ele>2661</ele>
        <time>2019-08-04T12:14:37.724Z</time>
      </trkpt>
      <trkpt lat="42.80938" lon="-0.12528">
        <ele>2660</ele>
        <time>2019-08-04T12:14:43.724Z</time>
      </trkpt>
      <trkpt lat="42.8094" lon="-0.12529">
        <ele>2660</ele>
        <time>2019-08-04T12:14:46.724Z</time>
      </trkpt>
      <trkpt lat="42.80942" lon="-0.12529">
        <ele>2659</ele>
        <time>2019-08-04T12:14:50.724Z</time>
      </trkpt>
      <trkpt lat="42.80944" lon="-0.12528">
        <ele>2658</ele>
        <time>2019-08-04T12:14:55.724Z</time>
      </trkpt>
      <trkpt lat="42.80946" lon="-0.12528">
        <ele>2657.3177835931</ele>
        <time>2019-08-04T12:15:00.724Z</time>
      </trkpt>
      <trkpt lat="42.80948" lon="-0.12527">
        <ele>2654.2879866196</ele>
        <time>2019-08-04T12:15:07.724Z</time>
      </trkpt>
      <trkpt lat="42.8095" lon="-0.12527">
        <ele>2653.3434852174</ele>
        <time>2019-08-04T12:15:12.724Z</time>
      </trkpt>
      <trkpt lat="42.80952" lon="-0.12527">
        <ele>2653</ele>
        <time>2019-08-04T12:15:16.724Z</time>
      </trkpt>
      <trkpt lat="42.80955" lon="-0.12527">
        <ele>2651</ele>
        <time>2019-08-04T12:15:21.724Z</time>
      </trkpt>
      <trkpt lat="42.80957" lon="-0.12526">
        <ele>2650</ele>
        <time>2019-08-04T12:15:26.724Z</time>
      </trkpt>
      <trkpt lat="42.80955" lon="-0.12524">
        <ele>2648</ele>
        <time>2019-08-04T12:15:33.724Z</time>
      </trkpt>
      <trkpt lat="42.80954" lon="-0.12521">
        <ele>2648</ele>
        <time>2019-08-04T12:15:37.724Z</time>
      </trkpt>
      <trkpt lat="42.80954" lon="-0.12519">
        <ele>2646.2928457143</ele>
        <time>2019-08-04T12:15:41.724Z</time>
      </trkpt>
      <trkpt lat="42.80956" lon="-0.1252">
        <ele>2646</ele>
        <time>2019-08-04T12:15:45.724Z</time>
      </trkpt>
      <trkpt lat="42.80958" lon="-0.12519">
        <ele>2645.3477553939</ele>
        <time>2019-08-04T12:15:50.724Z</time>
      </trkpt>
      <trkpt lat="42.8096" lon="-0.12518">
        <ele>2644</ele>
        <time>2019-08-04T12:15:55.724Z</time>
      </trkpt>
      <trkpt lat="42.80961" lon="-0.12517">
        <ele>2642</ele>
        <time>2019-08-04T12:16:05.724Z</time>
      </trkpt>
      <trkpt lat="42.80963" lon="-0.12515">
        <ele>2641.2384554793</ele>
        <time>2019-08-04T12:16:11.724Z</time>
      </trkpt>
      <trkpt lat="42.80965" lon="-0.12514">
        <ele>2641</ele>
        <time>2019-08-04T12:16:16.724Z</time>
      </trkpt>
      <trkpt lat="42.80964" lon="-0.12511">
        <ele>2639</ele>
        <time>2019-08-04T12:16:28.724Z</time>
      </trkpt>
      <trkpt lat="42.80964" lon="-0.12508">
        <ele>2638</ele>
        <time>2019-08-04T12:16:34.724Z</time>
      </trkpt>
      <trkpt lat="42.80962" lon="-0.12505">
        <ele>2637</ele>
        <time>2019-08-04T12:16:39.724Z</time>
      </trkpt>
      <trkpt lat="42.80962" lon="-0.12503">
        <ele>2637</ele>
        <time>2019-08-04T12:16:43.724Z</time>
      </trkpt>
      <trkpt lat="42.80961" lon="-0.125">
        <ele>2636.3509041402</ele>
        <time>2019-08-04T12:16:45.724Z</time>
      </trkpt>
      <trkpt lat="42.8096" lon="-0.12497">
        <ele>2636</ele>
        <time>2019-08-04T12:16:47.724Z</time>
      </trkpt>
      <trkpt lat="42.80959" lon="-0.12495">
        <ele>2635</ele>
        <time>2019-08-04T12:16:53.724Z</time>
      </trkpt>
      <trkpt lat="42.8096" lon="-0.12493">
        <ele>2633.4028920446</ele>
        <time>2019-08-04T12:16:59.724Z</time>
      </trkpt>
      <trkpt lat="42.80952" lon="-0.12498">
        <ele>2632</ele>
        <time>2019-08-04T12:17:09.724Z</time>
      </trkpt>
      <trkpt lat="42.80953" lon="-0.12492">
        <ele>2629.2600044218</ele>
        <time>2019-08-04T12:17:16.724Z</time>
      </trkpt>
      <trkpt lat="42.80955" lon="-0.12491">
        <ele>2629</ele>
        <time>2019-08-04T12:17:17.724Z</time>
      </trkpt>
      <trkpt lat="42.80957" lon="-0.1249">
        <ele>2628</ele>
        <time>2019-08-04T12:17:19.724Z</time>
      </trkpt>
      <trkpt lat="42.80959" lon="-0.12489">
        <ele>2628</ele>
        <time>2019-08-04T12:17:22.724Z</time>
      </trkpt>
      <trkpt lat="42.80958" lon="-0.12487">
        <ele>2627</ele>
        <time>2019-08-04T12:17:38.724Z</time>
      </trkpt>
      <trkpt lat="42.80958" lon="-0.12484">
        <ele>2626</ele>
        <time>2019-08-04T12:17:44.724Z</time>
      </trkpt>
      <trkpt lat="42.80959" lon="-0.12482">
        <ele>2625</ele>
        <time>2019-08-04T12:17:49.724Z</time>
      </trkpt>
      <trkpt lat="42.8096" lon="-0.1248">
        <ele>2624</ele>
        <time>2019-08-04T12:17:54.724Z</time>
      </trkpt>
      <trkpt lat="42.8096" lon="-0.12471">
        <ele>2621</ele>
        <time>2019-08-04T12:18:07.724Z</time>
      </trkpt>
      <trkpt lat="42.8096" lon="-0.12469">
        <ele>2618</ele>
        <time>2019-08-04T12:18:23.724Z</time>
      </trkpt>
      <trkpt lat="42.80956" lon="-0.12469">
        <ele>2617</ele>
        <time>2019-08-04T12:18:37.724Z</time>
      </trkpt>
      <trkpt lat="42.80956" lon="-0.12466">
        <ele>2616</ele>
        <time>2019-08-04T12:18:40.724Z</time>
      </trkpt>
      <trkpt lat="42.80958" lon="-0.12465">
        <ele>2616</ele>
        <time>2019-08-04T12:18:43.724Z</time>
      </trkpt>
      <trkpt lat="42.8096" lon="-0.12465">
        <ele>2615</ele>
        <time>2019-08-04T12:18:47.724Z</time>
      </trkpt>
      <trkpt lat="42.80962" lon="-0.12465">
        <ele>2614</ele>
        <time>2019-08-04T12:18:50.724Z</time>
      </trkpt>
      <trkpt lat="42.80968" lon="-0.1247">
        <ele>2612</ele>
        <time>2019-08-04T12:19:09.724Z</time>
      </trkpt>
      <trkpt lat="42.80971" lon="-0.1247">
        <ele>2612</ele>
        <time>2019-08-04T12:19:12.724Z</time>
      </trkpt>
      <trkpt lat="42.80973" lon="-0.1247">
        <ele>2612</ele>
        <time>2019-08-04T12:19:15.724Z</time>
      </trkpt>
      <trkpt lat="42.80975" lon="-0.12469">
        <ele>2611.21136</ele>
        <time>2019-08-04T12:19:19.724Z</time>
      </trkpt>
      <trkpt lat="42.80977" lon="-0.12469">
        <ele>2610</ele>
        <time>2019-08-04T12:19:23.724Z</time>
      </trkpt>
      <trkpt lat="42.80979" lon="-0.1247">
        <ele>2610</ele>
        <time>2019-08-04T12:19:26.724Z</time>
      </trkpt>
      <trkpt lat="42.80981" lon="-0.12469">
        <ele>2610</ele>
        <time>2019-08-04T12:19:30.724Z</time>
      </trkpt>
      <trkpt lat="42.80983" lon="-0.12469">
        <ele>2609</ele>
        <time>2019-08-04T12:19:35.724Z</time>
      </trkpt>
      <trkpt lat="42.80984" lon="-0.12467">
        <ele>2608</ele>
        <time>2019-08-04T12:19:51.724Z</time>
      </trkpt>
      <trkpt lat="42.80985" lon="-0.12465">
        <ele>2605.3</ele>
        <time>2019-08-04T12:19:55.724Z</time>
      </trkpt>
      <trkpt lat="42.80988" lon="-0.12465">
        <ele>2605</ele>
        <time>2019-08-04T12:19:59.724Z</time>
      </trkpt>
      <trkpt lat="42.8099" lon="-0.12466">
        <ele>2604</ele>
        <time>2019-08-04T12:20:03.724Z</time>
      </trkpt>
      <trkpt lat="42.80991" lon="-0.12465">
        <ele>2604</ele>
        <time>2019-08-04T12:20:15.724Z</time>
      </trkpt>
      <trkpt lat="42.80992" lon="-0.12462">
        <ele>2603</ele>
        <time>2019-08-04T12:20:19.724Z</time>
      </trkpt>
      <trkpt lat="42.80991" lon="-0.12459">
        <ele>2603</ele>
        <time>2019-08-04T12:20:23.724Z</time>
      </trkpt>
      <trkpt lat="42.80993" lon="-0.12458">
        <ele>2602</ele>
        <time>2019-08-04T12:20:26.724Z</time>
      </trkpt>
      <trkpt lat="42.80991" lon="-0.12456">
        <ele>2601</ele>
        <time>2019-08-04T12:20:32.724Z</time>
      </trkpt>
      <trkpt lat="42.8099" lon="-0.12454">
        <ele>2601</ele>
        <time>2019-08-04T12:20:37.724Z</time>
      </trkpt>
      <trkpt lat="42.8099" lon="-0.12452">
        <ele>2600.2658906441</ele>
        <time>2019-08-04T12:20:42.724Z</time>
      </trkpt>
      <trkpt lat="42.8099" lon="-0.12449">
        <ele>2599</ele>
        <time>2019-08-04T12:20:49.724Z</time>
      </trkpt>
      <trkpt lat="42.8099" lon="-0.12446">
        <ele>2598</ele>
        <time>2019-08-04T12:20:53.724Z</time>
      </trkpt>
      <trkpt lat="42.80992" lon="-0.12445">
        <ele>2596</ele>
        <time>2019-08-04T12:20:58.724Z</time>
      </trkpt>
      <trkpt lat="42.80994" lon="-0.12445">
        <ele>2593.3736905337</ele>
        <time>2019-08-04T12:21:02.724Z</time>
      </trkpt>
      <trkpt lat="42.80995" lon="-0.12441">
        <ele>2593</ele>
        <time>2019-08-04T12:21:07.724Z</time>
      </trkpt>
      <trkpt lat="42.80996" lon="-0.12439">
        <ele>2593</ele>
        <time>2019-08-04T12:21:11.724Z</time>
      </trkpt>
      <trkpt lat="42.80997" lon="-0.12438">
        <ele>2592</ele>
        <time>2019-08-04T12:21:16.724Z</time>
      </trkpt>
      <trkpt lat="42.80997" lon="-0.12435">
        <ele>2591</ele>
        <time>2019-08-04T12:21:21.724Z</time>
      </trkpt>
      <trkpt lat="42.80996" lon="-0.12433">
        <ele>2590</ele>
        <time>2019-08-04T12:21:26.724Z</time>
      </trkpt>
      <trkpt lat="42.80997" lon="-0.1243">
        <ele>2590</ele>
        <time>2019-08-04T12:21:30.724Z</time>
      </trkpt>
      <trkpt lat="42.80998" lon="-0.12428">
        <ele>2589</ele>
        <time>2019-08-04T12:21:33.724Z</time>
      </trkpt>
      <trkpt lat="42.81001" lon="-0.12428">
        <ele>2588</ele>
        <time>2019-08-04T12:21:38.724Z</time>
      </trkpt>
      <trkpt lat="42.81002" lon="-0.12428">
        <ele>2587.3165069778</ele>
        <time>2019-08-04T12:21:42.724Z</time>
      </trkpt>
      <trkpt lat="42.81004" lon="-0.12429">
        <ele>2586</ele>
        <time>2019-08-04T12:21:45.724Z</time>
      </trkpt>
      <trkpt lat="42.81006" lon="-0.1243">
        <ele>2586</ele>
        <time>2019-08-04T12:21:48.724Z</time>
      </trkpt>
      <trkpt lat="42.81008" lon="-0.12431">
        <ele>2586</ele>
        <time>2019-08-04T12:21:53.724Z</time>
      </trkpt>
      <trkpt lat="42.8101" lon="-0.12431">
        <ele>2584</ele>
        <time>2019-08-04T12:21:58.724Z</time>
      </trkpt>
      <trkpt lat="42.81011" lon="-0.1243">
        <ele>2582</ele>
        <time>2019-08-04T12:22:03.724Z</time>
      </trkpt>
      <trkpt lat="42.81013" lon="-0.1243">
        <ele>2580</ele>
        <time>2019-08-04T12:22:09.724Z</time>
      </trkpt>
      <trkpt lat="42.81014" lon="-0.12427">
        <ele>2580</ele>
        <time>2019-08-04T12:22:14.724Z</time>
      </trkpt>
      <trkpt lat="42.81013" lon="-0.12425">
        <ele>2579</ele>
        <time>2019-08-04T12:22:17.724Z</time>
      </trkpt>
      <trkpt lat="42.81013" lon="-0.12422">
        <ele>2578</ele>
        <time>2019-08-04T12:22:20.724Z</time>
      </trkpt>
      <trkpt lat="42.81013" lon="-0.12418">
        <ele>2577</ele>
        <time>2019-08-04T12:22:22.724Z</time>
      </trkpt>
      <trkpt lat="42.81013" lon="-0.12414">
        <ele>2577</ele>
        <time>2019-08-04T12:22:24.724Z</time>
      </trkpt>
      <trkpt lat="42.81013" lon="-0.12411">
        <ele>2577</ele>
        <time>2019-08-04T12:22:27.724Z</time>
      </trkpt>
      <trkpt lat="42.81014" lon="-0.12409">
        <ele>2576</ele>
        <time>2019-08-04T12:22:31.724Z</time>
      </trkpt>
      <trkpt lat="42.81016" lon="-0.1241">
        <ele>2575</ele>
        <time>2019-08-04T12:22:36.724Z</time>
      </trkpt>
      <trkpt lat="42.81017" lon="-0.12412">
        <ele>2575</ele>
        <time>2019-08-04T12:22:39.724Z</time>
      </trkpt>
      <trkpt lat="42.81019" lon="-0.12409">
        <ele>2572.7518577778</ele>
        <time>2019-08-04T12:22:46.724Z</time>
      </trkpt>
      <trkpt lat="42.8102" lon="-0.12407">
        <ele>2572</ele>
        <time>2019-08-04T12:22:50.724Z</time>
      </trkpt>
      <trkpt lat="42.8102" lon="-0.12405">
        <ele>2572</ele>
        <time>2019-08-04T12:22:53.724Z</time>
      </trkpt>
      <trkpt lat="42.8102" lon="-0.12402">
        <ele>2572.7563592357</ele>
        <time>2019-08-04T12:22:57.724Z</time>
      </trkpt>
      <trkpt lat="42.81021" lon="-0.124">
        <ele>2571</ele>
        <time>2019-08-04T12:23:02.724Z</time>
      </trkpt>
      <trkpt lat="42.81023" lon="-0.12398">
        <ele>2571</ele>
        <time>2019-08-04T12:23:07.724Z</time>
      </trkpt>
      <trkpt lat="42.81024" lon="-0.12399">
        <ele>2570</ele>
        <time>2019-08-04T12:23:12.724Z</time>
      </trkpt>
      <trkpt lat="42.81024" lon="-0.12396">
        <ele>2570</ele>
        <time>2019-08-04T12:23:17.724Z</time>
      </trkpt>
      <trkpt lat="42.81025" lon="-0.12393">
        <ele>2569</ele>
        <time>2019-08-04T12:23:21.724Z</time>
      </trkpt>
      <trkpt lat="42.81026" lon="-0.12391">
        <ele>2569</ele>
        <time>2019-08-04T12:23:25.724Z</time>
      </trkpt>
      <trkpt lat="42.81028" lon="-0.12389">
        <ele>2569</ele>
        <time>2019-08-04T12:23:29.724Z</time>
      </trkpt>
      <trkpt lat="42.81029" lon="-0.12388">
        <ele>2569</ele>
        <time>2019-08-04T12:23:32.724Z</time>
      </trkpt>
      <trkpt lat="42.81032" lon="-0.12388">
        <ele>2567</ele>
        <time>2019-08-04T12:23:36.724Z</time>
      </trkpt>
      <trkpt lat="42.81033" lon="-0.12386">
        <ele>2567</ele>
        <time>2019-08-04T12:23:39.724Z</time>
      </trkpt>
      <trkpt lat="42.81035" lon="-0.12386">
        <ele>2566.3165069778</ele>
        <time>2019-08-04T12:23:44.724Z</time>
      </trkpt>
      <trkpt lat="42.81036" lon="-0.12383">
        <ele>2566</ele>
        <time>2019-08-04T12:23:54.724Z</time>
      </trkpt>
      <trkpt lat="42.81038" lon="-0.12381">
        <ele>2566</ele>
        <time>2019-08-04T12:23:58.724Z</time>
      </trkpt>
      <trkpt lat="42.8104" lon="-0.1238">
        <ele>2566</ele>
        <time>2019-08-04T12:24:01.724Z</time>
      </trkpt>
      <trkpt lat="42.81042" lon="-0.12378">
        <ele>2565</ele>
        <time>2019-08-04T12:24:04.724Z</time>
      </trkpt>
      <trkpt lat="42.81043" lon="-0.12376">
        <ele>2563.2653784615</ele>
        <time>2019-08-04T12:24:09.724Z</time>
      </trkpt>
      <trkpt lat="42.81043" lon="-0.12373">
        <ele>2563</ele>
        <time>2019-08-04T12:24:12.724Z</time>
      </trkpt>
      <trkpt lat="42.81045" lon="-0.1237">
        <ele>2563</ele>
        <time>2019-08-04T12:24:15.724Z</time>
      </trkpt>
      <trkpt lat="42.81047" lon="-0.12371">
        <ele>2563</ele>
        <time>2019-08-04T12:24:18.724Z</time>
      </trkpt>
      <trkpt lat="42.81048" lon="-0.12373">
        <ele>2561</ele>
        <time>2019-08-04T12:24:20.724Z</time>
      </trkpt>
      <trkpt lat="42.8105" lon="-0.12375">
        <ele>2560.2240916661</ele>
        <time>2019-08-04T12:24:23.724Z</time>
      </trkpt>
      <trkpt lat="42.81052" lon="-0.12375">
        <ele>2560</ele>
        <time>2019-08-04T12:24:27.724Z</time>
      </trkpt>
      <trkpt lat="42.81055" lon="-0.12375">
        <ele>2558.3327152667</ele>
        <time>2019-08-04T12:24:32.724Z</time>
      </trkpt>
      <trkpt lat="42.81057" lon="-0.12375">
        <ele>2557.2282788581</ele>
        <time>2019-08-04T12:24:37.724Z</time>
      </trkpt>
      <trkpt lat="42.81058" lon="-0.12374">
        <ele>2555.1833333333</ele>
        <time>2019-08-04T12:24:41.724Z</time>
      </trkpt>
      <trkpt lat="42.8106" lon="-0.12375">
        <ele>2554.2509788174</ele>
        <time>2019-08-04T12:24:47.724Z</time>
      </trkpt>
      <trkpt lat="42.81061" lon="-0.12378">
        <ele>2554</ele>
        <time>2019-08-04T12:24:51.724Z</time>
      </trkpt>
      <trkpt lat="42.81062" lon="-0.1238">
        <ele>2553</ele>
        <time>2019-08-04T12:24:55.724Z</time>
      </trkpt>
      <trkpt lat="42.81064" lon="-0.12381">
        <ele>2553</ele>
        <time>2019-08-04T12:24:58.724Z</time>
      </trkpt>
      <trkpt lat="42.81065" lon="-0.1238">
        <ele>2551.2313677262</ele>
        <time>2019-08-04T12:25:01.724Z</time>
      </trkpt>
      <trkpt lat="42.81066" lon="-0.12383">
        <ele>2551</ele>
        <time>2019-08-04T12:25:06.724Z</time>
      </trkpt>
      <trkpt lat="42.81068" lon="-0.12384">
        <ele>2548</ele>
        <time>2019-08-04T12:25:14.724Z</time>
      </trkpt>
      <trkpt lat="42.8107" lon="-0.12384">
        <ele>2548.7540096</ele>
        <time>2019-08-04T12:25:25.724Z</time>
      </trkpt>
      <trkpt lat="42.81071" lon="-0.1238">
        <ele>2548</ele>
        <time>2019-08-04T12:25:32.724Z</time>
      </trkpt>
      <trkpt lat="42.81074" lon="-0.12383">
        <ele>2546.1742557695</ele>
        <time>2019-08-04T12:25:43.724Z</time>
      </trkpt>
      <trkpt lat="42.81076" lon="-0.12381">
        <ele>2546</ele>
        <time>2019-08-04T12:25:47.724Z</time>
      </trkpt>
      <trkpt lat="42.81076" lon="-0.12372">
        <ele>2545.5400073956</ele>
        <time>2019-08-04T12:25:52.724Z</time>
      </trkpt>
      <trkpt lat="42.81079" lon="-0.12373">
        <ele>2544</ele>
        <time>2019-08-04T12:25:56.724Z</time>
      </trkpt>
      <trkpt lat="42.8108" lon="-0.12371">
        <ele>2542.2173169231</ele>
        <time>2019-08-04T12:26:08.724Z</time>
      </trkpt>
      <trkpt lat="42.81077" lon="-0.12359">
        <ele>2539</ele>
        <time>2019-08-04T12:26:24.724Z</time>
      </trkpt>
      <trkpt lat="42.81079" lon="-0.12359">
        <ele>2537</ele>
        <time>2019-08-04T12:26:36.724Z</time>
      </trkpt>
      <trkpt lat="42.81083" lon="-0.1236">
        <ele>2537</ele>
        <time>2019-08-04T12:26:42.724Z</time>
      </trkpt>
      <trkpt lat="42.81084" lon="-0.12361">
        <ele>2536</ele>
        <time>2019-08-04T12:26:45.724Z</time>
      </trkpt>
      <trkpt lat="42.81084" lon="-0.12356">
        <ele>2535</ele>
        <time>2019-08-04T12:26:52.724Z</time>
      </trkpt>
      <trkpt lat="42.81083" lon="-0.12344">
        <ele>2535</ele>
        <time>2019-08-04T12:26:56.724Z</time>
      </trkpt>
      <trkpt lat="42.81086" lon="-0.12349">
        <ele>2535</ele>
        <time>2019-08-04T12:27:03.724Z</time>
      </trkpt>
      <trkpt lat="42.81088" lon="-0.12351">
        <ele>2534</ele>
        <time>2019-08-04T12:27:07.724Z</time>
      </trkpt>
      <trkpt lat="42.81089" lon="-0.12349">
        <ele>2533</ele>
        <time>2019-08-04T12:27:16.724Z</time>
      </trkpt>
      <trkpt lat="42.8109" lon="-0.12346">
        <ele>2533.6376194459</ele>
        <time>2019-08-04T12:27:18.724Z</time>
      </trkpt>
      <trkpt lat="42.8109" lon="-0.12343">
        <ele>2534</ele>
        <time>2019-08-04T12:27:21.724Z</time>
      </trkpt>
      <trkpt lat="42.81091" lon="-0.12339">
        <ele>2534</ele>
        <time>2019-08-04T12:27:26.724Z</time>
      </trkpt>
      <trkpt lat="42.81092" lon="-0.12342">
        <ele>2533</ele>
        <time>2019-08-04T12:27:40.724Z</time>
      </trkpt>
      <trkpt lat="42.81094" lon="-0.12342">
        <ele>2533</ele>
        <time>2019-08-04T12:27:46.724Z</time>
      </trkpt>
      <trkpt lat="42.81096" lon="-0.1234">
        <ele>2532</ele>
        <time>2019-08-04T12:27:52.724Z</time>
      </trkpt>
      <trkpt lat="42.81096" lon="-0.12336">
        <ele>2532</ele>
        <time>2019-08-04T12:27:57.724Z</time>
      </trkpt>
      <trkpt lat="42.81098" lon="-0.12336">
        <ele>2531</ele>
        <time>2019-08-04T12:28:05.724Z</time>
      </trkpt>
      <trkpt lat="42.811" lon="-0.12336">
        <ele>2531</ele>
        <time>2019-08-04T12:28:09.724Z</time>
      </trkpt>
      <trkpt lat="42.81103" lon="-0.12326">
        <ele>2532</ele>
        <time>2019-08-04T12:28:22.724Z</time>
      </trkpt>
      <trkpt lat="42.81111" lon="-0.1232">
        <ele>2528.3814682248</ele>
        <time>2019-08-04T12:28:43.724Z</time>
      </trkpt>
      <trkpt lat="42.81115" lon="-0.12317">
        <ele>2528.2732745292</ele>
        <time>2019-08-04T12:28:52.724Z</time>
      </trkpt>
      <trkpt lat="42.81117" lon="-0.1232">
        <ele>2527.3509157765</ele>
        <time>2019-08-04T12:28:54.724Z</time>
      </trkpt>
      <trkpt lat="42.81119" lon="-0.12314">
        <ele>2525</ele>
        <time>2019-08-04T12:29:11.724Z</time>
      </trkpt>
      <trkpt lat="42.81121" lon="-0.12333">
        <ele>2524</ele>
        <time>2019-08-04T12:30:25.724Z</time>
      </trkpt>
      <trkpt lat="42.81129" lon="-0.12351">
        <ele>2524</ele>
        <time>2019-08-04T12:31:10.724Z</time>
      </trkpt>
      <trkpt lat="42.81127" lon="-0.12339">
        <ele>2524</ele>
        <time>2019-08-04T12:31:22.724Z</time>
      </trkpt>
      <trkpt lat="42.8112" lon="-0.1233">
        <ele>2524</ele>
        <time>2019-08-04T12:32:21.724Z</time>
      </trkpt>
      <trkpt lat="42.81118" lon="-0.12328">
        <ele>2524</ele>
        <time>2019-08-04T12:32:23.724Z</time>
      </trkpt>
      <trkpt lat="42.81117" lon="-0.12325">
        <ele>2523.2509509377</ele>
        <time>2019-08-04T12:32:26.724Z</time>
      </trkpt>
      <trkpt lat="42.81115" lon="-0.12322">
        <ele>2523</ele>
        <time>2019-08-04T12:32:28.724Z</time>
      </trkpt>
      <trkpt lat="42.81114" lon="-0.1232">
        <ele>2523</ele>
        <time>2019-08-04T12:32:30.724Z</time>
      </trkpt>
      <trkpt lat="42.81121" lon="-0.12312">
        <ele>2519</ele>
        <time>2019-08-04T12:33:20.724Z</time>
      </trkpt>
      <trkpt lat="42.81125" lon="-0.123">
        <ele>2516</ele>
        <time>2019-08-04T12:33:31.724Z</time>
      </trkpt>
      <trkpt lat="42.81132" lon="-0.12293">
        <ele>2513</ele>
        <time>2019-08-04T12:33:49.724Z</time>
      </trkpt>
      <trkpt lat="42.81141" lon="-0.12288">
        <ele>2511</ele>
        <time>2019-08-04T12:34:08.724Z</time>
      </trkpt>
      <trkpt lat="42.8115" lon="-0.12287">
        <ele>2510.5246965636</ele>
        <time>2019-08-04T12:34:25.724Z</time>
      </trkpt>
      <trkpt lat="42.81154" lon="-0.12275">
        <ele>2508</ele>
        <time>2019-08-04T12:34:44.724Z</time>
      </trkpt>
      <trkpt lat="42.81157" lon="-0.12263">
        <ele>2504.4310137824</ele>
        <time>2019-08-04T12:35:02.724Z</time>
      </trkpt>
      <trkpt lat="42.81166" lon="-0.12266">
        <ele>2503</ele>
        <time>2019-08-04T12:35:36.724Z</time>
      </trkpt>
      <trkpt lat="42.8117" lon="-0.12269">
        <ele>2503</ele>
        <time>2019-08-04T12:35:39.724Z</time>
      </trkpt>
      <trkpt lat="42.81178" lon="-0.12268">
        <ele>2499</ele>
        <time>2019-08-04T12:35:57.724Z</time>
      </trkpt>
      <trkpt lat="42.8118" lon="-0.12265">
        <ele>2497.4359936</ele>
        <time>2019-08-04T12:36:05.724Z</time>
      </trkpt>
      <trkpt lat="42.81183" lon="-0.12266">
        <ele>2496</ele>
        <time>2019-08-04T12:36:10.724Z</time>
      </trkpt>
      <trkpt lat="42.81185" lon="-0.12265">
        <ele>2493.3159936</ele>
        <time>2019-08-04T12:36:15.724Z</time>
      </trkpt>
      <trkpt lat="42.81186" lon="-0.12266">
        <ele>2493</ele>
        <time>2019-08-04T12:36:19.724Z</time>
      </trkpt>
      <trkpt lat="42.81187" lon="-0.12268">
        <ele>2493</ele>
        <time>2019-08-04T12:36:22.724Z</time>
      </trkpt>
      <trkpt lat="42.81189" lon="-0.12266">
        <ele>2493</ele>
        <time>2019-08-04T12:36:26.724Z</time>
      </trkpt>
      <trkpt lat="42.81189" lon="-0.12263">
        <ele>2491</ele>
        <time>2019-08-04T12:36:29.724Z</time>
      </trkpt>
      <trkpt lat="42.81189" lon="-0.1226">
        <ele>2490</ele>
        <time>2019-08-04T12:36:32.724Z</time>
      </trkpt>
      <trkpt lat="42.81189" lon="-0.12256">
        <ele>2489</ele>
        <time>2019-08-04T12:36:38.724Z</time>
      </trkpt>
      <trkpt lat="42.81191" lon="-0.12253">
        <ele>2489</ele>
        <time>2019-08-04T12:36:44.724Z</time>
      </trkpt>
      <trkpt lat="42.81192" lon="-0.12255">
        <ele>2487.4260096</ele>
        <time>2019-08-04T12:36:50.724Z</time>
      </trkpt>
      <trkpt lat="42.81194" lon="-0.12252">
        <ele>2487</ele>
        <time>2019-08-04T12:36:55.724Z</time>
      </trkpt>
      <trkpt lat="42.81196" lon="-0.1225">
        <ele>2486.3090866777</ele>
        <time>2019-08-04T12:36:59.724Z</time>
      </trkpt>
      <trkpt lat="42.81197" lon="-0.12249">
        <ele>2486</ele>
        <time>2019-08-04T12:37:03.724Z</time>
      </trkpt>
      <trkpt lat="42.81198" lon="-0.12247">
        <ele>2485</ele>
        <time>2019-08-04T12:37:07.724Z</time>
      </trkpt>
      <trkpt lat="42.812" lon="-0.12247">
        <ele>2485</ele>
        <time>2019-08-04T12:37:12.724Z</time>
      </trkpt>
      <trkpt lat="42.81202" lon="-0.12246">
        <ele>2485</ele>
        <time>2019-08-04T12:37:15.724Z</time>
      </trkpt>
      <trkpt lat="42.81204" lon="-0.12246">
        <ele>2484.248413479</ele>
        <time>2019-08-04T12:37:19.724Z</time>
      </trkpt>
      <trkpt lat="42.81206" lon="-0.12247">
        <ele>2483</ele>
        <time>2019-08-04T12:37:22.724Z</time>
      </trkpt>
      <trkpt lat="42.81207" lon="-0.12245">
        <ele>2483.7276614287</ele>
        <time>2019-08-04T12:37:25.724Z</time>
      </trkpt>
      <trkpt lat="42.81209" lon="-0.12241">
        <ele>2484</ele>
        <time>2019-08-04T12:37:28.724Z</time>
      </trkpt>
      <trkpt lat="42.8121" lon="-0.12243">
        <ele>2484</ele>
        <time>2019-08-04T12:37:31.724Z</time>
      </trkpt>
      <trkpt lat="42.81211" lon="-0.12245">
        <ele>2483.1878749483</ele>
        <time>2019-08-04T12:37:33.724Z</time>
      </trkpt>
      <trkpt lat="42.81213" lon="-0.12247">
        <ele>2482</ele>
        <time>2019-08-04T12:37:37.724Z</time>
      </trkpt>
      <trkpt lat="42.81215" lon="-0.12248">
        <ele>2482</ele>
        <time>2019-08-04T12:37:42.724Z</time>
      </trkpt>
      <trkpt lat="42.81216" lon="-0.12247">
        <ele>2481</ele>
        <time>2019-08-04T12:37:46.724Z</time>
      </trkpt>
      <trkpt lat="42.81218" lon="-0.12245">
        <ele>2481</ele>
        <time>2019-08-04T12:37:50.724Z</time>
      </trkpt>
      <trkpt lat="42.8122" lon="-0.12247">
        <ele>2479</ele>
        <time>2019-08-04T12:37:56.724Z</time>
      </trkpt>
      <trkpt lat="42.81222" lon="-0.12247">
        <ele>2479</ele>
        <time>2019-08-04T12:38:00.724Z</time>
      </trkpt>
      <trkpt lat="42.81223" lon="-0.12246">
        <ele>2478</ele>
        <time>2019-08-04T12:38:06.724Z</time>
      </trkpt>
      <trkpt lat="42.81227" lon="-0.12241">
        <ele>2477</ele>
        <time>2019-08-04T12:38:14.724Z</time>
      </trkpt>
      <trkpt lat="42.81229" lon="-0.12241">
        <ele>2477</ele>
        <time>2019-08-04T12:38:19.724Z</time>
      </trkpt>
      <trkpt lat="42.81231" lon="-0.12241">
        <ele>2476</ele>
        <time>2019-08-04T12:38:24.724Z</time>
      </trkpt>
      <trkpt lat="42.81231" lon="-0.12235">
        <ele>2475</ele>
        <time>2019-08-04T12:38:30.724Z</time>
      </trkpt>
      <trkpt lat="42.81232" lon="-0.12234">
        <ele>2474</ele>
        <time>2019-08-04T12:38:35.724Z</time>
      </trkpt>
      <trkpt lat="42.81234" lon="-0.12235">
        <ele>2474</ele>
        <time>2019-08-04T12:38:39.724Z</time>
      </trkpt>
      <trkpt lat="42.81236" lon="-0.12236">
        <ele>2473</ele>
        <time>2019-08-04T12:38:43.724Z</time>
      </trkpt>
      <trkpt lat="42.81238" lon="-0.12236">
        <ele>2472</ele>
        <time>2019-08-04T12:38:47.724Z</time>
      </trkpt>
      <trkpt lat="42.8124" lon="-0.12236">
        <ele>2472</ele>
        <time>2019-08-04T12:38:50.724Z</time>
      </trkpt>
      <trkpt lat="42.81242" lon="-0.12234">
        <ele>2472</ele>
        <time>2019-08-04T12:38:54.724Z</time>
      </trkpt>
      <trkpt lat="42.81244" lon="-0.12234">
        <ele>2472</ele>
        <time>2019-08-04T12:39:01.724Z</time>
      </trkpt>
      <trkpt lat="42.81245" lon="-0.12233">
        <ele>2471</ele>
        <time>2019-08-04T12:39:04.724Z</time>
      </trkpt>
      <trkpt lat="42.81247" lon="-0.12231">
        <ele>2471</ele>
        <time>2019-08-04T12:39:07.724Z</time>
      </trkpt>
      <trkpt lat="42.81248" lon="-0.12229">
        <ele>2471</ele>
        <time>2019-08-04T12:39:12.724Z</time>
      </trkpt>
      <trkpt lat="42.81249" lon="-0.12227">
        <ele>2470</ele>
        <time>2019-08-04T12:39:17.724Z</time>
      </trkpt>
      <trkpt lat="42.81251" lon="-0.12225">
        <ele>2470</ele>
        <time>2019-08-04T12:39:21.724Z</time>
      </trkpt>
      <trkpt lat="42.81252" lon="-0.12222">
        <ele>2469</ele>
        <time>2019-08-04T12:39:31.724Z</time>
      </trkpt>
      <trkpt lat="42.81251" lon="-0.1222">
        <ele>2470</ele>
        <time>2019-08-04T12:39:40.724Z</time>
      </trkpt>
      <trkpt lat="42.81253" lon="-0.12219">
        <ele>2469</ele>
        <time>2019-08-04T12:40:11.724Z</time>
      </trkpt>
      <trkpt lat="42.81254" lon="-0.12216">
        <ele>2469</ele>
        <time>2019-08-04T12:40:15.724Z</time>
      </trkpt>
      <trkpt lat="42.81256" lon="-0.12214">
        <ele>2468</ele>
        <time>2019-08-04T12:40:19.724Z</time>
      </trkpt>
      <trkpt lat="42.81257" lon="-0.12212">
        <ele>2465.4876205337</ele>
        <time>2019-08-04T12:40:24.724Z</time>
      </trkpt>
      <trkpt lat="42.81257" lon="-0.1221">
        <ele>2465</ele>
        <time>2019-08-04T12:40:28.724Z</time>
      </trkpt>
      <trkpt lat="42.81257" lon="-0.12207">
        <ele>2464.3020297275</ele>
        <time>2019-08-04T12:40:31.724Z</time>
      </trkpt>
      <trkpt lat="42.81258" lon="-0.12205">
        <ele>2464</ele>
        <time>2019-08-04T12:40:34.724Z</time>
      </trkpt>
      <trkpt lat="42.81259" lon="-0.12202">
        <ele>2463.2373510754</ele>
        <time>2019-08-04T12:40:37.724Z</time>
      </trkpt>
      <trkpt lat="42.81259" lon="-0.122">
        <ele>2461.1999944947</ele>
        <time>2019-08-04T12:40:43.724Z</time>
      </trkpt>
      <trkpt lat="42.81261" lon="-0.12201">
        <ele>2460.2560032768</ele>
        <time>2019-08-04T12:40:48.724Z</time>
      </trkpt>
      <trkpt lat="42.81263" lon="-0.12199">
        <ele>2459</ele>
        <time>2019-08-04T12:40:53.724Z</time>
      </trkpt>
      <trkpt lat="42.81264" lon="-0.12198">
        <ele>2458</ele>
        <time>2019-08-04T12:40:57.724Z</time>
      </trkpt>
      <trkpt lat="42.81266" lon="-0.12196">
        <ele>2458</ele>
        <time>2019-08-04T12:41:01.724Z</time>
      </trkpt>
      <trkpt lat="42.81267" lon="-0.12194">
        <ele>2458</ele>
        <time>2019-08-04T12:41:05.724Z</time>
      </trkpt>
      <trkpt lat="42.81268" lon="-0.12192">
        <ele>2457</ele>
        <time>2019-08-04T12:41:08.724Z</time>
      </trkpt>
      <trkpt lat="42.8127" lon="-0.1219">
        <ele>2456</ele>
        <time>2019-08-04T12:41:13.724Z</time>
      </trkpt>
      <trkpt lat="42.81272" lon="-0.1219">
        <ele>2455</ele>
        <time>2019-08-04T12:41:17.724Z</time>
      </trkpt>
      <trkpt lat="42.81273" lon="-0.12191">
        <ele>2455</ele>
        <time>2019-08-04T12:41:21.724Z</time>
      </trkpt>
      <trkpt lat="42.81275" lon="-0.12189">
        <ele>2454</ele>
        <time>2019-08-04T12:41:25.724Z</time>
      </trkpt>
      <trkpt lat="42.81277" lon="-0.12189">
        <ele>2452.2660096</ele>
        <time>2019-08-04T12:41:32.724Z</time>
      </trkpt>
      <trkpt lat="42.81279" lon="-0.12189">
        <ele>2451</ele>
        <time>2019-08-04T12:41:38.724Z</time>
      </trkpt>
      <trkpt lat="42.81281" lon="-0.12189">
        <ele>2451</ele>
        <time>2019-08-04T12:41:42.724Z</time>
      </trkpt>
      <trkpt lat="42.81283" lon="-0.1219">
        <ele>2450</ele>
        <time>2019-08-04T12:41:46.724Z</time>
      </trkpt>
      <trkpt lat="42.81284" lon="-0.12188">
        <ele>2450</ele>
        <time>2019-08-04T12:41:53.724Z</time>
      </trkpt>
      <trkpt lat="42.81286" lon="-0.12187">
        <ele>2449</ele>
        <time>2019-08-04T12:41:58.724Z</time>
      </trkpt>
      <trkpt lat="42.81286" lon="-0.12184">
        <ele>2449</ele>
        <time>2019-08-04T12:42:03.724Z</time>
      </trkpt>
      <trkpt lat="42.81286" lon="-0.12182">
        <ele>2448.2059904</ele>
        <time>2019-08-04T12:42:07.724Z</time>
      </trkpt>
      <trkpt lat="42.81287" lon="-0.12179">
        <ele>2447.2282788581</ele>
        <time>2019-08-04T12:42:11.724Z</time>
      </trkpt>
      <trkpt lat="42.81286" lon="-0.12176">
        <ele>2447</ele>
        <time>2019-08-04T12:42:14.724Z</time>
      </trkpt>
      <trkpt lat="42.81286" lon="-0.12173">
        <ele>2446</ele>
        <time>2019-08-04T12:42:20.724Z</time>
      </trkpt>
      <trkpt lat="42.81287" lon="-0.1217">
        <ele>2445</ele>
        <time>2019-08-04T12:42:26.724Z</time>
      </trkpt>
      <trkpt lat="42.81287" lon="-0.12168">
        <ele>2444</ele>
        <time>2019-08-04T12:42:29.724Z</time>
      </trkpt>
      <trkpt lat="42.81287" lon="-0.12165">
        <ele>2444</ele>
        <time>2019-08-04T12:42:34.724Z</time>
      </trkpt>
      <trkpt lat="42.81289" lon="-0.12164">
        <ele>2443.1814415033</ele>
        <time>2019-08-04T12:42:41.724Z</time>
      </trkpt>
      <trkpt lat="42.8129" lon="-0.12162">
        <ele>2442.3227637949</ele>
        <time>2019-08-04T12:42:47.724Z</time>
      </trkpt>
      <trkpt lat="42.81291" lon="-0.12159">
        <ele>2442</ele>
        <time>2019-08-04T12:42:51.724Z</time>
      </trkpt>
      <trkpt lat="42.81293" lon="-0.12157">
        <ele>2441</ele>
        <time>2019-08-04T12:42:55.724Z</time>
      </trkpt>
      <trkpt lat="42.81294" lon="-0.12155">
        <ele>2438</ele>
        <time>2019-08-04T12:43:04.724Z</time>
      </trkpt>
      <trkpt lat="42.81296" lon="-0.12154">
        <ele>2439</ele>
        <time>2019-08-04T12:43:15.724Z</time>
      </trkpt>
      <trkpt lat="42.81297" lon="-0.12152">
        <ele>2439</ele>
        <time>2019-08-04T12:43:18.724Z</time>
      </trkpt>
      <trkpt lat="42.81299" lon="-0.12149">
        <ele>2438</ele>
        <time>2019-08-04T12:43:33.724Z</time>
      </trkpt>
      <trkpt lat="42.81299" lon="-0.12147">
        <ele>2437</ele>
        <time>2019-08-04T12:43:37.724Z</time>
      </trkpt>
      <trkpt lat="42.813" lon="-0.12144">
        <ele>2435.3191844228</ele>
        <time>2019-08-04T12:43:41.724Z</time>
      </trkpt>
      <trkpt lat="42.81302" lon="-0.12142">
        <ele>2435</ele>
        <time>2019-08-04T12:43:44.724Z</time>
      </trkpt>
      <trkpt lat="42.81303" lon="-0.1214">
        <ele>2435</ele>
        <time>2019-08-04T12:43:48.724Z</time>
      </trkpt>
      <trkpt lat="42.81304" lon="-0.12137">
        <ele>2434</ele>
        <time>2019-08-04T12:43:52.724Z</time>
      </trkpt>
      <trkpt lat="42.81305" lon="-0.12135">
        <ele>2433</ele>
        <time>2019-08-04T12:43:55.724Z</time>
      </trkpt>
      <trkpt lat="42.81306" lon="-0.12132">
        <ele>2432</ele>
        <time>2019-08-04T12:43:59.724Z</time>
      </trkpt>
      <trkpt lat="42.81307" lon="-0.1213">
        <ele>2432</ele>
        <time>2019-08-04T12:44:03.724Z</time>
      </trkpt>
      <trkpt lat="42.81308" lon="-0.12127">
        <ele>2432</ele>
        <time>2019-08-04T12:44:06.724Z</time>
      </trkpt>
      <trkpt lat="42.81308" lon="-0.12124">
        <ele>2432</ele>
        <time>2019-08-04T12:44:09.724Z</time>
      </trkpt>
      <trkpt lat="42.81307" lon="-0.12121">
        <ele>2430</ele>
        <time>2019-08-04T12:44:14.724Z</time>
      </trkpt>
      <trkpt lat="42.81308" lon="-0.12119">
        <ele>2429</ele>
        <time>2019-08-04T12:44:17.724Z</time>
      </trkpt>
      <trkpt lat="42.81309" lon="-0.12116">
        <ele>2428</ele>
        <time>2019-08-04T12:44:21.724Z</time>
      </trkpt>
      <trkpt lat="42.8131" lon="-0.12115">
        <ele>2427</ele>
        <time>2019-08-04T12:44:26.724Z</time>
      </trkpt>
      <trkpt lat="42.81312" lon="-0.12113">
        <ele>2426</ele>
        <time>2019-08-04T12:44:30.724Z</time>
      </trkpt>
      <trkpt lat="42.81313" lon="-0.12111">
        <ele>2426</ele>
        <time>2019-08-04T12:44:34.724Z</time>
      </trkpt>
      <trkpt lat="42.81311" lon="-0.12111">
        <ele>2425</ele>
        <time>2019-08-04T12:44:45.724Z</time>
      </trkpt>
      <trkpt lat="42.8131" lon="-0.12109">
        <ele>2424</ele>
        <time>2019-08-04T12:44:49.724Z</time>
      </trkpt>
      <trkpt lat="42.81312" lon="-0.12108">
        <ele>2422.2732618559</ele>
        <time>2019-08-04T12:44:55.724Z</time>
      </trkpt>
      <trkpt lat="42.81314" lon="-0.12107">
        <ele>2422</ele>
        <time>2019-08-04T12:45:00.724Z</time>
      </trkpt>
      <trkpt lat="42.81315" lon="-0.12106">
        <ele>2420.4260096</ele>
        <time>2019-08-04T12:45:04.724Z</time>
      </trkpt>
      <trkpt lat="42.81317" lon="-0.12104">
        <ele>2420</ele>
        <time>2019-08-04T12:45:09.724Z</time>
      </trkpt>
      <trkpt lat="42.81319" lon="-0.12103">
        <ele>2420</ele>
        <time>2019-08-04T12:45:13.724Z</time>
      </trkpt>
      <trkpt lat="42.81321" lon="-0.12101">
        <ele>2419</ele>
        <time>2019-08-04T12:45:18.724Z</time>
      </trkpt>
      <trkpt lat="42.81322" lon="-0.121">
        <ele>2419</ele>
        <time>2019-08-04T12:45:22.724Z</time>
      </trkpt>
      <trkpt lat="42.81324" lon="-0.12099">
        <ele>2418</ele>
        <time>2019-08-04T12:45:26.724Z</time>
      </trkpt>
      <trkpt lat="42.81326" lon="-0.12097">
        <ele>2417</ele>
        <time>2019-08-04T12:45:30.724Z</time>
      </trkpt>
      <trkpt lat="42.81328" lon="-0.12096">
        <ele>2416</ele>
        <time>2019-08-04T12:45:35.724Z</time>
      </trkpt>
      <trkpt lat="42.81329" lon="-0.12093">
        <ele>2415</ele>
        <time>2019-08-04T12:45:38.724Z</time>
      </trkpt>
      <trkpt lat="42.81331" lon="-0.12091">
        <ele>2415</ele>
        <time>2019-08-04T12:45:42.724Z</time>
      </trkpt>
      <trkpt lat="42.81332" lon="-0.12089">
        <ele>2411.3059968</ele>
        <time>2019-08-04T12:45:57.724Z</time>
      </trkpt>
      <trkpt lat="42.81333" lon="-0.12087">
        <ele>2410</ele>
        <time>2019-08-04T12:46:03.724Z</time>
      </trkpt>
      <trkpt lat="42.81335" lon="-0.12084">
        <ele>2410</ele>
        <time>2019-08-04T12:46:08.724Z</time>
      </trkpt>
      <trkpt lat="42.81337" lon="-0.12084">
        <ele>2409</ele>
        <time>2019-08-04T12:46:13.724Z</time>
      </trkpt>
      <trkpt lat="42.81338" lon="-0.12081">
        <ele>2408.3260032</ele>
        <time>2019-08-04T12:46:20.724Z</time>
      </trkpt>
      <trkpt lat="42.81339" lon="-0.12079">
        <ele>2408</ele>
        <time>2019-08-04T12:46:26.724Z</time>
      </trkpt>
      <trkpt lat="42.8134" lon="-0.12077">
        <ele>2407</ele>
        <time>2019-08-04T12:46:31.724Z</time>
      </trkpt>
      <trkpt lat="42.81342" lon="-0.12075">
        <ele>2406</ele>
        <time>2019-08-04T12:46:37.724Z</time>
      </trkpt>
      <trkpt lat="42.81344" lon="-0.12076">
        <ele>2405</ele>
        <time>2019-08-04T12:46:41.724Z</time>
      </trkpt>
      <trkpt lat="42.81342" lon="-0.12075">
        <ele>2404</ele>
        <time>2019-08-04T12:46:55.724Z</time>
      </trkpt>
      <trkpt lat="42.8134" lon="-0.12075">
        <ele>2404</ele>
        <time>2019-08-04T12:46:56.724Z</time>
      </trkpt>
      <trkpt lat="42.81338" lon="-0.12076">
        <ele>2404</ele>
        <time>2019-08-04T12:46:58.724Z</time>
      </trkpt>
      <trkpt lat="42.81337" lon="-0.12074">
        <ele>2403</ele>
        <time>2019-08-04T12:47:02.724Z</time>
      </trkpt>
      <trkpt lat="42.81337" lon="-0.12071">
        <ele>2402</ele>
        <time>2019-08-04T12:47:07.724Z</time>
      </trkpt>
      <trkpt lat="42.81337" lon="-0.12069">
        <ele>2400</ele>
        <time>2019-08-04T12:47:41.724Z</time>
      </trkpt>
      <trkpt lat="42.81339" lon="-0.12066">
        <ele>2400</ele>
        <time>2019-08-04T12:47:44.724Z</time>
      </trkpt>
      <trkpt lat="42.8134" lon="-0.12063">
        <ele>2398</ele>
        <time>2019-08-04T12:47:47.724Z</time>
      </trkpt>
      <trkpt lat="42.8134" lon="-0.1206">
        <ele>2398</ele>
        <time>2019-08-04T12:47:52.724Z</time>
      </trkpt>
      <trkpt lat="42.81342" lon="-0.12058">
        <ele>2396.2485943967</ele>
        <time>2019-08-04T12:47:57.724Z</time>
      </trkpt>
      <trkpt lat="42.81341" lon="-0.12055">
        <ele>2394.9013209544</ele>
        <time>2019-08-04T12:48:01.724Z</time>
      </trkpt>
      <trkpt lat="42.81342" lon="-0.12052">
        <ele>2394</ele>
        <time>2019-08-04T12:48:04.724Z</time>
      </trkpt>
      <trkpt lat="42.81344" lon="-0.1205">
        <ele>2394</ele>
        <time>2019-08-04T12:48:07.724Z</time>
      </trkpt>
      <trkpt lat="42.81345" lon="-0.12048">
        <ele>2393</ele>
        <time>2019-08-04T12:48:10.724Z</time>
      </trkpt>
      <trkpt lat="42.81346" lon="-0.12046">
        <ele>2393</ele>
        <time>2019-08-04T12:48:14.724Z</time>
      </trkpt>
      <trkpt lat="42.81348" lon="-0.12046">
        <ele>2392</ele>
        <time>2019-08-04T12:48:22.724Z</time>
      </trkpt>
      <trkpt lat="42.81349" lon="-0.12044">
        <ele>2393</ele>
        <time>2019-08-04T12:48:27.724Z</time>
      </trkpt>
      <trkpt lat="42.8135" lon="-0.12041">
        <ele>2390.1898044747</ele>
        <time>2019-08-04T12:48:48.724Z</time>
      </trkpt>
      <trkpt lat="42.81351" lon="-0.12037">
        <ele>2390</ele>
        <time>2019-08-04T12:48:51.724Z</time>
      </trkpt>
      <trkpt lat="42.81352" lon="-0.12034">
        <ele>2390</ele>
        <time>2019-08-04T12:48:53.724Z</time>
      </trkpt>
      <trkpt lat="42.81354" lon="-0.12032">
        <ele>2389</ele>
        <time>2019-08-04T12:48:56.724Z</time>
      </trkpt>
      <trkpt lat="42.81352" lon="-0.12034">
        <ele>2387</ele>
        <time>2019-08-04T12:49:11.724Z</time>
      </trkpt>
      <trkpt lat="42.81354" lon="-0.12033">
        <ele>2387</ele>
        <time>2019-08-04T12:49:25.724Z</time>
      </trkpt>
      <trkpt lat="42.81356" lon="-0.12034">
        <ele>2387</ele>
        <time>2019-08-04T12:49:29.724Z</time>
      </trkpt>
      <trkpt lat="42.81358" lon="-0.12032">
        <ele>2386</ele>
        <time>2019-08-04T12:49:34.724Z</time>
      </trkpt>
      <trkpt lat="42.8136" lon="-0.12032">
        <ele>2383.6117762217</ele>
        <time>2019-08-04T12:49:56.724Z</time>
      </trkpt>
      <trkpt lat="42.81361" lon="-0.1203">
        <ele>2385</ele>
        <time>2019-08-04T12:51:00.724Z</time>
      </trkpt>
      <trkpt lat="42.81363" lon="-0.1203">
        <ele>2384</ele>
        <time>2019-08-04T12:51:32.724Z</time>
      </trkpt>
      <trkpt lat="42.81365" lon="-0.1203">
        <ele>2384</ele>
        <time>2019-08-04T12:51:34.724Z</time>
      </trkpt>
      <trkpt lat="42.81366" lon="-0.12028">
        <ele>2384</ele>
        <time>2019-08-04T12:51:36.724Z</time>
      </trkpt>
      <trkpt lat="42.81369" lon="-0.12027">
        <ele>2384</ele>
        <time>2019-08-04T12:51:40.724Z</time>
      </trkpt>
      <trkpt lat="42.81371" lon="-0.12025">
        <ele>2384.6740096</ele>
        <time>2019-08-04T12:51:43.724Z</time>
      </trkpt>
      <trkpt lat="42.81373" lon="-0.12025">
        <ele>2385</ele>
        <time>2019-08-04T12:51:47.724Z</time>
      </trkpt>
      <trkpt lat="42.81375" lon="-0.12024">
        <ele>2384</ele>
        <time>2019-08-04T12:51:51.724Z</time>
      </trkpt>
      <trkpt lat="42.81377" lon="-0.12024">
        <ele>2383</ele>
        <time>2019-08-04T12:51:54.724Z</time>
      </trkpt>
      <trkpt lat="42.81379" lon="-0.12023">
        <ele>2383</ele>
        <time>2019-08-04T12:51:58.724Z</time>
      </trkpt>
      <trkpt lat="42.81381" lon="-0.12022">
        <ele>2382</ele>
        <time>2019-08-04T12:52:01.724Z</time>
      </trkpt>
      <trkpt lat="42.81383" lon="-0.12021">
        <ele>2382</ele>
        <time>2019-08-04T12:52:06.724Z</time>
      </trkpt>
      <trkpt lat="42.81384" lon="-0.12019">
        <ele>2382</ele>
        <time>2019-08-04T12:52:11.724Z</time>
      </trkpt>
      <trkpt lat="42.81385" lon="-0.12016">
        <ele>2380</ele>
        <time>2019-08-04T12:52:20.724Z</time>
      </trkpt>
      <trkpt lat="42.81386" lon="-0.12014">
        <ele>2380</ele>
        <time>2019-08-04T12:52:24.724Z</time>
      </trkpt>
      <trkpt lat="42.81387" lon="-0.12012">
        <ele>2380</ele>
        <time>2019-08-04T12:52:30.724Z</time>
      </trkpt>
      <trkpt lat="42.81389" lon="-0.12011">
        <ele>2380</ele>
        <time>2019-08-04T12:52:37.724Z</time>
      </trkpt>
      <trkpt lat="42.81391" lon="-0.1201">
        <ele>2380</ele>
        <time>2019-08-04T12:52:40.724Z</time>
      </trkpt>
      <trkpt lat="42.81393" lon="-0.12008">
        <ele>2380</ele>
        <time>2019-08-04T12:52:44.724Z</time>
      </trkpt>
      <trkpt lat="42.81395" lon="-0.12006">
        <ele>2380</ele>
        <time>2019-08-04T12:52:48.724Z</time>
      </trkpt>
      <trkpt lat="42.81396" lon="-0.12004">
        <ele>2380</ele>
        <time>2019-08-04T12:52:52.724Z</time>
      </trkpt>
      <trkpt lat="42.81398" lon="-0.12002">
        <ele>2378.3029680886</ele>
        <time>2019-08-04T12:52:55.724Z</time>
      </trkpt>
      <trkpt lat="42.81399" lon="-0.12">
        <ele>2377</ele>
        <time>2019-08-04T12:52:59.724Z</time>
      </trkpt>
      <trkpt lat="42.814" lon="-0.11997">
        <ele>2377.1979856227</ele>
        <time>2019-08-04T12:53:10.724Z</time>
      </trkpt>
      <trkpt lat="42.81401" lon="-0.11995">
        <ele>2378</ele>
        <time>2019-08-04T12:53:13.724Z</time>
      </trkpt>
      <trkpt lat="42.81402" lon="-0.11992">
        <ele>2377</ele>
        <time>2019-08-04T12:53:18.724Z</time>
      </trkpt>
      <trkpt lat="42.81403" lon="-0.1199">
        <ele>2377.2746573823</ele>
        <time>2019-08-04T12:53:25.724Z</time>
      </trkpt>
      <trkpt lat="42.81405" lon="-0.11988">
        <ele>2377</ele>
        <time>2019-08-04T12:53:30.724Z</time>
      </trkpt>
      <trkpt lat="42.81406" lon="-0.11986">
        <ele>2376.3128659417</ele>
        <time>2019-08-04T12:53:35.724Z</time>
      </trkpt>
      <trkpt lat="42.81408" lon="-0.11985">
        <ele>2376</ele>
        <time>2019-08-04T12:53:39.724Z</time>
      </trkpt>
      <trkpt lat="42.81409" lon="-0.11984">
        <ele>2376</ele>
        <time>2019-08-04T12:53:42.724Z</time>
      </trkpt>
      <trkpt lat="42.81411" lon="-0.11981">
        <ele>2374.2117534855</ele>
        <time>2019-08-04T12:53:45.724Z</time>
      </trkpt>
      <trkpt lat="42.81413" lon="-0.1198">
        <ele>2374</ele>
        <time>2019-08-04T12:53:49.724Z</time>
      </trkpt>
      <trkpt lat="42.81415" lon="-0.11978">
        <ele>2375</ele>
        <time>2019-08-04T12:53:53.724Z</time>
      </trkpt>
      <trkpt lat="42.81416" lon="-0.11976">
        <ele>2375.2138493904</ele>
        <time>2019-08-04T12:53:57.724Z</time>
      </trkpt>
      <trkpt lat="42.81417" lon="-0.11974">
        <ele>2375</ele>
        <time>2019-08-04T12:54:01.724Z</time>
      </trkpt>
      <trkpt lat="42.81418" lon="-0.11971">
        <ele>2374</ele>
        <time>2019-08-04T12:54:06.724Z</time>
      </trkpt>
      <trkpt lat="42.81419" lon="-0.11969">
        <ele>2373</ele>
        <time>2019-08-04T12:54:10.724Z</time>
      </trkpt>
      <trkpt lat="42.81419" lon="-0.11966">
        <ele>2372</ele>
        <time>2019-08-04T12:54:13.724Z</time>
      </trkpt>
      <trkpt lat="42.8142" lon="-0.11964">
        <ele>2372</ele>
        <time>2019-08-04T12:54:16.724Z</time>
      </trkpt>
      <trkpt lat="42.81421" lon="-0.11961">
        <ele>2371</ele>
        <time>2019-08-04T12:54:20.724Z</time>
      </trkpt>
      <trkpt lat="42.81422" lon="-0.11959">
        <ele>2369.6107968796</ele>
        <time>2019-08-04T12:54:23.724Z</time>
      </trkpt>
      <trkpt lat="42.81424" lon="-0.11957">
        <ele>2369</ele>
        <time>2019-08-04T12:54:26.724Z</time>
      </trkpt>
      <trkpt lat="42.81425" lon="-0.11955">
        <ele>2369</ele>
        <time>2019-08-04T12:54:30.724Z</time>
      </trkpt>
      <trkpt lat="42.81427" lon="-0.11953">
        <ele>2369</ele>
        <time>2019-08-04T12:54:34.724Z</time>
      </trkpt>
      <trkpt lat="42.81428" lon="-0.11951">
        <ele>2369</ele>
        <time>2019-08-04T12:54:39.724Z</time>
      </trkpt>
      <trkpt lat="42.8143" lon="-0.11949">
        <ele>2369.6808155772</ele>
        <time>2019-08-04T12:54:43.724Z</time>
      </trkpt>
      <trkpt lat="42.81432" lon="-0.11948">
        <ele>2369</ele>
        <time>2019-08-04T12:54:57.724Z</time>
      </trkpt>
      <trkpt lat="42.81433" lon="-0.11945">
        <ele>2369</ele>
        <time>2019-08-04T12:55:01.724Z</time>
      </trkpt>
      <trkpt lat="42.81434" lon="-0.11943">
        <ele>2368</ele>
        <time>2019-08-04T12:55:06.724Z</time>
      </trkpt>
      <trkpt lat="42.81435" lon="-0.11941">
        <ele>2365</ele>
        <time>2019-08-04T12:55:12.724Z</time>
      </trkpt>
      <trkpt lat="42.81436" lon="-0.11939">
        <ele>2365</ele>
        <time>2019-08-04T12:55:17.724Z</time>
      </trkpt>
      <trkpt lat="42.81438" lon="-0.11937">
        <ele>2363.3623678808</ele>
        <time>2019-08-04T12:55:23.724Z</time>
      </trkpt>
      <trkpt lat="42.81439" lon="-0.11935">
        <ele>2363</ele>
        <time>2019-08-04T12:55:27.724Z</time>
      </trkpt>
      <trkpt lat="42.81439" lon="-0.11932">
        <ele>2361</ele>
        <time>2019-08-04T12:55:36.724Z</time>
      </trkpt>
      <trkpt lat="42.81441" lon="-0.11931">
        <ele>2360.2383895325</ele>
        <time>2019-08-04T12:55:42.724Z</time>
      </trkpt>
      <trkpt lat="42.81439" lon="-0.1193">
        <ele>2361</ele>
        <time>2019-08-04T12:55:51.724Z</time>
      </trkpt>
      <trkpt lat="42.81437" lon="-0.11928">
        <ele>2359.4046198381</ele>
        <time>2019-08-04T12:55:56.724Z</time>
      </trkpt>
      <trkpt lat="42.81437" lon="-0.11926">
        <ele>2359</ele>
        <time>2019-08-04T12:56:00.724Z</time>
      </trkpt>
      <trkpt lat="42.81438" lon="-0.11923">
        <ele>2357</ele>
        <time>2019-08-04T12:56:05.724Z</time>
      </trkpt>
      <trkpt lat="42.81439" lon="-0.11921">
        <ele>2357</ele>
        <time>2019-08-04T12:56:10.724Z</time>
      </trkpt>
      <trkpt lat="42.8144" lon="-0.11918">
        <ele>2356</ele>
        <time>2019-08-04T12:56:14.724Z</time>
      </trkpt>
      <trkpt lat="42.8144" lon="-0.11915">
        <ele>2356</ele>
        <time>2019-08-04T12:56:18.724Z</time>
      </trkpt>
      <trkpt lat="42.81439" lon="-0.11912">
        <ele>2355</ele>
        <time>2019-08-04T12:56:23.724Z</time>
      </trkpt>
      <trkpt lat="42.81437" lon="-0.1191">
        <ele>2353.2039515373</ele>
        <time>2019-08-04T12:56:31.724Z</time>
      </trkpt>
      <trkpt lat="42.81436" lon="-0.11905">
        <ele>2351</ele>
        <time>2019-08-04T12:56:50.724Z</time>
      </trkpt>
      <trkpt lat="42.81436" lon="-0.11902">
        <ele>2351</ele>
        <time>2019-08-04T12:56:56.724Z</time>
      </trkpt>
      <trkpt lat="42.81436" lon="-0.119">
        <ele>2351</ele>
        <time>2019-08-04T12:57:00.724Z</time>
      </trkpt>
      <trkpt lat="42.81437" lon="-0.11898">
        <ele>2350</ele>
        <time>2019-08-04T12:57:05.724Z</time>
      </trkpt>
      <trkpt lat="42.81436" lon="-0.11895">
        <ele>2349</ele>
        <time>2019-08-04T12:57:12.724Z</time>
      </trkpt>
      <trkpt lat="42.81435" lon="-0.11893">
        <ele>2348.2732745292</ele>
        <time>2019-08-04T12:57:16.724Z</time>
      </trkpt>
      <trkpt lat="42.81435" lon="-0.1189">
        <ele>2347.2990018618</ele>
        <time>2019-08-04T12:57:20.724Z</time>
      </trkpt>
      <trkpt lat="42.81436" lon="-0.11888">
        <ele>2347</ele>
        <time>2019-08-04T12:57:24.724Z</time>
      </trkpt>
      <trkpt lat="42.81437" lon="-0.11885">
        <ele>2348</ele>
        <time>2019-08-04T12:57:29.724Z</time>
      </trkpt>
      <trkpt lat="42.81437" lon="-0.11882">
        <ele>2348</ele>
        <time>2019-08-04T12:57:33.724Z</time>
      </trkpt>
      <trkpt lat="42.81437" lon="-0.11879">
        <ele>2348</ele>
        <time>2019-08-04T12:57:36.724Z</time>
      </trkpt>
      <trkpt lat="42.81437" lon="-0.11876">
        <ele>2347</ele>
        <time>2019-08-04T12:57:41.724Z</time>
      </trkpt>
      <trkpt lat="42.81438" lon="-0.11873">
        <ele>2347</ele>
        <time>2019-08-04T12:57:44.724Z</time>
      </trkpt>
      <trkpt lat="42.81439" lon="-0.1187">
        <ele>2346.2803845044</ele>
        <time>2019-08-04T12:57:47.724Z</time>
      </trkpt>
      <trkpt lat="42.81439" lon="-0.11867">
        <ele>2346</ele>
        <time>2019-08-04T12:57:49.724Z</time>
      </trkpt>
      <trkpt lat="42.8144" lon="-0.11864">
        <ele>2346</ele>
        <time>2019-08-04T12:57:52.724Z</time>
      </trkpt>
      <trkpt lat="42.81441" lon="-0.11862">
        <ele>2346</ele>
        <time>2019-08-04T12:57:55.724Z</time>
      </trkpt>
      <trkpt lat="42.81443" lon="-0.1186">
        <ele>2346</ele>
        <time>2019-08-04T12:57:58.724Z</time>
      </trkpt>
      <trkpt lat="42.81444" lon="-0.11858">
        <ele>2346</ele>
        <time>2019-08-04T12:58:01.724Z</time>
      </trkpt>
      <trkpt lat="42.81446" lon="-0.11856">
        <ele>2347</ele>
        <time>2019-08-04T12:58:04.724Z</time>
      </trkpt>
      <trkpt lat="42.81447" lon="-0.11854">
        <ele>2347</ele>
        <time>2019-08-04T12:58:06.724Z</time>
      </trkpt>
      <trkpt lat="42.81448" lon="-0.11851">
        <ele>2346</ele>
        <time>2019-08-04T12:58:09.724Z</time>
      </trkpt>
      <trkpt lat="42.81448" lon="-0.11849">
        <ele>2346</ele>
        <time>2019-08-04T12:58:12.724Z</time>
      </trkpt>
      <trkpt lat="42.81446" lon="-0.11847">
        <ele>2346.8158465029</ele>
        <time>2019-08-04T12:58:15.724Z</time>
      </trkpt>
      <trkpt lat="42.81445" lon="-0.11844">
        <ele>2347</ele>
        <time>2019-08-04T12:58:18.724Z</time>
      </trkpt>
      <trkpt lat="42.81445" lon="-0.11841">
        <ele>2346</ele>
        <time>2019-08-04T12:58:21.724Z</time>
      </trkpt>
      <trkpt lat="42.81445" lon="-0.11838">
        <ele>2346</ele>
        <time>2019-08-04T12:58:23.724Z</time>
      </trkpt>
      <trkpt lat="42.81445" lon="-0.11835">
        <ele>2346</ele>
        <time>2019-08-04T12:58:26.724Z</time>
      </trkpt>
      <trkpt lat="42.81445" lon="-0.11832">
        <ele>2346</ele>
        <time>2019-08-04T12:58:29.724Z</time>
      </trkpt>
      <trkpt lat="42.81445" lon="-0.11828">
        <ele>2345</ele>
        <time>2019-08-04T12:58:32.724Z</time>
      </trkpt>
      <trkpt lat="42.81445" lon="-0.11825">
        <ele>2345</ele>
        <time>2019-08-04T12:58:35.724Z</time>
      </trkpt>
      <trkpt lat="42.81444" lon="-0.11823">
        <ele>2345</ele>
        <time>2019-08-04T12:58:37.724Z</time>
      </trkpt>
      <trkpt lat="42.81444" lon="-0.11819">
        <ele>2345</ele>
        <time>2019-08-04T12:58:40.724Z</time>
      </trkpt>
      <trkpt lat="42.81444" lon="-0.11816">
        <ele>2345</ele>
        <time>2019-08-04T12:58:43.724Z</time>
      </trkpt>
      <trkpt lat="42.81443" lon="-0.11813">
        <ele>2345</ele>
        <time>2019-08-04T12:58:46.724Z</time>
      </trkpt>
      <trkpt lat="42.81443" lon="-0.11809">
        <ele>2346</ele>
        <time>2019-08-04T12:58:49.724Z</time>
      </trkpt>
      <trkpt lat="42.81443" lon="-0.11806">
        <ele>2346</ele>
        <time>2019-08-04T12:58:51.724Z</time>
      </trkpt>
      <trkpt lat="42.81443" lon="-0.11803">
        <ele>2346</ele>
        <time>2019-08-04T12:58:54.724Z</time>
      </trkpt>
      <trkpt lat="42.81443" lon="-0.118">
        <ele>2346</ele>
        <time>2019-08-04T12:58:57.724Z</time>
      </trkpt>
      <trkpt lat="42.81443" lon="-0.11796">
        <ele>2347</ele>
        <time>2019-08-04T12:59:00.724Z</time>
      </trkpt>
      <trkpt lat="42.81443" lon="-0.11794">
        <ele>2347</ele>
        <time>2019-08-04T12:59:02.724Z</time>
      </trkpt>
      <trkpt lat="42.81443" lon="-0.1179">
        <ele>2346.2237599169</ele>
        <time>2019-08-04T12:59:05.724Z</time>
      </trkpt>
      <trkpt lat="42.81445" lon="-0.11787">
        <ele>2346</ele>
        <time>2019-08-04T12:59:08.724Z</time>
      </trkpt>
      <trkpt lat="42.81445" lon="-0.11785">
        <ele>2346</ele>
        <time>2019-08-04T12:59:10.724Z</time>
      </trkpt>
      <trkpt lat="42.81444" lon="-0.11782">
        <ele>2346</ele>
        <time>2019-08-04T12:59:13.724Z</time>
      </trkpt>
      <trkpt lat="42.81444" lon="-0.11779">
        <ele>2346</ele>
        <time>2019-08-04T12:59:16.724Z</time>
      </trkpt>
      <trkpt lat="42.81443" lon="-0.11776">
        <ele>2346</ele>
        <time>2019-08-04T12:59:19.724Z</time>
      </trkpt>
      <trkpt lat="42.81442" lon="-0.11773">
        <ele>2345.2237599169</ele>
        <time>2019-08-04T12:59:23.724Z</time>
      </trkpt>
      <trkpt lat="42.81441" lon="-0.1177">
        <ele>2345</ele>
        <time>2019-08-04T12:59:26.724Z</time>
      </trkpt>
      <trkpt lat="42.8144" lon="-0.11768">
        <ele>2345</ele>
        <time>2019-08-04T12:59:29.724Z</time>
      </trkpt>
      <trkpt lat="42.8144" lon="-0.11765">
        <ele>2345</ele>
        <time>2019-08-04T12:59:32.724Z</time>
      </trkpt>
      <trkpt lat="42.81439" lon="-0.11762">
        <ele>2346</ele>
        <time>2019-08-04T12:59:35.724Z</time>
      </trkpt>
      <trkpt lat="42.8144" lon="-0.1176">
        <ele>2346</ele>
        <time>2019-08-04T12:59:39.724Z</time>
      </trkpt>
      <trkpt lat="42.81442" lon="-0.11759">
        <ele>2346</ele>
        <time>2019-08-04T12:59:42.724Z</time>
      </trkpt>
      <trkpt lat="42.81443" lon="-0.11757">
        <ele>2346</ele>
        <time>2019-08-04T12:59:46.724Z</time>
      </trkpt>
      <trkpt lat="42.81445" lon="-0.11754">
        <ele>2348</ele>
        <time>2019-08-04T12:59:50.724Z</time>
      </trkpt>
      <trkpt lat="42.81445" lon="-0.11752">
        <ele>2348</ele>
        <time>2019-08-04T12:59:54.724Z</time>
      </trkpt>
      <trkpt lat="42.81444" lon="-0.1175">
        <ele>2348</ele>
        <time>2019-08-04T12:59:59.724Z</time>
      </trkpt>
      <trkpt lat="42.81445" lon="-0.11747">
        <ele>2348</ele>
        <time>2019-08-04T13:00:03.724Z</time>
      </trkpt>
      <trkpt lat="42.81447" lon="-0.11745">
        <ele>2348.4552303397</ele>
        <time>2019-08-04T13:00:06.724Z</time>
      </trkpt>
      <trkpt lat="42.81448" lon="-0.11743">
        <ele>2348</ele>
        <time>2019-08-04T13:00:10.724Z</time>
      </trkpt>
      <trkpt lat="42.81448" lon="-0.11739">
        <ele>2349</ele>
        <time>2019-08-04T13:00:59.724Z</time>
      </trkpt>
      <trkpt lat="42.81448" lon="-0.11737">
        <ele>2348</ele>
        <time>2019-08-04T13:01:02.724Z</time>
      </trkpt>
      <trkpt lat="42.81449" lon="-0.11734">
        <ele>2350</ele>
        <time>2019-08-04T13:01:05.724Z</time>
      </trkpt>
      <trkpt lat="42.81451" lon="-0.11732">
        <ele>2350</ele>
        <time>2019-08-04T13:01:09.724Z</time>
      </trkpt>
      <trkpt lat="42.81452" lon="-0.11729">
        <ele>2351</ele>
        <time>2019-08-04T13:01:12.724Z</time>
      </trkpt>
      <trkpt lat="42.81453" lon="-0.11727">
        <ele>2351</ele>
        <time>2019-08-04T13:01:15.724Z</time>
      </trkpt>
      <trkpt lat="42.81454" lon="-0.11725">
        <ele>2351</ele>
        <time>2019-08-04T13:01:18.724Z</time>
      </trkpt>
      <trkpt lat="42.81455" lon="-0.11722">
        <ele>2351</ele>
        <time>2019-08-04T13:01:21.724Z</time>
      </trkpt>
      <trkpt lat="42.81456" lon="-0.11719">
        <ele>2350.3560064</ele>
        <time>2019-08-04T13:01:24.724Z</time>
      </trkpt>
      <trkpt lat="42.81458" lon="-0.11717">
        <ele>2351</ele>
        <time>2019-08-04T13:01:27.724Z</time>
      </trkpt>
      <trkpt lat="42.8146" lon="-0.11715">
        <ele>2350.8127672322</ele>
        <time>2019-08-04T13:01:31.724Z</time>
      </trkpt>
      <trkpt lat="42.81462" lon="-0.11713">
        <ele>2351</ele>
        <time>2019-08-04T13:01:34.724Z</time>
      </trkpt>
      <trkpt lat="42.81464" lon="-0.11711">
        <ele>2350</ele>
        <time>2019-08-04T13:01:38.724Z</time>
      </trkpt>
      <trkpt lat="42.81465" lon="-0.11709">
        <ele>2350</ele>
        <time>2019-08-04T13:01:41.724Z</time>
      </trkpt>
      <trkpt lat="42.81467" lon="-0.11707">
        <ele>2351</ele>
        <time>2019-08-04T13:01:44.724Z</time>
      </trkpt>
      <trkpt lat="42.81469" lon="-0.11705">
        <ele>2350.3519138462</ele>
        <time>2019-08-04T13:01:47.724Z</time>
      </trkpt>
      <trkpt lat="42.81471" lon="-0.11704">
        <ele>2351</ele>
        <time>2019-08-04T13:01:51.724Z</time>
      </trkpt>
      <trkpt lat="42.81472" lon="-0.11702">
        <ele>2351</ele>
        <time>2019-08-04T13:01:54.724Z</time>
      </trkpt>
      <trkpt lat="42.81473" lon="-0.117">
        <ele>2350</ele>
        <time>2019-08-04T13:01:59.724Z</time>
      </trkpt>
      <trkpt lat="42.81473" lon="-0.11696">
        <ele>2350</ele>
        <time>2019-08-04T13:02:02.724Z</time>
      </trkpt>
      <trkpt lat="42.81472" lon="-0.11694">
        <ele>2350</ele>
        <time>2019-08-04T13:02:05.724Z</time>
      </trkpt>
      <trkpt lat="42.81473" lon="-0.11691">
        <ele>2350.3916036528</ele>
        <time>2019-08-04T13:02:16.724Z</time>
      </trkpt>
      <trkpt lat="42.81472" lon="-0.11689">
        <ele>2350</ele>
        <time>2019-08-04T13:02:23.724Z</time>
      </trkpt>
      <trkpt lat="42.81472" lon="-0.11686">
        <ele>2350</ele>
        <time>2019-08-04T13:02:26.724Z</time>
      </trkpt>
      <trkpt lat="42.81474" lon="-0.11684">
        <ele>2349</ele>
        <time>2019-08-04T13:02:37.724Z</time>
      </trkpt>
      <trkpt lat="42.81476" lon="-0.11682">
        <ele>2349</ele>
        <time>2019-08-04T13:02:40.724Z</time>
      </trkpt>
      <trkpt lat="42.81477" lon="-0.1168">
        <ele>2348</ele>
        <time>2019-08-04T13:02:44.724Z</time>
      </trkpt>
      <trkpt lat="42.81479" lon="-0.11679">
        <ele>2348.2759936</ele>
        <time>2019-08-04T13:02:49.724Z</time>
      </trkpt>
      <trkpt lat="42.81481" lon="-0.11679">
        <ele>2347</ele>
        <time>2019-08-04T13:02:52.724Z</time>
      </trkpt>
      <trkpt lat="42.81483" lon="-0.1168">
        <ele>2346</ele>
        <time>2019-08-04T13:02:56.724Z</time>
      </trkpt>
      <trkpt lat="42.81485" lon="-0.11679">
        <ele>2344.2388373162</ele>
        <time>2019-08-04T13:03:00.724Z</time>
      </trkpt>
      <trkpt lat="42.81487" lon="-0.11678">
        <ele>2344</ele>
        <time>2019-08-04T13:03:04.724Z</time>
      </trkpt>
      <trkpt lat="42.81488" lon="-0.11675">
        <ele>2344</ele>
        <time>2019-08-04T13:03:09.724Z</time>
      </trkpt>
      <trkpt lat="42.81489" lon="-0.11673">
        <ele>2342.3942984622</ele>
        <time>2019-08-04T13:03:14.724Z</time>
      </trkpt>
      <trkpt lat="42.81491" lon="-0.11672">
        <ele>2341.2259968</ele>
        <time>2019-08-04T13:03:19.724Z</time>
      </trkpt>
      <trkpt lat="42.81492" lon="-0.11669">
        <ele>2340</ele>
        <time>2019-08-04T13:03:24.724Z</time>
      </trkpt>
      <trkpt lat="42.81493" lon="-0.11667">
        <ele>2339</ele>
        <time>2019-08-04T13:03:30.724Z</time>
      </trkpt>
      <trkpt lat="42.81495" lon="-0.11666">
        <ele>2338.2484904904</ele>
        <time>2019-08-04T13:03:36.724Z</time>
      </trkpt>
      <trkpt lat="42.81496" lon="-0.11664">
        <ele>2338</ele>
        <time>2019-08-04T13:03:39.724Z</time>
      </trkpt>
      <trkpt lat="42.81498" lon="-0.11663">
        <ele>2336</ele>
        <time>2019-08-04T13:03:42.724Z</time>
      </trkpt>
      <trkpt lat="42.81501" lon="-0.11662">
        <ele>2336</ele>
        <time>2019-08-04T13:03:45.724Z</time>
      </trkpt>
      <trkpt lat="42.81503" lon="-0.1166">
        <ele>2336</ele>
        <time>2019-08-04T13:03:48.724Z</time>
      </trkpt>
      <trkpt lat="42.81504" lon="-0.11657">
        <ele>2336</ele>
        <time>2019-08-04T13:03:51.724Z</time>
      </trkpt>
      <trkpt lat="42.81503" lon="-0.11654">
        <ele>2335</ele>
        <time>2019-08-04T13:03:54.724Z</time>
      </trkpt>
      <trkpt lat="42.81503" lon="-0.11651">
        <ele>2335</ele>
        <time>2019-08-04T13:03:57.724Z</time>
      </trkpt>
      <trkpt lat="42.81505" lon="-0.11649">
        <ele>2335</ele>
        <time>2019-08-04T13:04:00.724Z</time>
      </trkpt>
      <trkpt lat="42.81506" lon="-0.11646">
        <ele>2335</ele>
        <time>2019-08-04T13:04:04.724Z</time>
      </trkpt>
      <trkpt lat="42.81506" lon="-0.11644">
        <ele>2335</ele>
        <time>2019-08-04T13:04:07.724Z</time>
      </trkpt>
      <trkpt lat="42.81507" lon="-0.11641">
        <ele>2335</ele>
        <time>2019-08-04T13:04:10.724Z</time>
      </trkpt>
      <trkpt lat="42.81508" lon="-0.11639">
        <ele>2335</ele>
        <time>2019-08-04T13:04:15.724Z</time>
      </trkpt>
      <trkpt lat="42.81508" lon="-0.11636">
        <ele>2335</ele>
        <time>2019-08-04T13:04:18.724Z</time>
      </trkpt>
      <trkpt lat="42.81507" lon="-0.11633">
        <ele>2335</ele>
        <time>2019-08-04T13:04:22.724Z</time>
      </trkpt>
      <trkpt lat="42.81508" lon="-0.11631">
        <ele>2335</ele>
        <time>2019-08-04T13:04:25.724Z</time>
      </trkpt>
      <trkpt lat="42.81507" lon="-0.11629">
        <ele>2335</ele>
        <time>2019-08-04T13:04:37.724Z</time>
      </trkpt>
      <trkpt lat="42.81507" lon="-0.11626">
        <ele>2336</ele>
        <time>2019-08-04T13:04:39.724Z</time>
      </trkpt>
      <trkpt lat="42.81509" lon="-0.11624">
        <ele>2336</ele>
        <time>2019-08-04T13:04:42.724Z</time>
      </trkpt>
      <trkpt lat="42.81511" lon="-0.11623">
        <ele>2336</ele>
        <time>2019-08-04T13:04:45.724Z</time>
      </trkpt>
      <trkpt lat="42.81513" lon="-0.11623">
        <ele>2335.4353892204</ele>
        <time>2019-08-04T13:04:48.724Z</time>
      </trkpt>
      <trkpt lat="42.81514" lon="-0.11621">
        <ele>2335</ele>
        <time>2019-08-04T13:04:50.724Z</time>
      </trkpt>
      <trkpt lat="42.81516" lon="-0.11618">
        <ele>2335</ele>
        <time>2019-08-04T13:04:53.724Z</time>
      </trkpt>
      <trkpt lat="42.81518" lon="-0.11616">
        <ele>2335</ele>
        <time>2019-08-04T13:04:56.724Z</time>
      </trkpt>
      <trkpt lat="42.81519" lon="-0.11614">
        <ele>2335</ele>
        <time>2019-08-04T13:04:59.724Z</time>
      </trkpt>
      <trkpt lat="42.8152" lon="-0.11611">
        <ele>2335</ele>
        <time>2019-08-04T13:05:02.724Z</time>
      </trkpt>
      <trkpt lat="42.81521" lon="-0.11609">
        <ele>2335</ele>
        <time>2019-08-04T13:05:05.724Z</time>
      </trkpt>
      <trkpt lat="42.81522" lon="-0.11606">
        <ele>2335</ele>
        <time>2019-08-04T13:05:08.724Z</time>
      </trkpt>
      <trkpt lat="42.81524" lon="-0.11606">
        <ele>2335</ele>
        <time>2019-08-04T13:05:11.724Z</time>
      </trkpt>
      <trkpt lat="42.81525" lon="-0.11604">
        <ele>2335</ele>
        <time>2019-08-04T13:05:14.724Z</time>
      </trkpt>
      <trkpt lat="42.81528" lon="-0.11604">
        <ele>2335</ele>
        <time>2019-08-04T13:05:18.724Z</time>
      </trkpt>
      <trkpt lat="42.8153" lon="-0.11604">
        <ele>2335</ele>
        <time>2019-08-04T13:05:22.724Z</time>
      </trkpt>
      <trkpt lat="42.81533" lon="-0.11603">
        <ele>2335</ele>
        <time>2019-08-04T13:05:29.724Z</time>
      </trkpt>
      <trkpt lat="42.81535" lon="-0.11603">
        <ele>2335</ele>
        <time>2019-08-04T13:05:32.724Z</time>
      </trkpt>
      <trkpt lat="42.81537" lon="-0.11603">
        <ele>2335.3600058514</ele>
        <time>2019-08-04T13:05:35.724Z</time>
      </trkpt>
      <trkpt lat="42.81538" lon="-0.11601">
        <ele>2336</ele>
        <time>2019-08-04T13:05:38.724Z</time>
      </trkpt>
      <trkpt lat="42.81541" lon="-0.11599">
        <ele>2335.342567833</ele>
        <time>2019-08-04T13:05:41.724Z</time>
      </trkpt>
      <trkpt lat="42.81543" lon="-0.11597">
        <ele>2335</ele>
        <time>2019-08-04T13:05:45.724Z</time>
      </trkpt>
      <trkpt lat="42.81545" lon="-0.11597">
        <ele>2335</ele>
        <time>2019-08-04T13:05:47.724Z</time>
      </trkpt>
      <trkpt lat="42.81547" lon="-0.11596">
        <ele>2335</ele>
        <time>2019-08-04T13:05:50.724Z</time>
      </trkpt>
      <trkpt lat="42.81548" lon="-0.11595">
        <ele>2336</ele>
        <time>2019-08-04T13:05:54.724Z</time>
      </trkpt>
      <trkpt lat="42.8155" lon="-0.11593">
        <ele>2336</ele>
        <time>2019-08-04T13:05:57.724Z</time>
      </trkpt>
      <trkpt lat="42.81551" lon="-0.11591">
        <ele>2336</ele>
        <time>2019-08-04T13:06:00.724Z</time>
      </trkpt>
      <trkpt lat="42.81552" lon="-0.11589">
        <ele>2336</ele>
        <time>2019-08-04T13:06:03.724Z</time>
      </trkpt>
      <trkpt lat="42.81554" lon="-0.11588">
        <ele>2336</ele>
        <time>2019-08-04T13:06:06.724Z</time>
      </trkpt>
      <trkpt lat="42.81556" lon="-0.11586">
        <ele>2336</ele>
        <time>2019-08-04T13:06:09.724Z</time>
      </trkpt>
      <trkpt lat="42.81557" lon="-0.11584">
        <ele>2337</ele>
        <time>2019-08-04T13:06:15.724Z</time>
      </trkpt>
      <trkpt lat="42.81558" lon="-0.11581">
        <ele>2337</ele>
        <time>2019-08-04T13:06:19.724Z</time>
      </trkpt>
      <trkpt lat="42.81558" lon="-0.11578">
        <ele>2338</ele>
        <time>2019-08-04T13:06:23.724Z</time>
      </trkpt>
      <trkpt lat="42.81559" lon="-0.11577">
        <ele>2337</ele>
        <time>2019-08-04T13:06:26.724Z</time>
      </trkpt>
      <trkpt lat="42.81561" lon="-0.11574">
        <ele>2337</ele>
        <time>2019-08-04T13:06:30.724Z</time>
      </trkpt>
      <trkpt lat="42.81562" lon="-0.11572">
        <ele>2337</ele>
        <time>2019-08-04T13:06:37.724Z</time>
      </trkpt>
      <trkpt lat="42.81563" lon="-0.1157">
        <ele>2337.7339904</ele>
        <time>2019-08-04T13:06:40.724Z</time>
      </trkpt>
      <trkpt lat="42.81565" lon="-0.11569">
        <ele>2338</ele>
        <time>2019-08-04T13:06:43.724Z</time>
      </trkpt>
      <trkpt lat="42.81567" lon="-0.11569">
        <ele>2338</ele>
        <time>2019-08-04T13:06:46.724Z</time>
      </trkpt>
      <trkpt lat="42.81569" lon="-0.11566">
        <ele>2338</ele>
        <time>2019-08-04T13:06:50.724Z</time>
      </trkpt>
      <trkpt lat="42.81569" lon="-0.11564">
        <ele>2338</ele>
        <time>2019-08-04T13:06:53.724Z</time>
      </trkpt>
      <trkpt lat="42.81568" lon="-0.11561">
        <ele>2338</ele>
        <time>2019-08-04T13:06:56.724Z</time>
      </trkpt>
      <trkpt lat="42.81567" lon="-0.11559">
        <ele>2338</ele>
        <time>2019-08-04T13:06:59.724Z</time>
      </trkpt>
      <trkpt lat="42.81567" lon="-0.11556">
        <ele>2338</ele>
        <time>2019-08-04T13:07:02.724Z</time>
      </trkpt>
      <trkpt lat="42.81566" lon="-0.11553">
        <ele>2338</ele>
        <time>2019-08-04T13:07:06.724Z</time>
      </trkpt>
      <trkpt lat="42.81566" lon="-0.11551">
        <ele>2339</ele>
        <time>2019-08-04T13:07:10.724Z</time>
      </trkpt>
      <trkpt lat="42.81565" lon="-0.11548">
        <ele>2340</ele>
        <time>2019-08-04T13:07:35.724Z</time>
      </trkpt>
      <trkpt lat="42.81567" lon="-0.11545">
        <ele>2339</ele>
        <time>2019-08-04T13:07:38.724Z</time>
      </trkpt>
      <trkpt lat="42.81567" lon="-0.11543">
        <ele>2339</ele>
        <time>2019-08-04T13:07:41.724Z</time>
      </trkpt>
      <trkpt lat="42.81567" lon="-0.1154">
        <ele>2340</ele>
        <time>2019-08-04T13:07:44.724Z</time>
      </trkpt>
      <trkpt lat="42.81566" lon="-0.11537">
        <ele>2341</ele>
        <time>2019-08-04T13:07:47.724Z</time>
      </trkpt>
      <trkpt lat="42.81564" lon="-0.11535">
        <ele>2341</ele>
        <time>2019-08-04T13:07:50.724Z</time>
      </trkpt>
      <trkpt lat="42.81565" lon="-0.11531">
        <ele>2341</ele>
        <time>2019-08-04T13:07:54.724Z</time>
      </trkpt>
      <trkpt lat="42.81566" lon="-0.11527">
        <ele>2342</ele>
        <time>2019-08-04T13:07:58.724Z</time>
      </trkpt>
      <trkpt lat="42.81566" lon="-0.11525">
        <ele>2342</ele>
        <time>2019-08-04T13:08:02.724Z</time>
      </trkpt>
      <trkpt lat="42.81567" lon="-0.11523">
        <ele>2343</ele>
        <time>2019-08-04T13:08:06.724Z</time>
      </trkpt>
      <trkpt lat="42.81568" lon="-0.11521">
        <ele>2343</ele>
        <time>2019-08-04T13:08:10.724Z</time>
      </trkpt>
      <trkpt lat="42.8157" lon="-0.11519">
        <ele>2342.2560032768</ele>
        <time>2019-08-04T13:08:14.724Z</time>
      </trkpt>
      <trkpt lat="42.81569" lon="-0.11517">
        <ele>2344</ele>
        <time>2019-08-04T13:08:40.724Z</time>
      </trkpt>
      <trkpt lat="42.81569" lon="-0.11514">
        <ele>2344</ele>
        <time>2019-08-04T13:08:44.724Z</time>
      </trkpt>
      <trkpt lat="42.81571" lon="-0.11512">
        <ele>2345</ele>
        <time>2019-08-04T13:08:47.724Z</time>
      </trkpt>
      <trkpt lat="42.81572" lon="-0.1151">
        <ele>2346.44844</ele>
        <time>2019-08-04T13:08:55.724Z</time>
      </trkpt>
      <trkpt lat="42.81572" lon="-0.11507">
        <ele>2347</ele>
        <time>2019-08-04T13:09:00.724Z</time>
      </trkpt>
      <trkpt lat="42.81573" lon="-0.11504">
        <ele>2347.6808026479</ele>
        <time>2019-08-04T13:09:04.724Z</time>
      </trkpt>
      <trkpt lat="42.81574" lon="-0.11502">
        <ele>2349</ele>
        <time>2019-08-04T13:09:09.724Z</time>
      </trkpt>
      <trkpt lat="42.81574" lon="-0.11499">
        <ele>2349</ele>
        <time>2019-08-04T13:09:13.724Z</time>
      </trkpt>
      <trkpt lat="42.81574" lon="-0.11497">
        <ele>2350.159598676</ele>
        <time>2019-08-04T13:09:17.724Z</time>
      </trkpt>
      <trkpt lat="42.81574" lon="-0.11494">
        <ele>2351</ele>
        <time>2019-08-04T13:09:20.724Z</time>
      </trkpt>
      <trkpt lat="42.81574" lon="-0.11491">
        <ele>2351</ele>
        <time>2019-08-04T13:09:23.724Z</time>
      </trkpt>
      <trkpt lat="42.81576" lon="-0.1149">
        <ele>2352</ele>
        <time>2019-08-04T13:09:26.724Z</time>
      </trkpt>
      <trkpt lat="42.81577" lon="-0.11487">
        <ele>2352</ele>
        <time>2019-08-04T13:09:30.724Z</time>
      </trkpt>
      <trkpt lat="42.81579" lon="-0.11486">
        <ele>2352</ele>
        <time>2019-08-04T13:09:33.724Z</time>
      </trkpt>
      <trkpt lat="42.81581" lon="-0.11484">
        <ele>2352</ele>
        <time>2019-08-04T13:09:36.724Z</time>
      </trkpt>
      <trkpt lat="42.81582" lon="-0.11483">
        <ele>2353.7840100353</ele>
        <time>2019-08-04T13:09:39.724Z</time>
      </trkpt>
      <trkpt lat="42.81585" lon="-0.11482">
        <ele>2354</ele>
        <time>2019-08-04T13:09:43.724Z</time>
      </trkpt>
      <trkpt lat="42.81587" lon="-0.11482">
        <ele>2354</ele>
        <time>2019-08-04T13:09:46.724Z</time>
      </trkpt>
      <trkpt lat="42.81589" lon="-0.11481">
        <ele>2353</ele>
        <time>2019-08-04T13:09:49.724Z</time>
      </trkpt>
      <trkpt lat="42.81592" lon="-0.11481">
        <ele>2352</ele>
        <time>2019-08-04T13:09:52.724Z</time>
      </trkpt>
      <trkpt lat="42.81594" lon="-0.1148">
        <ele>2352</ele>
        <time>2019-08-04T13:09:55.724Z</time>
      </trkpt>
      <trkpt lat="42.81596" lon="-0.1148">
        <ele>2350.4679808</ele>
        <time>2019-08-04T13:09:58.724Z</time>
      </trkpt>
      <trkpt lat="42.81598" lon="-0.11481">
        <ele>2348</ele>
        <time>2019-08-04T13:10:01.724Z</time>
      </trkpt>
      <trkpt lat="42.816" lon="-0.1148">
        <ele>2348</ele>
        <time>2019-08-04T13:10:04.724Z</time>
      </trkpt>
      <trkpt lat="42.81602" lon="-0.1148">
        <ele>2348</ele>
        <time>2019-08-04T13:10:07.724Z</time>
      </trkpt>
      <trkpt lat="42.81604" lon="-0.11478">
        <ele>2350</ele>
        <time>2019-08-04T13:10:11.724Z</time>
      </trkpt>
      <trkpt lat="42.81605" lon="-0.11476">
        <ele>2350</ele>
        <time>2019-08-04T13:10:14.724Z</time>
      </trkpt>
      <trkpt lat="42.81605" lon="-0.11473">
        <ele>2350</ele>
        <time>2019-08-04T13:10:17.724Z</time>
      </trkpt>
      <trkpt lat="42.81607" lon="-0.11471">
        <ele>2351</ele>
        <time>2019-08-04T13:10:21.724Z</time>
      </trkpt>
      <trkpt lat="42.81608" lon="-0.11469">
        <ele>2351</ele>
        <time>2019-08-04T13:10:24.724Z</time>
      </trkpt>
      <trkpt lat="42.8161" lon="-0.11469">
        <ele>2351</ele>
        <time>2019-08-04T13:10:28.724Z</time>
      </trkpt>
      <trkpt lat="42.81613" lon="-0.11468">
        <ele>2351</ele>
        <time>2019-08-04T13:10:31.724Z</time>
      </trkpt>
      <trkpt lat="42.81615" lon="-0.11467">
        <ele>2351</ele>
        <time>2019-08-04T13:10:34.724Z</time>
      </trkpt>
      <trkpt lat="42.81617" lon="-0.11466">
        <ele>2350</ele>
        <time>2019-08-04T13:10:38.724Z</time>
      </trkpt>
      <trkpt lat="42.81619" lon="-0.11464">
        <ele>2350</ele>
        <time>2019-08-04T13:10:41.724Z</time>
      </trkpt>
      <trkpt lat="42.8162" lon="-0.11462">
        <ele>2350</ele>
        <time>2019-08-04T13:10:44.724Z</time>
      </trkpt>
      <trkpt lat="42.8162" lon="-0.11459">
        <ele>2350.7940096</ele>
        <time>2019-08-04T13:10:53.724Z</time>
      </trkpt>
      <trkpt lat="42.81622" lon="-0.11457">
        <ele>2351</ele>
        <time>2019-08-04T13:10:56.724Z</time>
      </trkpt>
      <trkpt lat="42.81623" lon="-0.11454">
        <ele>2350</ele>
        <time>2019-08-04T13:11:00.724Z</time>
      </trkpt>
      <trkpt lat="42.81625" lon="-0.11452">
        <ele>2348</ele>
        <time>2019-08-04T13:11:03.724Z</time>
      </trkpt>
      <trkpt lat="42.81626" lon="-0.11451">
        <ele>2348</ele>
        <time>2019-08-04T13:11:05.724Z</time>
      </trkpt>
      <trkpt lat="42.81628" lon="-0.1145">
        <ele>2348</ele>
        <time>2019-08-04T13:11:07.724Z</time>
      </trkpt>
      <trkpt lat="42.81629" lon="-0.11447">
        <ele>2348</ele>
        <time>2019-08-04T13:11:12.724Z</time>
      </trkpt>
      <trkpt lat="42.81629" lon="-0.11444">
        <ele>2348</ele>
        <time>2019-08-04T13:11:15.724Z</time>
      </trkpt>
      <trkpt lat="42.81629" lon="-0.11442">
        <ele>2348</ele>
        <time>2019-08-04T13:11:18.724Z</time>
      </trkpt>
      <trkpt lat="42.81629" lon="-0.11438">
        <ele>2350</ele>
        <time>2019-08-04T13:11:21.724Z</time>
      </trkpt>
      <trkpt lat="42.81629" lon="-0.11435">
        <ele>2350</ele>
        <time>2019-08-04T13:11:24.724Z</time>
      </trkpt>
      <trkpt lat="42.81629" lon="-0.11432">
        <ele>2348</ele>
        <time>2019-08-04T13:11:27.724Z</time>
      </trkpt>
      <trkpt lat="42.81629" lon="-0.1143">
        <ele>2350</ele>
        <time>2019-08-04T13:11:30.724Z</time>
      </trkpt>
      <trkpt lat="42.81629" lon="-0.11427">
        <ele>2350.7797816801</ele>
        <time>2019-08-04T13:11:35.724Z</time>
      </trkpt>
      <trkpt lat="42.81629" lon="-0.11424">
        <ele>2351</ele>
        <time>2019-08-04T13:11:41.724Z</time>
      </trkpt>
      <trkpt lat="42.81629" lon="-0.11421">
        <ele>2351</ele>
        <time>2019-08-04T13:11:47.724Z</time>
      </trkpt>
      <trkpt lat="42.81629" lon="-0.11418">
        <ele>2351</ele>
        <time>2019-08-04T13:11:51.724Z</time>
      </trkpt>
      <trkpt lat="42.8163" lon="-0.11416">
        <ele>2351</ele>
        <time>2019-08-04T13:11:54.724Z</time>
      </trkpt>
      <trkpt lat="42.81631" lon="-0.11413">
        <ele>2348.4000220216</ele>
        <time>2019-08-04T13:11:58.724Z</time>
      </trkpt>
      <trkpt lat="42.81631" lon="-0.11411">
        <ele>2348</ele>
        <time>2019-08-04T13:12:01.724Z</time>
      </trkpt>
      <trkpt lat="42.81632" lon="-0.11408">
        <ele>2348</ele>
        <time>2019-08-04T13:12:06.724Z</time>
      </trkpt>
      <trkpt lat="42.8163" lon="-0.11407">
        <ele>2347</ele>
        <time>2019-08-04T13:12:10.724Z</time>
      </trkpt>
      <trkpt lat="42.8163" lon="-0.11404">
        <ele>2347</ele>
        <time>2019-08-04T13:12:14.724Z</time>
      </trkpt>
      <trkpt lat="42.8163" lon="-0.11401">
        <ele>2347</ele>
        <time>2019-08-04T13:12:17.724Z</time>
      </trkpt>
      <trkpt lat="42.8163" lon="-0.11398">
        <ele>2346.2379040407</ele>
        <time>2019-08-04T13:12:20.724Z</time>
      </trkpt>
      <trkpt lat="42.8163" lon="-0.11393">
        <ele>2345</ele>
        <time>2019-08-04T13:12:24.724Z</time>
      </trkpt>
      <trkpt lat="42.8163" lon="-0.1139">
        <ele>2345</ele>
        <time>2019-08-04T13:12:27.724Z</time>
      </trkpt>
      <trkpt lat="42.81631" lon="-0.11387">
        <ele>2344</ele>
        <time>2019-08-04T13:12:30.724Z</time>
      </trkpt>
      <trkpt lat="42.81631" lon="-0.11384">
        <ele>2344</ele>
        <time>2019-08-04T13:12:34.724Z</time>
      </trkpt>
      <trkpt lat="42.81629" lon="-0.11383">
        <ele>2345</ele>
        <time>2019-08-04T13:12:37.724Z</time>
      </trkpt>
      <trkpt lat="42.81628" lon="-0.11381">
        <ele>2345</ele>
        <time>2019-08-04T13:12:39.724Z</time>
      </trkpt>
      <trkpt lat="42.81626" lon="-0.11378">
        <ele>2345</ele>
        <time>2019-08-04T13:12:42.724Z</time>
      </trkpt>
      <trkpt lat="42.81625" lon="-0.11376">
        <ele>2345</ele>
        <time>2019-08-04T13:12:45.724Z</time>
      </trkpt>
      <trkpt lat="42.81623" lon="-0.11374">
        <ele>2345</ele>
        <time>2019-08-04T13:12:48.724Z</time>
      </trkpt>
      <trkpt lat="42.81621" lon="-0.11373">
        <ele>2345</ele>
        <time>2019-08-04T13:12:52.724Z</time>
      </trkpt>
      <trkpt lat="42.81622" lon="-0.1137">
        <ele>2346</ele>
        <time>2019-08-04T13:13:32.724Z</time>
      </trkpt>
      <trkpt lat="42.81623" lon="-0.11368">
        <ele>2347</ele>
        <time>2019-08-04T13:53:00.724Z</time>
      </trkpt>
      <trkpt lat="42.81624" lon="-0.11365">
        <ele>2347</ele>
        <time>2019-08-04T13:53:36.724Z</time>
      </trkpt>
      <trkpt lat="42.81624" lon="-0.11361">
        <ele>2346.1921493826</ele>
        <time>2019-08-04T13:53:39.724Z</time>
      </trkpt>
      <trkpt lat="42.81624" lon="-0.11358">
        <ele>2346</ele>
        <time>2019-08-04T13:53:42.724Z</time>
      </trkpt>
      <trkpt lat="42.81624" lon="-0.11355">
        <ele>2346</ele>
        <time>2019-08-04T13:53:45.724Z</time>
      </trkpt>
      <trkpt lat="42.81622" lon="-0.11354">
        <ele>2346</ele>
        <time>2019-08-04T13:53:50.724Z</time>
      </trkpt>
      <trkpt lat="42.81621" lon="-0.11353">
        <ele>2346</ele>
        <time>2019-08-04T13:53:54.724Z</time>
      </trkpt>
      <trkpt lat="42.81621" lon="-0.1135">
        <ele>2345</ele>
        <time>2019-08-04T13:53:57.724Z</time>
      </trkpt>
      <trkpt lat="42.81622" lon="-0.11347">
        <ele>2344</ele>
        <time>2019-08-04T13:53:59.724Z</time>
      </trkpt>
      <trkpt lat="42.81623" lon="-0.11346">
        <ele>2344</ele>
        <time>2019-08-04T13:54:01.724Z</time>
      </trkpt>
      <trkpt lat="42.81624" lon="-0.11343">
        <ele>2344</ele>
        <time>2019-08-04T13:54:04.724Z</time>
      </trkpt>
      <trkpt lat="42.81624" lon="-0.11339">
        <ele>2344</ele>
        <time>2019-08-04T13:54:07.724Z</time>
      </trkpt>
      <trkpt lat="42.81624" lon="-0.11336">
        <ele>2344.6939904</ele>
        <time>2019-08-04T13:54:10.724Z</time>
      </trkpt>
      <trkpt lat="42.81623" lon="-0.11333">
        <ele>2344.3098082522</ele>
        <time>2019-08-04T13:54:14.724Z</time>
      </trkpt>
      <trkpt lat="42.81622" lon="-0.11331">
        <ele>2344</ele>
        <time>2019-08-04T13:54:20.724Z</time>
      </trkpt>
      <trkpt lat="42.81621" lon="-0.11329">
        <ele>2343</ele>
        <time>2019-08-04T13:54:24.724Z</time>
      </trkpt>
      <trkpt lat="42.81622" lon="-0.11326">
        <ele>2342</ele>
        <time>2019-08-04T13:54:28.724Z</time>
      </trkpt>
      <trkpt lat="42.8162" lon="-0.11325">
        <ele>2341</ele>
        <time>2019-08-04T13:54:39.724Z</time>
      </trkpt>
      <trkpt lat="42.81618" lon="-0.11325">
        <ele>2341</ele>
        <time>2019-08-04T13:54:41.724Z</time>
      </trkpt>
      <trkpt lat="42.81616" lon="-0.11325">
        <ele>2341</ele>
        <time>2019-08-04T13:54:43.724Z</time>
      </trkpt>
      <trkpt lat="42.81614" lon="-0.11325">
        <ele>2340.2359936</ele>
        <time>2019-08-04T13:54:47.724Z</time>
      </trkpt>
      <trkpt lat="42.81613" lon="-0.11324">
        <ele>2340</ele>
        <time>2019-08-04T13:54:50.724Z</time>
      </trkpt>
      <trkpt lat="42.81611" lon="-0.11324">
        <ele>2340</ele>
        <time>2019-08-04T13:54:52.724Z</time>
      </trkpt>
      <trkpt lat="42.81608" lon="-0.11325">
        <ele>2339</ele>
        <time>2019-08-04T13:54:54.724Z</time>
      </trkpt>
      <trkpt lat="42.81606" lon="-0.11325">
        <ele>2338.7940096</ele>
        <time>2019-08-04T13:54:57.724Z</time>
      </trkpt>
      <trkpt lat="42.81604" lon="-0.11327">
        <ele>2339</ele>
        <time>2019-08-04T13:55:00.724Z</time>
      </trkpt>
      <trkpt lat="42.81603" lon="-0.11329">
        <ele>2338</ele>
        <time>2019-08-04T13:55:03.724Z</time>
      </trkpt>
      <trkpt lat="42.81601" lon="-0.11332">
        <ele>2338</ele>
        <time>2019-08-04T13:55:06.724Z</time>
      </trkpt>
      <trkpt lat="42.81599" lon="-0.11332">
        <ele>2338</ele>
        <time>2019-08-04T13:55:09.724Z</time>
      </trkpt>
      <trkpt lat="42.81597" lon="-0.11331">
        <ele>2337</ele>
        <time>2019-08-04T13:55:12.724Z</time>
      </trkpt>
      <trkpt lat="42.81595" lon="-0.1133">
        <ele>2337</ele>
        <time>2019-08-04T13:55:14.724Z</time>
      </trkpt>
      <trkpt lat="42.81593" lon="-0.11329">
        <ele>2337</ele>
        <time>2019-08-04T13:55:16.724Z</time>
      </trkpt>
      <trkpt lat="42.81592" lon="-0.11327">
        <ele>2337</ele>
        <time>2019-08-04T13:55:20.724Z</time>
      </trkpt>
      <trkpt lat="42.81591" lon="-0.11325">
        <ele>2337</ele>
        <time>2019-08-04T13:55:27.724Z</time>
      </trkpt>
      <trkpt lat="42.81591" lon="-0.11322">
        <ele>2337</ele>
        <time>2019-08-04T13:55:30.724Z</time>
      </trkpt>
      <trkpt lat="42.81591" lon="-0.11319">
        <ele>2336</ele>
        <time>2019-08-04T13:55:33.724Z</time>
      </trkpt>
      <trkpt lat="42.8159" lon="-0.11316">
        <ele>2335.1959936</ele>
        <time>2019-08-04T13:55:35.724Z</time>
      </trkpt>
      <trkpt lat="42.8159" lon="-0.11312">
        <ele>2335</ele>
        <time>2019-08-04T13:55:37.724Z</time>
      </trkpt>
      <trkpt lat="42.81589" lon="-0.1131">
        <ele>2335</ele>
        <time>2019-08-04T13:55:39.724Z</time>
      </trkpt>
      <trkpt lat="42.81587" lon="-0.11308">
        <ele>2335</ele>
        <time>2019-08-04T13:55:41.724Z</time>
      </trkpt>
      <trkpt lat="42.81586" lon="-0.11306">
        <ele>2335</ele>
        <time>2019-08-04T13:55:43.724Z</time>
      </trkpt>
      <trkpt lat="42.81585" lon="-0.11304">
        <ele>2335</ele>
        <time>2019-08-04T13:55:45.724Z</time>
      </trkpt>
      <trkpt lat="42.81584" lon="-0.11301">
        <ele>2334</ele>
        <time>2019-08-04T13:55:48.724Z</time>
      </trkpt>
      <trkpt lat="42.81584" lon="-0.11298">
        <ele>2335</ele>
        <time>2019-08-04T13:55:51.724Z</time>
      </trkpt>
      <trkpt lat="42.81584" lon="-0.11294">
        <ele>2335</ele>
        <time>2019-08-04T13:55:54.724Z</time>
      </trkpt>
      <trkpt lat="42.81583" lon="-0.11291">
        <ele>2336</ele>
        <time>2019-08-04T13:55:57.724Z</time>
      </trkpt>
      <trkpt lat="42.81584" lon="-0.11288">
        <ele>2336</ele>
        <time>2019-08-04T13:56:00.724Z</time>
      </trkpt>
      <trkpt lat="42.81584" lon="-0.11285">
        <ele>2336</ele>
        <time>2019-08-04T13:56:04.724Z</time>
      </trkpt>
      <trkpt lat="42.81584" lon="-0.11282">
        <ele>2336</ele>
        <time>2019-08-04T13:56:11.724Z</time>
      </trkpt>
      <trkpt lat="42.81583" lon="-0.1128">
        <ele>2335.6939904</ele>
        <time>2019-08-04T13:56:14.724Z</time>
      </trkpt>
      <trkpt lat="42.81582" lon="-0.11277">
        <ele>2335.3060096</ele>
        <time>2019-08-04T13:56:18.724Z</time>
      </trkpt>
      <trkpt lat="42.81581" lon="-0.11275">
        <ele>2335</ele>
        <time>2019-08-04T13:56:21.724Z</time>
      </trkpt>
      <trkpt lat="42.8158" lon="-0.11273">
        <ele>2331.5920180222</ele>
        <time>2019-08-04T13:56:24.724Z</time>
      </trkpt>
      <trkpt lat="42.81578" lon="-0.11271">
        <ele>2331</ele>
        <time>2019-08-04T13:56:27.724Z</time>
      </trkpt>
      <trkpt lat="42.81577" lon="-0.1127">
        <ele>2330</ele>
        <time>2019-08-04T13:56:30.724Z</time>
      </trkpt>
      <trkpt lat="42.81575" lon="-0.11268">
        <ele>2329</ele>
        <time>2019-08-04T13:56:35.724Z</time>
      </trkpt>
      <trkpt lat="42.81574" lon="-0.11266">
        <ele>2328.5448219041</ele>
        <time>2019-08-04T13:56:38.724Z</time>
      </trkpt>
      <trkpt lat="42.81572" lon="-0.11264">
        <ele>2328</ele>
        <time>2019-08-04T13:56:41.724Z</time>
      </trkpt>
      <trkpt lat="42.81571" lon="-0.11262">
        <ele>2327</ele>
        <time>2019-08-04T13:56:45.724Z</time>
      </trkpt>
      <trkpt lat="42.8157" lon="-0.11259">
        <ele>2327</ele>
        <time>2019-08-04T13:56:48.724Z</time>
      </trkpt>
      <trkpt lat="42.81568" lon="-0.11258">
        <ele>2325.2612227838</ele>
        <time>2019-08-04T13:56:51.724Z</time>
      </trkpt>
      <trkpt lat="42.81566" lon="-0.11257">
        <ele>2326</ele>
        <time>2019-08-04T13:56:54.724Z</time>
      </trkpt>
      <trkpt lat="42.81564" lon="-0.11257">
        <ele>2325.2459904</ele>
        <time>2019-08-04T13:56:57.724Z</time>
      </trkpt>
      <trkpt lat="42.81562" lon="-0.11256">
        <ele>2325</ele>
        <time>2019-08-04T13:57:02.724Z</time>
      </trkpt>
      <trkpt lat="42.81561" lon="-0.11254">
        <ele>2324.2874933333</ele>
        <time>2019-08-04T13:57:05.724Z</time>
      </trkpt>
      <trkpt lat="42.81561" lon="-0.11251">
        <ele>2323</ele>
        <time>2019-08-04T13:57:08.724Z</time>
      </trkpt>
      <trkpt lat="42.81561" lon="-0.11248">
        <ele>2323</ele>
        <time>2019-08-04T13:57:12.724Z</time>
      </trkpt>
      <trkpt lat="42.8156" lon="-0.11247">
        <ele>2322</ele>
        <time>2019-08-04T13:57:19.724Z</time>
      </trkpt>
      <trkpt lat="42.81557" lon="-0.11246">
        <ele>2322</ele>
        <time>2019-08-04T13:57:26.724Z</time>
      </trkpt>
      <trkpt lat="42.81556" lon="-0.11244">
        <ele>2321</ele>
        <time>2019-08-04T13:57:29.724Z</time>
      </trkpt>
      <trkpt lat="42.81554" lon="-0.11244">
        <ele>2319.2435556231</ele>
        <time>2019-08-04T13:57:35.724Z</time>
      </trkpt>
      <trkpt lat="42.81552" lon="-0.11245">
        <ele>2319</ele>
        <time>2019-08-04T13:57:38.724Z</time>
      </trkpt>
      <trkpt lat="42.81551" lon="-0.11243">
        <ele>2318.4122998759</ele>
        <time>2019-08-04T13:57:41.724Z</time>
      </trkpt>
      <trkpt lat="42.81549" lon="-0.11242">
        <ele>2317</ele>
        <time>2019-08-04T13:57:45.724Z</time>
      </trkpt>
      <trkpt lat="42.81547" lon="-0.11244">
        <ele>2317</ele>
        <time>2019-08-04T13:57:48.724Z</time>
      </trkpt>
      <trkpt lat="42.81545" lon="-0.11246">
        <ele>2317</ele>
        <time>2019-08-04T13:57:50.724Z</time>
      </trkpt>
      <trkpt lat="42.81544" lon="-0.11247">
        <ele>2316</ele>
        <time>2019-08-04T13:57:52.724Z</time>
      </trkpt>
      <trkpt lat="42.81541" lon="-0.11248">
        <ele>2316</ele>
        <time>2019-08-04T13:57:55.724Z</time>
      </trkpt>
      <trkpt lat="42.8154" lon="-0.11246">
        <ele>2317</ele>
        <time>2019-08-04T13:57:59.724Z</time>
      </trkpt>
      <trkpt lat="42.8154" lon="-0.11243">
        <ele>2316</ele>
        <time>2019-08-04T13:58:03.724Z</time>
      </trkpt>
      <trkpt lat="42.8154" lon="-0.11241">
        <ele>2314</ele>
        <time>2019-08-04T13:58:11.724Z</time>
      </trkpt>
      <trkpt lat="42.81539" lon="-0.11238">
        <ele>2314</ele>
        <time>2019-08-04T13:58:15.724Z</time>
      </trkpt>
      <trkpt lat="42.81539" lon="-0.11235">
        <ele>2314</ele>
        <time>2019-08-04T13:58:18.724Z</time>
      </trkpt>
      <trkpt lat="42.81538" lon="-0.11232">
        <ele>2312</ele>
        <time>2019-08-04T13:58:21.724Z</time>
      </trkpt>
      <trkpt lat="42.81537" lon="-0.1123">
        <ele>2311.7616233968</ele>
        <time>2019-08-04T13:58:25.724Z</time>
      </trkpt>
      <trkpt lat="42.81535" lon="-0.11229">
        <ele>2312</ele>
        <time>2019-08-04T13:58:28.724Z</time>
      </trkpt>
      <trkpt lat="42.81536" lon="-0.11226">
        <ele>2313</ele>
        <time>2019-08-04T13:58:32.724Z</time>
      </trkpt>
      <trkpt lat="42.81537" lon="-0.11225">
        <ele>2310</ele>
        <time>2019-08-04T13:58:36.724Z</time>
      </trkpt>
      <trkpt lat="42.81538" lon="-0.11222">
        <ele>2311</ele>
        <time>2019-08-04T13:58:40.724Z</time>
      </trkpt>
      <trkpt lat="42.81537" lon="-0.1122">
        <ele>2309</ele>
        <time>2019-08-04T13:58:45.724Z</time>
      </trkpt>
      <trkpt lat="42.81536" lon="-0.11218">
        <ele>2307</ele>
        <time>2019-08-04T13:58:53.724Z</time>
      </trkpt>
      <trkpt lat="42.81534" lon="-0.11217">
        <ele>2307</ele>
        <time>2019-08-04T13:58:56.724Z</time>
      </trkpt>
      <trkpt lat="42.81531" lon="-0.11216">
        <ele>2307</ele>
        <time>2019-08-04T13:58:59.724Z</time>
      </trkpt>
      <trkpt lat="42.8153" lon="-0.11215">
        <ele>2304</ele>
        <time>2019-08-04T13:59:02.724Z</time>
      </trkpt>
      <trkpt lat="42.81528" lon="-0.11213">
        <ele>2303.2138493904</ele>
        <time>2019-08-04T13:59:07.724Z</time>
      </trkpt>
      <trkpt lat="42.81525" lon="-0.11212">
        <ele>2303</ele>
        <time>2019-08-04T13:59:10.724Z</time>
      </trkpt>
      <trkpt lat="42.81523" lon="-0.11211">
        <ele>2303</ele>
        <time>2019-08-04T13:59:14.724Z</time>
      </trkpt>
      <trkpt lat="42.81522" lon="-0.1121">
        <ele>2302.4804043177</ele>
        <time>2019-08-04T13:59:17.724Z</time>
      </trkpt>
      <trkpt lat="42.81522" lon="-0.11207">
        <ele>2302</ele>
        <time>2019-08-04T13:59:22.724Z</time>
      </trkpt>
      <trkpt lat="42.81524" lon="-0.11206">
        <ele>2301</ele>
        <time>2019-08-04T13:59:25.724Z</time>
      </trkpt>
      <trkpt lat="42.81525" lon="-0.11204">
        <ele>2300.3227764682</ele>
        <time>2019-08-04T13:59:28.724Z</time>
      </trkpt>
      <trkpt lat="42.81524" lon="-0.11203">
        <ele>2298</ele>
        <time>2019-08-04T13:59:33.724Z</time>
      </trkpt>
      <trkpt lat="42.81522" lon="-0.11202">
        <ele>2298</ele>
        <time>2019-08-04T13:59:35.724Z</time>
      </trkpt>
      <trkpt lat="42.8152" lon="-0.11203">
        <ele>2298</ele>
        <time>2019-08-04T13:59:37.724Z</time>
      </trkpt>
      <trkpt lat="42.81518" lon="-0.11203">
        <ele>2297</ele>
        <time>2019-08-04T13:59:40.724Z</time>
      </trkpt>
      <trkpt lat="42.81515" lon="-0.11202">
        <ele>2295</ele>
        <time>2019-08-04T13:59:51.724Z</time>
      </trkpt>
      <trkpt lat="42.81515" lon="-0.11199">
        <ele>2294</ele>
        <time>2019-08-04T13:59:55.724Z</time>
      </trkpt>
      <trkpt lat="42.81513" lon="-0.11199">
        <ele>2294</ele>
        <time>2019-08-04T13:59:58.724Z</time>
      </trkpt>
      <trkpt lat="42.81511" lon="-0.11198">
        <ele>2293</ele>
        <time>2019-08-04T14:00:01.724Z</time>
      </trkpt>
      <trkpt lat="42.8151" lon="-0.11196">
        <ele>2291</ele>
        <time>2019-08-04T14:00:06.724Z</time>
      </trkpt>
      <trkpt lat="42.81508" lon="-0.11196">
        <ele>2291</ele>
        <time>2019-08-04T14:00:14.724Z</time>
      </trkpt>
      <trkpt lat="42.81507" lon="-0.11194">
        <ele>2290.2484904904</ele>
        <time>2019-08-04T14:00:18.724Z</time>
      </trkpt>
      <trkpt lat="42.81505" lon="-0.11192">
        <ele>2289.2360064</ele>
        <time>2019-08-04T14:00:22.724Z</time>
      </trkpt>
      <trkpt lat="42.81507" lon="-0.1119">
        <ele>2289</ele>
        <time>2019-08-04T14:00:26.724Z</time>
      </trkpt>
      <trkpt lat="42.81508" lon="-0.11188">
        <ele>2288</ele>
        <time>2019-08-04T14:00:29.724Z</time>
      </trkpt>
      <trkpt lat="42.8151" lon="-0.11187">
        <ele>2286.4077554301</ele>
        <time>2019-08-04T14:00:32.724Z</time>
      </trkpt>
      <trkpt lat="42.81511" lon="-0.11184">
        <ele>2286</ele>
        <time>2019-08-04T14:00:36.724Z</time>
      </trkpt>
      <trkpt lat="42.81512" lon="-0.11181">
        <ele>2285</ele>
        <time>2019-08-04T14:00:41.724Z</time>
      </trkpt>
      <trkpt lat="42.81512" lon="-0.11179">
        <ele>2283</ele>
        <time>2019-08-04T14:00:50.724Z</time>
      </trkpt>
      <trkpt lat="42.81514" lon="-0.11177">
        <ele>2283</ele>
        <time>2019-08-04T14:00:53.724Z</time>
      </trkpt>
      <trkpt lat="42.81513" lon="-0.11175">
        <ele>2282</ele>
        <time>2019-08-04T14:00:58.724Z</time>
      </trkpt>
      <trkpt lat="42.81514" lon="-0.11173">
        <ele>2282</ele>
        <time>2019-08-04T14:01:01.724Z</time>
      </trkpt>
      <trkpt lat="42.81516" lon="-0.11172">
        <ele>2281</ele>
        <time>2019-08-04T14:01:04.724Z</time>
      </trkpt>
      <trkpt lat="42.81516" lon="-0.11169">
        <ele>2281</ele>
        <time>2019-08-04T14:01:08.724Z</time>
      </trkpt>
      <trkpt lat="42.81517" lon="-0.11166">
        <ele>2281</ele>
        <time>2019-08-04T14:01:11.724Z</time>
      </trkpt>
      <trkpt lat="42.81518" lon="-0.11164">
        <ele>2278</ele>
        <time>2019-08-04T14:01:14.724Z</time>
      </trkpt>
      <trkpt lat="42.8152" lon="-0.11164">
        <ele>2277</ele>
        <time>2019-08-04T14:01:17.724Z</time>
      </trkpt>
      <trkpt lat="42.81521" lon="-0.11161">
        <ele>2277</ele>
        <time>2019-08-04T14:01:24.724Z</time>
      </trkpt>
      <trkpt lat="42.81521" lon="-0.11158">
        <ele>2277</ele>
        <time>2019-08-04T14:01:27.724Z</time>
      </trkpt>
      <trkpt lat="42.81521" lon="-0.11155">
        <ele>2277</ele>
        <time>2019-08-04T14:01:30.724Z</time>
      </trkpt>
      <trkpt lat="42.81522" lon="-0.11153">
        <ele>2277</ele>
        <time>2019-08-04T14:01:33.724Z</time>
      </trkpt>
      <trkpt lat="42.81522" lon="-0.1115">
        <ele>2276</ele>
        <time>2019-08-04T14:01:36.724Z</time>
      </trkpt>
      <trkpt lat="42.81522" lon="-0.11147">
        <ele>2275</ele>
        <time>2019-08-04T14:01:39.724Z</time>
      </trkpt>
      <trkpt lat="42.81523" lon="-0.11145">
        <ele>2275</ele>
        <time>2019-08-04T14:01:42.724Z</time>
      </trkpt>
      <trkpt lat="42.81524" lon="-0.11143">
        <ele>2275</ele>
        <time>2019-08-04T14:01:45.724Z</time>
      </trkpt>
      <trkpt lat="42.81525" lon="-0.1114">
        <ele>2275</ele>
        <time>2019-08-04T14:01:48.724Z</time>
      </trkpt>
      <trkpt lat="42.81526" lon="-0.11138">
        <ele>2275</ele>
        <time>2019-08-04T14:01:52.724Z</time>
      </trkpt>
      <trkpt lat="42.81527" lon="-0.11135">
        <ele>2274</ele>
        <time>2019-08-04T14:01:55.724Z</time>
      </trkpt>
      <trkpt lat="42.81528" lon="-0.11133">
        <ele>2274</ele>
        <time>2019-08-04T14:01:58.724Z</time>
      </trkpt>
      <trkpt lat="42.8153" lon="-0.11131">
        <ele>2273</ele>
        <time>2019-08-04T14:02:01.724Z</time>
      </trkpt>
      <trkpt lat="42.81532" lon="-0.11129">
        <ele>2272.2660096</ele>
        <time>2019-08-04T14:02:04.724Z</time>
      </trkpt>
      <trkpt lat="42.81533" lon="-0.11127">
        <ele>2272</ele>
        <time>2019-08-04T14:02:07.724Z</time>
      </trkpt>
      <trkpt lat="42.81534" lon="-0.11125">
        <ele>2272</ele>
        <time>2019-08-04T14:02:10.724Z</time>
      </trkpt>
      <trkpt lat="42.81535" lon="-0.11123">
        <ele>2271.4059904</ele>
        <time>2019-08-04T14:02:13.724Z</time>
      </trkpt>
      <trkpt lat="42.81537" lon="-0.1112">
        <ele>2271</ele>
        <time>2019-08-04T14:02:17.724Z</time>
      </trkpt>
      <trkpt lat="42.81538" lon="-0.11118">
        <ele>2271</ele>
        <time>2019-08-04T14:02:20.724Z</time>
      </trkpt>
      <trkpt lat="42.81539" lon="-0.11116">
        <ele>2270</ele>
        <time>2019-08-04T14:02:23.724Z</time>
      </trkpt>
      <trkpt lat="42.81539" lon="-0.11113">
        <ele>2269</ele>
        <time>2019-08-04T14:02:27.724Z</time>
      </trkpt>
      <trkpt lat="42.8154" lon="-0.11111">
        <ele>2269</ele>
        <time>2019-08-04T14:02:31.724Z</time>
      </trkpt>
      <trkpt lat="42.8154" lon="-0.11108">
        <ele>2268.2562533333</ele>
        <time>2019-08-04T14:02:34.724Z</time>
      </trkpt>
      <trkpt lat="42.81541" lon="-0.11106">
        <ele>2268</ele>
        <time>2019-08-04T14:02:37.724Z</time>
      </trkpt>
      <trkpt lat="42.81541" lon="-0.11103">
        <ele>2268</ele>
        <time>2019-08-04T14:02:41.724Z</time>
      </trkpt>
      <trkpt lat="42.8154" lon="-0.11099">
        <ele>2267</ele>
        <time>2019-08-04T14:02:45.724Z</time>
      </trkpt>
      <trkpt lat="42.81541" lon="-0.11096">
        <ele>2267</ele>
        <time>2019-08-04T14:02:50.724Z</time>
      </trkpt>
      <trkpt lat="42.81542" lon="-0.11094">
        <ele>2267</ele>
        <time>2019-08-04T14:02:54.724Z</time>
      </trkpt>
      <trkpt lat="42.81543" lon="-0.11091">
        <ele>2266</ele>
        <time>2019-08-04T14:02:59.724Z</time>
      </trkpt>
      <trkpt lat="42.81544" lon="-0.11089">
        <ele>2265</ele>
        <time>2019-08-04T14:03:04.724Z</time>
      </trkpt>
      <trkpt lat="42.81544" lon="-0.11086">
        <ele>2266</ele>
        <time>2019-08-04T14:03:08.724Z</time>
      </trkpt>
      <trkpt lat="42.81543" lon="-0.11083">
        <ele>2264</ele>
        <time>2019-08-04T14:03:17.724Z</time>
      </trkpt>
      <trkpt lat="42.81544" lon="-0.11081">
        <ele>2262</ele>
        <time>2019-08-04T14:03:28.724Z</time>
      </trkpt>
      <trkpt lat="42.81546" lon="-0.1108">
        <ele>2261</ele>
        <time>2019-08-04T14:03:32.724Z</time>
      </trkpt>
      <trkpt lat="42.81548" lon="-0.11082">
        <ele>2262</ele>
        <time>2019-08-04T14:03:36.724Z</time>
      </trkpt>
      <trkpt lat="42.8155" lon="-0.11082">
        <ele>2261.2659968</ele>
        <time>2019-08-04T14:03:39.724Z</time>
      </trkpt>
      <trkpt lat="42.81551" lon="-0.1108">
        <ele>2262</ele>
        <time>2019-08-04T14:03:46.724Z</time>
      </trkpt>
      <trkpt lat="42.81552" lon="-0.11078">
        <ele>2260.3060096</ele>
        <time>2019-08-04T14:03:50.724Z</time>
      </trkpt>
      <trkpt lat="42.81552" lon="-0.11075">
        <ele>2259</ele>
        <time>2019-08-04T14:03:54.724Z</time>
      </trkpt>
      <trkpt lat="42.81553" lon="-0.11072">
        <ele>2257.6309497103</ele>
        <time>2019-08-04T14:03:58.724Z</time>
      </trkpt>
      <trkpt lat="42.81554" lon="-0.11071">
        <ele>2255</ele>
        <time>2019-08-04T14:04:03.724Z</time>
      </trkpt>
      <trkpt lat="42.81553" lon="-0.11069">
        <ele>2255</ele>
        <time>2019-08-04T14:04:12.724Z</time>
      </trkpt>
      <trkpt lat="42.8155" lon="-0.11068">
        <ele>2253.3224403433</ele>
        <time>2019-08-04T14:04:15.724Z</time>
      </trkpt>
      <trkpt lat="42.81548" lon="-0.11069">
        <ele>2253</ele>
        <time>2019-08-04T14:04:18.724Z</time>
      </trkpt>
      <trkpt lat="42.81546" lon="-0.11069">
        <ele>2252</ele>
        <time>2019-08-04T14:04:21.724Z</time>
      </trkpt>
      <trkpt lat="42.81544" lon="-0.11067">
        <ele>2252</ele>
        <time>2019-08-04T14:04:24.724Z</time>
      </trkpt>
      <trkpt lat="42.81542" lon="-0.11065">
        <ele>2252</ele>
        <time>2019-08-04T14:04:29.724Z</time>
      </trkpt>
      <trkpt lat="42.8154" lon="-0.11064">
        <ele>2252</ele>
        <time>2019-08-04T14:04:31.724Z</time>
      </trkpt>
      <trkpt lat="42.81539" lon="-0.11063">
        <ele>2252</ele>
        <time>2019-08-04T14:04:33.724Z</time>
      </trkpt>
      <trkpt lat="42.81525" lon="-0.11058">
        <ele>2248.3357719949</ele>
        <time>2019-08-04T14:04:51.724Z</time>
      </trkpt>
      <trkpt lat="42.81522" lon="-0.11057">
        <ele>2248</ele>
        <time>2019-08-04T14:04:54.724Z</time>
      </trkpt>
      <trkpt lat="42.8152" lon="-0.11055">
        <ele>2247</ele>
        <time>2019-08-04T14:04:57.724Z</time>
      </trkpt>
      <trkpt lat="42.81518" lon="-0.11054">
        <ele>2247</ele>
        <time>2019-08-04T14:05:00.724Z</time>
      </trkpt>
      <trkpt lat="42.81516" lon="-0.11053">
        <ele>2246</ele>
        <time>2019-08-04T14:05:02.724Z</time>
      </trkpt>
      <trkpt lat="42.81514" lon="-0.11051">
        <ele>2246</ele>
        <time>2019-08-04T14:05:05.724Z</time>
      </trkpt>
      <trkpt lat="42.81512" lon="-0.1105">
        <ele>2246</ele>
        <time>2019-08-04T14:05:07.724Z</time>
      </trkpt>
      <trkpt lat="42.8151" lon="-0.11048">
        <ele>2246</ele>
        <time>2019-08-04T14:05:10.724Z</time>
      </trkpt>
      <trkpt lat="42.81508" lon="-0.11047">
        <ele>2246</ele>
        <time>2019-08-04T14:05:13.724Z</time>
      </trkpt>
      <trkpt lat="42.81506" lon="-0.11046">
        <ele>2246</ele>
        <time>2019-08-04T14:05:16.724Z</time>
      </trkpt>
      <trkpt lat="42.81505" lon="-0.11044">
        <ele>2244</ele>
        <time>2019-08-04T14:05:21.724Z</time>
      </trkpt>
      <trkpt lat="42.81504" lon="-0.11042">
        <ele>2242.3051648149</ele>
        <time>2019-08-04T14:05:26.724Z</time>
      </trkpt>
      <trkpt lat="42.81502" lon="-0.11041">
        <ele>2242</ele>
        <time>2019-08-04T14:05:29.724Z</time>
      </trkpt>
      <trkpt lat="42.815" lon="-0.1104">
        <ele>2242</ele>
        <time>2019-08-04T14:05:32.724Z</time>
      </trkpt>
      <trkpt lat="42.81498" lon="-0.11038">
        <ele>2240.4892381009</ele>
        <time>2019-08-04T14:05:36.724Z</time>
      </trkpt>
      <trkpt lat="42.81497" lon="-0.11036">
        <ele>2240</ele>
        <time>2019-08-04T14:05:40.724Z</time>
      </trkpt>
      <trkpt lat="42.81495" lon="-0.11034">
        <ele>2239</ele>
        <time>2019-08-04T14:05:44.724Z</time>
      </trkpt>
      <trkpt lat="42.81495" lon="-0.11031">
        <ele>2238</ele>
        <time>2019-08-04T14:05:52.724Z</time>
      </trkpt>
      <trkpt lat="42.81497" lon="-0.1103">
        <ele>2237</ele>
        <time>2019-08-04T14:05:56.724Z</time>
      </trkpt>
      <trkpt lat="42.81498" lon="-0.11029">
        <ele>2237</ele>
        <time>2019-08-04T14:05:59.724Z</time>
      </trkpt>
      <trkpt lat="42.81497" lon="-0.11027">
        <ele>2236</ele>
        <time>2019-08-04T14:06:03.724Z</time>
      </trkpt>
      <trkpt lat="42.81495" lon="-0.11025">
        <ele>2235.2460032</ele>
        <time>2019-08-04T14:06:08.724Z</time>
      </trkpt>
      <trkpt lat="42.81494" lon="-0.11023">
        <ele>2234</ele>
        <time>2019-08-04T14:06:14.724Z</time>
      </trkpt>
      <trkpt lat="42.81493" lon="-0.1102">
        <ele>2232</ele>
        <time>2019-08-04T14:06:19.724Z</time>
      </trkpt>
      <trkpt lat="42.81492" lon="-0.11019">
        <ele>2231.2435682965</ele>
        <time>2019-08-04T14:06:22.724Z</time>
      </trkpt>
      <trkpt lat="42.8149" lon="-0.11017">
        <ele>2231</ele>
        <time>2019-08-04T14:06:32.724Z</time>
      </trkpt>
      <trkpt lat="42.8149" lon="-0.11014">
        <ele>2231</ele>
        <time>2019-08-04T14:06:40.724Z</time>
      </trkpt>
      <trkpt lat="42.81491" lon="-0.11012">
        <ele>2232</ele>
        <time>2019-08-04T14:06:47.724Z</time>
      </trkpt>
      <trkpt lat="42.8149" lon="-0.11009">
        <ele>2232</ele>
        <time>2019-08-04T14:06:50.724Z</time>
      </trkpt>
      <trkpt lat="42.81489" lon="-0.11007">
        <ele>2231</ele>
        <time>2019-08-04T14:06:54.724Z</time>
      </trkpt>
      <trkpt lat="42.81488" lon="-0.11005">
        <ele>2231</ele>
        <time>2019-08-04T14:06:58.724Z</time>
      </trkpt>
      <trkpt lat="42.81489" lon="-0.11003">
        <ele>2231.2282917873</ele>
        <time>2019-08-04T14:07:04.724Z</time>
      </trkpt>
      <trkpt lat="42.81489" lon="-0.11">
        <ele>2231</ele>
        <time>2019-08-04T14:07:07.724Z</time>
      </trkpt>
      <trkpt lat="42.81489" lon="-0.10997">
        <ele>2230</ele>
        <time>2019-08-04T14:07:11.724Z</time>
      </trkpt>
      <trkpt lat="42.81488" lon="-0.10995">
        <ele>2229.2459904</ele>
        <time>2019-08-04T14:07:15.724Z</time>
      </trkpt>
      <trkpt lat="42.81488" lon="-0.10992">
        <ele>2228</ele>
        <time>2019-08-04T14:07:21.724Z</time>
      </trkpt>
      <trkpt lat="42.81488" lon="-0.10989">
        <ele>2226.2435556231</ele>
        <time>2019-08-04T14:07:25.724Z</time>
      </trkpt>
      <trkpt lat="42.81489" lon="-0.10987">
        <ele>2225</ele>
        <time>2019-08-04T14:07:30.724Z</time>
      </trkpt>
      <trkpt lat="42.81489" lon="-0.10984">
        <ele>2225</ele>
        <time>2019-08-04T14:07:35.724Z</time>
      </trkpt>
      <trkpt lat="42.8149" lon="-0.10982">
        <ele>2224.1960064</ele>
        <time>2019-08-04T14:07:40.724Z</time>
      </trkpt>
      <trkpt lat="42.81488" lon="-0.10981">
        <ele>2223.7939968</ele>
        <time>2019-08-04T14:07:44.724Z</time>
      </trkpt>
      <trkpt lat="42.81486" lon="-0.10978">
        <ele>2222.2060032</ele>
        <time>2019-08-04T14:07:48.724Z</time>
      </trkpt>
      <trkpt lat="42.81486" lon="-0.10976">
        <ele>2222</ele>
        <time>2019-08-04T14:07:51.724Z</time>
      </trkpt>
      <trkpt lat="42.81485" lon="-0.10973">
        <ele>2221</ele>
        <time>2019-08-04T14:07:54.724Z</time>
      </trkpt>
      <trkpt lat="42.81485" lon="-0.1097">
        <ele>2221</ele>
        <time>2019-08-04T14:07:58.724Z</time>
      </trkpt>
      <trkpt lat="42.81486" lon="-0.10968">
        <ele>2219.6059361772</ele>
        <time>2019-08-04T14:08:01.724Z</time>
      </trkpt>
      <trkpt lat="42.81488" lon="-0.10968">
        <ele>2218.3029769222</ele>
        <time>2019-08-04T14:08:04.724Z</time>
      </trkpt>
      <trkpt lat="42.81487" lon="-0.10966">
        <ele>2217</ele>
        <time>2019-08-04T14:08:11.724Z</time>
      </trkpt>
      <trkpt lat="42.81486" lon="-0.10964">
        <ele>2215</ele>
        <time>2019-08-04T14:08:14.724Z</time>
      </trkpt>
      <trkpt lat="42.81484" lon="-0.10963">
        <ele>2217</ele>
        <time>2019-08-04T14:08:19.724Z</time>
      </trkpt>
      <trkpt lat="42.81483" lon="-0.1096">
        <ele>2215</ele>
        <time>2019-08-04T14:08:23.724Z</time>
      </trkpt>
      <trkpt lat="42.81483" lon="-0.10958">
        <ele>2213</ele>
        <time>2019-08-04T14:08:30.724Z</time>
      </trkpt>
      <trkpt lat="42.81482" lon="-0.10955">
        <ele>2212</ele>
        <time>2019-08-04T14:08:37.724Z</time>
      </trkpt>
      <trkpt lat="42.81481" lon="-0.10953">
        <ele>2210</ele>
        <time>2019-08-04T14:08:41.724Z</time>
      </trkpt>
      <trkpt lat="42.81479" lon="-0.10951">
        <ele>2209.4850482267</ele>
        <time>2019-08-04T14:08:46.724Z</time>
      </trkpt>
      <trkpt lat="42.81478" lon="-0.10949">
        <ele>2208</ele>
        <time>2019-08-04T14:08:50.724Z</time>
      </trkpt>
      <trkpt lat="42.81478" lon="-0.10946">
        <ele>2208</ele>
        <time>2019-08-04T14:08:54.724Z</time>
      </trkpt>
      <trkpt lat="42.81478" lon="-0.10944">
        <ele>2205</ele>
        <time>2019-08-04T14:08:59.724Z</time>
      </trkpt>
      <trkpt lat="42.81478" lon="-0.10941">
        <ele>2203</ele>
        <time>2019-08-04T14:09:03.724Z</time>
      </trkpt>
      <trkpt lat="42.81477" lon="-0.10939">
        <ele>2204</ele>
        <time>2019-08-04T14:09:08.724Z</time>
      </trkpt>
      <trkpt lat="42.81477" lon="-0.10937">
        <ele>2202.2460032</ele>
        <time>2019-08-04T14:09:12.724Z</time>
      </trkpt>
      <trkpt lat="42.81477" lon="-0.10934">
        <ele>2199.4920064</ele>
        <time>2019-08-04T14:09:18.724Z</time>
      </trkpt>
      <trkpt lat="42.81476" lon="-0.10932">
        <ele>2199</ele>
        <time>2019-08-04T14:09:22.724Z</time>
      </trkpt>
      <trkpt lat="42.81476" lon="-0.10929">
        <ele>2199</ele>
        <time>2019-08-04T14:09:27.724Z</time>
      </trkpt>
      <trkpt lat="42.81476" lon="-0.10926">
        <ele>2198</ele>
        <time>2019-08-04T14:09:33.724Z</time>
      </trkpt>
      <trkpt lat="42.81477" lon="-0.10924">
        <ele>2197.2123619377</ele>
        <time>2019-08-04T14:09:37.724Z</time>
      </trkpt>
      <trkpt lat="42.81477" lon="-0.10921">
        <ele>2196</ele>
        <time>2019-08-04T14:10:40.724Z</time>
      </trkpt>
      <trkpt lat="42.81475" lon="-0.1092">
        <ele>2195.3560064</ele>
        <time>2019-08-04T14:10:44.724Z</time>
      </trkpt>
      <trkpt lat="42.81474" lon="-0.10917">
        <ele>2195</ele>
        <time>2019-08-04T14:10:48.724Z</time>
      </trkpt>
      <trkpt lat="42.81476" lon="-0.10916">
        <ele>2194.3115913715</ele>
        <time>2019-08-04T14:10:52.724Z</time>
      </trkpt>
      <trkpt lat="42.81477" lon="-0.10914">
        <ele>2193</ele>
        <time>2019-08-04T14:10:58.724Z</time>
      </trkpt>
      <trkpt lat="42.81478" lon="-0.10911">
        <ele>2193</ele>
        <time>2019-08-04T14:11:02.724Z</time>
      </trkpt>
      <trkpt lat="42.81477" lon="-0.10909">
        <ele>2191</ele>
        <time>2019-08-04T14:11:06.724Z</time>
      </trkpt>
      <trkpt lat="42.81476" lon="-0.10906">
        <ele>2190</ele>
        <time>2019-08-04T14:11:10.724Z</time>
      </trkpt>
      <trkpt lat="42.81478" lon="-0.10904">
        <ele>2189</ele>
        <time>2019-08-04T14:11:14.724Z</time>
      </trkpt>
      <trkpt lat="42.81477" lon="-0.10901">
        <ele>2188</ele>
        <time>2019-08-04T14:11:19.724Z</time>
      </trkpt>
      <trkpt lat="42.81478" lon="-0.10899">
        <ele>2187</ele>
        <time>2019-08-04T14:11:23.724Z</time>
      </trkpt>
      <trkpt lat="42.81476" lon="-0.10898">
        <ele>2187</ele>
        <time>2019-08-04T14:11:26.724Z</time>
      </trkpt>
      <trkpt lat="42.81474" lon="-0.109">
        <ele>2186</ele>
        <time>2019-08-04T14:11:29.724Z</time>
      </trkpt>
      <trkpt lat="42.81472" lon="-0.109">
        <ele>2186</ele>
        <time>2019-08-04T14:11:34.724Z</time>
      </trkpt>
      <trkpt lat="42.8147" lon="-0.109">
        <ele>2186</ele>
        <time>2019-08-04T14:11:38.724Z</time>
      </trkpt>
      <trkpt lat="42.81471" lon="-0.10897">
        <ele>2185</ele>
        <time>2019-08-04T14:11:44.724Z</time>
      </trkpt>
      <trkpt lat="42.81469" lon="-0.10895">
        <ele>2184.1959936</ele>
        <time>2019-08-04T14:11:47.724Z</time>
      </trkpt>
      <trkpt lat="42.81468" lon="-0.10895">
        <ele>2184</ele>
        <time>2019-08-04T14:11:50.724Z</time>
      </trkpt>
      <trkpt lat="42.81465" lon="-0.10894">
        <ele>2183</ele>
        <time>2019-08-04T14:11:53.724Z</time>
      </trkpt>
      <trkpt lat="42.81463" lon="-0.10896">
        <ele>2182</ele>
        <time>2019-08-04T14:11:56.724Z</time>
      </trkpt>
      <trkpt lat="42.81462" lon="-0.10897">
        <ele>2182</ele>
        <time>2019-08-04T14:11:59.724Z</time>
      </trkpt>
      <trkpt lat="42.81461" lon="-0.10894">
        <ele>2181</ele>
        <time>2019-08-04T14:12:05.724Z</time>
      </trkpt>
      <trkpt lat="42.81461" lon="-0.10892">
        <ele>2180</ele>
        <time>2019-08-04T14:12:10.724Z</time>
      </trkpt>
      <trkpt lat="42.8146" lon="-0.10889">
        <ele>2179</ele>
        <time>2019-08-04T14:12:15.724Z</time>
      </trkpt>
      <trkpt lat="42.81459" lon="-0.10887">
        <ele>2177.4119808</ele>
        <time>2019-08-04T14:12:21.724Z</time>
      </trkpt>
      <trkpt lat="42.8146" lon="-0.10885">
        <ele>2176</ele>
        <time>2019-08-04T14:12:25.724Z</time>
      </trkpt>
      <trkpt lat="42.81461" lon="-0.10882">
        <ele>2174.4039052794</ele>
        <time>2019-08-04T14:12:29.724Z</time>
      </trkpt>
      <trkpt lat="42.81463" lon="-0.1088">
        <ele>2173</ele>
        <time>2019-08-04T14:12:33.724Z</time>
      </trkpt>
      <trkpt lat="42.81462" lon="-0.10877">
        <ele>2173</ele>
        <time>2019-08-04T14:12:39.724Z</time>
      </trkpt>
      <trkpt lat="42.81462" lon="-0.10875">
        <ele>2172</ele>
        <time>2019-08-04T14:12:43.724Z</time>
      </trkpt>
      <trkpt lat="42.8146" lon="-0.10874">
        <ele>2171.2460032</ele>
        <time>2019-08-04T14:12:46.724Z</time>
      </trkpt>
      <trkpt lat="42.81458" lon="-0.10872">
        <ele>2171</ele>
        <time>2019-08-04T14:12:49.724Z</time>
      </trkpt>
      <trkpt lat="42.81456" lon="-0.10868">
        <ele>2169</ele>
        <time>2019-08-04T14:12:53.724Z</time>
      </trkpt>
      <trkpt lat="42.81455" lon="-0.10866">
        <ele>2169</ele>
        <time>2019-08-04T14:12:56.724Z</time>
      </trkpt>
      <trkpt lat="42.81454" lon="-0.10864">
        <ele>2169</ele>
        <time>2019-08-04T14:13:00.724Z</time>
      </trkpt>
      <trkpt lat="42.81455" lon="-0.10861">
        <ele>2168</ele>
        <time>2019-08-04T14:13:05.724Z</time>
      </trkpt>
      <trkpt lat="42.81456" lon="-0.10859">
        <ele>2168</ele>
        <time>2019-08-04T14:13:09.724Z</time>
      </trkpt>
      <trkpt lat="42.81456" lon="-0.10856">
        <ele>2167</ele>
        <time>2019-08-04T14:13:14.724Z</time>
      </trkpt>
      <trkpt lat="42.81457" lon="-0.10853">
        <ele>2166</ele>
        <time>2019-08-04T14:13:19.724Z</time>
      </trkpt>
      <trkpt lat="42.81456" lon="-0.10851">
        <ele>2166</ele>
        <time>2019-08-04T14:13:23.724Z</time>
      </trkpt>
      <trkpt lat="42.81456" lon="-0.10848">
        <ele>2166</ele>
        <time>2019-08-04T14:13:27.724Z</time>
      </trkpt>
      <trkpt lat="42.81455" lon="-0.10846">
        <ele>2165</ele>
        <time>2019-08-04T14:13:31.724Z</time>
      </trkpt>
      <trkpt lat="42.81453" lon="-0.10843">
        <ele>2165</ele>
        <time>2019-08-04T14:13:35.724Z</time>
      </trkpt>
      <trkpt lat="42.81453" lon="-0.10841">
        <ele>2164</ele>
        <time>2019-08-04T14:13:40.724Z</time>
      </trkpt>
      <trkpt lat="42.81451" lon="-0.10839">
        <ele>2163</ele>
        <time>2019-08-04T14:13:44.724Z</time>
      </trkpt>
      <trkpt lat="42.8145" lon="-0.10837">
        <ele>2163</ele>
        <time>2019-08-04T14:13:48.724Z</time>
      </trkpt>
      <trkpt lat="42.81449" lon="-0.10836">
        <ele>2162.348563348</ele>
        <time>2019-08-04T14:13:53.724Z</time>
      </trkpt>
      <trkpt lat="42.81447" lon="-0.10835">
        <ele>2162</ele>
        <time>2019-08-04T14:14:03.724Z</time>
      </trkpt>
      <trkpt lat="42.81446" lon="-0.10832">
        <ele>2162</ele>
        <time>2019-08-04T14:14:09.724Z</time>
      </trkpt>
      <trkpt lat="42.81445" lon="-0.1083">
        <ele>2159</ele>
        <time>2019-08-04T14:14:26.724Z</time>
      </trkpt>
      <trkpt lat="42.81444" lon="-0.10828">
        <ele>2159</ele>
        <time>2019-08-04T14:14:30.724Z</time>
      </trkpt>
      <trkpt lat="42.81445" lon="-0.10825">
        <ele>2156</ele>
        <time>2019-08-04T14:14:41.724Z</time>
      </trkpt>
      <trkpt lat="42.81444" lon="-0.10823">
        <ele>2155</ele>
        <time>2019-08-04T14:14:45.724Z</time>
      </trkpt>
      <trkpt lat="42.81443" lon="-0.10821">
        <ele>2155</ele>
        <time>2019-08-04T14:14:49.724Z</time>
      </trkpt>
      <trkpt lat="42.81443" lon="-0.10818">
        <ele>2155</ele>
        <time>2019-08-04T14:14:57.724Z</time>
      </trkpt>
      <trkpt lat="42.81443" lon="-0.10815">
        <ele>2154</ele>
        <time>2019-08-04T14:15:01.724Z</time>
      </trkpt>
      <trkpt lat="42.81443" lon="-0.10812">
        <ele>2152</ele>
        <time>2019-08-04T14:15:05.724Z</time>
      </trkpt>
      <trkpt lat="42.81442" lon="-0.10811">
        <ele>2151.7442338462</ele>
        <time>2019-08-04T14:15:09.724Z</time>
      </trkpt>
      <trkpt lat="42.8144" lon="-0.1081">
        <ele>2150.2959909887</ele>
        <time>2019-08-04T14:15:13.724Z</time>
      </trkpt>
      <trkpt lat="42.81439" lon="-0.10808">
        <ele>2150</ele>
        <time>2019-08-04T14:15:17.724Z</time>
      </trkpt>
      <trkpt lat="42.81436" lon="-0.10807">
        <ele>2150</ele>
        <time>2019-08-04T14:15:21.724Z</time>
      </trkpt>
      <trkpt lat="42.81435" lon="-0.10805">
        <ele>2149.2097205135</ele>
        <time>2019-08-04T14:15:24.724Z</time>
      </trkpt>
      <trkpt lat="42.81433" lon="-0.10803">
        <ele>2148</ele>
        <time>2019-08-04T14:15:29.724Z</time>
      </trkpt>
      <trkpt lat="42.81432" lon="-0.108">
        <ele>2148.7854133333</ele>
        <time>2019-08-04T14:15:32.724Z</time>
      </trkpt>
      <trkpt lat="42.81432" lon="-0.10797">
        <ele>2148.6839493687</ele>
        <time>2019-08-04T14:15:52.724Z</time>
      </trkpt>
      <trkpt lat="42.81432" lon="-0.10794">
        <ele>2148.2981210453</ele>
        <time>2019-08-04T14:15:56.724Z</time>
      </trkpt>
      <trkpt lat="42.81432" lon="-0.10791">
        <ele>2146.3452760469</ele>
        <time>2019-08-04T14:16:01.724Z</time>
      </trkpt>
      <trkpt lat="42.81433" lon="-0.10789">
        <ele>2146</ele>
        <time>2019-08-04T14:16:05.724Z</time>
      </trkpt>
      <trkpt lat="42.81434" lon="-0.10787">
        <ele>2144</ele>
        <time>2019-08-04T14:16:10.724Z</time>
      </trkpt>
      <trkpt lat="42.81434" lon="-0.10784">
        <ele>2143</ele>
        <time>2019-08-04T14:16:14.724Z</time>
      </trkpt>
      <trkpt lat="42.81433" lon="-0.10782">
        <ele>2142.3418278294</ele>
        <time>2019-08-04T14:16:18.724Z</time>
      </trkpt>
      <trkpt lat="42.81432" lon="-0.10779">
        <ele>2141</ele>
        <time>2019-08-04T14:16:21.724Z</time>
      </trkpt>
      <trkpt lat="42.81433" lon="-0.10777">
        <ele>2140</ele>
        <time>2019-08-04T14:16:26.724Z</time>
      </trkpt>
      <trkpt lat="42.81435" lon="-0.10776">
        <ele>2140</ele>
        <time>2019-08-04T14:16:30.724Z</time>
      </trkpt>
      <trkpt lat="42.81436" lon="-0.10774">
        <ele>2138</ele>
        <time>2019-08-04T14:16:34.724Z</time>
      </trkpt>
      <trkpt lat="42.81437" lon="-0.10771">
        <ele>2137</ele>
        <time>2019-08-04T14:16:38.724Z</time>
      </trkpt>
      <trkpt lat="42.81439" lon="-0.1077">
        <ele>2137</ele>
        <time>2019-08-04T14:16:42.724Z</time>
      </trkpt>
      <trkpt lat="42.8144" lon="-0.10769">
        <ele>2136</ele>
        <time>2019-08-04T14:16:45.724Z</time>
      </trkpt>
      <trkpt lat="42.81442" lon="-0.10767">
        <ele>2135.2095206168</ele>
        <time>2019-08-04T14:16:49.724Z</time>
      </trkpt>
      <trkpt lat="42.81444" lon="-0.10766">
        <ele>2134</ele>
        <time>2019-08-04T14:16:53.724Z</time>
      </trkpt>
      <trkpt lat="42.81446" lon="-0.10765">
        <ele>2133</ele>
        <time>2019-08-04T14:16:58.724Z</time>
      </trkpt>
      <trkpt lat="42.81446" lon="-0.10762">
        <ele>2132.2539262498</ele>
        <time>2019-08-04T14:17:03.724Z</time>
      </trkpt>
      <trkpt lat="42.81447" lon="-0.1076">
        <ele>2130.2708057226</ele>
        <time>2019-08-04T14:17:08.724Z</time>
      </trkpt>
      <trkpt lat="42.81447" lon="-0.10757">
        <ele>2129</ele>
        <time>2019-08-04T14:17:16.724Z</time>
      </trkpt>
      <trkpt lat="42.81445" lon="-0.10756">
        <ele>2128</ele>
        <time>2019-08-04T14:17:21.724Z</time>
      </trkpt>
      <trkpt lat="42.81444" lon="-0.10754">
        <ele>2128</ele>
        <time>2019-08-04T14:17:25.724Z</time>
      </trkpt>
      <trkpt lat="42.81444" lon="-0.10751">
        <ele>2127</ele>
        <time>2019-08-04T14:17:31.724Z</time>
      </trkpt>
      <trkpt lat="42.81446" lon="-0.1075">
        <ele>2125</ele>
        <time>2019-08-04T14:17:36.724Z</time>
      </trkpt>
      <trkpt lat="42.81444" lon="-0.10748">
        <ele>2125</ele>
        <time>2019-08-04T14:17:53.724Z</time>
      </trkpt>
      <trkpt lat="42.81442" lon="-0.10747">
        <ele>2124</ele>
        <time>2019-08-04T14:17:56.724Z</time>
      </trkpt>
      <trkpt lat="42.81441" lon="-0.10745">
        <ele>2124</ele>
        <time>2019-08-04T14:17:59.724Z</time>
      </trkpt>
      <trkpt lat="42.8144" lon="-0.10743">
        <ele>2123</ele>
        <time>2019-08-04T14:18:02.724Z</time>
      </trkpt>
      <trkpt lat="42.81438" lon="-0.10742">
        <ele>2123</ele>
        <time>2019-08-04T14:18:07.724Z</time>
      </trkpt>
      <trkpt lat="42.81437" lon="-0.10741">
        <ele>2122</ele>
        <time>2019-08-04T14:18:11.724Z</time>
      </trkpt>
      <trkpt lat="42.81435" lon="-0.10738">
        <ele>2121.4520365476</ele>
        <time>2019-08-04T14:18:16.724Z</time>
      </trkpt>
      <trkpt lat="42.81434" lon="-0.10736">
        <ele>2120</ele>
        <time>2019-08-04T14:18:20.724Z</time>
      </trkpt>
      <trkpt lat="42.81432" lon="-0.10735">
        <ele>2119.2967820964</ele>
        <time>2019-08-04T14:18:24.724Z</time>
      </trkpt>
      <trkpt lat="42.8143" lon="-0.10734">
        <ele>2119</ele>
        <time>2019-08-04T14:18:27.724Z</time>
      </trkpt>
      <trkpt lat="42.81429" lon="-0.10731">
        <ele>2118</ele>
        <time>2019-08-04T14:18:31.724Z</time>
      </trkpt>
      <trkpt lat="42.81428" lon="-0.10729">
        <ele>2117</ele>
        <time>2019-08-04T14:18:35.724Z</time>
      </trkpt>
      <trkpt lat="42.81427" lon="-0.10727">
        <ele>2117</ele>
        <time>2019-08-04T14:18:39.724Z</time>
      </trkpt>
      <trkpt lat="42.81426" lon="-0.10724">
        <ele>2117</ele>
        <time>2019-08-04T14:18:42.724Z</time>
      </trkpt>
      <trkpt lat="42.81425" lon="-0.10722">
        <ele>2115.2809447619</ele>
        <time>2019-08-04T14:18:45.724Z</time>
      </trkpt>
      <trkpt lat="42.81425" lon="-0.10719">
        <ele>2115</ele>
        <time>2019-08-04T14:18:49.724Z</time>
      </trkpt>
      <trkpt lat="42.81424" lon="-0.10717">
        <ele>2114.2690590476</ele>
        <time>2019-08-04T14:18:52.724Z</time>
      </trkpt>
      <trkpt lat="42.81423" lon="-0.10714">
        <ele>2113</ele>
        <time>2019-08-04T14:18:59.724Z</time>
      </trkpt>
      <trkpt lat="42.81422" lon="-0.10712">
        <ele>2111</ele>
        <time>2019-08-04T14:19:04.724Z</time>
      </trkpt>
      <trkpt lat="42.81421" lon="-0.10709">
        <ele>2110</ele>
        <time>2019-08-04T14:19:08.724Z</time>
      </trkpt>
      <trkpt lat="42.8142" lon="-0.10707">
        <ele>2110</ele>
        <time>2019-08-04T14:19:11.724Z</time>
      </trkpt>
      <trkpt lat="42.81418" lon="-0.10706">
        <ele>2109</ele>
        <time>2019-08-04T14:19:16.724Z</time>
      </trkpt>
      <trkpt lat="42.81417" lon="-0.10704">
        <ele>2110</ele>
        <time>2019-08-04T14:19:21.724Z</time>
      </trkpt>
      <trkpt lat="42.81417" lon="-0.10701">
        <ele>2107.2896519762</ele>
        <time>2019-08-04T14:19:29.724Z</time>
      </trkpt>
      <trkpt lat="42.81417" lon="-0.10699">
        <ele>2107</ele>
        <time>2019-08-04T14:19:33.724Z</time>
      </trkpt>
      <trkpt lat="42.81416" lon="-0.10696">
        <ele>2106</ele>
        <time>2019-08-04T14:19:38.724Z</time>
      </trkpt>
      <trkpt lat="42.81415" lon="-0.10694">
        <ele>2105</ele>
        <time>2019-08-04T14:19:42.724Z</time>
      </trkpt>
      <trkpt lat="42.81413" lon="-0.10692">
        <ele>2105</ele>
        <time>2019-08-04T14:19:45.724Z</time>
      </trkpt>
      <trkpt lat="42.81412" lon="-0.10689">
        <ele>2103</ele>
        <time>2019-08-04T14:19:50.724Z</time>
      </trkpt>
      <trkpt lat="42.81412" lon="-0.10687">
        <ele>2103</ele>
        <time>2019-08-04T14:19:54.724Z</time>
      </trkpt>
      <trkpt lat="42.81411" lon="-0.10684">
        <ele>2103</ele>
        <time>2019-08-04T14:19:58.724Z</time>
      </trkpt>
      <trkpt lat="42.81409" lon="-0.10682">
        <ele>2101.3250036364</ele>
        <time>2019-08-04T14:20:02.724Z</time>
      </trkpt>
      <trkpt lat="42.81408" lon="-0.1068">
        <ele>2101</ele>
        <time>2019-08-04T14:20:05.724Z</time>
      </trkpt>
      <trkpt lat="42.81406" lon="-0.10679">
        <ele>2101</ele>
        <time>2019-08-04T14:20:09.724Z</time>
      </trkpt>
      <trkpt lat="42.81406" lon="-0.10677">
        <ele>2100</ele>
        <time>2019-08-04T14:20:13.724Z</time>
      </trkpt>
      <trkpt lat="42.81406" lon="-0.10674">
        <ele>2098</ele>
        <time>2019-08-04T14:20:17.724Z</time>
      </trkpt>
      <trkpt lat="42.81405" lon="-0.10671">
        <ele>2097</ele>
        <time>2019-08-04T14:20:21.724Z</time>
      </trkpt>
      <trkpt lat="42.81403" lon="-0.10671">
        <ele>2096.2860374775</ele>
        <time>2019-08-04T14:20:25.724Z</time>
      </trkpt>
      <trkpt lat="42.814" lon="-0.10671">
        <ele>2096</ele>
        <time>2019-08-04T14:20:29.724Z</time>
      </trkpt>
      <trkpt lat="42.81398" lon="-0.10669">
        <ele>2095</ele>
        <time>2019-08-04T14:20:32.724Z</time>
      </trkpt>
      <trkpt lat="42.81396" lon="-0.10669">
        <ele>2095</ele>
        <time>2019-08-04T14:20:35.724Z</time>
      </trkpt>
      <trkpt lat="42.81393" lon="-0.10668">
        <ele>2094</ele>
        <time>2019-08-04T14:20:38.724Z</time>
      </trkpt>
      <trkpt lat="42.81392" lon="-0.10666">
        <ele>2094</ele>
        <time>2019-08-04T14:20:41.724Z</time>
      </trkpt>
      <trkpt lat="42.81389" lon="-0.10665">
        <ele>2094</ele>
        <time>2019-08-04T14:20:44.724Z</time>
      </trkpt>
      <trkpt lat="42.81387" lon="-0.10664">
        <ele>2093.3781840185</ele>
        <time>2019-08-04T14:20:46.724Z</time>
      </trkpt>
      <trkpt lat="42.81384" lon="-0.10662">
        <ele>2092.5515101365</ele>
        <time>2019-08-04T14:20:49.724Z</time>
      </trkpt>
      <trkpt lat="42.81383" lon="-0.10661">
        <ele>2092</ele>
        <time>2019-08-04T14:20:52.724Z</time>
      </trkpt>
      <trkpt lat="42.81381" lon="-0.1066">
        <ele>2092</ele>
        <time>2019-08-04T14:20:55.724Z</time>
      </trkpt>
      <trkpt lat="42.81378" lon="-0.10658">
        <ele>2092</ele>
        <time>2019-08-04T14:20:58.724Z</time>
      </trkpt>
      <trkpt lat="42.81377" lon="-0.10658">
        <ele>2091</ele>
        <time>2019-08-04T14:21:00.724Z</time>
      </trkpt>
      <trkpt lat="42.81374" lon="-0.10657">
        <ele>2090</ele>
        <time>2019-08-04T14:21:02.724Z</time>
      </trkpt>
      <trkpt lat="42.81373" lon="-0.10657">
        <ele>2090</ele>
        <time>2019-08-04T14:21:04.724Z</time>
      </trkpt>
      <trkpt lat="42.8137" lon="-0.10655">
        <ele>2089.4775106419</ele>
        <time>2019-08-04T14:21:07.724Z</time>
      </trkpt>
      <trkpt lat="42.81369" lon="-0.10653">
        <ele>2088.1742579779</ele>
        <time>2019-08-04T14:21:10.724Z</time>
      </trkpt>
      <trkpt lat="42.81369" lon="-0.10649">
        <ele>2088</ele>
        <time>2019-08-04T14:21:13.724Z</time>
      </trkpt>
      <trkpt lat="42.81368" lon="-0.10646">
        <ele>2088</ele>
        <time>2019-08-04T14:21:16.724Z</time>
      </trkpt>
      <trkpt lat="42.81368" lon="-0.10643">
        <ele>2088</ele>
        <time>2019-08-04T14:21:19.724Z</time>
      </trkpt>
      <trkpt lat="42.81367" lon="-0.1064">
        <ele>2087.4514335869</ele>
        <time>2019-08-04T14:21:22.724Z</time>
      </trkpt>
      <trkpt lat="42.81366" lon="-0.10638">
        <ele>2087</ele>
        <time>2019-08-04T14:21:25.724Z</time>
      </trkpt>
      <trkpt lat="42.81365" lon="-0.10636">
        <ele>2087</ele>
        <time>2019-08-04T14:21:28.724Z</time>
      </trkpt>
      <trkpt lat="42.81364" lon="-0.10633">
        <ele>2086</ele>
        <time>2019-08-04T14:21:32.724Z</time>
      </trkpt>
      <trkpt lat="42.81364" lon="-0.1063">
        <ele>2086</ele>
        <time>2019-08-04T14:21:36.724Z</time>
      </trkpt>
      <trkpt lat="42.81363" lon="-0.10628">
        <ele>2085.2214247619</ele>
        <time>2019-08-04T14:21:39.724Z</time>
      </trkpt>
      <trkpt lat="42.81362" lon="-0.10625">
        <ele>2084.2057245953</ele>
        <time>2019-08-04T14:21:42.724Z</time>
      </trkpt>
      <trkpt lat="42.8136" lon="-0.10625">
        <ele>2083</ele>
        <time>2019-08-04T14:21:47.724Z</time>
      </trkpt>
      <trkpt lat="42.8136" lon="-0.10622">
        <ele>2084</ele>
        <time>2019-08-04T14:21:53.724Z</time>
      </trkpt>
      <trkpt lat="42.8136" lon="-0.10619">
        <ele>2082</ele>
        <time>2019-08-04T14:22:00.724Z</time>
      </trkpt>
      <trkpt lat="42.81358" lon="-0.10617">
        <ele>2081</ele>
        <time>2019-08-04T14:22:04.724Z</time>
      </trkpt>
      <trkpt lat="42.81356" lon="-0.10617">
        <ele>2081</ele>
        <time>2019-08-04T14:22:07.724Z</time>
      </trkpt>
      <trkpt lat="42.81354" lon="-0.10615">
        <ele>2081</ele>
        <time>2019-08-04T14:22:10.724Z</time>
      </trkpt>
      <trkpt lat="42.81353" lon="-0.10614">
        <ele>2079.2888819932</ele>
        <time>2019-08-04T14:22:13.724Z</time>
      </trkpt>
      <trkpt lat="42.81351" lon="-0.10612">
        <ele>2079.641183631</ele>
        <time>2019-08-04T14:22:17.724Z</time>
      </trkpt>
      <trkpt lat="42.8135" lon="-0.1061">
        <ele>2080</ele>
        <time>2019-08-04T14:22:20.724Z</time>
      </trkpt>
      <trkpt lat="42.8135" lon="-0.10607">
        <ele>2080</ele>
        <time>2019-08-04T14:22:24.724Z</time>
      </trkpt>
      <trkpt lat="42.81349" lon="-0.10605">
        <ele>2079</ele>
        <time>2019-08-04T14:22:28.724Z</time>
      </trkpt>
      <trkpt lat="42.81348" lon="-0.10602">
        <ele>2079</ele>
        <time>2019-08-04T14:22:32.724Z</time>
      </trkpt>
      <trkpt lat="42.81347" lon="-0.106">
        <ele>2079</ele>
        <time>2019-08-04T14:22:35.724Z</time>
      </trkpt>
      <trkpt lat="42.81345" lon="-0.10598">
        <ele>2079</ele>
        <time>2019-08-04T14:22:38.724Z</time>
      </trkpt>
      <trkpt lat="42.81343" lon="-0.10596">
        <ele>2079</ele>
        <time>2019-08-04T14:22:41.724Z</time>
      </trkpt>
      <trkpt lat="42.81341" lon="-0.10594">
        <ele>2079</ele>
        <time>2019-08-04T14:22:45.724Z</time>
      </trkpt>
      <trkpt lat="42.81339" lon="-0.10593">
        <ele>2078</ele>
        <time>2019-08-04T14:22:49.724Z</time>
      </trkpt>
      <trkpt lat="42.81337" lon="-0.10592">
        <ele>2077</ele>
        <time>2019-08-04T14:22:54.724Z</time>
      </trkpt>
      <trkpt lat="42.81335" lon="-0.10591">
        <ele>2076</ele>
        <time>2019-08-04T14:22:59.724Z</time>
      </trkpt>
      <trkpt lat="42.81335" lon="-0.10589">
        <ele>2075</ele>
        <time>2019-08-04T14:23:03.724Z</time>
      </trkpt>
      <trkpt lat="42.81334" lon="-0.10586">
        <ele>2075</ele>
        <time>2019-08-04T14:23:06.724Z</time>
      </trkpt>
      <trkpt lat="42.81333" lon="-0.10583">
        <ele>2074</ele>
        <time>2019-08-04T14:23:10.724Z</time>
      </trkpt>
      <trkpt lat="42.81332" lon="-0.10581">
        <ele>2074</ele>
        <time>2019-08-04T14:23:13.724Z</time>
      </trkpt>
      <trkpt lat="42.81331" lon="-0.10579">
        <ele>2073.1898044747</ele>
        <time>2019-08-04T14:23:16.724Z</time>
      </trkpt>
      <trkpt lat="42.81329" lon="-0.10577">
        <ele>2073</ele>
        <time>2019-08-04T14:23:19.724Z</time>
      </trkpt>
      <trkpt lat="42.81329" lon="-0.10575">
        <ele>2073</ele>
        <time>2019-08-04T14:23:22.724Z</time>
      </trkpt>
      <trkpt lat="42.81328" lon="-0.10572">
        <ele>2072.358816369</ele>
        <time>2019-08-04T14:23:25.724Z</time>
      </trkpt>
      <trkpt lat="42.81326" lon="-0.1057">
        <ele>2071.1760022528</ele>
        <time>2019-08-04T14:23:28.724Z</time>
      </trkpt>
      <trkpt lat="42.81326" lon="-0.10567">
        <ele>2071</ele>
        <time>2019-08-04T14:23:31.724Z</time>
      </trkpt>
      <trkpt lat="42.81327" lon="-0.10568">
        <ele>2069.7176327381</ele>
        <time>2019-08-04T14:23:35.724Z</time>
      </trkpt>
      <trkpt lat="42.81329" lon="-0.10569">
        <ele>2068.17292</ele>
        <time>2019-08-04T14:23:38.724Z</time>
      </trkpt>
      <trkpt lat="42.81331" lon="-0.1057">
        <ele>2068</ele>
        <time>2019-08-04T14:23:41.724Z</time>
      </trkpt>
      <trkpt lat="42.81333" lon="-0.10571">
        <ele>2068</ele>
        <time>2019-08-04T14:23:44.724Z</time>
      </trkpt>
      <trkpt lat="42.81335" lon="-0.10571">
        <ele>2067.1952835587</ele>
        <time>2019-08-04T14:23:47.724Z</time>
      </trkpt>
      <trkpt lat="42.81337" lon="-0.10569">
        <ele>2066</ele>
        <time>2019-08-04T14:23:51.724Z</time>
      </trkpt>
      <trkpt lat="42.81339" lon="-0.1057">
        <ele>2066</ele>
        <time>2019-08-04T14:23:54.724Z</time>
      </trkpt>
      <trkpt lat="42.8134" lon="-0.10568">
        <ele>2064</ele>
        <time>2019-08-04T14:23:58.724Z</time>
      </trkpt>
      <trkpt lat="42.81339" lon="-0.10565">
        <ele>2064</ele>
        <time>2019-08-04T14:24:01.724Z</time>
      </trkpt>
      <trkpt lat="42.81338" lon="-0.10563">
        <ele>2063</ele>
        <time>2019-08-04T14:24:04.724Z</time>
      </trkpt>
      <trkpt lat="42.81338" lon="-0.1056">
        <ele>2062</ele>
        <time>2019-08-04T14:24:08.724Z</time>
      </trkpt>
      <trkpt lat="42.81337" lon="-0.10558">
        <ele>2061</ele>
        <time>2019-08-04T14:24:11.724Z</time>
      </trkpt>
      <trkpt lat="42.81337" lon="-0.10555">
        <ele>2060</ele>
        <time>2019-08-04T14:24:15.724Z</time>
      </trkpt>
      <trkpt lat="42.81336" lon="-0.10552">
        <ele>2060</ele>
        <time>2019-08-04T14:24:19.724Z</time>
      </trkpt>
      <trkpt lat="42.81337" lon="-0.1055">
        <ele>2059</ele>
        <time>2019-08-04T14:24:23.724Z</time>
      </trkpt>
      <trkpt lat="42.81337" lon="-0.10547">
        <ele>2059</ele>
        <time>2019-08-04T14:24:27.724Z</time>
      </trkpt>
      <trkpt lat="42.81337" lon="-0.10544">
        <ele>2058</ele>
        <time>2019-08-04T14:24:31.724Z</time>
      </trkpt>
      <trkpt lat="42.81339" lon="-0.10546">
        <ele>2058</ele>
        <time>2019-08-04T14:24:33.724Z</time>
      </trkpt>
      <trkpt lat="42.8134" lon="-0.10548">
        <ele>2057</ele>
        <time>2019-08-04T14:24:36.724Z</time>
      </trkpt>
      <trkpt lat="42.81341" lon="-0.10545">
        <ele>2056</ele>
        <time>2019-08-04T14:24:41.724Z</time>
      </trkpt>
      <trkpt lat="42.81341" lon="-0.10542">
        <ele>2055</ele>
        <time>2019-08-04T14:24:44.724Z</time>
      </trkpt>
      <trkpt lat="42.81342" lon="-0.10539">
        <ele>2054.2481840754</ele>
        <time>2019-08-04T14:24:47.724Z</time>
      </trkpt>
      <trkpt lat="42.81341" lon="-0.10536">
        <ele>2054</ele>
        <time>2019-08-04T14:24:51.724Z</time>
      </trkpt>
      <trkpt lat="42.81341" lon="-0.10533">
        <ele>2053</ele>
        <time>2019-08-04T14:24:54.724Z</time>
      </trkpt>
      <trkpt lat="42.8134" lon="-0.10531">
        <ele>2053</ele>
        <time>2019-08-04T14:24:57.724Z</time>
      </trkpt>
      <trkpt lat="42.8134" lon="-0.10527">
        <ele>2052</ele>
        <time>2019-08-04T14:25:00.724Z</time>
      </trkpt>
      <trkpt lat="42.81338" lon="-0.10525">
        <ele>2050</ele>
        <time>2019-08-04T14:25:03.724Z</time>
      </trkpt>
      <trkpt lat="42.81339" lon="-0.10522">
        <ele>2051</ele>
        <time>2019-08-04T14:25:07.724Z</time>
      </trkpt>
      <trkpt lat="42.81339" lon="-0.10519">
        <ele>2049</ele>
        <time>2019-08-04T14:25:11.724Z</time>
      </trkpt>
      <trkpt lat="42.81338" lon="-0.10517">
        <ele>2049</ele>
        <time>2019-08-04T14:25:14.724Z</time>
      </trkpt>
      <trkpt lat="42.81337" lon="-0.10514">
        <ele>2048.2935035574</ele>
        <time>2019-08-04T14:25:17.724Z</time>
      </trkpt>
      <trkpt lat="42.81339" lon="-0.10515">
        <ele>2046</ele>
        <time>2019-08-04T14:25:22.724Z</time>
      </trkpt>
      <trkpt lat="42.81341" lon="-0.10514">
        <ele>2045.2101956584</ele>
        <time>2019-08-04T14:25:25.724Z</time>
      </trkpt>
      <trkpt lat="42.81342" lon="-0.10512">
        <ele>2045</ele>
        <time>2019-08-04T14:25:30.724Z</time>
      </trkpt>
      <trkpt lat="42.81344" lon="-0.10513">
        <ele>2043.5366871098</ele>
        <time>2019-08-04T14:25:33.724Z</time>
      </trkpt>
      <trkpt lat="42.81346" lon="-0.10514">
        <ele>2042.3717736349</ele>
        <time>2019-08-04T14:25:36.724Z</time>
      </trkpt>
      <trkpt lat="42.81346" lon="-0.10511">
        <ele>2041</ele>
        <time>2019-08-04T14:25:43.724Z</time>
      </trkpt>
      <trkpt lat="42.81348" lon="-0.1051">
        <ele>2040</ele>
        <time>2019-08-04T14:25:48.724Z</time>
      </trkpt>
      <trkpt lat="42.8135" lon="-0.10511">
        <ele>2040</ele>
        <time>2019-08-04T14:25:52.724Z</time>
      </trkpt>
      <trkpt lat="42.81351" lon="-0.10508">
        <ele>2039</ele>
        <time>2019-08-04T14:25:57.724Z</time>
      </trkpt>
      <trkpt lat="42.81352" lon="-0.10507">
        <ele>2038</ele>
        <time>2019-08-04T14:26:02.724Z</time>
      </trkpt>
      <trkpt lat="42.81354" lon="-0.10506">
        <ele>2037.2463051852</ele>
        <time>2019-08-04T14:26:06.724Z</time>
      </trkpt>
      <trkpt lat="42.81355" lon="-0.10504">
        <ele>2036</ele>
        <time>2019-08-04T14:26:11.724Z</time>
      </trkpt>
      <trkpt lat="42.81355" lon="-0.10501">
        <ele>2035</ele>
        <time>2019-08-04T14:26:16.724Z</time>
      </trkpt>
      <trkpt lat="42.81355" lon="-0.10498">
        <ele>2034</ele>
        <time>2019-08-04T14:26:19.724Z</time>
      </trkpt>
      <trkpt lat="42.81357" lon="-0.10497">
        <ele>2033</ele>
        <time>2019-08-04T14:26:25.724Z</time>
      </trkpt>
      <trkpt lat="42.81358" lon="-0.10494">
        <ele>2031.4203412629</ele>
        <time>2019-08-04T14:26:30.724Z</time>
      </trkpt>
      <trkpt lat="42.8136" lon="-0.10495">
        <ele>2030.2252791714</ele>
        <time>2019-08-04T14:26:35.724Z</time>
      </trkpt>
      <trkpt lat="42.81362" lon="-0.10497">
        <ele>2030</ele>
        <time>2019-08-04T14:26:38.724Z</time>
      </trkpt>
      <trkpt lat="42.81363" lon="-0.10497">
        <ele>2030</ele>
        <time>2019-08-04T14:26:42.724Z</time>
      </trkpt>
      <trkpt lat="42.81365" lon="-0.10498">
        <ele>2029</ele>
        <time>2019-08-04T14:26:45.724Z</time>
      </trkpt>
      <trkpt lat="42.81365" lon="-0.10495">
        <ele>2028</ele>
        <time>2019-08-04T14:26:49.724Z</time>
      </trkpt>
      <trkpt lat="42.81366" lon="-0.10494">
        <ele>2027</ele>
        <time>2019-08-04T14:26:54.724Z</time>
      </trkpt>
      <trkpt lat="42.81369" lon="-0.10494">
        <ele>2026</ele>
        <time>2019-08-04T14:26:57.724Z</time>
      </trkpt>
      <trkpt lat="42.8137" lon="-0.10493">
        <ele>2025.3567499625</ele>
        <time>2019-08-04T14:27:01.724Z</time>
      </trkpt>
      <trkpt lat="42.8137" lon="-0.1049">
        <ele>2025</ele>
        <time>2019-08-04T14:27:05.724Z</time>
      </trkpt>
      <trkpt lat="42.81369" lon="-0.10487">
        <ele>2024</ele>
        <time>2019-08-04T14:27:10.724Z</time>
      </trkpt>
      <trkpt lat="42.81369" lon="-0.10485">
        <ele>2024</ele>
        <time>2019-08-04T14:27:14.724Z</time>
      </trkpt>
      <trkpt lat="42.81371" lon="-0.10485">
        <ele>2024</ele>
        <time>2019-08-04T14:27:21.724Z</time>
      </trkpt>
      <trkpt lat="42.81373" lon="-0.10485">
        <ele>2023</ele>
        <time>2019-08-04T14:27:24.724Z</time>
      </trkpt>
      <trkpt lat="42.81375" lon="-0.10486">
        <ele>2021</ele>
        <time>2019-08-04T14:27:27.724Z</time>
      </trkpt>
      <trkpt lat="42.81377" lon="-0.10485">
        <ele>2020</ele>
        <time>2019-08-04T14:27:32.724Z</time>
      </trkpt>
      <trkpt lat="42.81378" lon="-0.10484">
        <ele>2017.2672831457</ele>
        <time>2019-08-04T14:27:37.724Z</time>
      </trkpt>
      <trkpt lat="42.8138" lon="-0.10486">
        <ele>2017</ele>
        <time>2019-08-04T14:27:39.724Z</time>
      </trkpt>
      <trkpt lat="42.81382" lon="-0.10487">
        <ele>2016</ele>
        <time>2019-08-04T14:27:41.724Z</time>
      </trkpt>
      <trkpt lat="42.81383" lon="-0.10489">
        <ele>2016</ele>
        <time>2019-08-04T14:27:44.724Z</time>
      </trkpt>
      <trkpt lat="42.81386" lon="-0.1049">
        <ele>2016</ele>
        <time>2019-08-04T14:27:48.724Z</time>
      </trkpt>
      <trkpt lat="42.81387" lon="-0.1049">
        <ele>2014</ele>
        <time>2019-08-04T14:27:56.724Z</time>
      </trkpt>
      <trkpt lat="42.8139" lon="-0.10492">
        <ele>2014</ele>
        <time>2019-08-04T14:27:58.724Z</time>
      </trkpt>
      <trkpt lat="42.81393" lon="-0.10491">
        <ele>2014</ele>
        <time>2019-08-04T14:28:00.724Z</time>
      </trkpt>
      <trkpt lat="42.81395" lon="-0.1049">
        <ele>2014</ele>
        <time>2019-08-04T14:28:03.724Z</time>
      </trkpt>
      <trkpt lat="42.81395" lon="-0.10487">
        <ele>2012.2846896297</ele>
        <time>2019-08-04T14:28:12.724Z</time>
      </trkpt>
      <trkpt lat="42.81397" lon="-0.10487">
        <ele>2011</ele>
        <time>2019-08-04T14:28:17.724Z</time>
      </trkpt>
      <trkpt lat="42.814" lon="-0.10488">
        <ele>2010.2444444444</ele>
        <time>2019-08-04T14:28:20.724Z</time>
      </trkpt>
      <trkpt lat="42.81401" lon="-0.1049">
        <ele>2010</ele>
        <time>2019-08-04T14:28:22.724Z</time>
      </trkpt>
      <trkpt lat="42.81403" lon="-0.10492">
        <ele>2008</ele>
        <time>2019-08-04T14:28:25.724Z</time>
      </trkpt>
      <trkpt lat="42.81405" lon="-0.10494">
        <ele>2007</ele>
        <time>2019-08-04T14:28:29.724Z</time>
      </trkpt>
      <trkpt lat="42.81407" lon="-0.10494">
        <ele>2007</ele>
        <time>2019-08-04T14:28:32.724Z</time>
      </trkpt>
      <trkpt lat="42.81408" lon="-0.10494">
        <ele>2005</ele>
        <time>2019-08-04T14:28:55.724Z</time>
      </trkpt>
      <trkpt lat="42.8141" lon="-0.10493">
        <ele>2002</ele>
        <time>2019-08-04T14:29:03.724Z</time>
      </trkpt>
      <trkpt lat="42.81412" lon="-0.10493">
        <ele>2001.2733246103</ele>
        <time>2019-08-04T14:29:07.724Z</time>
      </trkpt>
      <trkpt lat="42.81413" lon="-0.1049">
        <ele>2000</ele>
        <time>2019-08-04T14:29:11.724Z</time>
      </trkpt>
      <trkpt lat="42.81415" lon="-0.1049">
        <ele>1999</ele>
        <time>2019-08-04T14:29:21.724Z</time>
      </trkpt>
      <trkpt lat="42.81417" lon="-0.10491">
        <ele>1997.5078885677</ele>
        <time>2019-08-04T14:29:24.724Z</time>
      </trkpt>
      <trkpt lat="42.81419" lon="-0.10489">
        <ele>1997</ele>
        <time>2019-08-04T14:29:34.724Z</time>
      </trkpt>
      <trkpt lat="42.81421" lon="-0.10489">
        <ele>1996</ele>
        <time>2019-08-04T14:29:40.724Z</time>
      </trkpt>
      <trkpt lat="42.81429" lon="-0.10495">
        <ele>1994</ele>
        <time>2019-08-04T14:30:23.712Z</time>
      </trkpt>
      <trkpt lat="42.81439" lon="-0.10499">
        <ele>1992</ele>
        <time>2019-08-04T14:30:42.712Z</time>
      </trkpt>
      <trkpt lat="42.81445" lon="-0.10508">
        <ele>1989</ele>
        <time>2019-08-04T14:31:10.711Z</time>
      </trkpt>
      <trkpt lat="42.81438" lon="-0.105">
        <ele>1990</ele>
        <time>2019-08-04T14:32:47.726Z</time>
      </trkpt>
      <trkpt lat="42.81447" lon="-0.10505">
        <ele>1987</ele>
        <time>2019-08-04T14:33:47.726Z</time>
      </trkpt>
      <trkpt lat="42.81456" lon="-0.10507">
        <ele>1984</ele>
        <time>2019-08-04T14:34:00.721Z</time>
      </trkpt>
      <trkpt lat="42.81463" lon="-0.10516">
        <ele>1980.1789952</ele>
        <time>2019-08-04T14:34:19.711Z</time>
      </trkpt>
      <trkpt lat="42.81472" lon="-0.10513">
        <ele>1974</ele>
        <time>2019-08-04T14:34:53.711Z</time>
      </trkpt>
      <trkpt lat="42.81479" lon="-0.10506">
        <ele>1969</ele>
        <time>2019-08-04T14:35:11.724Z</time>
      </trkpt>
      <trkpt lat="42.81487" lon="-0.10498">
        <ele>1960</ele>
        <time>2019-08-04T14:35:51.711Z</time>
      </trkpt>
      <trkpt lat="42.81496" lon="-0.10494">
        <ele>1956.2022690909</ele>
        <time>2019-08-04T14:36:11.712Z</time>
      </trkpt>
      <trkpt lat="42.81506" lon="-0.10492">
        <ele>1950.1845317428</ele>
        <time>2019-08-04T14:36:42.711Z</time>
      </trkpt>
      <trkpt lat="42.81516" lon="-0.10497">
        <ele>1946</ele>
        <time>2019-08-04T14:36:57.711Z</time>
      </trkpt>
      <trkpt lat="42.81522" lon="-0.10488">
        <ele>1944</ele>
        <time>2019-08-04T14:37:12.712Z</time>
      </trkpt>
      <trkpt lat="42.81527" lon="-0.10477">
        <ele>1937</ele>
        <time>2019-08-04T14:37:49.711Z</time>
      </trkpt>
      <trkpt lat="42.81534" lon="-0.10484">
        <ele>1932</ele>
        <time>2019-08-04T14:38:06.711Z</time>
      </trkpt>
      <trkpt lat="42.81544" lon="-0.10481">
        <ele>1928</ele>
        <time>2019-08-04T14:38:26.711Z</time>
      </trkpt>
      <trkpt lat="42.81553" lon="-0.10475">
        <ele>1921</ele>
        <time>2019-08-04T14:38:55.726Z</time>
      </trkpt>
      <trkpt lat="42.81563" lon="-0.10472">
        <ele>1917</ele>
        <time>2019-08-04T14:39:17.711Z</time>
      </trkpt>
      <trkpt lat="42.81572" lon="-0.10467">
        <ele>1912</ele>
        <time>2019-08-04T14:39:42.711Z</time>
      </trkpt>
      <trkpt lat="42.81581" lon="-0.10466">
        <ele>1908.2057027221</ele>
        <time>2019-08-04T14:40:01.724Z</time>
      </trkpt>
      <trkpt lat="42.8159" lon="-0.10461">
        <ele>1902</ele>
        <time>2019-08-04T14:40:31.711Z</time>
      </trkpt>
      <trkpt lat="42.81594" lon="-0.10451">
        <ele>1896</ele>
        <time>2019-08-04T14:41:05.712Z</time>
      </trkpt>
      <trkpt lat="42.81603" lon="-0.10445">
        <ele>1893.1797941663</ele>
        <time>2019-08-04T14:41:21.712Z</time>
      </trkpt>
      <trkpt lat="42.81611" lon="-0.10441">
        <ele>1888.8110055809</ele>
        <time>2019-08-04T14:41:46.711Z</time>
      </trkpt>
      <trkpt lat="42.81611" lon="-0.10427">
        <ele>1884</ele>
        <time>2019-08-04T14:42:17.727Z</time>
      </trkpt>
      <trkpt lat="42.81617" lon="-0.10418">
        <ele>1880.1779968</ele>
        <time>2019-08-04T14:42:37.712Z</time>
      </trkpt>
      <trkpt lat="42.81624" lon="-0.10411">
        <ele>1876</ele>
        <time>2019-08-04T14:42:56.712Z</time>
      </trkpt>
      <trkpt lat="42.81629" lon="-0.104">
        <ele>1869.1797941663</ele>
        <time>2019-08-04T14:43:23.712Z</time>
      </trkpt>
      <trkpt lat="42.81636" lon="-0.1039">
        <ele>1867</ele>
        <time>2019-08-04T14:43:42.712Z</time>
      </trkpt>
      <trkpt lat="42.8164" lon="-0.10379">
        <ele>1861</ele>
        <time>2019-08-04T14:44:15.682Z</time>
      </trkpt>
      <trkpt lat="42.81645" lon="-0.10368">
        <ele>1857</ele>
        <time>2019-08-04T14:44:35.712Z</time>
      </trkpt>
      <trkpt lat="42.81649" lon="-0.10357">
        <ele>1851</ele>
        <time>2019-08-04T14:45:01.682Z</time>
      </trkpt>
      <trkpt lat="42.81656" lon="-0.10348">
        <ele>1846.164641084</ele>
        <time>2019-08-04T14:45:23.727Z</time>
      </trkpt>
      <trkpt lat="42.81656" lon="-0.10335">
        <ele>1843.1833333333</ele>
        <time>2019-08-04T14:45:39.714Z</time>
      </trkpt>
      <trkpt lat="42.81662" lon="-0.10325">
        <ele>1838</ele>
        <time>2019-08-04T14:46:03.725Z</time>
      </trkpt>
      <trkpt lat="42.81663" lon="-0.10312">
        <ele>1833</ele>
        <time>2019-08-04T14:46:22.713Z</time>
      </trkpt>
      <trkpt lat="42.81667" lon="-0.10301">
        <ele>1828</ele>
        <time>2019-08-04T14:46:45.712Z</time>
      </trkpt>
      <trkpt lat="42.81675" lon="-0.10298">
        <ele>1823</ele>
        <time>2019-08-04T14:47:23.712Z</time>
      </trkpt>
      <trkpt lat="42.81686" lon="-0.10301">
        <ele>1822</ele>
        <time>2019-08-04T14:47:33.724Z</time>
      </trkpt>
      <trkpt lat="42.81678" lon="-0.10294">
        <ele>1823</ele>
        <time>2019-08-04T14:49:28.712Z</time>
      </trkpt>
      <trkpt lat="42.81684" lon="-0.10303">
        <ele>1823</ele>
        <time>2019-08-04T14:50:34.742Z</time>
      </trkpt>
      <trkpt lat="42.81681" lon="-0.10292">
        <ele>1818</ele>
        <time>2019-08-04T14:51:07.724Z</time>
      </trkpt>
      <trkpt lat="42.81683" lon="-0.10279">
        <ele>1810</ele>
        <time>2019-08-04T14:51:44.712Z</time>
      </trkpt>
      <trkpt lat="42.8169" lon="-0.10271">
        <ele>1805</ele>
        <time>2019-08-04T14:52:24.712Z</time>
      </trkpt>
      <trkpt lat="42.81699" lon="-0.1027">
        <ele>1799</ele>
        <time>2019-08-04T14:52:53.727Z</time>
      </trkpt>
      <trkpt lat="42.81697" lon="-0.10258">
        <ele>1797.1659904</ele>
        <time>2019-08-04T14:53:03.724Z</time>
      </trkpt>
      <trkpt lat="42.81704" lon="-0.10249">
        <ele>1788</ele>
        <time>2019-08-04T14:53:44.713Z</time>
      </trkpt>
      <trkpt lat="42.81708" lon="-0.10237">
        <ele>1784</ele>
        <time>2019-08-04T14:54:06.713Z</time>
      </trkpt>
      <trkpt lat="42.81712" lon="-0.10226">
        <ele>1777.2585592546</ele>
        <time>2019-08-04T14:54:32.713Z</time>
      </trkpt>
      <trkpt lat="42.81711" lon="-0.10214">
        <ele>1772.1784986787</ele>
        <time>2019-08-04T14:54:50.724Z</time>
      </trkpt>
      <trkpt lat="42.8172" lon="-0.10206">
        <ele>1767</ele>
        <time>2019-08-04T14:55:14.724Z</time>
      </trkpt>
      <trkpt lat="42.81723" lon="-0.10194">
        <ele>1764</ele>
        <time>2019-08-04T14:55:31.713Z</time>
      </trkpt>
      <trkpt lat="42.8173" lon="-0.10185">
        <ele>1755</ele>
        <time>2019-08-04T14:56:22.725Z</time>
      </trkpt>
      <trkpt lat="42.81728" lon="-0.10173">
        <ele>1751</ele>
        <time>2019-08-04T14:56:44.713Z</time>
      </trkpt>
      <trkpt lat="42.81731" lon="-0.10159">
        <ele>1747</ele>
        <time>2019-08-04T14:57:01.724Z</time>
      </trkpt>
      <trkpt lat="42.8174" lon="-0.10156">
        <ele>1741.1988753218</ele>
        <time>2019-08-04T14:57:27.713Z</time>
      </trkpt>
      <trkpt lat="42.81749" lon="-0.10151">
        <ele>1739</ele>
        <time>2019-08-04T14:57:42.713Z</time>
      </trkpt>
      <trkpt lat="42.81749" lon="-0.10139">
        <ele>1732.1806117917</ele>
        <time>2019-08-04T14:58:14.713Z</time>
      </trkpt>
      <trkpt lat="42.81756" lon="-0.10131">
        <ele>1730</ele>
        <time>2019-08-04T14:58:29.743Z</time>
      </trkpt>
      <trkpt lat="42.81757" lon="-0.10118">
        <ele>1726</ele>
        <time>2019-08-04T14:58:45.715Z</time>
      </trkpt>
      <trkpt lat="42.81761" lon="-0.10106">
        <ele>1721</ele>
        <time>2019-08-04T14:59:10.713Z</time>
      </trkpt>
      <trkpt lat="42.81771" lon="-0.10106">
        <ele>1719</ele>
        <time>2019-08-04T14:59:19.713Z</time>
      </trkpt>
      <trkpt lat="42.81779" lon="-0.101">
        <ele>1715</ele>
        <time>2019-08-04T14:59:41.723Z</time>
      </trkpt>
      <trkpt lat="42.81788" lon="-0.10096">
        <ele>1711.1988753218</ele>
        <time>2019-08-04T15:00:02.713Z</time>
      </trkpt>
      <trkpt lat="42.81791" lon="-0.10085">
        <ele>1708.1822933333</ele>
        <time>2019-08-04T15:00:18.715Z</time>
      </trkpt>
      <trkpt lat="42.81794" lon="-0.10072">
        <ele>1703</ele>
        <time>2019-08-04T15:00:49.714Z</time>
      </trkpt>
      <trkpt lat="42.81803" lon="-0.10074">
        <ele>1699.3835702857</ele>
        <time>2019-08-04T15:01:01.753Z</time>
      </trkpt>
      <trkpt lat="42.81811" lon="-0.10066">
        <ele>1697.2149393832</ele>
        <time>2019-08-04T15:01:14.713Z</time>
      </trkpt>
      <trkpt lat="42.8182" lon="-0.10069">
        <ele>1694</ele>
        <time>2019-08-04T15:01:27.715Z</time>
      </trkpt>
      <trkpt lat="42.81824" lon="-0.10058">
        <ele>1689.1844350893</ele>
        <time>2019-08-04T15:01:45.724Z</time>
      </trkpt>
      <trkpt lat="42.81831" lon="-0.10049">
        <ele>1685.2009718028</ele>
        <time>2019-08-04T15:02:08.713Z</time>
      </trkpt>
      <trkpt lat="42.81837" lon="-0.1004">
        <ele>1680</ele>
        <time>2019-08-04T15:02:33.713Z</time>
      </trkpt>
      <trkpt lat="42.81845" lon="-0.10033">
        <ele>1677</ele>
        <time>2019-08-04T15:02:50.713Z</time>
      </trkpt>
      <trkpt lat="42.81854" lon="-0.10032">
        <ele>1674</ele>
        <time>2019-08-04T15:03:05.713Z</time>
      </trkpt>
      <trkpt lat="42.81863" lon="-0.10028">
        <ele>1671</ele>
        <time>2019-08-04T15:03:20.713Z</time>
      </trkpt>
      <trkpt lat="42.81867" lon="-0.10017">
        <ele>1669</ele>
        <time>2019-08-04T15:03:34.684Z</time>
      </trkpt>
      <trkpt lat="42.81867" lon="-0.10005">
        <ele>1668</ele>
        <time>2019-08-04T15:03:46.714Z</time>
      </trkpt>
      <trkpt lat="42.81866" lon="-0.09992">
        <ele>1666</ele>
        <time>2019-08-04T15:03:59.715Z</time>
      </trkpt>
      <trkpt lat="42.81864" lon="-0.09979">
        <ele>1664</ele>
        <time>2019-08-04T15:04:11.740Z</time>
      </trkpt>
      <trkpt lat="42.8187" lon="-0.0997">
        <ele>1661</ele>
        <time>2019-08-04T15:04:28.714Z</time>
      </trkpt>
      <trkpt lat="42.81876" lon="-0.0996">
        <ele>1659</ele>
        <time>2019-08-04T15:04:44.711Z</time>
      </trkpt>
      <trkpt lat="42.81876" lon="-0.09947">
        <ele>1657</ele>
        <time>2019-08-04T15:04:57.720Z</time>
      </trkpt>
      <trkpt lat="42.81874" lon="-0.09935">
        <ele>1654</ele>
        <time>2019-08-04T15:05:09.684Z</time>
      </trkpt>
      <trkpt lat="42.81877" lon="-0.09923">
        <ele>1652</ele>
        <time>2019-08-04T15:05:20.714Z</time>
      </trkpt>
      <trkpt lat="42.8188" lon="-0.09912">
        <ele>1649</ele>
        <time>2019-08-04T15:05:36.710Z</time>
      </trkpt>
      <trkpt lat="42.81883" lon="-0.09899">
        <ele>1645</ele>
        <time>2019-08-04T15:05:50.685Z</time>
      </trkpt>
      <trkpt lat="42.81883" lon="-0.09887">
        <ele>1644</ele>
        <time>2019-08-04T15:06:03.715Z</time>
      </trkpt>
      <trkpt lat="42.81879" lon="-0.09874">
        <ele>1641.2552687423</ele>
        <time>2019-08-04T15:06:15.739Z</time>
      </trkpt>
      <trkpt lat="42.8188" lon="-0.09862">
        <ele>1638</ele>
        <time>2019-08-04T15:06:34.714Z</time>
      </trkpt>
      <trkpt lat="42.81877" lon="-0.0985">
        <ele>1635</ele>
        <time>2019-08-04T15:06:51.716Z</time>
      </trkpt>
      <trkpt lat="42.81874" lon="-0.09838">
        <ele>1633</ele>
        <time>2019-08-04T15:07:02.750Z</time>
      </trkpt>
      <trkpt lat="42.81876" lon="-0.09825">
        <ele>1633</ele>
        <time>2019-08-04T15:07:11.711Z</time>
      </trkpt>
      <trkpt lat="42.81885" lon="-0.09821">
        <ele>1631</ele>
        <time>2019-08-04T15:07:23.710Z</time>
      </trkpt>
      <trkpt lat="42.81895" lon="-0.09818">
        <ele>1626</ele>
        <time>2019-08-04T15:07:50.724Z</time>
      </trkpt>
      <trkpt lat="42.81905" lon="-0.09822">
        <ele>1626</ele>
        <time>2019-08-04T15:07:57.710Z</time>
      </trkpt>
      <trkpt lat="42.81897" lon="-0.09815">
        <ele>1624</ele>
        <time>2019-08-04T15:09:45.714Z</time>
      </trkpt>
      <trkpt lat="42.81905" lon="-0.09807">
        <ele>1624.2409062347</ele>
        <time>2019-08-04T15:10:46.725Z</time>
      </trkpt>
      <trkpt lat="42.81914" lon="-0.09815">
        <ele>1623.1660032</ele>
        <time>2019-08-04T15:10:54.724Z</time>
      </trkpt>
      <trkpt lat="42.81922" lon="-0.09821">
        <ele>1624</ele>
        <time>2019-08-04T15:10:59.714Z</time>
      </trkpt>
      <trkpt lat="42.81931" lon="-0.09821">
        <ele>1624</ele>
        <time>2019-08-04T15:11:08.723Z</time>
      </trkpt>
      <trkpt lat="42.8194" lon="-0.09824">
        <ele>1623</ele>
        <time>2019-08-04T15:11:15.714Z</time>
      </trkpt>
      <trkpt lat="42.81948" lon="-0.0983">
        <ele>1623</ele>
        <time>2019-08-04T15:11:24.724Z</time>
      </trkpt>
      <trkpt lat="42.81957" lon="-0.09827">
        <ele>1624</ele>
        <time>2019-08-04T15:11:33.724Z</time>
      </trkpt>
      <trkpt lat="42.81969" lon="-0.09822">
        <ele>1624</ele>
        <time>2019-08-04T15:11:46.724Z</time>
      </trkpt>
      <trkpt lat="42.81977" lon="-0.09815">
        <ele>1623</ele>
        <time>2019-08-04T15:11:52.714Z</time>
      </trkpt>
      <trkpt lat="42.81987" lon="-0.09814">
        <ele>1621</ele>
        <time>2019-08-04T15:12:10.724Z</time>
      </trkpt>
      <trkpt lat="42.81996" lon="-0.09812">
        <ele>1620</ele>
        <time>2019-08-04T15:12:21.714Z</time>
      </trkpt>
      <trkpt lat="42.82001" lon="-0.09801">
        <ele>1617</ele>
        <time>2019-08-04T15:12:39.714Z</time>
      </trkpt>
      <trkpt lat="42.8201" lon="-0.098">
        <ele>1615</ele>
        <time>2019-08-04T15:12:49.721Z</time>
      </trkpt>
      <trkpt lat="42.82018" lon="-0.09792">
        <ele>1614</ele>
        <time>2019-08-04T15:13:01.712Z</time>
      </trkpt>
      <trkpt lat="42.82026" lon="-0.09788">
        <ele>1613</ele>
        <time>2019-08-04T15:13:17.711Z</time>
      </trkpt>
      <trkpt lat="42.82036" lon="-0.09784">
        <ele>1610</ele>
        <time>2019-08-04T15:13:31.715Z</time>
      </trkpt>
      <trkpt lat="42.82045" lon="-0.09787">
        <ele>1610</ele>
        <time>2019-08-04T15:13:41.711Z</time>
      </trkpt>
      <trkpt lat="42.82055" lon="-0.09788">
        <ele>1608</ele>
        <time>2019-08-04T15:13:57.712Z</time>
      </trkpt>
      <trkpt lat="42.82064" lon="-0.09784">
        <ele>1608</ele>
        <time>2019-08-04T15:14:09.722Z</time>
      </trkpt>
      <trkpt lat="42.82072" lon="-0.0979">
        <ele>1606</ele>
        <time>2019-08-04T15:14:19.753Z</time>
      </trkpt>
      <trkpt lat="42.82082" lon="-0.09793">
        <ele>1605</ele>
        <time>2019-08-04T15:14:32.714Z</time>
      </trkpt>
      <trkpt lat="42.82091" lon="-0.09789">
        <ele>1605</ele>
        <time>2019-08-04T15:14:43.711Z</time>
      </trkpt>
      <trkpt lat="42.821" lon="-0.09791">
        <ele>1604</ele>
        <time>2019-08-04T15:14:53.713Z</time>
      </trkpt>
      <trkpt lat="42.8211" lon="-0.09796">
        <ele>1603</ele>
        <time>2019-08-04T15:15:01.681Z</time>
      </trkpt>
      <trkpt lat="42.82119" lon="-0.09794">
        <ele>1602.1824731793</ele>
        <time>2019-08-04T15:15:10.713Z</time>
      </trkpt>
      <trkpt lat="42.82124" lon="-0.09782">
        <ele>1602</ele>
        <time>2019-08-04T15:15:21.715Z</time>
      </trkpt>
      <trkpt lat="42.82134" lon="-0.09777">
        <ele>1600</ele>
        <time>2019-08-04T15:15:34.721Z</time>
      </trkpt>
      <trkpt lat="42.82144" lon="-0.09782">
        <ele>1599.1851546758</ele>
        <time>2019-08-04T15:15:43.713Z</time>
      </trkpt>
      <trkpt lat="42.82152" lon="-0.09777">
        <ele>1598</ele>
        <time>2019-08-04T15:15:58.714Z</time>
      </trkpt>
      <trkpt lat="42.82161" lon="-0.09778">
        <ele>1597</ele>
        <time>2019-08-04T15:16:07.711Z</time>
      </trkpt>
      <trkpt lat="42.8217" lon="-0.09773">
        <ele>1597</ele>
        <time>2019-08-04T15:16:15.684Z</time>
      </trkpt>
      <trkpt lat="42.8218" lon="-0.0977">
        <ele>1596</ele>
        <time>2019-08-04T15:16:24.726Z</time>
      </trkpt>
      <trkpt lat="42.82186" lon="-0.0976">
        <ele>1594.3784454792</ele>
        <time>2019-08-04T15:16:32.741Z</time>
      </trkpt>
      <trkpt lat="42.82191" lon="-0.09749">
        <ele>1593</ele>
        <time>2019-08-04T15:16:41.712Z</time>
      </trkpt>
      <trkpt lat="42.822" lon="-0.09745">
        <ele>1592</ele>
        <time>2019-08-04T15:16:53.713Z</time>
      </trkpt>
      <trkpt lat="42.82209" lon="-0.09738">
        <ele>1591</ele>
        <time>2019-08-04T15:17:02.714Z</time>
      </trkpt>
      <trkpt lat="42.82217" lon="-0.09731">
        <ele>1590</ele>
        <time>2019-08-04T15:17:11.684Z</time>
      </trkpt>
      <trkpt lat="42.82223" lon="-0.09723">
        <ele>1589</ele>
        <time>2019-08-04T15:17:19.724Z</time>
      </trkpt>
      <trkpt lat="42.82233" lon="-0.09721">
        <ele>1588</ele>
        <time>2019-08-04T15:17:27.711Z</time>
      </trkpt>
      <trkpt lat="42.82243" lon="-0.09718">
        <ele>1586</ele>
        <time>2019-08-04T15:17:40.713Z</time>
      </trkpt>
      <trkpt lat="42.82252" lon="-0.09716">
        <ele>1585</ele>
        <time>2019-08-04T15:17:54.724Z</time>
      </trkpt>
      <trkpt lat="42.82262" lon="-0.09718">
        <ele>1585</ele>
        <time>2019-08-04T15:18:04.726Z</time>
      </trkpt>
      <trkpt lat="42.82271" lon="-0.09716">
        <ele>1585</ele>
        <time>2019-08-04T15:18:11.711Z</time>
      </trkpt>
      <trkpt lat="42.82282" lon="-0.09715">
        <ele>1584</ele>
        <time>2019-08-04T15:18:20.711Z</time>
      </trkpt>
      <trkpt lat="42.82291" lon="-0.09714">
        <ele>1583</ele>
        <time>2019-08-04T15:18:30.715Z</time>
      </trkpt>
      <trkpt lat="42.82299" lon="-0.09709">
        <ele>1582</ele>
        <time>2019-08-04T15:18:41.714Z</time>
      </trkpt>
      <trkpt lat="42.82309" lon="-0.09711">
        <ele>1580</ele>
        <time>2019-08-04T15:18:51.714Z</time>
      </trkpt>
      <trkpt lat="42.8232" lon="-0.09714">
        <ele>1581</ele>
        <time>2019-08-04T15:19:00.681Z</time>
      </trkpt>
      <trkpt lat="42.82329" lon="-0.09714">
        <ele>1580</ele>
        <time>2019-08-04T15:19:10.712Z</time>
      </trkpt>
      <trkpt lat="42.82336" lon="-0.09704">
        <ele>1581</ele>
        <time>2019-08-04T15:19:29.724Z</time>
      </trkpt>
      <trkpt lat="42.82344" lon="-0.09698">
        <ele>1579</ele>
        <time>2019-08-04T15:19:40.712Z</time>
      </trkpt>
      <trkpt lat="42.82351" lon="-0.0969">
        <ele>1579</ele>
        <time>2019-08-04T15:19:51.714Z</time>
      </trkpt>
      <trkpt lat="42.82359" lon="-0.09684">
        <ele>1579</ele>
        <time>2019-08-04T15:19:59.727Z</time>
      </trkpt>
      <trkpt lat="42.82367" lon="-0.09676">
        <ele>1577</ele>
        <time>2019-08-04T15:20:10.711Z</time>
      </trkpt>
      <trkpt lat="42.82373" lon="-0.09666">
        <ele>1577</ele>
        <time>2019-08-04T15:20:18.711Z</time>
      </trkpt>
      <trkpt lat="42.8238" lon="-0.09659">
        <ele>1576.1871316867</ele>
        <time>2019-08-04T15:20:31.711Z</time>
      </trkpt>
      <trkpt lat="42.82383" lon="-0.09647">
        <ele>1575</ele>
        <time>2019-08-04T15:20:44.722Z</time>
      </trkpt>
      <trkpt lat="42.82385" lon="-0.09633">
        <ele>1574</ele>
        <time>2019-08-04T15:20:55.714Z</time>
      </trkpt>
      <trkpt lat="42.82393" lon="-0.09627">
        <ele>1574</ele>
        <time>2019-08-04T15:21:07.712Z</time>
      </trkpt>
      <trkpt lat="42.82403" lon="-0.09627">
        <ele>1574</ele>
        <time>2019-08-04T15:21:16.713Z</time>
      </trkpt>
      <trkpt lat="42.82412" lon="-0.09628">
        <ele>1573</ele>
        <time>2019-08-04T15:21:24.725Z</time>
      </trkpt>
      <trkpt lat="42.82421" lon="-0.09626">
        <ele>1572.1789952</ele>
        <time>2019-08-04T15:21:33.711Z</time>
      </trkpt>
      <trkpt lat="42.8243" lon="-0.09623">
        <ele>1571.8210048</ele>
        <time>2019-08-04T15:21:41.711Z</time>
      </trkpt>
      <trkpt lat="42.8244" lon="-0.09625">
        <ele>1572</ele>
        <time>2019-08-04T15:21:52.713Z</time>
      </trkpt>
      <trkpt lat="42.8245" lon="-0.09621">
        <ele>1571</ele>
        <time>2019-08-04T15:22:02.711Z</time>
      </trkpt>
      <trkpt lat="42.82459" lon="-0.09617">
        <ele>1571</ele>
        <time>2019-08-04T15:22:14.755Z</time>
      </trkpt>
      <trkpt lat="42.82467" lon="-0.09613">
        <ele>1571</ele>
        <time>2019-08-04T15:22:25.712Z</time>
      </trkpt>
      <trkpt lat="42.82478" lon="-0.09613">
        <ele>1569</ele>
        <time>2019-08-04T15:22:39.724Z</time>
      </trkpt>
      <trkpt lat="42.82488" lon="-0.09614">
        <ele>1570</ele>
        <time>2019-08-04T15:22:47.724Z</time>
      </trkpt>
      <trkpt lat="42.82496" lon="-0.0962">
        <ele>1569</ele>
        <time>2019-08-04T15:22:55.724Z</time>
      </trkpt>
      <trkpt lat="42.82505" lon="-0.09623">
        <ele>1568</ele>
        <time>2019-08-04T15:23:05.724Z</time>
      </trkpt>
      <trkpt lat="42.82517" lon="-0.09623">
        <ele>1568</ele>
        <time>2019-08-04T15:23:21.710Z</time>
      </trkpt>
      <trkpt lat="42.82526" lon="-0.09619">
        <ele>1568</ele>
        <time>2019-08-04T15:23:30.724Z</time>
      </trkpt>
      <trkpt lat="42.82535" lon="-0.09616">
        <ele>1568</ele>
        <time>2019-08-04T15:23:40.715Z</time>
      </trkpt>
      <trkpt lat="42.82544" lon="-0.09616">
        <ele>1568</ele>
        <time>2019-08-04T15:23:51.711Z</time>
      </trkpt>
      <trkpt lat="42.82554" lon="-0.09618">
        <ele>1569</ele>
        <time>2019-08-04T15:24:01.711Z</time>
      </trkpt>
      <trkpt lat="42.82563" lon="-0.09623">
        <ele>1569</ele>
        <time>2019-08-04T15:24:10.715Z</time>
      </trkpt>
      <trkpt lat="42.82572" lon="-0.09623">
        <ele>1569</ele>
        <time>2019-08-04T15:24:18.713Z</time>
      </trkpt>
      <trkpt lat="42.82581" lon="-0.09627">
        <ele>1569</ele>
        <time>2019-08-04T15:24:29.710Z</time>
      </trkpt>
      <trkpt lat="42.8259" lon="-0.09626">
        <ele>1568</ele>
        <time>2019-08-04T15:24:36.711Z</time>
      </trkpt>
      <trkpt lat="42.82599" lon="-0.09625">
        <ele>1568</ele>
        <time>2019-08-04T15:24:45.711Z</time>
      </trkpt>
      <trkpt lat="42.82608" lon="-0.09623">
        <ele>1568</ele>
        <time>2019-08-04T15:24:53.711Z</time>
      </trkpt>
      <trkpt lat="42.82617" lon="-0.09621">
        <ele>1567</ele>
        <time>2019-08-04T15:25:03.711Z</time>
      </trkpt>
      <trkpt lat="42.82626" lon="-0.09623">
        <ele>1567</ele>
        <time>2019-08-04T15:25:11.711Z</time>
      </trkpt>
      <trkpt lat="42.82636" lon="-0.0962">
        <ele>1566</ele>
        <time>2019-08-04T15:25:22.721Z</time>
      </trkpt>
      <trkpt lat="42.82645" lon="-0.09615">
        <ele>1566</ele>
        <time>2019-08-04T15:25:30.715Z</time>
      </trkpt>
      <trkpt lat="42.82652" lon="-0.09606">
        <ele>1565</ele>
        <time>2019-08-04T15:25:38.711Z</time>
      </trkpt>
      <trkpt lat="42.82662" lon="-0.09603">
        <ele>1564</ele>
        <time>2019-08-04T15:25:48.711Z</time>
      </trkpt>
      <trkpt lat="42.8267" lon="-0.09598">
        <ele>1564</ele>
        <time>2019-08-04T15:25:57.727Z</time>
      </trkpt>
      <trkpt lat="42.82679" lon="-0.09594">
        <ele>1564</ele>
        <time>2019-08-04T15:26:05.713Z</time>
      </trkpt>
      <trkpt lat="42.82685" lon="-0.09584">
        <ele>1563</ele>
        <time>2019-08-04T15:26:13.710Z</time>
      </trkpt>
      <trkpt lat="42.82691" lon="-0.09575">
        <ele>1562.1750016</ele>
        <time>2019-08-04T15:26:25.715Z</time>
      </trkpt>
      <trkpt lat="42.82698" lon="-0.09567">
        <ele>1560</ele>
        <time>2019-08-04T15:26:40.740Z</time>
      </trkpt>
      <trkpt lat="42.82707" lon="-0.09566">
        <ele>1559</ele>
        <time>2019-08-04T15:26:58.712Z</time>
      </trkpt>
      <trkpt lat="42.82717" lon="-0.09564">
        <ele>1558</ele>
        <time>2019-08-04T15:27:08.724Z</time>
      </trkpt>
      <trkpt lat="42.82727" lon="-0.0957">
        <ele>1558</ele>
        <time>2019-08-04T15:27:18.724Z</time>
      </trkpt>
      <trkpt lat="42.82736" lon="-0.09573">
        <ele>1557</ele>
        <time>2019-08-04T15:27:26.724Z</time>
      </trkpt>
      <trkpt lat="42.82745" lon="-0.09575">
        <ele>1556</ele>
        <time>2019-08-04T15:27:36.853Z</time>
      </trkpt>
      <trkpt lat="42.82755" lon="-0.09578">
        <ele>1556</ele>
        <time>2019-08-04T15:27:40.723Z</time>
      </trkpt>
      <trkpt lat="42.82762" lon="-0.09588">
        <ele>1555</ele>
        <time>2019-08-04T15:27:49.724Z</time>
      </trkpt>
      <trkpt lat="42.82775" lon="-0.09592">
        <ele>1554</ele>
        <time>2019-08-04T15:27:57.724Z</time>
      </trkpt>
      <trkpt lat="42.82785" lon="-0.09591">
        <ele>1553</ele>
        <time>2019-08-04T15:28:03.724Z</time>
      </trkpt>
      <trkpt lat="42.82791" lon="-0.096">
        <ele>1552</ele>
        <time>2019-08-04T15:28:16.724Z</time>
      </trkpt>
      <trkpt lat="42.828" lon="-0.09611">
        <ele>1551</ele>
        <time>2019-08-04T15:28:23.724Z</time>
      </trkpt>
      <trkpt lat="42.82809" lon="-0.09606">
        <ele>1551</ele>
        <time>2019-08-04T15:28:38.724Z</time>
      </trkpt>
      <trkpt lat="42.82818" lon="-0.09608">
        <ele>1551</ele>
        <time>2019-08-04T15:28:48.724Z</time>
      </trkpt>
      <trkpt lat="42.82827" lon="-0.09611">
        <ele>1551</ele>
        <time>2019-08-04T15:28:55.724Z</time>
      </trkpt>
      <trkpt lat="42.82835" lon="-0.09621">
        <ele>1548.3747530105</ele>
        <time>2019-08-04T15:29:04.727Z</time>
      </trkpt>
      <trkpt lat="42.82846" lon="-0.09624">
        <ele>1548</ele>
        <time>2019-08-04T15:29:14.724Z</time>
      </trkpt>
      <trkpt lat="42.82854" lon="-0.0963">
        <ele>1547</ele>
        <time>2019-08-04T15:29:25.724Z</time>
      </trkpt>
      <trkpt lat="42.82863" lon="-0.09633">
        <ele>1546</ele>
        <time>2019-08-04T15:29:33.724Z</time>
      </trkpt>
      <trkpt lat="42.8287" lon="-0.09643">
        <ele>1546</ele>
        <time>2019-08-04T15:29:39.713Z</time>
      </trkpt>
      <trkpt lat="42.82877" lon="-0.09651">
        <ele>1544</ele>
        <time>2019-08-04T15:29:49.713Z</time>
      </trkpt>
      <trkpt lat="42.82886" lon="-0.09655">
        <ele>1544</ele>
        <time>2019-08-04T15:29:57.713Z</time>
      </trkpt>
      <trkpt lat="42.82897" lon="-0.09652">
        <ele>1544</ele>
        <time>2019-08-04T15:30:02.713Z</time>
      </trkpt>
      <trkpt lat="42.82906" lon="-0.0965">
        <ele>1544</ele>
        <time>2019-08-04T15:30:14.713Z</time>
      </trkpt>
      <trkpt lat="42.82915" lon="-0.09645">
        <ele>1544</ele>
        <time>2019-08-04T15:30:23.713Z</time>
      </trkpt>
      <trkpt lat="42.82924" lon="-0.0965">
        <ele>1543.1769984</ele>
        <time>2019-08-04T15:30:37.713Z</time>
      </trkpt>
      <trkpt lat="42.82934" lon="-0.09651">
        <ele>1543</ele>
        <time>2019-08-04T15:30:46.714Z</time>
      </trkpt>
      <trkpt lat="42.82943" lon="-0.09647">
        <ele>1543</ele>
        <time>2019-08-04T15:30:55.726Z</time>
      </trkpt>
      <trkpt lat="42.82952" lon="-0.09647">
        <ele>1542</ele>
        <time>2019-08-04T15:31:04.713Z</time>
      </trkpt>
      <trkpt lat="42.82962" lon="-0.09646">
        <ele>1541</ele>
        <time>2019-08-04T15:31:12.713Z</time>
      </trkpt>
      <trkpt lat="42.82972" lon="-0.09643">
        <ele>1541</ele>
        <time>2019-08-04T15:31:21.713Z</time>
      </trkpt>
      <trkpt lat="42.82979" lon="-0.09651">
        <ele>1540</ele>
        <time>2019-08-04T15:31:35.723Z</time>
      </trkpt>
      <trkpt lat="42.82989" lon="-0.09653">
        <ele>1539</ele>
        <time>2019-08-04T15:31:45.724Z</time>
      </trkpt>
      <trkpt lat="42.82998" lon="-0.09654">
        <ele>1539</ele>
        <time>2019-08-04T15:31:51.723Z</time>
      </trkpt>
      <trkpt lat="42.83008" lon="-0.09657">
        <ele>1539</ele>
        <time>2019-08-04T15:32:02.710Z</time>
      </trkpt>
      <trkpt lat="42.83016" lon="-0.09651">
        <ele>1538</ele>
        <time>2019-08-04T15:32:11.725Z</time>
      </trkpt>
      <trkpt lat="42.83019" lon="-0.09639">
        <ele>1540</ele>
        <time>2019-08-04T15:32:22.742Z</time>
      </trkpt>
      <trkpt lat="42.83028" lon="-0.09635">
        <ele>1540</ele>
        <time>2019-08-04T15:32:33.711Z</time>
      </trkpt>
      <trkpt lat="42.83037" lon="-0.09631">
        <ele>1540</ele>
        <time>2019-08-04T15:32:43.710Z</time>
      </trkpt>
      <trkpt lat="42.83045" lon="-0.09624">
        <ele>1539</ele>
        <time>2019-08-04T15:32:53.713Z</time>
      </trkpt>
      <trkpt lat="42.83055" lon="-0.09624">
        <ele>1539</ele>
        <time>2019-08-04T15:33:00.740Z</time>
      </trkpt>
      <trkpt lat="42.83064" lon="-0.0962">
        <ele>1539</ele>
        <time>2019-08-04T15:33:09.713Z</time>
      </trkpt>
      <trkpt lat="42.83073" lon="-0.0962">
        <ele>1538</ele>
        <time>2019-08-04T15:33:19.742Z</time>
      </trkpt>
      <trkpt lat="42.83081" lon="-0.09612">
        <ele>1538</ele>
        <time>2019-08-04T15:33:27.724Z</time>
      </trkpt>
      <trkpt lat="42.83089" lon="-0.09608">
        <ele>1538</ele>
        <time>2019-08-04T15:33:36.712Z</time>
      </trkpt>
      <trkpt lat="42.83099" lon="-0.09604">
        <ele>1536.7691580735</ele>
        <time>2019-08-04T15:33:43.713Z</time>
      </trkpt>
      <trkpt lat="42.83111" lon="-0.09603">
        <ele>1537</ele>
        <time>2019-08-04T15:33:50.723Z</time>
      </trkpt>
      <trkpt lat="42.83121" lon="-0.096">
        <ele>1536</ele>
        <time>2019-08-04T15:34:03.723Z</time>
      </trkpt>
      <trkpt lat="42.83131" lon="-0.09596">
        <ele>1536</ele>
        <time>2019-08-04T15:34:10.724Z</time>
      </trkpt>
      <trkpt lat="42.83138" lon="-0.09588">
        <ele>1536</ele>
        <time>2019-08-04T15:34:17.724Z</time>
      </trkpt>
      <trkpt lat="42.83146" lon="-0.09581">
        <ele>1535</ele>
        <time>2019-08-04T15:34:26.724Z</time>
      </trkpt>
      <trkpt lat="42.83155" lon="-0.09577">
        <ele>1532</ele>
        <time>2019-08-04T15:34:36.683Z</time>
      </trkpt>
      <trkpt lat="42.83165" lon="-0.09577">
        <ele>1531</ele>
        <time>2019-08-04T15:34:46.713Z</time>
      </trkpt>
      <trkpt lat="42.83175" lon="-0.09574">
        <ele>1528</ele>
        <time>2019-08-04T15:34:58.724Z</time>
      </trkpt>
      <trkpt lat="42.83185" lon="-0.09574">
        <ele>1527</ele>
        <time>2019-08-04T15:35:09.724Z</time>
      </trkpt>
      <trkpt lat="42.83195" lon="-0.09573">
        <ele>1525.2152478941</ele>
        <time>2019-08-04T15:35:18.724Z</time>
      </trkpt>
      <trkpt lat="42.83203" lon="-0.0957">
        <ele>1524</ele>
        <time>2019-08-04T15:35:25.724Z</time>
      </trkpt>
      <trkpt lat="42.83216" lon="-0.09567">
        <ele>1523</ele>
        <time>2019-08-04T15:35:31.724Z</time>
      </trkpt>
      <trkpt lat="42.83224" lon="-0.09573">
        <ele>1522</ele>
        <time>2019-08-04T15:35:45.724Z</time>
      </trkpt>
      <trkpt lat="42.83234" lon="-0.09574">
        <ele>1518</ele>
        <time>2019-08-04T15:36:00.724Z</time>
      </trkpt>
      <trkpt lat="42.83245" lon="-0.0958">
        <ele>1516</ele>
        <time>2019-08-04T15:36:11.724Z</time>
      </trkpt>
      <trkpt lat="42.83251" lon="-0.09589">
        <ele>1514.1660032</ele>
        <time>2019-08-04T15:36:20.724Z</time>
      </trkpt>
      <trkpt lat="42.83261" lon="-0.09591">
        <ele>1513.2287051852</ele>
        <time>2019-08-04T15:36:24.723Z</time>
      </trkpt>
      <trkpt lat="42.83261" lon="-0.09606">
        <ele>1510.1882974522</ele>
        <time>2019-08-04T15:36:35.713Z</time>
      </trkpt>
      <trkpt lat="42.83271" lon="-0.09606">
        <ele>1508</ele>
        <time>2019-08-04T15:36:46.713Z</time>
      </trkpt>
      <trkpt lat="42.83281" lon="-0.09603">
        <ele>1508</ele>
        <time>2019-08-04T15:36:52.713Z</time>
      </trkpt>
      <trkpt lat="42.83292" lon="-0.09601">
        <ele>1508</ele>
        <time>2019-08-04T15:36:57.713Z</time>
      </trkpt>
      <trkpt lat="42.833" lon="-0.09594">
        <ele>1507</ele>
        <time>2019-08-04T15:37:09.723Z</time>
      </trkpt>
      <trkpt lat="42.83309" lon="-0.09595">
        <ele>1507</ele>
        <time>2019-08-04T15:37:18.713Z</time>
      </trkpt>
      <trkpt lat="42.83318" lon="-0.09597">
        <ele>1506</ele>
        <time>2019-08-04T15:37:30.713Z</time>
      </trkpt>
      <trkpt lat="42.83328" lon="-0.09599">
        <ele>1506</ele>
        <time>2019-08-04T15:37:37.713Z</time>
      </trkpt>
      <trkpt lat="42.83337" lon="-0.09597">
        <ele>1505</ele>
        <time>2019-08-04T15:37:42.713Z</time>
      </trkpt>
      <trkpt lat="42.83344" lon="-0.09588">
        <ele>1505</ele>
        <time>2019-08-04T15:37:52.712Z</time>
      </trkpt>
      <trkpt lat="42.83353" lon="-0.09584">
        <ele>1504</ele>
        <time>2019-08-04T15:38:02.711Z</time>
      </trkpt>
      <trkpt lat="42.83362" lon="-0.09587">
        <ele>1504</ele>
        <time>2019-08-04T15:38:12.713Z</time>
      </trkpt>
      <trkpt lat="42.83371" lon="-0.0959">
        <ele>1503</ele>
        <time>2019-08-04T15:38:20.713Z</time>
      </trkpt>
      <trkpt lat="42.8338" lon="-0.09595">
        <ele>1503</ele>
        <time>2019-08-04T15:38:28.713Z</time>
      </trkpt>
      <trkpt lat="42.83388" lon="-0.09599">
        <ele>1503</ele>
        <time>2019-08-04T15:38:35.713Z</time>
      </trkpt>
      <trkpt lat="42.83398" lon="-0.096">
        <ele>1502</ele>
        <time>2019-08-04T15:38:42.752Z</time>
      </trkpt>
      <trkpt lat="42.83406" lon="-0.09608">
        <ele>1502</ele>
        <time>2019-08-04T15:38:49.724Z</time>
      </trkpt>
      <trkpt lat="42.83417" lon="-0.09609">
        <ele>1501.6634094563</ele>
        <time>2019-08-04T15:39:02.724Z</time>
      </trkpt>
      <trkpt lat="42.83426" lon="-0.09606">
        <ele>1502</ele>
        <time>2019-08-04T15:39:09.723Z</time>
      </trkpt>
      <trkpt lat="42.83435" lon="-0.09605">
        <ele>1502</ele>
        <time>2019-08-04T15:39:18.713Z</time>
      </trkpt>
      <trkpt lat="42.83444" lon="-0.09609">
        <ele>1502</ele>
        <time>2019-08-04T15:39:24.723Z</time>
      </trkpt>
      <trkpt lat="42.83451" lon="-0.09616">
        <ele>1501</ele>
        <time>2019-08-04T15:39:33.713Z</time>
      </trkpt>
      <trkpt lat="42.8346" lon="-0.09619">
        <ele>1501</ele>
        <time>2019-08-04T15:39:44.723Z</time>
      </trkpt>
      <trkpt lat="42.83469" lon="-0.09623">
        <ele>1500.824</ele>
        <time>2019-08-04T15:39:52.714Z</time>
      </trkpt>
      <trkpt lat="42.83476" lon="-0.09633">
        <ele>1500</ele>
        <time>2019-08-04T15:40:02.724Z</time>
      </trkpt>
      <trkpt lat="42.83486" lon="-0.09636">
        <ele>1499</ele>
        <time>2019-08-04T15:40:13.713Z</time>
      </trkpt>
      <trkpt lat="42.83495" lon="-0.09642">
        <ele>1498</ele>
        <time>2019-08-04T15:40:23.713Z</time>
      </trkpt>
      <trkpt lat="42.83504" lon="-0.09644">
        <ele>1497</ele>
        <time>2019-08-04T15:40:30.711Z</time>
      </trkpt>
      <trkpt lat="42.83514" lon="-0.09646">
        <ele>1497</ele>
        <time>2019-08-04T15:40:41.713Z</time>
      </trkpt>
      <trkpt lat="42.83524" lon="-0.09648">
        <ele>1497</ele>
        <time>2019-08-04T15:40:47.712Z</time>
      </trkpt>
      <trkpt lat="42.83533" lon="-0.09653">
        <ele>1496</ele>
        <time>2019-08-04T15:40:56.683Z</time>
      </trkpt>
      <trkpt lat="42.83538" lon="-0.09669">
        <ele>1496</ele>
        <time>2019-08-04T15:41:07.724Z</time>
      </trkpt>
      <trkpt lat="42.83546" lon="-0.09676">
        <ele>1494</ele>
        <time>2019-08-04T15:41:16.724Z</time>
      </trkpt>
      <trkpt lat="42.83557" lon="-0.09678">
        <ele>1494</ele>
        <time>2019-08-04T15:41:23.724Z</time>
      </trkpt>
      <trkpt lat="42.83566" lon="-0.09677">
        <ele>1493</ele>
        <time>2019-08-04T15:41:29.724Z</time>
      </trkpt>
      <trkpt lat="42.83575" lon="-0.09679">
        <ele>1492</ele>
        <time>2019-08-04T15:41:37.724Z</time>
      </trkpt>
      <trkpt lat="42.83584" lon="-0.09672">
        <ele>1492</ele>
        <time>2019-08-04T15:41:43.713Z</time>
      </trkpt>
      <trkpt lat="42.83593" lon="-0.09671">
        <ele>1492</ele>
        <time>2019-08-04T15:41:52.743Z</time>
      </trkpt>
      <trkpt lat="42.83603" lon="-0.09667">
        <ele>1492</ele>
        <time>2019-08-04T15:42:02.713Z</time>
      </trkpt>
      <trkpt lat="42.83613" lon="-0.09665">
        <ele>1491</ele>
        <time>2019-08-04T15:42:09.711Z</time>
      </trkpt>
      <trkpt lat="42.83623" lon="-0.09665">
        <ele>1491</ele>
        <time>2019-08-04T15:42:17.713Z</time>
      </trkpt>
      <trkpt lat="42.83632" lon="-0.09667">
        <ele>1490.1923895652</ele>
        <time>2019-08-04T15:42:24.713Z</time>
      </trkpt>
      <trkpt lat="42.83642" lon="-0.09673">
        <ele>1490</ele>
        <time>2019-08-04T15:42:35.713Z</time>
      </trkpt>
      <trkpt lat="42.83651" lon="-0.09674">
        <ele>1489.1795722308</ele>
        <time>2019-08-04T15:42:41.723Z</time>
      </trkpt>
      <trkpt lat="42.83662" lon="-0.09674">
        <ele>1489</ele>
        <time>2019-08-04T15:42:49.741Z</time>
      </trkpt>
      <trkpt lat="42.8367" lon="-0.09671">
        <ele>1488</ele>
        <time>2019-08-04T15:42:55.711Z</time>
      </trkpt>
      <trkpt lat="42.8368" lon="-0.09669">
        <ele>1489</ele>
        <time>2019-08-04T15:43:03.711Z</time>
      </trkpt>
      <trkpt lat="42.83688" lon="-0.09661">
        <ele>1488</ele>
        <time>2019-08-04T15:43:14.711Z</time>
      </trkpt>
      <trkpt lat="42.83696" lon="-0.09655">
        <ele>1486</ele>
        <time>2019-08-04T15:43:21.723Z</time>
      </trkpt>
      <trkpt lat="42.83705" lon="-0.09649">
        <ele>1486</ele>
        <time>2019-08-04T15:43:30.712Z</time>
      </trkpt>
      <trkpt lat="42.83713" lon="-0.09645">
        <ele>1487</ele>
        <time>2019-08-04T15:43:39.713Z</time>
      </trkpt>
      <trkpt lat="42.8372" lon="-0.09636">
        <ele>1487</ele>
        <time>2019-08-04T15:43:46.753Z</time>
      </trkpt>
      <trkpt lat="42.83729" lon="-0.09632">
        <ele>1486.2171374237</ele>
        <time>2019-08-04T15:43:53.712Z</time>
      </trkpt>
      <trkpt lat="42.83738" lon="-0.09633">
        <ele>1486</ele>
        <time>2019-08-04T15:43:58.713Z</time>
      </trkpt>
      <trkpt lat="42.83747" lon="-0.09628">
        <ele>1486</ele>
        <time>2019-08-04T15:44:05.743Z</time>
      </trkpt>
      <trkpt lat="42.83758" lon="-0.09626">
        <ele>1486</ele>
        <time>2019-08-04T15:44:12.713Z</time>
      </trkpt>
      <trkpt lat="42.83768" lon="-0.09626">
        <ele>1486</ele>
        <time>2019-08-04T15:44:19.711Z</time>
      </trkpt>
      <trkpt lat="42.83777" lon="-0.09624">
        <ele>1486</ele>
        <time>2019-08-04T15:44:27.713Z</time>
      </trkpt>
      <trkpt lat="42.83786" lon="-0.09618">
        <ele>1485</ele>
        <time>2019-08-04T15:44:38.724Z</time>
      </trkpt>
      <trkpt lat="42.83793" lon="-0.09609">
        <ele>1484</ele>
        <time>2019-08-04T15:44:44.724Z</time>
      </trkpt>
      <trkpt lat="42.83801" lon="-0.09601">
        <ele>1484</ele>
        <time>2019-08-04T15:44:51.724Z</time>
      </trkpt>
      <trkpt lat="42.83809" lon="-0.09597">
        <ele>1484</ele>
        <time>2019-08-04T15:44:59.724Z</time>
      </trkpt>
      <trkpt lat="42.83818" lon="-0.09591">
        <ele>1484</ele>
        <time>2019-08-04T15:45:08.724Z</time>
      </trkpt>
      <trkpt lat="42.83828" lon="-0.09591">
        <ele>1483</ele>
        <time>2019-08-04T15:45:15.724Z</time>
      </trkpt>
      <trkpt lat="42.83838" lon="-0.09592">
        <ele>1483</ele>
        <time>2019-08-04T15:45:22.724Z</time>
      </trkpt>
      <trkpt lat="42.83847" lon="-0.09594">
        <ele>1483</ele>
        <time>2019-08-04T15:45:29.724Z</time>
      </trkpt>
      <trkpt lat="42.83856" lon="-0.09597">
        <ele>1483</ele>
        <time>2019-08-04T15:45:35.711Z</time>
      </trkpt>
      <trkpt lat="42.83864" lon="-0.09604">
        <ele>1482</ele>
        <time>2019-08-04T15:45:44.711Z</time>
      </trkpt>
      <trkpt lat="42.83874" lon="-0.09606">
        <ele>1481</ele>
        <time>2019-08-04T15:45:52.710Z</time>
      </trkpt>
      <trkpt lat="42.83882" lon="-0.0961">
        <ele>1481</ele>
        <time>2019-08-04T15:46:01.710Z</time>
      </trkpt>
      <trkpt lat="42.83892" lon="-0.0961">
        <ele>1481</ele>
        <time>2019-08-04T15:46:09.710Z</time>
      </trkpt>
      <trkpt lat="42.83901" lon="-0.09614">
        <ele>1480</ele>
        <time>2019-08-04T15:46:17.710Z</time>
      </trkpt>
      <trkpt lat="42.8391" lon="-0.09615">
        <ele>1481</ele>
        <time>2019-08-04T15:46:24.713Z</time>
      </trkpt>
      <trkpt lat="42.8392" lon="-0.09616">
        <ele>1481</ele>
        <time>2019-08-04T15:46:31.713Z</time>
      </trkpt>
      <trkpt lat="42.83926" lon="-0.09626">
        <ele>1480</ele>
        <time>2019-08-04T15:46:38.693Z</time>
      </trkpt>
      <trkpt lat="42.83936" lon="-0.0963">
        <ele>1480</ele>
        <time>2019-08-04T15:46:51.713Z</time>
      </trkpt>
      <trkpt lat="42.83945" lon="-0.09629">
        <ele>1479</ele>
        <time>2019-08-04T15:47:00.710Z</time>
      </trkpt>
      <trkpt lat="42.83956" lon="-0.09629">
        <ele>1479</ele>
        <time>2019-08-04T15:47:07.713Z</time>
      </trkpt>
      <trkpt lat="42.83965" lon="-0.0963">
        <ele>1479</ele>
        <time>2019-08-04T15:47:14.710Z</time>
      </trkpt>
      <trkpt lat="42.83974" lon="-0.09635">
        <ele>1479</ele>
        <time>2019-08-04T15:47:23.725Z</time>
      </trkpt>
      <trkpt lat="42.83983" lon="-0.09638">
        <ele>1478</ele>
        <time>2019-08-04T15:47:32.712Z</time>
      </trkpt>
      <trkpt lat="42.8399" lon="-0.09645">
        <ele>1477</ele>
        <time>2019-08-04T15:47:44.713Z</time>
      </trkpt>
      <trkpt lat="42.83997" lon="-0.09653">
        <ele>1476.3043445999</ele>
        <time>2019-08-04T15:47:54.680Z</time>
      </trkpt>
      <trkpt lat="42.84004" lon="-0.09661">
        <ele>1476</ele>
        <time>2019-08-04T15:48:02.710Z</time>
      </trkpt>
      <trkpt lat="42.84014" lon="-0.09663">
        <ele>1476</ele>
        <time>2019-08-04T15:48:08.725Z</time>
      </trkpt>
      <trkpt lat="42.84023" lon="-0.0966">
        <ele>1476</ele>
        <time>2019-08-04T15:48:14.713Z</time>
      </trkpt>
      <trkpt lat="42.84032" lon="-0.09657">
        <ele>1475</ele>
        <time>2019-08-04T15:48:20.715Z</time>
      </trkpt>
      <trkpt lat="42.84042" lon="-0.09654">
        <ele>1475</ele>
        <time>2019-08-04T15:48:26.713Z</time>
      </trkpt>
      <trkpt lat="42.84051" lon="-0.09658">
        <ele>1475</ele>
        <time>2019-08-04T15:48:37.714Z</time>
      </trkpt>
      <trkpt lat="42.84058" lon="-0.09666">
        <ele>1475</ele>
        <time>2019-08-04T15:48:46.714Z</time>
      </trkpt>
      <trkpt lat="42.84067" lon="-0.09669">
        <ele>1475</ele>
        <time>2019-08-04T15:48:56.711Z</time>
      </trkpt>
      <trkpt lat="42.84077" lon="-0.09669">
        <ele>1475.8097835161</ele>
        <time>2019-08-04T15:49:05.725Z</time>
      </trkpt>
      <trkpt lat="42.84086" lon="-0.09676">
        <ele>1476</ele>
        <time>2019-08-04T15:49:14.724Z</time>
      </trkpt>
      <trkpt lat="42.84093" lon="-0.09684">
        <ele>1475</ele>
        <time>2019-08-04T15:49:25.725Z</time>
      </trkpt>
      <trkpt lat="42.84101" lon="-0.0969">
        <ele>1473.1766003513</ele>
        <time>2019-08-04T15:49:34.724Z</time>
      </trkpt>
      <trkpt lat="42.84106" lon="-0.09701">
        <ele>1471</ele>
        <time>2019-08-04T15:49:47.750Z</time>
      </trkpt>
      <trkpt lat="42.84117" lon="-0.09704">
        <ele>1469</ele>
        <time>2019-08-04T15:49:56.710Z</time>
      </trkpt>
      <trkpt lat="42.84119" lon="-0.09717">
        <ele>1468</ele>
        <time>2019-08-04T15:50:04.710Z</time>
      </trkpt>
      <trkpt lat="42.84129" lon="-0.09723">
        <ele>1466</ele>
        <time>2019-08-04T15:50:14.710Z</time>
      </trkpt>
      <trkpt lat="42.84137" lon="-0.09731">
        <ele>1466</ele>
        <time>2019-08-04T15:50:23.715Z</time>
      </trkpt>
      <trkpt lat="42.84145" lon="-0.09738">
        <ele>1465</ele>
        <time>2019-08-04T15:50:33.713Z</time>
      </trkpt>
      <trkpt lat="42.84154" lon="-0.09735">
        <ele>1465</ele>
        <time>2019-08-04T15:50:39.713Z</time>
      </trkpt>
      <trkpt lat="42.84163" lon="-0.09733">
        <ele>1462</ele>
        <time>2019-08-04T15:50:47.723Z</time>
      </trkpt>
      <trkpt lat="42.84172" lon="-0.09729">
        <ele>1462</ele>
        <time>2019-08-04T15:50:53.713Z</time>
      </trkpt>
      <trkpt lat="42.84181" lon="-0.09724">
        <ele>1462</ele>
        <time>2019-08-04T15:51:00.713Z</time>
      </trkpt>
      <trkpt lat="42.84187" lon="-0.09715">
        <ele>1461</ele>
        <time>2019-08-04T15:51:10.714Z</time>
      </trkpt>
      <trkpt lat="42.8419" lon="-0.09703">
        <ele>1460</ele>
        <time>2019-08-04T15:51:20.712Z</time>
      </trkpt>
      <trkpt lat="42.84191" lon="-0.0969">
        <ele>1458.2186104662</ele>
        <time>2019-08-04T15:51:31.712Z</time>
      </trkpt>
      <trkpt lat="42.84195" lon="-0.09678">
        <ele>1457.3593983081</ele>
        <time>2019-08-04T15:51:41.742Z</time>
      </trkpt>
      <trkpt lat="42.842" lon="-0.09667">
        <ele>1457</ele>
        <time>2019-08-04T15:51:49.713Z</time>
      </trkpt>
      <trkpt lat="42.84208" lon="-0.09657">
        <ele>1457</ele>
        <time>2019-08-04T15:51:56.714Z</time>
      </trkpt>
      <trkpt lat="42.84217" lon="-0.09651">
        <ele>1456</ele>
        <time>2019-08-04T15:52:06.713Z</time>
      </trkpt>
      <trkpt lat="42.84226" lon="-0.09656">
        <ele>1455</ele>
        <time>2019-08-04T15:52:17.724Z</time>
      </trkpt>
      <trkpt lat="42.84237" lon="-0.09655">
        <ele>1455</ele>
        <time>2019-08-04T15:52:23.714Z</time>
      </trkpt>
      <trkpt lat="42.84246" lon="-0.09656">
        <ele>1456</ele>
        <time>2019-08-04T15:52:36.715Z</time>
      </trkpt>
      <trkpt lat="42.84256" lon="-0.09656">
        <ele>1455</ele>
        <time>2019-08-04T15:52:46.710Z</time>
      </trkpt>
      <trkpt lat="42.84265" lon="-0.09656">
        <ele>1455</ele>
        <time>2019-08-04T15:52:57.755Z</time>
      </trkpt>
      <trkpt lat="42.84274" lon="-0.0966">
        <ele>1455</ele>
        <time>2019-08-04T15:53:06.715Z</time>
      </trkpt>
      <trkpt lat="42.84283" lon="-0.09659">
        <ele>1454</ele>
        <time>2019-08-04T15:53:14.713Z</time>
      </trkpt>
      <trkpt lat="42.8429" lon="-0.09668">
        <ele>1455.1816412627</ele>
        <time>2019-08-04T15:53:27.722Z</time>
      </trkpt>
      <trkpt lat="42.843" lon="-0.09667">
        <ele>1455</ele>
        <time>2019-08-04T15:53:35.740Z</time>
      </trkpt>
      <trkpt lat="42.84309" lon="-0.09666">
        <ele>1455</ele>
        <time>2019-08-04T15:53:43.710Z</time>
      </trkpt>
      <trkpt lat="42.8432" lon="-0.09662">
        <ele>1454</ele>
        <time>2019-08-04T15:53:50.712Z</time>
      </trkpt>
      <trkpt lat="42.84329" lon="-0.09662">
        <ele>1453</ele>
        <time>2019-08-04T15:53:58.714Z</time>
      </trkpt>
      <trkpt lat="42.84338" lon="-0.09666">
        <ele>1452</ele>
        <time>2019-08-04T15:54:05.720Z</time>
      </trkpt>
      <trkpt lat="42.84348" lon="-0.0967">
        <ele>1451</ele>
        <time>2019-08-04T15:54:09.724Z</time>
      </trkpt>
      <trkpt lat="42.84359" lon="-0.09667">
        <ele>1450.6985493266</ele>
        <time>2019-08-04T15:54:14.682Z</time>
      </trkpt>
      <trkpt lat="42.84369" lon="-0.09667">
        <ele>1451</ele>
        <time>2019-08-04T15:54:31.712Z</time>
      </trkpt>
      <trkpt lat="42.8438" lon="-0.09666">
        <ele>1450.1759977472</ele>
        <time>2019-08-04T15:54:37.724Z</time>
      </trkpt>
      <trkpt lat="42.84385" lon="-0.09678">
        <ele>1450</ele>
        <time>2019-08-04T15:54:42.724Z</time>
      </trkpt>
      <trkpt lat="42.8439" lon="-0.09669">
        <ele>1450</ele>
        <time>2019-08-04T15:54:45.724Z</time>
      </trkpt>
      <trkpt lat="42.844" lon="-0.09672">
        <ele>1449</ele>
        <time>2019-08-04T15:55:00.714Z</time>
      </trkpt>
      <trkpt lat="42.84409" lon="-0.09668">
        <ele>1447</ele>
        <time>2019-08-04T15:55:10.724Z</time>
      </trkpt>
      <trkpt lat="42.84418" lon="-0.09661">
        <ele>1446</ele>
        <time>2019-08-04T15:55:18.712Z</time>
      </trkpt>
      <trkpt lat="42.84427" lon="-0.09655">
        <ele>1445.185000768</ele>
        <time>2019-08-04T15:55:24.715Z</time>
      </trkpt>
      <trkpt lat="42.84438" lon="-0.09649">
        <ele>1444</ele>
        <time>2019-08-04T15:55:32.722Z</time>
      </trkpt>
      <trkpt lat="42.84446" lon="-0.09644">
        <ele>1444</ele>
        <time>2019-08-04T15:55:36.712Z</time>
      </trkpt>
      <trkpt lat="42.84456" lon="-0.09641">
        <ele>1441</ele>
        <time>2019-08-04T15:55:46.714Z</time>
      </trkpt>
      <trkpt lat="42.84466" lon="-0.09636">
        <ele>1438.1730025856</ele>
        <time>2019-08-04T15:55:57.727Z</time>
      </trkpt>
      <trkpt lat="42.84476" lon="-0.09633">
        <ele>1435.1947371258</ele>
        <time>2019-08-04T15:56:10.715Z</time>
      </trkpt>
      <trkpt lat="42.84485" lon="-0.09628">
        <ele>1435</ele>
        <time>2019-08-04T15:56:14.715Z</time>
      </trkpt>
      <trkpt lat="42.84494" lon="-0.09622">
        <ele>1433</ele>
        <time>2019-08-04T15:56:19.712Z</time>
      </trkpt>
      <trkpt lat="42.84506" lon="-0.09621">
        <ele>1430</ele>
        <time>2019-08-04T15:56:31.713Z</time>
      </trkpt>
      <trkpt lat="42.84516" lon="-0.0962">
        <ele>1427</ele>
        <time>2019-08-04T15:56:44.712Z</time>
      </trkpt>
      <trkpt lat="42.84525" lon="-0.09618">
        <ele>1425</ele>
        <time>2019-08-04T15:56:58.714Z</time>
      </trkpt>
      <trkpt lat="42.84535" lon="-0.09617">
        <ele>1424</ele>
        <time>2019-08-04T15:57:06.712Z</time>
      </trkpt>
      <trkpt lat="42.84545" lon="-0.09613">
        <ele>1423.1824731793</ele>
        <time>2019-08-04T15:57:12.723Z</time>
      </trkpt>
      <trkpt lat="42.84554" lon="-0.09616">
        <ele>1422.216288623</ele>
        <time>2019-08-04T15:57:19.714Z</time>
      </trkpt>
      <trkpt lat="42.84563" lon="-0.09618">
        <ele>1421</ele>
        <time>2019-08-04T15:57:29.715Z</time>
      </trkpt>
      <trkpt lat="42.84573" lon="-0.09619">
        <ele>1421</ele>
        <time>2019-08-04T15:57:36.714Z</time>
      </trkpt>
      <trkpt lat="42.84582" lon="-0.09619">
        <ele>1421</ele>
        <time>2019-08-04T15:57:42.752Z</time>
      </trkpt>
      <trkpt lat="42.8459" lon="-0.09625">
        <ele>1421</ele>
        <time>2019-08-04T15:57:50.724Z</time>
      </trkpt>
      <trkpt lat="42.84599" lon="-0.09622">
        <ele>1419</ele>
        <time>2019-08-04T15:57:57.722Z</time>
      </trkpt>
      <trkpt lat="42.84607" lon="-0.09617">
        <ele>1417.1777795017</ele>
        <time>2019-08-04T15:58:06.714Z</time>
      </trkpt>
      <trkpt lat="42.84616" lon="-0.09614">
        <ele>1417</ele>
        <time>2019-08-04T15:58:14.711Z</time>
      </trkpt>
      <trkpt lat="42.84625" lon="-0.09612">
        <ele>1416.4828299545</ele>
        <time>2019-08-04T15:58:20.712Z</time>
      </trkpt>
      <trkpt lat="42.84635" lon="-0.09615">
        <ele>1415</ele>
        <time>2019-08-04T15:58:32.722Z</time>
      </trkpt>
      <trkpt lat="42.84646" lon="-0.09617">
        <ele>1415</ele>
        <time>2019-08-04T15:58:42.722Z</time>
      </trkpt>
      <trkpt lat="42.84656" lon="-0.09618">
        <ele>1415</ele>
        <time>2019-08-04T15:58:49.724Z</time>
      </trkpt>
      <trkpt lat="42.84667" lon="-0.09617">
        <ele>1414</ele>
        <time>2019-08-04T15:58:58.740Z</time>
      </trkpt>
      <trkpt lat="42.84675" lon="-0.09624">
        <ele>1414</ele>
        <time>2019-08-04T15:59:09.715Z</time>
      </trkpt>
      <trkpt lat="42.84685" lon="-0.09626">
        <ele>1414</ele>
        <time>2019-08-04T15:59:19.714Z</time>
      </trkpt>
      <trkpt lat="42.84695" lon="-0.09627">
        <ele>1412</ele>
        <time>2019-08-04T15:59:33.712Z</time>
      </trkpt>
      <trkpt lat="42.84705" lon="-0.09625">
        <ele>1411.1879960063</ele>
        <time>2019-08-04T15:59:40.712Z</time>
      </trkpt>
      <trkpt lat="42.84714" lon="-0.09625">
        <ele>1411</ele>
        <time>2019-08-04T15:59:46.722Z</time>
      </trkpt>
      <trkpt lat="42.84726" lon="-0.09624">
        <ele>1410</ele>
        <time>2019-08-04T15:59:53.714Z</time>
      </trkpt>
      <trkpt lat="42.84735" lon="-0.09623">
        <ele>1409.1841661703</ele>
        <time>2019-08-04T15:59:59.714Z</time>
      </trkpt>
      <trkpt lat="42.84743" lon="-0.09631">
        <ele>1408</ele>
        <time>2019-08-04T16:00:09.714Z</time>
      </trkpt>
      <trkpt lat="42.84752" lon="-0.09638">
        <ele>1408</ele>
        <time>2019-08-04T16:00:19.724Z</time>
      </trkpt>
      <trkpt lat="42.84758" lon="-0.09648">
        <ele>1407</ele>
        <time>2019-08-04T16:00:26.726Z</time>
      </trkpt>
      <trkpt lat="42.84767" lon="-0.0965">
        <ele>1407</ele>
        <time>2019-08-04T16:00:32.711Z</time>
      </trkpt>
      <trkpt lat="42.84777" lon="-0.0965">
        <ele>1407</ele>
        <time>2019-08-04T16:00:37.714Z</time>
      </trkpt>
      <trkpt lat="42.84788" lon="-0.09651">
        <ele>1406.1989517509</ele>
        <time>2019-08-04T16:00:43.711Z</time>
      </trkpt>
      <trkpt lat="42.84796" lon="-0.09655">
        <ele>1406</ele>
        <time>2019-08-04T16:00:52.739Z</time>
      </trkpt>
      <trkpt lat="42.84805" lon="-0.09656">
        <ele>1405</ele>
        <time>2019-08-04T16:00:59.714Z</time>
      </trkpt>
      <trkpt lat="42.84815" lon="-0.09659">
        <ele>1405</ele>
        <time>2019-08-04T16:01:08.714Z</time>
      </trkpt>
      <trkpt lat="42.84824" lon="-0.09663">
        <ele>1403.819608975</ele>
        <time>2019-08-04T16:01:16.726Z</time>
      </trkpt>
      <trkpt lat="42.84833" lon="-0.09667">
        <ele>1402</ele>
        <time>2019-08-04T16:01:23.714Z</time>
      </trkpt>
      <trkpt lat="42.84843" lon="-0.09668">
        <ele>1402</ele>
        <time>2019-08-04T16:01:30.714Z</time>
      </trkpt>
      <trkpt lat="42.84852" lon="-0.09671">
        <ele>1401.1863563636</ele>
        <time>2019-08-04T16:01:36.726Z</time>
      </trkpt>
      <trkpt lat="42.84862" lon="-0.09673">
        <ele>1401</ele>
        <time>2019-08-04T16:01:43.711Z</time>
      </trkpt>
      <trkpt lat="42.84873" lon="-0.09672">
        <ele>1401</ele>
        <time>2019-08-04T16:01:48.711Z</time>
      </trkpt>
      <trkpt lat="42.84882" lon="-0.09677">
        <ele>1400</ele>
        <time>2019-08-04T16:01:57.714Z</time>
      </trkpt>
      <trkpt lat="42.84889" lon="-0.09686">
        <ele>1400</ele>
        <time>2019-08-04T16:02:06.721Z</time>
      </trkpt>
      <trkpt lat="42.84897" lon="-0.09696">
        <ele>1399</ele>
        <time>2019-08-04T16:02:14.711Z</time>
      </trkpt>
      <trkpt lat="42.84903" lon="-0.09704">
        <ele>1398</ele>
        <time>2019-08-04T16:02:22.724Z</time>
      </trkpt>
      <trkpt lat="42.84913" lon="-0.09707">
        <ele>1398</ele>
        <time>2019-08-04T16:02:28.684Z</time>
      </trkpt>
      <trkpt lat="42.8492" lon="-0.09716">
        <ele>1398</ele>
        <time>2019-08-04T16:02:36.724Z</time>
      </trkpt>
      <trkpt lat="42.84927" lon="-0.09723">
        <ele>1398</ele>
        <time>2019-08-04T16:02:43.711Z</time>
      </trkpt>
      <trkpt lat="42.84936" lon="-0.09729">
        <ele>1399</ele>
        <time>2019-08-04T16:02:50.724Z</time>
      </trkpt>
      <trkpt lat="42.84945" lon="-0.09732">
        <ele>1398.8022690909</ele>
        <time>2019-08-04T16:02:57.726Z</time>
      </trkpt>
      <trkpt lat="42.84952" lon="-0.09741">
        <ele>1398</ele>
        <time>2019-08-04T16:03:05.741Z</time>
      </trkpt>
      <trkpt lat="42.84961" lon="-0.09747">
        <ele>1399</ele>
        <time>2019-08-04T16:03:16.714Z</time>
      </trkpt>
      <trkpt lat="42.84974" lon="-0.09751">
        <ele>1397</ele>
        <time>2019-08-04T16:03:25.724Z</time>
      </trkpt>
      <trkpt lat="42.84977" lon="-0.09763">
        <ele>1398</ele>
        <time>2019-08-04T16:03:43.724Z</time>
      </trkpt>
      <trkpt lat="42.84987" lon="-0.09762">
        <ele>1396.1760022528</ele>
        <time>2019-08-04T16:03:52.724Z</time>
      </trkpt>
      <trkpt lat="42.84997" lon="-0.09766">
        <ele>1395</ele>
        <time>2019-08-04T16:03:59.724Z</time>
      </trkpt>
      <trkpt lat="42.85007" lon="-0.09767">
        <ele>1396</ele>
        <time>2019-08-04T16:04:07.714Z</time>
      </trkpt>
      <trkpt lat="42.85018" lon="-0.09769">
        <ele>1395</ele>
        <time>2019-08-04T16:04:16.712Z</time>
      </trkpt>
      <trkpt lat="42.85027" lon="-0.09774">
        <ele>1395</ele>
        <time>2019-08-04T16:04:24.714Z</time>
      </trkpt>
      <trkpt lat="42.85036" lon="-0.09775">
        <ele>1395</ele>
        <time>2019-08-04T16:04:31.712Z</time>
      </trkpt>
      <trkpt lat="42.85046" lon="-0.09776">
        <ele>1393</ele>
        <time>2019-08-04T16:04:39.712Z</time>
      </trkpt>
      <trkpt lat="42.85054" lon="-0.09784">
        <ele>1393</ele>
        <time>2019-08-04T16:04:47.714Z</time>
      </trkpt>
      <trkpt lat="42.85062" lon="-0.0979">
        <ele>1392.8147374662</ele>
        <time>2019-08-04T16:04:55.724Z</time>
      </trkpt>
      <trkpt lat="42.85073" lon="-0.09791">
        <ele>1392</ele>
        <time>2019-08-04T16:05:03.714Z</time>
      </trkpt>
      <trkpt lat="42.85082" lon="-0.0979">
        <ele>1391.1955569462</ele>
        <time>2019-08-04T16:05:10.724Z</time>
      </trkpt>
      <trkpt lat="42.85092" lon="-0.0979">
        <ele>1391</ele>
        <time>2019-08-04T16:05:17.714Z</time>
      </trkpt>
      <trkpt lat="42.85103" lon="-0.09788">
        <ele>1390</ele>
        <time>2019-08-04T16:05:24.714Z</time>
      </trkpt>
      <trkpt lat="42.85112" lon="-0.09787">
        <ele>1390</ele>
        <time>2019-08-04T16:05:31.714Z</time>
      </trkpt>
      <trkpt lat="42.85122" lon="-0.09788">
        <ele>1389</ele>
        <time>2019-08-04T16:05:41.724Z</time>
      </trkpt>
      <trkpt lat="42.85132" lon="-0.0979">
        <ele>1388</ele>
        <time>2019-08-04T16:05:49.744Z</time>
      </trkpt>
      <trkpt lat="42.85142" lon="-0.09789">
        <ele>1387.8139927809</ele>
        <time>2019-08-04T16:05:55.714Z</time>
      </trkpt>
      <trkpt lat="42.85151" lon="-0.0979">
        <ele>1387</ele>
        <time>2019-08-04T16:06:03.712Z</time>
      </trkpt>
      <trkpt lat="42.8516" lon="-0.09786">
        <ele>1387</ele>
        <time>2019-08-04T16:06:10.711Z</time>
      </trkpt>
      <trkpt lat="42.85169" lon="-0.09784">
        <ele>1386.2113745455</ele>
        <time>2019-08-04T16:06:19.714Z</time>
      </trkpt>
      <trkpt lat="42.85179" lon="-0.09785">
        <ele>1387</ele>
        <time>2019-08-04T16:06:28.712Z</time>
      </trkpt>
      <trkpt lat="42.85188" lon="-0.09782">
        <ele>1385</ele>
        <time>2019-08-04T16:06:39.714Z</time>
      </trkpt>
      <trkpt lat="42.85197" lon="-0.09783">
        <ele>1386</ele>
        <time>2019-08-04T16:06:58.711Z</time>
      </trkpt>
      <trkpt lat="42.85208" lon="-0.09786">
        <ele>1384</ele>
        <time>2019-08-04T16:07:06.713Z</time>
      </trkpt>
      <trkpt lat="42.85218" lon="-0.09789">
        <ele>1385</ele>
        <time>2019-08-04T16:07:14.712Z</time>
      </trkpt>
      <trkpt lat="42.85227" lon="-0.09789">
        <ele>1384</ele>
        <time>2019-08-04T16:07:21.714Z</time>
      </trkpt>
      <trkpt lat="42.85236" lon="-0.09793">
        <ele>1384</ele>
        <time>2019-08-04T16:07:30.712Z</time>
      </trkpt>
      <trkpt lat="42.85242" lon="-0.09802">
        <ele>1383</ele>
        <time>2019-08-04T16:07:38.714Z</time>
      </trkpt>
      <trkpt lat="42.85248" lon="-0.09813">
        <ele>1383.8139927809</ele>
        <time>2019-08-04T16:07:59.714Z</time>
      </trkpt>
      <trkpt lat="42.85257" lon="-0.0981">
        <ele>1384</ele>
        <time>2019-08-04T16:08:16.712Z</time>
      </trkpt>
      <trkpt lat="42.85263" lon="-0.09819">
        <ele>1384</ele>
        <time>2019-08-04T16:08:27.724Z</time>
      </trkpt>
      <trkpt lat="42.85268" lon="-0.0983">
        <ele>1382</ele>
        <time>2019-08-04T16:08:37.724Z</time>
      </trkpt>
      <trkpt lat="42.85276" lon="-0.09837">
        <ele>1381.1795906639</ele>
        <time>2019-08-04T16:09:17.724Z</time>
      </trkpt>
      <trkpt lat="42.85273" lon="-0.09849">
        <ele>1381</ele>
        <time>2019-08-04T16:10:05.714Z</time>
      </trkpt>
      <trkpt lat="42.85279" lon="-0.09838">
        <ele>1379</ele>
        <time>2019-08-04T16:11:28.725Z</time>
      </trkpt>
      <trkpt lat="42.85288" lon="-0.09835">
        <ele>1377</ele>
        <time>2019-08-04T16:15:58.714Z</time>
      </trkpt>
      <trkpt lat="42.85279" lon="-0.0984">
        <ele>1377</ele>
        <time>2019-08-04T16:16:09.724Z</time>
      </trkpt>
    </trkseg>
  </trk>
</gpx>